<?xml version="1.0" encoding="UTF-8" standalone="no" ?>
<gpx xmlns="http://www.topografix.com/GPX/1/1" xmlns:xsi="http://www.w3.org/2001/XMLSchema-instance" xsi:schemaLocation="http://www.topografix.com/GPX/1/1 http://www.topografix.com/GPX/1/1/gpx.xsd" version="1.1" creator="VisuGPX - https://www.visugpx.com">
  <metadata>
    <name>CAMINO PRIMITIVO &quot;CAMPIELLO - BERDUCEDO par les HOSPITALES</name>
    <desc><![CDATA[Cette étape peut etre coupée en 2 parties en passant par POLLA DE ALLANDE, mais si le temps le permet (absence de brume), le tracé par les cimes est d'une beauté inoubliable. Les 1000 m de dénivelé de la journée seront vite oubliés tant les paysages sont superbes. Et la journée économisée  sera surement appréciée par la suite à LUGO ou SANTIAGO.  ]]></desc>
  </metadata>
  <trk>
    <name><![CDATA[2016-07-09-01]]></name>
    <trkseg>
      <trkpt lat="43.33637" lon="-6.52559">
        <ele>642.9</ele>
        <time>2016-07-09T05:49:38Z</time>
      </trkpt>
      <trkpt lat="43.33637" lon="-6.52558">
        <ele>640.6</ele>
        <time>2016-07-09T05:49:39Z</time>
      </trkpt>
      <trkpt lat="43.33646" lon="-6.52563">
        <ele>633.7</ele>
        <time>2016-07-09T05:49:51Z</time>
      </trkpt>
      <trkpt lat="43.33653" lon="-6.52571">
        <ele>630.6</ele>
        <time>2016-07-09T05:50:00Z</time>
      </trkpt>
      <trkpt lat="43.3366" lon="-6.5258">
        <ele>628.3</ele>
        <time>2016-07-09T05:50:09Z</time>
      </trkpt>
      <trkpt lat="43.33665" lon="-6.52591">
        <ele>627</ele>
        <time>2016-07-09T05:50:17Z</time>
      </trkpt>
      <trkpt lat="43.3367" lon="-6.52601">
        <ele>624.9</ele>
        <time>2016-07-09T05:50:40Z</time>
      </trkpt>
      <trkpt lat="43.33674" lon="-6.52613">
        <ele>624.7</ele>
        <time>2016-07-09T05:50:58Z</time>
      </trkpt>
      <trkpt lat="43.33678" lon="-6.52625">
        <ele>624.8</ele>
        <time>2016-07-09T05:51:06Z</time>
      </trkpt>
      <trkpt lat="43.33685" lon="-6.52634">
        <ele>624.4</ele>
        <time>2016-07-09T05:51:13Z</time>
      </trkpt>
      <trkpt lat="43.33691" lon="-6.52644">
        <ele>624.1</ele>
        <time>2016-07-09T05:51:20Z</time>
      </trkpt>
      <trkpt lat="43.33696" lon="-6.52655">
        <ele>623.8</ele>
        <time>2016-07-09T05:51:26Z</time>
      </trkpt>
      <trkpt lat="43.33701" lon="-6.52667">
        <ele>623.5</ele>
        <time>2016-07-09T05:51:33Z</time>
      </trkpt>
      <trkpt lat="43.33706" lon="-6.52679">
        <ele>623.2</ele>
        <time>2016-07-09T05:51:40Z</time>
      </trkpt>
      <trkpt lat="43.33711" lon="-6.52689">
        <ele>623</ele>
        <time>2016-07-09T05:51:47Z</time>
      </trkpt>
      <trkpt lat="43.33716" lon="-6.52702">
        <ele>622.8</ele>
        <time>2016-07-09T05:51:54Z</time>
      </trkpt>
      <trkpt lat="43.33719" lon="-6.52714">
        <ele>622.4</ele>
        <time>2016-07-09T05:52:00Z</time>
      </trkpt>
      <trkpt lat="43.33724" lon="-6.52725">
        <ele>622</ele>
        <time>2016-07-09T05:52:07Z</time>
      </trkpt>
      <trkpt lat="43.33728" lon="-6.52739">
        <ele>621.8</ele>
        <time>2016-07-09T05:52:15Z</time>
      </trkpt>
      <trkpt lat="43.33732" lon="-6.52751">
        <ele>621.6</ele>
        <time>2016-07-09T05:52:22Z</time>
      </trkpt>
      <trkpt lat="43.33736" lon="-6.52763">
        <ele>621.1</ele>
        <time>2016-07-09T05:52:29Z</time>
      </trkpt>
      <trkpt lat="43.33741" lon="-6.52775">
        <ele>620.3</ele>
        <time>2016-07-09T05:52:36Z</time>
      </trkpt>
      <trkpt lat="43.33745" lon="-6.52786">
        <ele>619.8</ele>
        <time>2016-07-09T05:52:43Z</time>
      </trkpt>
      <trkpt lat="43.33749" lon="-6.52798">
        <ele>619.3</ele>
        <time>2016-07-09T05:52:50Z</time>
      </trkpt>
      <trkpt lat="43.33753" lon="-6.52811">
        <ele>618.5</ele>
        <time>2016-07-09T05:52:58Z</time>
      </trkpt>
      <trkpt lat="43.33756" lon="-6.52824">
        <ele>618.1</ele>
        <time>2016-07-09T05:53:05Z</time>
      </trkpt>
      <trkpt lat="43.33757" lon="-6.52837">
        <ele>617.9</ele>
        <time>2016-07-09T05:53:11Z</time>
      </trkpt>
      <trkpt lat="43.33759" lon="-6.5285">
        <ele>617.7</ele>
        <time>2016-07-09T05:53:18Z</time>
      </trkpt>
      <trkpt lat="43.33761" lon="-6.52863">
        <ele>617.5</ele>
        <time>2016-07-09T05:53:25Z</time>
      </trkpt>
      <trkpt lat="43.33763" lon="-6.52876">
        <ele>617.1</ele>
        <time>2016-07-09T05:53:32Z</time>
      </trkpt>
      <trkpt lat="43.33764" lon="-6.52889">
        <ele>616.6</ele>
        <time>2016-07-09T05:53:39Z</time>
      </trkpt>
      <trkpt lat="43.33765" lon="-6.52903">
        <ele>616.2</ele>
        <time>2016-07-09T05:53:46Z</time>
      </trkpt>
      <trkpt lat="43.33766" lon="-6.52916">
        <ele>615.8</ele>
        <time>2016-07-09T05:53:53Z</time>
      </trkpt>
      <trkpt lat="43.33767" lon="-6.52929">
        <ele>615.4</ele>
        <time>2016-07-09T05:54:00Z</time>
      </trkpt>
      <trkpt lat="43.33767" lon="-6.52942">
        <ele>614.8</ele>
        <time>2016-07-09T05:54:07Z</time>
      </trkpt>
      <trkpt lat="43.33767" lon="-6.52957">
        <ele>614.5</ele>
        <time>2016-07-09T05:54:14Z</time>
      </trkpt>
      <trkpt lat="43.33766" lon="-6.5297">
        <ele>614.2</ele>
        <time>2016-07-09T05:54:22Z</time>
      </trkpt>
      <trkpt lat="43.33767" lon="-6.52983">
        <ele>613.7</ele>
        <time>2016-07-09T05:54:30Z</time>
      </trkpt>
      <trkpt lat="43.33765" lon="-6.52996">
        <ele>613.1</ele>
        <time>2016-07-09T05:54:38Z</time>
      </trkpt>
      <trkpt lat="43.33764" lon="-6.53009">
        <ele>612.5</ele>
        <time>2016-07-09T05:54:45Z</time>
      </trkpt>
      <trkpt lat="43.33763" lon="-6.53023">
        <ele>612.2</ele>
        <time>2016-07-09T05:54:52Z</time>
      </trkpt>
      <trkpt lat="43.33762" lon="-6.53036">
        <ele>611.9</ele>
        <time>2016-07-09T05:54:59Z</time>
      </trkpt>
      <trkpt lat="43.33762" lon="-6.5305">
        <ele>611.5</ele>
        <time>2016-07-09T05:55:06Z</time>
      </trkpt>
      <trkpt lat="43.33763" lon="-6.53062">
        <ele>611.2</ele>
        <time>2016-07-09T05:55:13Z</time>
      </trkpt>
      <trkpt lat="43.33764" lon="-6.53075">
        <ele>610.6</ele>
        <time>2016-07-09T05:55:20Z</time>
      </trkpt>
      <trkpt lat="43.33766" lon="-6.53089">
        <ele>610.2</ele>
        <time>2016-07-09T05:55:27Z</time>
      </trkpt>
      <trkpt lat="43.33768" lon="-6.53102">
        <ele>610</ele>
        <time>2016-07-09T05:55:34Z</time>
      </trkpt>
      <trkpt lat="43.3377" lon="-6.53115">
        <ele>609.7</ele>
        <time>2016-07-09T05:55:42Z</time>
      </trkpt>
      <trkpt lat="43.33772" lon="-6.53128">
        <ele>609.3</ele>
        <time>2016-07-09T05:55:49Z</time>
      </trkpt>
      <trkpt lat="43.33773" lon="-6.53141">
        <ele>609</ele>
        <time>2016-07-09T05:55:55Z</time>
      </trkpt>
      <trkpt lat="43.33775" lon="-6.53154">
        <ele>608.3</ele>
        <time>2016-07-09T05:56:02Z</time>
      </trkpt>
      <trkpt lat="43.33777" lon="-6.53167">
        <ele>607.4</ele>
        <time>2016-07-09T05:56:10Z</time>
      </trkpt>
      <trkpt lat="43.33779" lon="-6.5318">
        <ele>606.8</ele>
        <time>2016-07-09T05:56:18Z</time>
      </trkpt>
      <trkpt lat="43.3378" lon="-6.53192">
        <ele>606.6</ele>
        <time>2016-07-09T05:56:25Z</time>
      </trkpt>
      <trkpt lat="43.3378" lon="-6.53205">
        <ele>606.4</ele>
        <time>2016-07-09T05:56:32Z</time>
      </trkpt>
      <trkpt lat="43.33779" lon="-6.53219">
        <ele>606.1</ele>
        <time>2016-07-09T05:56:40Z</time>
      </trkpt>
      <trkpt lat="43.33778" lon="-6.53232">
        <ele>606</ele>
        <time>2016-07-09T05:56:47Z</time>
      </trkpt>
      <trkpt lat="43.33775" lon="-6.53246">
        <ele>605.7</ele>
        <time>2016-07-09T05:56:54Z</time>
      </trkpt>
      <trkpt lat="43.33773" lon="-6.53259">
        <ele>604.8</ele>
        <time>2016-07-09T05:57:01Z</time>
      </trkpt>
      <trkpt lat="43.33771" lon="-6.53271">
        <ele>604.3</ele>
        <time>2016-07-09T05:57:07Z</time>
      </trkpt>
      <trkpt lat="43.3377" lon="-6.53285">
        <ele>603.8</ele>
        <time>2016-07-09T05:57:15Z</time>
      </trkpt>
      <trkpt lat="43.33767" lon="-6.53298">
        <ele>603.7</ele>
        <time>2016-07-09T05:57:22Z</time>
      </trkpt>
      <trkpt lat="43.33765" lon="-6.5331">
        <ele>603.4</ele>
        <time>2016-07-09T05:57:29Z</time>
      </trkpt>
      <trkpt lat="43.33762" lon="-6.53323">
        <ele>602.9</ele>
        <time>2016-07-09T05:57:37Z</time>
      </trkpt>
      <trkpt lat="43.3376" lon="-6.53336">
        <ele>602.5</ele>
        <time>2016-07-09T05:57:44Z</time>
      </trkpt>
      <trkpt lat="43.33758" lon="-6.5335">
        <ele>602.2</ele>
        <time>2016-07-09T05:57:52Z</time>
      </trkpt>
      <trkpt lat="43.33755" lon="-6.53363">
        <ele>601.7</ele>
        <time>2016-07-09T05:58:00Z</time>
      </trkpt>
      <trkpt lat="43.33752" lon="-6.53375">
        <ele>600.9</ele>
        <time>2016-07-09T05:58:07Z</time>
      </trkpt>
      <trkpt lat="43.33749" lon="-6.53388">
        <ele>600.6</ele>
        <time>2016-07-09T05:58:14Z</time>
      </trkpt>
      <trkpt lat="43.33747" lon="-6.534">
        <ele>600.5</ele>
        <time>2016-07-09T05:58:21Z</time>
      </trkpt>
      <trkpt lat="43.33744" lon="-6.53413">
        <ele>600.2</ele>
        <time>2016-07-09T05:58:28Z</time>
      </trkpt>
      <trkpt lat="43.33742" lon="-6.53425">
        <ele>599.8</ele>
        <time>2016-07-09T05:58:36Z</time>
      </trkpt>
      <trkpt lat="43.33739" lon="-6.53439">
        <ele>599.5</ele>
        <time>2016-07-09T05:58:45Z</time>
      </trkpt>
      <trkpt lat="43.33736" lon="-6.53451">
        <ele>599</ele>
        <time>2016-07-09T05:58:53Z</time>
      </trkpt>
      <trkpt lat="43.33733" lon="-6.53463">
        <ele>598.8</ele>
        <time>2016-07-09T05:59:00Z</time>
      </trkpt>
      <trkpt lat="43.3373" lon="-6.53475">
        <ele>598.5</ele>
        <time>2016-07-09T05:59:08Z</time>
      </trkpt>
      <trkpt lat="43.33728" lon="-6.53488">
        <ele>598.4</ele>
        <time>2016-07-09T05:59:16Z</time>
      </trkpt>
      <trkpt lat="43.33725" lon="-6.53501">
        <ele>598.3</ele>
        <time>2016-07-09T05:59:24Z</time>
      </trkpt>
      <trkpt lat="43.33724" lon="-6.53515">
        <ele>598.1</ele>
        <time>2016-07-09T05:59:33Z</time>
      </trkpt>
      <trkpt lat="43.33722" lon="-6.53527">
        <ele>598.1</ele>
        <time>2016-07-09T05:59:40Z</time>
      </trkpt>
      <trkpt lat="43.33718" lon="-6.53541">
        <ele>598</ele>
        <time>2016-07-09T05:59:47Z</time>
      </trkpt>
      <trkpt lat="43.33715" lon="-6.53554">
        <ele>598</ele>
        <time>2016-07-09T05:59:53Z</time>
      </trkpt>
      <trkpt lat="43.33713" lon="-6.53568">
        <ele>597.8</ele>
        <time>2016-07-09T06:00:00Z</time>
      </trkpt>
      <trkpt lat="43.3371" lon="-6.5358">
        <ele>597.7</ele>
        <time>2016-07-09T06:00:06Z</time>
      </trkpt>
      <trkpt lat="43.33707" lon="-6.53592">
        <ele>597.7</ele>
        <time>2016-07-09T06:00:12Z</time>
      </trkpt>
      <trkpt lat="43.33705" lon="-6.53606">
        <ele>597.6</ele>
        <time>2016-07-09T06:00:19Z</time>
      </trkpt>
      <trkpt lat="43.33703" lon="-6.53618">
        <ele>597.8</ele>
        <time>2016-07-09T06:00:26Z</time>
      </trkpt>
      <trkpt lat="43.33701" lon="-6.5363">
        <ele>598.1</ele>
        <time>2016-07-09T06:00:33Z</time>
      </trkpt>
      <trkpt lat="43.33699" lon="-6.53642">
        <ele>598.4</ele>
        <time>2016-07-09T06:00:40Z</time>
      </trkpt>
      <trkpt lat="43.33698" lon="-6.53656">
        <ele>598.7</ele>
        <time>2016-07-09T06:00:48Z</time>
      </trkpt>
      <trkpt lat="43.33696" lon="-6.53668">
        <ele>598.8</ele>
        <time>2016-07-09T06:00:56Z</time>
      </trkpt>
      <trkpt lat="43.33693" lon="-6.53682">
        <ele>599.6</ele>
        <time>2016-07-09T06:01:05Z</time>
      </trkpt>
      <trkpt lat="43.3369" lon="-6.53694">
        <ele>599.9</ele>
        <time>2016-07-09T06:01:12Z</time>
      </trkpt>
      <trkpt lat="43.33687" lon="-6.53705">
        <ele>600.2</ele>
        <time>2016-07-09T06:01:19Z</time>
      </trkpt>
      <trkpt lat="43.33683" lon="-6.53719">
        <ele>600.7</ele>
        <time>2016-07-09T06:01:27Z</time>
      </trkpt>
      <trkpt lat="43.3368" lon="-6.53731">
        <ele>601.4</ele>
        <time>2016-07-09T06:01:36Z</time>
      </trkpt>
      <trkpt lat="43.33677" lon="-6.53743">
        <ele>602</ele>
        <time>2016-07-09T06:01:45Z</time>
      </trkpt>
      <trkpt lat="43.33673" lon="-6.53755">
        <ele>602.5</ele>
        <time>2016-07-09T06:01:54Z</time>
      </trkpt>
      <trkpt lat="43.33669" lon="-6.53767">
        <ele>602.9</ele>
        <time>2016-07-09T06:02:02Z</time>
      </trkpt>
      <trkpt lat="43.33664" lon="-6.53778">
        <ele>603.1</ele>
        <time>2016-07-09T06:02:10Z</time>
      </trkpt>
      <trkpt lat="43.33658" lon="-6.53788">
        <ele>603</ele>
        <time>2016-07-09T06:02:20Z</time>
      </trkpt>
      <trkpt lat="43.33654" lon="-6.53798">
        <ele>603</ele>
        <time>2016-07-09T06:02:27Z</time>
      </trkpt>
      <trkpt lat="43.33649" lon="-6.53809">
        <ele>603.2</ele>
        <time>2016-07-09T06:02:34Z</time>
      </trkpt>
      <trkpt lat="43.33644" lon="-6.53821">
        <ele>603.6</ele>
        <time>2016-07-09T06:02:41Z</time>
      </trkpt>
      <trkpt lat="43.3364" lon="-6.53832">
        <ele>603.7</ele>
        <time>2016-07-09T06:02:48Z</time>
      </trkpt>
      <trkpt lat="43.33636" lon="-6.53845">
        <ele>603.4</ele>
        <time>2016-07-09T06:02:56Z</time>
      </trkpt>
      <trkpt lat="43.33631" lon="-6.53856">
        <ele>603.4</ele>
        <time>2016-07-09T06:03:04Z</time>
      </trkpt>
      <trkpt lat="43.33626" lon="-6.53868">
        <ele>603.4</ele>
        <time>2016-07-09T06:03:12Z</time>
      </trkpt>
      <trkpt lat="43.33621" lon="-6.5388">
        <ele>603.2</ele>
        <time>2016-07-09T06:03:21Z</time>
      </trkpt>
      <trkpt lat="43.33617" lon="-6.53892">
        <ele>603.2</ele>
        <time>2016-07-09T06:03:28Z</time>
      </trkpt>
      <trkpt lat="43.33614" lon="-6.53905">
        <ele>603.3</ele>
        <time>2016-07-09T06:03:35Z</time>
      </trkpt>
      <trkpt lat="43.33611" lon="-6.53918">
        <ele>603.3</ele>
        <time>2016-07-09T06:03:43Z</time>
      </trkpt>
      <trkpt lat="43.33607" lon="-6.53931">
        <ele>602.9</ele>
        <time>2016-07-09T06:03:52Z</time>
      </trkpt>
      <trkpt lat="43.33604" lon="-6.53944">
        <ele>603.3</ele>
        <time>2016-07-09T06:04:00Z</time>
      </trkpt>
      <trkpt lat="43.336" lon="-6.53957">
        <ele>603.4</ele>
        <time>2016-07-09T06:04:08Z</time>
      </trkpt>
      <trkpt lat="43.33597" lon="-6.53969">
        <ele>603.3</ele>
        <time>2016-07-09T06:04:17Z</time>
      </trkpt>
      <trkpt lat="43.33596" lon="-6.53982">
        <ele>603.3</ele>
        <time>2016-07-09T06:04:26Z</time>
      </trkpt>
      <trkpt lat="43.33592" lon="-6.53994">
        <ele>603.4</ele>
        <time>2016-07-09T06:04:35Z</time>
      </trkpt>
      <trkpt lat="43.33588" lon="-6.54006">
        <ele>603.6</ele>
        <time>2016-07-09T06:04:42Z</time>
      </trkpt>
      <trkpt lat="43.33585" lon="-6.54019">
        <ele>603.7</ele>
        <time>2016-07-09T06:04:49Z</time>
      </trkpt>
      <trkpt lat="43.33584" lon="-6.54033">
        <ele>603.6</ele>
        <time>2016-07-09T06:04:56Z</time>
      </trkpt>
      <trkpt lat="43.33582" lon="-6.54046">
        <ele>603.5</ele>
        <time>2016-07-09T06:05:03Z</time>
      </trkpt>
      <trkpt lat="43.3358" lon="-6.54058">
        <ele>603.7</ele>
        <time>2016-07-09T06:05:09Z</time>
      </trkpt>
      <trkpt lat="43.33578" lon="-6.54073">
        <ele>604.1</ele>
        <time>2016-07-09T06:05:16Z</time>
      </trkpt>
      <trkpt lat="43.33576" lon="-6.54085">
        <ele>604.6</ele>
        <time>2016-07-09T06:05:23Z</time>
      </trkpt>
      <trkpt lat="43.33573" lon="-6.54097">
        <ele>604.8</ele>
        <time>2016-07-09T06:05:30Z</time>
      </trkpt>
      <trkpt lat="43.3357" lon="-6.54109">
        <ele>605</ele>
        <time>2016-07-09T06:05:38Z</time>
      </trkpt>
      <trkpt lat="43.33567" lon="-6.54122">
        <ele>604.9</ele>
        <time>2016-07-09T06:05:47Z</time>
      </trkpt>
      <trkpt lat="43.33563" lon="-6.54134">
        <ele>604.7</ele>
        <time>2016-07-09T06:05:55Z</time>
      </trkpt>
      <trkpt lat="43.33559" lon="-6.54146">
        <ele>605.1</ele>
        <time>2016-07-09T06:06:02Z</time>
      </trkpt>
      <trkpt lat="43.33555" lon="-6.54158">
        <ele>605.3</ele>
        <time>2016-07-09T06:06:11Z</time>
      </trkpt>
      <trkpt lat="43.33551" lon="-6.54171">
        <ele>605.4</ele>
        <time>2016-07-09T06:06:19Z</time>
      </trkpt>
      <trkpt lat="43.33546" lon="-6.54184">
        <ele>605.4</ele>
        <time>2016-07-09T06:06:27Z</time>
      </trkpt>
      <trkpt lat="43.33542" lon="-6.54195">
        <ele>605.4</ele>
        <time>2016-07-09T06:06:35Z</time>
      </trkpt>
      <trkpt lat="43.33537" lon="-6.54206">
        <ele>605.6</ele>
        <time>2016-07-09T06:06:42Z</time>
      </trkpt>
      <trkpt lat="43.33533" lon="-6.54218">
        <ele>605.7</ele>
        <time>2016-07-09T06:06:50Z</time>
      </trkpt>
      <trkpt lat="43.3353" lon="-6.5423">
        <ele>605</ele>
        <time>2016-07-09T06:06:57Z</time>
      </trkpt>
      <trkpt lat="43.33526" lon="-6.54242">
        <ele>604.7</ele>
        <time>2016-07-09T06:07:05Z</time>
      </trkpt>
      <trkpt lat="43.33523" lon="-6.54254">
        <ele>604.2</ele>
        <time>2016-07-09T06:07:13Z</time>
      </trkpt>
      <trkpt lat="43.3352" lon="-6.54268">
        <ele>603.7</ele>
        <time>2016-07-09T06:07:21Z</time>
      </trkpt>
      <trkpt lat="43.33518" lon="-6.5428">
        <ele>603.2</ele>
        <time>2016-07-09T06:07:28Z</time>
      </trkpt>
      <trkpt lat="43.33515" lon="-6.54292">
        <ele>602.8</ele>
        <time>2016-07-09T06:07:35Z</time>
      </trkpt>
      <trkpt lat="43.33512" lon="-6.54305">
        <ele>602.1</ele>
        <time>2016-07-09T06:07:42Z</time>
      </trkpt>
      <trkpt lat="43.3351" lon="-6.54317">
        <ele>601.5</ele>
        <time>2016-07-09T06:07:49Z</time>
      </trkpt>
      <trkpt lat="43.3351" lon="-6.54331">
        <ele>600.6</ele>
        <time>2016-07-09T06:07:57Z</time>
      </trkpt>
      <trkpt lat="43.3351" lon="-6.54343">
        <ele>599.8</ele>
        <time>2016-07-09T06:08:04Z</time>
      </trkpt>
      <trkpt lat="43.33509" lon="-6.54357">
        <ele>598.9</ele>
        <time>2016-07-09T06:08:12Z</time>
      </trkpt>
      <trkpt lat="43.33512" lon="-6.54369">
        <ele>598.4</ele>
        <time>2016-07-09T06:08:19Z</time>
      </trkpt>
      <trkpt lat="43.33515" lon="-6.54381">
        <ele>598</ele>
        <time>2016-07-09T06:08:26Z</time>
      </trkpt>
      <trkpt lat="43.3352" lon="-6.54394">
        <ele>597.3</ele>
        <time>2016-07-09T06:08:34Z</time>
      </trkpt>
      <trkpt lat="43.3352" lon="-6.54407">
        <ele>596.7</ele>
        <time>2016-07-09T06:08:42Z</time>
      </trkpt>
      <trkpt lat="43.33517" lon="-6.5442">
        <ele>596.1</ele>
        <time>2016-07-09T06:08:49Z</time>
      </trkpt>
      <trkpt lat="43.33517" lon="-6.54433">
        <ele>595.6</ele>
        <time>2016-07-09T06:08:58Z</time>
      </trkpt>
      <trkpt lat="43.33512" lon="-6.54445">
        <ele>595.2</ele>
        <time>2016-07-09T06:09:08Z</time>
      </trkpt>
      <trkpt lat="43.33504" lon="-6.54452">
        <ele>595.1</ele>
        <time>2016-07-09T06:09:18Z</time>
      </trkpt>
      <trkpt lat="43.33496" lon="-6.54458">
        <ele>596</ele>
        <time>2016-07-09T06:09:27Z</time>
      </trkpt>
      <trkpt lat="43.33489" lon="-6.54467">
        <ele>597.1</ele>
        <time>2016-07-09T06:09:35Z</time>
      </trkpt>
      <trkpt lat="43.33481" lon="-6.54474">
        <ele>597.8</ele>
        <time>2016-07-09T06:09:44Z</time>
      </trkpt>
      <trkpt lat="43.33473" lon="-6.54481">
        <ele>598.4</ele>
        <time>2016-07-09T06:09:52Z</time>
      </trkpt>
      <trkpt lat="43.33467" lon="-6.5449">
        <ele>599.3</ele>
        <time>2016-07-09T06:10:01Z</time>
      </trkpt>
      <trkpt lat="43.33461" lon="-6.545">
        <ele>600.7</ele>
        <time>2016-07-09T06:10:09Z</time>
      </trkpt>
      <trkpt lat="43.33455" lon="-6.54509">
        <ele>601.9</ele>
        <time>2016-07-09T06:10:17Z</time>
      </trkpt>
      <trkpt lat="43.33449" lon="-6.54519">
        <ele>602.6</ele>
        <time>2016-07-09T06:10:25Z</time>
      </trkpt>
      <trkpt lat="43.33444" lon="-6.54531">
        <ele>603.1</ele>
        <time>2016-07-09T06:10:34Z</time>
      </trkpt>
      <trkpt lat="43.33442" lon="-6.54544">
        <ele>604</ele>
        <time>2016-07-09T06:10:44Z</time>
      </trkpt>
      <trkpt lat="43.33441" lon="-6.54558">
        <ele>605.3</ele>
        <time>2016-07-09T06:10:54Z</time>
      </trkpt>
      <trkpt lat="43.33441" lon="-6.54571">
        <ele>606.5</ele>
        <time>2016-07-09T06:11:04Z</time>
      </trkpt>
      <trkpt lat="43.3344" lon="-6.54584">
        <ele>607.1</ele>
        <time>2016-07-09T06:11:13Z</time>
      </trkpt>
      <trkpt lat="43.3344" lon="-6.54597">
        <ele>607.6</ele>
        <time>2016-07-09T06:11:22Z</time>
      </trkpt>
      <trkpt lat="43.3344" lon="-6.5461">
        <ele>607.9</ele>
        <time>2016-07-09T06:11:31Z</time>
      </trkpt>
      <trkpt lat="43.33437" lon="-6.54622">
        <ele>608</ele>
        <time>2016-07-09T06:11:39Z</time>
      </trkpt>
      <trkpt lat="43.33437" lon="-6.54635">
        <ele>608.1</ele>
        <time>2016-07-09T06:11:50Z</time>
      </trkpt>
      <trkpt lat="43.33436" lon="-6.54648">
        <ele>608.2</ele>
        <time>2016-07-09T06:12:01Z</time>
      </trkpt>
      <trkpt lat="43.33434" lon="-6.54661">
        <ele>608.2</ele>
        <time>2016-07-09T06:12:10Z</time>
      </trkpt>
      <trkpt lat="43.33432" lon="-6.54675">
        <ele>608.2</ele>
        <time>2016-07-09T06:12:18Z</time>
      </trkpt>
      <trkpt lat="43.33431" lon="-6.54688">
        <ele>608</ele>
        <time>2016-07-09T06:12:26Z</time>
      </trkpt>
      <trkpt lat="43.33434" lon="-6.547">
        <ele>607.8</ele>
        <time>2016-07-09T06:12:35Z</time>
      </trkpt>
      <trkpt lat="43.33438" lon="-6.54712">
        <ele>607.6</ele>
        <time>2016-07-09T06:12:44Z</time>
      </trkpt>
      <trkpt lat="43.33443" lon="-6.54724">
        <ele>607.2</ele>
        <time>2016-07-09T06:12:52Z</time>
      </trkpt>
      <trkpt lat="43.33448" lon="-6.54735">
        <ele>606.8</ele>
        <time>2016-07-09T06:12:59Z</time>
      </trkpt>
      <trkpt lat="43.33454" lon="-6.54745">
        <ele>606.5</ele>
        <time>2016-07-09T06:13:07Z</time>
      </trkpt>
      <trkpt lat="43.3346" lon="-6.54756">
        <ele>606.6</ele>
        <time>2016-07-09T06:13:16Z</time>
      </trkpt>
      <trkpt lat="43.33465" lon="-6.54767">
        <ele>606.7</ele>
        <time>2016-07-09T06:13:25Z</time>
      </trkpt>
      <trkpt lat="43.33469" lon="-6.5478">
        <ele>606.6</ele>
        <time>2016-07-09T06:13:34Z</time>
      </trkpt>
      <trkpt lat="43.33473" lon="-6.54792">
        <ele>606.2</ele>
        <time>2016-07-09T06:13:41Z</time>
      </trkpt>
      <trkpt lat="43.33478" lon="-6.54803">
        <ele>606.3</ele>
        <time>2016-07-09T06:13:49Z</time>
      </trkpt>
      <trkpt lat="43.33481" lon="-6.54815">
        <ele>606.5</ele>
        <time>2016-07-09T06:13:57Z</time>
      </trkpt>
      <trkpt lat="43.33485" lon="-6.54828">
        <ele>606.6</ele>
        <time>2016-07-09T06:14:05Z</time>
      </trkpt>
      <trkpt lat="43.3349" lon="-6.54839">
        <ele>606.6</ele>
        <time>2016-07-09T06:14:14Z</time>
      </trkpt>
      <trkpt lat="43.33493" lon="-6.54852">
        <ele>606.5</ele>
        <time>2016-07-09T06:14:22Z</time>
      </trkpt>
      <trkpt lat="43.33496" lon="-6.54864">
        <ele>606.3</ele>
        <time>2016-07-09T06:14:28Z</time>
      </trkpt>
      <trkpt lat="43.33499" lon="-6.54877">
        <ele>606.1</ele>
        <time>2016-07-09T06:14:37Z</time>
      </trkpt>
      <trkpt lat="43.33503" lon="-6.5489">
        <ele>606</ele>
        <time>2016-07-09T06:14:45Z</time>
      </trkpt>
      <trkpt lat="43.33507" lon="-6.54902">
        <ele>605.4</ele>
        <time>2016-07-09T06:14:53Z</time>
      </trkpt>
      <trkpt lat="43.33512" lon="-6.54913">
        <ele>604.7</ele>
        <time>2016-07-09T06:15:02Z</time>
      </trkpt>
      <trkpt lat="43.33515" lon="-6.54925">
        <ele>604.3</ele>
        <time>2016-07-09T06:15:12Z</time>
      </trkpt>
      <trkpt lat="43.33517" lon="-6.54937">
        <ele>604</ele>
        <time>2016-07-09T06:15:24Z</time>
      </trkpt>
      <trkpt lat="43.33519" lon="-6.5495">
        <ele>604.3</ele>
        <time>2016-07-09T06:15:33Z</time>
      </trkpt>
      <trkpt lat="43.33524" lon="-6.54961">
        <ele>604.5</ele>
        <time>2016-07-09T06:15:44Z</time>
      </trkpt>
      <trkpt lat="43.33529" lon="-6.54972">
        <ele>604.7</ele>
        <time>2016-07-09T06:15:52Z</time>
      </trkpt>
      <trkpt lat="43.33525" lon="-6.54984">
        <ele>605.2</ele>
        <time>2016-07-09T06:16:03Z</time>
      </trkpt>
      <trkpt lat="43.33518" lon="-6.54994">
        <ele>606</ele>
        <time>2016-07-09T06:16:13Z</time>
      </trkpt>
      <trkpt lat="43.33512" lon="-6.55003">
        <ele>606</ele>
        <time>2016-07-09T06:16:22Z</time>
      </trkpt>
      <trkpt lat="43.33506" lon="-6.55013">
        <ele>605.6</ele>
        <time>2016-07-09T06:16:33Z</time>
      </trkpt>
      <trkpt lat="43.33499" lon="-6.55021">
        <ele>605.1</ele>
        <time>2016-07-09T06:16:41Z</time>
      </trkpt>
      <trkpt lat="43.33493" lon="-6.55033">
        <ele>604.7</ele>
        <time>2016-07-09T06:16:49Z</time>
      </trkpt>
      <trkpt lat="43.33489" lon="-6.55044">
        <ele>604.6</ele>
        <time>2016-07-09T06:16:57Z</time>
      </trkpt>
      <trkpt lat="43.33483" lon="-6.55056">
        <ele>604.3</ele>
        <time>2016-07-09T06:17:05Z</time>
      </trkpt>
      <trkpt lat="43.33478" lon="-6.55069">
        <ele>603.9</ele>
        <time>2016-07-09T06:17:14Z</time>
      </trkpt>
      <trkpt lat="43.33474" lon="-6.5508">
        <ele>604</ele>
        <time>2016-07-09T06:17:21Z</time>
      </trkpt>
      <trkpt lat="43.33471" lon="-6.55092">
        <ele>603.9</ele>
        <time>2016-07-09T06:17:29Z</time>
      </trkpt>
      <trkpt lat="43.33468" lon="-6.55103">
        <ele>603.7</ele>
        <time>2016-07-09T06:17:38Z</time>
      </trkpt>
      <trkpt lat="43.33464" lon="-6.55116">
        <ele>603.9</ele>
        <time>2016-07-09T06:17:48Z</time>
      </trkpt>
      <trkpt lat="43.33464" lon="-6.55129">
        <ele>603.9</ele>
        <time>2016-07-09T06:17:58Z</time>
      </trkpt>
      <trkpt lat="43.33465" lon="-6.55141">
        <ele>603.6</ele>
        <time>2016-07-09T06:18:11Z</time>
      </trkpt>
      <trkpt lat="43.33465" lon="-6.55154">
        <ele>603.7</ele>
        <time>2016-07-09T06:18:19Z</time>
      </trkpt>
      <trkpt lat="43.33466" lon="-6.55167">
        <ele>603.9</ele>
        <time>2016-07-09T06:18:27Z</time>
      </trkpt>
      <trkpt lat="43.33467" lon="-6.5518">
        <ele>604.1</ele>
        <time>2016-07-09T06:18:34Z</time>
      </trkpt>
      <trkpt lat="43.33468" lon="-6.55193">
        <ele>604.2</ele>
        <time>2016-07-09T06:18:41Z</time>
      </trkpt>
      <trkpt lat="43.33467" lon="-6.55205">
        <ele>604.3</ele>
        <time>2016-07-09T06:18:48Z</time>
      </trkpt>
      <trkpt lat="43.33468" lon="-6.55219">
        <ele>604.6</ele>
        <time>2016-07-09T06:18:55Z</time>
      </trkpt>
      <trkpt lat="43.3347" lon="-6.55232">
        <ele>604.9</ele>
        <time>2016-07-09T06:19:03Z</time>
      </trkpt>
      <trkpt lat="43.33473" lon="-6.55244">
        <ele>605.1</ele>
        <time>2016-07-09T06:19:12Z</time>
      </trkpt>
      <trkpt lat="43.33477" lon="-6.55256">
        <ele>605.5</ele>
        <time>2016-07-09T06:19:22Z</time>
      </trkpt>
      <trkpt lat="43.3348" lon="-6.55268">
        <ele>606.4</ele>
        <time>2016-07-09T06:19:33Z</time>
      </trkpt>
      <trkpt lat="43.33484" lon="-6.5528">
        <ele>606.4</ele>
        <time>2016-07-09T06:19:43Z</time>
      </trkpt>
      <trkpt lat="43.33486" lon="-6.55293">
        <ele>606.4</ele>
        <time>2016-07-09T06:19:51Z</time>
      </trkpt>
      <trkpt lat="43.33488" lon="-6.55306">
        <ele>606.7</ele>
        <time>2016-07-09T06:19:59Z</time>
      </trkpt>
      <trkpt lat="43.3349" lon="-6.55318">
        <ele>607.1</ele>
        <time>2016-07-09T06:20:06Z</time>
      </trkpt>
      <trkpt lat="43.33494" lon="-6.5533">
        <ele>607.3</ele>
        <time>2016-07-09T06:20:14Z</time>
      </trkpt>
      <trkpt lat="43.33498" lon="-6.55342">
        <ele>607.4</ele>
        <time>2016-07-09T06:20:22Z</time>
      </trkpt>
      <trkpt lat="43.33503" lon="-6.55353">
        <ele>607.5</ele>
        <time>2016-07-09T06:20:30Z</time>
      </trkpt>
      <trkpt lat="43.33507" lon="-6.55366">
        <ele>607.4</ele>
        <time>2016-07-09T06:20:38Z</time>
      </trkpt>
      <trkpt lat="43.33512" lon="-6.55377">
        <ele>607.4</ele>
        <time>2016-07-09T06:20:46Z</time>
      </trkpt>
      <trkpt lat="43.33516" lon="-6.55389">
        <ele>607.7</ele>
        <time>2016-07-09T06:20:54Z</time>
      </trkpt>
      <trkpt lat="43.33522" lon="-6.554">
        <ele>608.1</ele>
        <time>2016-07-09T06:21:01Z</time>
      </trkpt>
      <trkpt lat="43.33525" lon="-6.55411">
        <ele>608.2</ele>
        <time>2016-07-09T06:21:08Z</time>
      </trkpt>
      <trkpt lat="43.33529" lon="-6.55422">
        <ele>608.3</ele>
        <time>2016-07-09T06:21:17Z</time>
      </trkpt>
      <trkpt lat="43.33534" lon="-6.55434">
        <ele>607.8</ele>
        <time>2016-07-09T06:21:27Z</time>
      </trkpt>
      <trkpt lat="43.33538" lon="-6.55446">
        <ele>607.5</ele>
        <time>2016-07-09T06:21:35Z</time>
      </trkpt>
      <trkpt lat="43.3354" lon="-6.55459">
        <ele>607</ele>
        <time>2016-07-09T06:21:42Z</time>
      </trkpt>
      <trkpt lat="43.33545" lon="-6.55471">
        <ele>606.3</ele>
        <time>2016-07-09T06:21:49Z</time>
      </trkpt>
      <trkpt lat="43.3355" lon="-6.55482">
        <ele>605.9</ele>
        <time>2016-07-09T06:21:56Z</time>
      </trkpt>
      <trkpt lat="43.33556" lon="-6.55492">
        <ele>605.9</ele>
        <time>2016-07-09T06:22:04Z</time>
      </trkpt>
      <trkpt lat="43.33563" lon="-6.55502">
        <ele>605.6</ele>
        <time>2016-07-09T06:22:12Z</time>
      </trkpt>
      <trkpt lat="43.33572" lon="-6.55508">
        <ele>605.3</ele>
        <time>2016-07-09T06:22:21Z</time>
      </trkpt>
      <trkpt lat="43.33579" lon="-6.55515">
        <ele>605.1</ele>
        <time>2016-07-09T06:22:28Z</time>
      </trkpt>
      <trkpt lat="43.33586" lon="-6.55525">
        <ele>605</ele>
        <time>2016-07-09T06:22:36Z</time>
      </trkpt>
      <trkpt lat="43.3359" lon="-6.55538">
        <ele>605.1</ele>
        <time>2016-07-09T06:22:44Z</time>
      </trkpt>
      <trkpt lat="43.33593" lon="-6.55551">
        <ele>605.1</ele>
        <time>2016-07-09T06:22:52Z</time>
      </trkpt>
      <trkpt lat="43.33592" lon="-6.55563">
        <ele>604.9</ele>
        <time>2016-07-09T06:23:00Z</time>
      </trkpt>
      <trkpt lat="43.33585" lon="-6.55571">
        <ele>604.6</ele>
        <time>2016-07-09T06:23:08Z</time>
      </trkpt>
      <trkpt lat="43.33577" lon="-6.55575">
        <ele>604.7</ele>
        <time>2016-07-09T06:23:17Z</time>
      </trkpt>
      <trkpt lat="43.33567" lon="-6.55577">
        <ele>604.8</ele>
        <time>2016-07-09T06:23:27Z</time>
      </trkpt>
      <trkpt lat="43.33558" lon="-6.55575">
        <ele>605.3</ele>
        <time>2016-07-09T06:23:36Z</time>
      </trkpt>
      <trkpt lat="43.33548" lon="-6.55575">
        <ele>605.5</ele>
        <time>2016-07-09T06:23:45Z</time>
      </trkpt>
      <trkpt lat="43.3354" lon="-6.55581">
        <ele>605.6</ele>
        <time>2016-07-09T06:23:57Z</time>
      </trkpt>
      <trkpt lat="43.33531" lon="-6.55587">
        <ele>606</ele>
        <time>2016-07-09T06:24:06Z</time>
      </trkpt>
      <trkpt lat="43.33524" lon="-6.55596">
        <ele>606.7</ele>
        <time>2016-07-09T06:24:15Z</time>
      </trkpt>
      <trkpt lat="43.3352" lon="-6.55607">
        <ele>607.8</ele>
        <time>2016-07-09T06:24:25Z</time>
      </trkpt>
      <trkpt lat="43.33519" lon="-6.5562">
        <ele>609</ele>
        <time>2016-07-09T06:24:36Z</time>
      </trkpt>
      <trkpt lat="43.33518" lon="-6.55632">
        <ele>610.8</ele>
        <time>2016-07-09T06:24:50Z</time>
      </trkpt>
      <trkpt lat="43.33517" lon="-6.55646">
        <ele>612.2</ele>
        <time>2016-07-09T06:25:00Z</time>
      </trkpt>
      <trkpt lat="43.33516" lon="-6.55659">
        <ele>613.7</ele>
        <time>2016-07-09T06:25:10Z</time>
      </trkpt>
      <trkpt lat="43.33516" lon="-6.55673">
        <ele>615.4</ele>
        <time>2016-07-09T06:25:20Z</time>
      </trkpt>
      <trkpt lat="43.33517" lon="-6.55685">
        <ele>617.4</ele>
        <time>2016-07-09T06:25:31Z</time>
      </trkpt>
      <trkpt lat="43.33517" lon="-6.55698">
        <ele>619.3</ele>
        <time>2016-07-09T06:25:49Z</time>
      </trkpt>
      <trkpt lat="43.3352" lon="-6.55711">
        <ele>619.7</ele>
        <time>2016-07-09T06:26:02Z</time>
      </trkpt>
      <trkpt lat="43.3352" lon="-6.55723">
        <ele>620.8</ele>
        <time>2016-07-09T06:26:13Z</time>
      </trkpt>
      <trkpt lat="43.33519" lon="-6.55736">
        <ele>622.3</ele>
        <time>2016-07-09T06:26:29Z</time>
      </trkpt>
      <trkpt lat="43.33519" lon="-6.55749">
        <ele>623</ele>
        <time>2016-07-09T06:26:40Z</time>
      </trkpt>
      <trkpt lat="43.33518" lon="-6.55761">
        <ele>623.6</ele>
        <time>2016-07-09T06:26:52Z</time>
      </trkpt>
      <trkpt lat="43.33514" lon="-6.55773">
        <ele>624.2</ele>
        <time>2016-07-09T06:27:05Z</time>
      </trkpt>
      <trkpt lat="43.33514" lon="-6.55785">
        <ele>625.2</ele>
        <time>2016-07-09T06:27:25Z</time>
      </trkpt>
      <trkpt lat="43.33512" lon="-6.55799">
        <ele>625.7</ele>
        <time>2016-07-09T06:27:39Z</time>
      </trkpt>
      <trkpt lat="43.33507" lon="-6.5581">
        <ele>626.4</ele>
        <time>2016-07-09T06:27:50Z</time>
      </trkpt>
      <trkpt lat="43.33503" lon="-6.55823">
        <ele>626.9</ele>
        <time>2016-07-09T06:27:58Z</time>
      </trkpt>
      <trkpt lat="43.33501" lon="-6.55835">
        <ele>627.2</ele>
        <time>2016-07-09T06:28:07Z</time>
      </trkpt>
      <trkpt lat="43.335" lon="-6.55848">
        <ele>628.2</ele>
        <time>2016-07-09T06:28:15Z</time>
      </trkpt>
      <trkpt lat="43.33501" lon="-6.55861">
        <ele>629</ele>
        <time>2016-07-09T06:28:24Z</time>
      </trkpt>
      <trkpt lat="43.33509" lon="-6.55866">
        <ele>630.8</ele>
        <time>2016-07-09T06:28:46Z</time>
      </trkpt>
      <trkpt lat="43.33518" lon="-6.5586">
        <ele>632</ele>
        <time>2016-07-09T06:28:58Z</time>
      </trkpt>
      <trkpt lat="43.33527" lon="-6.55856">
        <ele>633.2</ele>
        <time>2016-07-09T06:29:07Z</time>
      </trkpt>
      <trkpt lat="43.33535" lon="-6.5585">
        <ele>634.4</ele>
        <time>2016-07-09T06:29:17Z</time>
      </trkpt>
      <trkpt lat="43.33542" lon="-6.55842">
        <ele>635.8</ele>
        <time>2016-07-09T06:29:26Z</time>
      </trkpt>
      <trkpt lat="43.33551" lon="-6.55837">
        <ele>636.7</ele>
        <time>2016-07-09T06:29:34Z</time>
      </trkpt>
      <trkpt lat="43.3356" lon="-6.55831">
        <ele>637.3</ele>
        <time>2016-07-09T06:29:42Z</time>
      </trkpt>
      <trkpt lat="43.33569" lon="-6.55828">
        <ele>637.7</ele>
        <time>2016-07-09T06:29:52Z</time>
      </trkpt>
      <trkpt lat="43.33579" lon="-6.55828">
        <ele>638.9</ele>
        <time>2016-07-09T06:30:03Z</time>
      </trkpt>
      <trkpt lat="43.33588" lon="-6.55832">
        <ele>640.7</ele>
        <time>2016-07-09T06:30:16Z</time>
      </trkpt>
      <trkpt lat="43.33595" lon="-6.55841">
        <ele>642.2</ele>
        <time>2016-07-09T06:30:27Z</time>
      </trkpt>
      <trkpt lat="43.33602" lon="-6.55851">
        <ele>643.7</ele>
        <time>2016-07-09T06:30:40Z</time>
      </trkpt>
      <trkpt lat="43.33604" lon="-6.55863">
        <ele>645.5</ele>
        <time>2016-07-09T06:30:51Z</time>
      </trkpt>
      <trkpt lat="43.33604" lon="-6.55876">
        <ele>648.2</ele>
        <time>2016-07-09T06:31:16Z</time>
      </trkpt>
      <trkpt lat="43.33603" lon="-6.55889">
        <ele>649.7</ele>
        <time>2016-07-09T06:31:45Z</time>
      </trkpt>
      <trkpt lat="43.33603" lon="-6.55901">
        <ele>650.4</ele>
        <time>2016-07-09T06:31:54Z</time>
      </trkpt>
      <trkpt lat="43.33601" lon="-6.55914">
        <ele>651.2</ele>
        <time>2016-07-09T06:32:04Z</time>
      </trkpt>
      <trkpt lat="43.33601" lon="-6.55928">
        <ele>652.9</ele>
        <time>2016-07-09T06:32:16Z</time>
      </trkpt>
      <trkpt lat="43.33597" lon="-6.55939">
        <ele>654.2</ele>
        <time>2016-07-09T06:32:29Z</time>
      </trkpt>
      <trkpt lat="43.33593" lon="-6.55951">
        <ele>655.9</ele>
        <time>2016-07-09T06:32:42Z</time>
      </trkpt>
      <trkpt lat="43.33586" lon="-6.5596">
        <ele>657.2</ele>
        <time>2016-07-09T06:32:52Z</time>
      </trkpt>
      <trkpt lat="43.33581" lon="-6.55971">
        <ele>658.6</ele>
        <time>2016-07-09T06:33:01Z</time>
      </trkpt>
      <trkpt lat="43.33575" lon="-6.55981">
        <ele>660.2</ele>
        <time>2016-07-09T06:33:11Z</time>
      </trkpt>
      <trkpt lat="43.33571" lon="-6.55991">
        <ele>661.2</ele>
        <time>2016-07-09T06:33:20Z</time>
      </trkpt>
      <trkpt lat="43.33564" lon="-6.56002">
        <ele>662.4</ele>
        <time>2016-07-09T06:33:32Z</time>
      </trkpt>
      <trkpt lat="43.33558" lon="-6.56012">
        <ele>663.6</ele>
        <time>2016-07-09T06:33:43Z</time>
      </trkpt>
      <trkpt lat="43.33553" lon="-6.56024">
        <ele>664.6</ele>
        <time>2016-07-09T06:33:52Z</time>
      </trkpt>
      <trkpt lat="43.33549" lon="-6.56035">
        <ele>665.4</ele>
        <time>2016-07-09T06:34:01Z</time>
      </trkpt>
      <trkpt lat="43.33546" lon="-6.56048">
        <ele>666.5</ele>
        <time>2016-07-09T06:34:12Z</time>
      </trkpt>
      <trkpt lat="43.33545" lon="-6.56061">
        <ele>668.6</ele>
        <time>2016-07-09T06:34:22Z</time>
      </trkpt>
      <trkpt lat="43.33543" lon="-6.56073">
        <ele>671.2</ele>
        <time>2016-07-09T06:34:49Z</time>
      </trkpt>
      <trkpt lat="43.33543" lon="-6.56086">
        <ele>672.4</ele>
        <time>2016-07-09T06:35:03Z</time>
      </trkpt>
      <trkpt lat="43.33539" lon="-6.56097">
        <ele>674</ele>
        <time>2016-07-09T06:35:16Z</time>
      </trkpt>
      <trkpt lat="43.33538" lon="-6.5611">
        <ele>675.4</ele>
        <time>2016-07-09T06:35:28Z</time>
      </trkpt>
      <trkpt lat="43.33534" lon="-6.56121">
        <ele>676.7</ele>
        <time>2016-07-09T06:35:38Z</time>
      </trkpt>
      <trkpt lat="43.33531" lon="-6.56134">
        <ele>678.4</ele>
        <time>2016-07-09T06:35:48Z</time>
      </trkpt>
      <trkpt lat="43.33527" lon="-6.56145">
        <ele>680</ele>
        <time>2016-07-09T06:35:58Z</time>
      </trkpt>
      <trkpt lat="43.33524" lon="-6.56157">
        <ele>683.8</ele>
        <time>2016-07-09T06:36:39Z</time>
      </trkpt>
      <trkpt lat="43.33521" lon="-6.56169">
        <ele>684.4</ele>
        <time>2016-07-09T06:37:07Z</time>
      </trkpt>
      <trkpt lat="43.33517" lon="-6.5618">
        <ele>685.7</ele>
        <time>2016-07-09T06:37:20Z</time>
      </trkpt>
      <trkpt lat="43.33513" lon="-6.56192">
        <ele>687.6</ele>
        <time>2016-07-09T06:37:34Z</time>
      </trkpt>
      <trkpt lat="43.33509" lon="-6.56203">
        <ele>689.4</ele>
        <time>2016-07-09T06:37:46Z</time>
      </trkpt>
      <trkpt lat="43.33503" lon="-6.56214">
        <ele>690.6</ele>
        <time>2016-07-09T06:37:55Z</time>
      </trkpt>
      <trkpt lat="43.33497" lon="-6.56223">
        <ele>692.1</ele>
        <time>2016-07-09T06:38:04Z</time>
      </trkpt>
      <trkpt lat="43.33492" lon="-6.56234">
        <ele>693.3</ele>
        <time>2016-07-09T06:38:12Z</time>
      </trkpt>
      <trkpt lat="43.33488" lon="-6.56246">
        <ele>694.2</ele>
        <time>2016-07-09T06:38:22Z</time>
      </trkpt>
      <trkpt lat="43.33482" lon="-6.56257">
        <ele>695.2</ele>
        <time>2016-07-09T06:38:32Z</time>
      </trkpt>
      <trkpt lat="43.33477" lon="-6.56267">
        <ele>696</ele>
        <time>2016-07-09T06:38:42Z</time>
      </trkpt>
      <trkpt lat="43.33474" lon="-6.56279">
        <ele>696.2</ele>
        <time>2016-07-09T06:38:52Z</time>
      </trkpt>
      <trkpt lat="43.33474" lon="-6.56292">
        <ele>698.5</ele>
        <time>2016-07-09T06:39:12Z</time>
      </trkpt>
      <trkpt lat="43.33471" lon="-6.56304">
        <ele>700.3</ele>
        <time>2016-07-09T06:39:31Z</time>
      </trkpt>
      <trkpt lat="43.33464" lon="-6.56312">
        <ele>703.2</ele>
        <time>2016-07-09T06:42:02Z</time>
      </trkpt>
      <trkpt lat="43.33454" lon="-6.56318">
        <ele>703.2</ele>
        <time>2016-07-09T06:42:13Z</time>
      </trkpt>
      <trkpt lat="43.33447" lon="-6.56325">
        <ele>703.6</ele>
        <time>2016-07-09T06:42:21Z</time>
      </trkpt>
      <trkpt lat="43.33439" lon="-6.56331">
        <ele>703.8</ele>
        <time>2016-07-09T06:42:28Z</time>
      </trkpt>
      <trkpt lat="43.33429" lon="-6.56336">
        <ele>704</ele>
        <time>2016-07-09T06:42:35Z</time>
      </trkpt>
      <trkpt lat="43.33421" lon="-6.56342">
        <ele>704.2</ele>
        <time>2016-07-09T06:42:43Z</time>
      </trkpt>
      <trkpt lat="43.33412" lon="-6.56348">
        <ele>704.3</ele>
        <time>2016-07-09T06:42:51Z</time>
      </trkpt>
      <trkpt lat="43.33403" lon="-6.56355">
        <ele>704.4</ele>
        <time>2016-07-09T06:42:59Z</time>
      </trkpt>
      <trkpt lat="43.33395" lon="-6.56362">
        <ele>705.1</ele>
        <time>2016-07-09T06:43:07Z</time>
      </trkpt>
      <trkpt lat="43.33388" lon="-6.56369">
        <ele>705.6</ele>
        <time>2016-07-09T06:43:15Z</time>
      </trkpt>
      <trkpt lat="43.33381" lon="-6.56377">
        <ele>705.5</ele>
        <time>2016-07-09T06:43:24Z</time>
      </trkpt>
      <trkpt lat="43.33373" lon="-6.56383">
        <ele>705.4</ele>
        <time>2016-07-09T06:43:32Z</time>
      </trkpt>
      <trkpt lat="43.33363" lon="-6.56389">
        <ele>705.5</ele>
        <time>2016-07-09T06:43:41Z</time>
      </trkpt>
      <trkpt lat="43.33356" lon="-6.56397">
        <ele>705.6</ele>
        <time>2016-07-09T06:43:50Z</time>
      </trkpt>
      <trkpt lat="43.33349" lon="-6.56406">
        <ele>705.6</ele>
        <time>2016-07-09T06:43:59Z</time>
      </trkpt>
      <trkpt lat="43.33341" lon="-6.56414">
        <ele>705.4</ele>
        <time>2016-07-09T06:44:10Z</time>
      </trkpt>
      <trkpt lat="43.33332" lon="-6.56419">
        <ele>705.5</ele>
        <time>2016-07-09T06:44:19Z</time>
      </trkpt>
      <trkpt lat="43.33323" lon="-6.56423">
        <ele>705.9</ele>
        <time>2016-07-09T06:44:26Z</time>
      </trkpt>
      <trkpt lat="43.33314" lon="-6.56427">
        <ele>706.2</ele>
        <time>2016-07-09T06:44:34Z</time>
      </trkpt>
      <trkpt lat="43.33306" lon="-6.56434">
        <ele>706.4</ele>
        <time>2016-07-09T06:44:42Z</time>
      </trkpt>
      <trkpt lat="43.33297" lon="-6.56438">
        <ele>706.4</ele>
        <time>2016-07-09T06:44:50Z</time>
      </trkpt>
      <trkpt lat="43.33287" lon="-6.56442">
        <ele>706.4</ele>
        <time>2016-07-09T06:44:57Z</time>
      </trkpt>
      <trkpt lat="43.33279" lon="-6.56448">
        <ele>706.7</ele>
        <time>2016-07-09T06:45:05Z</time>
      </trkpt>
      <trkpt lat="43.33271" lon="-6.56453">
        <ele>706.8</ele>
        <time>2016-07-09T06:45:13Z</time>
      </trkpt>
      <trkpt lat="43.33263" lon="-6.5646">
        <ele>707</ele>
        <time>2016-07-09T06:45:22Z</time>
      </trkpt>
      <trkpt lat="43.33255" lon="-6.56467">
        <ele>707.2</ele>
        <time>2016-07-09T06:45:31Z</time>
      </trkpt>
      <trkpt lat="43.33248" lon="-6.56476">
        <ele>707.6</ele>
        <time>2016-07-09T06:45:40Z</time>
      </trkpt>
      <trkpt lat="43.3324" lon="-6.56482">
        <ele>708</ele>
        <time>2016-07-09T06:45:47Z</time>
      </trkpt>
      <trkpt lat="43.33231" lon="-6.5649">
        <ele>708.8</ele>
        <time>2016-07-09T06:45:57Z</time>
      </trkpt>
      <trkpt lat="43.33223" lon="-6.56496">
        <ele>709.1</ele>
        <time>2016-07-09T06:46:06Z</time>
      </trkpt>
      <trkpt lat="43.33214" lon="-6.56505">
        <ele>709</ele>
        <time>2016-07-09T06:46:13Z</time>
      </trkpt>
      <trkpt lat="43.33207" lon="-6.56513">
        <ele>708.8</ele>
        <time>2016-07-09T06:46:23Z</time>
      </trkpt>
      <trkpt lat="43.33199" lon="-6.5652">
        <ele>708.7</ele>
        <time>2016-07-09T06:46:31Z</time>
      </trkpt>
      <trkpt lat="43.33191" lon="-6.56528">
        <ele>709.1</ele>
        <time>2016-07-09T06:46:40Z</time>
      </trkpt>
      <trkpt lat="43.33184" lon="-6.56537">
        <ele>709.5</ele>
        <time>2016-07-09T06:46:50Z</time>
      </trkpt>
      <trkpt lat="43.33175" lon="-6.56541">
        <ele>710.1</ele>
        <time>2016-07-09T06:46:58Z</time>
      </trkpt>
      <trkpt lat="43.33166" lon="-6.56542">
        <ele>710.5</ele>
        <time>2016-07-09T06:47:08Z</time>
      </trkpt>
      <trkpt lat="43.33157" lon="-6.56547">
        <ele>710.8</ele>
        <time>2016-07-09T06:47:19Z</time>
      </trkpt>
      <trkpt lat="43.3315" lon="-6.56554">
        <ele>711</ele>
        <time>2016-07-09T06:47:30Z</time>
      </trkpt>
      <trkpt lat="43.33141" lon="-6.5656">
        <ele>711.2</ele>
        <time>2016-07-09T06:47:38Z</time>
      </trkpt>
      <trkpt lat="43.33133" lon="-6.56563">
        <ele>711.3</ele>
        <time>2016-07-09T06:47:44Z</time>
      </trkpt>
      <trkpt lat="43.33124" lon="-6.56567">
        <ele>711.4</ele>
        <time>2016-07-09T06:47:52Z</time>
      </trkpt>
      <trkpt lat="43.33115" lon="-6.56571">
        <ele>711.5</ele>
        <time>2016-07-09T06:47:59Z</time>
      </trkpt>
      <trkpt lat="43.33106" lon="-6.56573">
        <ele>711.5</ele>
        <time>2016-07-09T06:48:06Z</time>
      </trkpt>
      <trkpt lat="43.33096" lon="-6.56577">
        <ele>711.6</ele>
        <time>2016-07-09T06:48:14Z</time>
      </trkpt>
      <trkpt lat="43.33086" lon="-6.56579">
        <ele>711.9</ele>
        <time>2016-07-09T06:48:21Z</time>
      </trkpt>
      <trkpt lat="43.33077" lon="-6.56579">
        <ele>711.5</ele>
        <time>2016-07-09T06:48:28Z</time>
      </trkpt>
      <trkpt lat="43.33068" lon="-6.56582">
        <ele>711.5</ele>
        <time>2016-07-09T06:48:35Z</time>
      </trkpt>
      <trkpt lat="43.33059" lon="-6.56583">
        <ele>711.4</ele>
        <time>2016-07-09T06:48:43Z</time>
      </trkpt>
      <trkpt lat="43.3305" lon="-6.56587">
        <ele>711.1</ele>
        <time>2016-07-09T06:48:51Z</time>
      </trkpt>
      <trkpt lat="43.33041" lon="-6.56589">
        <ele>710.9</ele>
        <time>2016-07-09T06:48:59Z</time>
      </trkpt>
      <trkpt lat="43.33031" lon="-6.56593">
        <ele>710.8</ele>
        <time>2016-07-09T06:49:06Z</time>
      </trkpt>
      <trkpt lat="43.33021" lon="-6.56597">
        <ele>710.7</ele>
        <time>2016-07-09T06:49:12Z</time>
      </trkpt>
      <trkpt lat="43.33012" lon="-6.566">
        <ele>710.6</ele>
        <time>2016-07-09T06:49:18Z</time>
      </trkpt>
      <trkpt lat="43.33003" lon="-6.566">
        <ele>710.3</ele>
        <time>2016-07-09T06:49:24Z</time>
      </trkpt>
      <trkpt lat="43.32993" lon="-6.56601">
        <ele>710.1</ele>
        <time>2016-07-09T06:49:31Z</time>
      </trkpt>
      <trkpt lat="43.32984" lon="-6.566">
        <ele>710</ele>
        <time>2016-07-09T06:49:37Z</time>
      </trkpt>
      <trkpt lat="43.32975" lon="-6.56598">
        <ele>710.2</ele>
        <time>2016-07-09T06:49:44Z</time>
      </trkpt>
      <trkpt lat="43.32965" lon="-6.56597">
        <ele>710.2</ele>
        <time>2016-07-09T06:49:52Z</time>
      </trkpt>
      <trkpt lat="43.32956" lon="-6.56597">
        <ele>710.3</ele>
        <time>2016-07-09T06:49:59Z</time>
      </trkpt>
      <trkpt lat="43.32946" lon="-6.56597">
        <ele>710.4</ele>
        <time>2016-07-09T06:50:08Z</time>
      </trkpt>
      <trkpt lat="43.32936" lon="-6.56597">
        <ele>710.3</ele>
        <time>2016-07-09T06:50:16Z</time>
      </trkpt>
      <trkpt lat="43.32927" lon="-6.56594">
        <ele>710.2</ele>
        <time>2016-07-09T06:50:22Z</time>
      </trkpt>
      <trkpt lat="43.32918" lon="-6.56593">
        <ele>711.1</ele>
        <time>2016-07-09T06:50:31Z</time>
      </trkpt>
      <trkpt lat="43.32909" lon="-6.56594">
        <ele>708.5</ele>
        <time>2016-07-09T06:54:08Z</time>
      </trkpt>
      <trkpt lat="43.32912" lon="-6.56582">
        <ele>708.6</ele>
        <time>2016-07-09T06:56:06Z</time>
      </trkpt>
      <trkpt lat="43.32915" lon="-6.56594">
        <ele>708.4</ele>
        <time>2016-07-09T06:57:02Z</time>
      </trkpt>
      <trkpt lat="43.32923" lon="-6.56601">
        <ele>709.6</ele>
        <time>2016-07-09T07:02:17Z</time>
      </trkpt>
      <trkpt lat="43.32921" lon="-6.56613">
        <ele>710.4</ele>
        <time>2016-07-09T07:02:27Z</time>
      </trkpt>
      <trkpt lat="43.32917" lon="-6.56625">
        <ele>711.5</ele>
        <time>2016-07-09T07:02:36Z</time>
      </trkpt>
      <trkpt lat="43.32913" lon="-6.56636">
        <ele>712.3</ele>
        <time>2016-07-09T07:02:44Z</time>
      </trkpt>
      <trkpt lat="43.32907" lon="-6.56647">
        <ele>713.1</ele>
        <time>2016-07-09T07:02:53Z</time>
      </trkpt>
      <trkpt lat="43.32902" lon="-6.56659">
        <ele>713.9</ele>
        <time>2016-07-09T07:03:05Z</time>
      </trkpt>
      <trkpt lat="43.32896" lon="-6.5667">
        <ele>715.2</ele>
        <time>2016-07-09T07:03:15Z</time>
      </trkpt>
      <trkpt lat="43.32893" lon="-6.56682">
        <ele>716</ele>
        <time>2016-07-09T07:03:25Z</time>
      </trkpt>
      <trkpt lat="43.32888" lon="-6.56694">
        <ele>716.4</ele>
        <time>2016-07-09T07:03:35Z</time>
      </trkpt>
      <trkpt lat="43.32886" lon="-6.56706">
        <ele>716.9</ele>
        <time>2016-07-09T07:03:45Z</time>
      </trkpt>
      <trkpt lat="43.32883" lon="-6.56718">
        <ele>717.4</ele>
        <time>2016-07-09T07:03:55Z</time>
      </trkpt>
      <trkpt lat="43.32878" lon="-6.56729">
        <ele>717.6</ele>
        <time>2016-07-09T07:04:04Z</time>
      </trkpt>
      <trkpt lat="43.32872" lon="-6.56739">
        <ele>717.4</ele>
        <time>2016-07-09T07:04:12Z</time>
      </trkpt>
      <trkpt lat="43.32865" lon="-6.56748">
        <ele>717.2</ele>
        <time>2016-07-09T07:04:19Z</time>
      </trkpt>
      <trkpt lat="43.32857" lon="-6.56755">
        <ele>717.2</ele>
        <time>2016-07-09T07:04:27Z</time>
      </trkpt>
      <trkpt lat="43.32848" lon="-6.56761">
        <ele>717.3</ele>
        <time>2016-07-09T07:04:35Z</time>
      </trkpt>
      <trkpt lat="43.32841" lon="-6.56769">
        <ele>717</ele>
        <time>2016-07-09T07:04:46Z</time>
      </trkpt>
      <trkpt lat="43.32833" lon="-6.56776">
        <ele>716.6</ele>
        <time>2016-07-09T07:04:54Z</time>
      </trkpt>
      <trkpt lat="43.32826" lon="-6.56784">
        <ele>716.4</ele>
        <time>2016-07-09T07:05:02Z</time>
      </trkpt>
      <trkpt lat="43.32819" lon="-6.56794">
        <ele>716.6</ele>
        <time>2016-07-09T07:05:12Z</time>
      </trkpt>
      <trkpt lat="43.32814" lon="-6.56804">
        <ele>717.1</ele>
        <time>2016-07-09T07:05:20Z</time>
      </trkpt>
      <trkpt lat="43.32809" lon="-6.56815">
        <ele>718.3</ele>
        <time>2016-07-09T07:05:29Z</time>
      </trkpt>
      <trkpt lat="43.32803" lon="-6.56826">
        <ele>719.3</ele>
        <time>2016-07-09T07:05:39Z</time>
      </trkpt>
      <trkpt lat="43.32801" lon="-6.56839">
        <ele>720.1</ele>
        <time>2016-07-09T07:05:49Z</time>
      </trkpt>
      <trkpt lat="43.32798" lon="-6.56851">
        <ele>721.2</ele>
        <time>2016-07-09T07:05:57Z</time>
      </trkpt>
      <trkpt lat="43.32795" lon="-6.56863">
        <ele>721.7</ele>
        <time>2016-07-09T07:06:04Z</time>
      </trkpt>
      <trkpt lat="43.32792" lon="-6.56875">
        <ele>722.2</ele>
        <time>2016-07-09T07:06:11Z</time>
      </trkpt>
      <trkpt lat="43.32788" lon="-6.56887">
        <ele>723.1</ele>
        <time>2016-07-09T07:06:19Z</time>
      </trkpt>
      <trkpt lat="43.32786" lon="-6.56899">
        <ele>723.9</ele>
        <time>2016-07-09T07:06:27Z</time>
      </trkpt>
      <trkpt lat="43.32783" lon="-6.56912">
        <ele>724.6</ele>
        <time>2016-07-09T07:06:35Z</time>
      </trkpt>
      <trkpt lat="43.32781" lon="-6.56926">
        <ele>725.4</ele>
        <time>2016-07-09T07:06:44Z</time>
      </trkpt>
      <trkpt lat="43.3278" lon="-6.56939">
        <ele>726.5</ele>
        <time>2016-07-09T07:06:52Z</time>
      </trkpt>
      <trkpt lat="43.32777" lon="-6.56952">
        <ele>727.6</ele>
        <time>2016-07-09T07:07:01Z</time>
      </trkpt>
      <trkpt lat="43.32775" lon="-6.56964">
        <ele>728.5</ele>
        <time>2016-07-09T07:07:10Z</time>
      </trkpt>
      <trkpt lat="43.32771" lon="-6.56976">
        <ele>729.2</ele>
        <time>2016-07-09T07:07:19Z</time>
      </trkpt>
      <trkpt lat="43.32769" lon="-6.5699">
        <ele>729.9</ele>
        <time>2016-07-09T07:07:29Z</time>
      </trkpt>
      <trkpt lat="43.32766" lon="-6.57003">
        <ele>730.2</ele>
        <time>2016-07-09T07:07:38Z</time>
      </trkpt>
      <trkpt lat="43.32765" lon="-6.57016">
        <ele>730.9</ele>
        <time>2016-07-09T07:07:46Z</time>
      </trkpt>
      <trkpt lat="43.32763" lon="-6.5703">
        <ele>731.6</ele>
        <time>2016-07-09T07:07:55Z</time>
      </trkpt>
      <trkpt lat="43.32762" lon="-6.57043">
        <ele>732.6</ele>
        <time>2016-07-09T07:08:05Z</time>
      </trkpt>
      <trkpt lat="43.32762" lon="-6.57055">
        <ele>732.8</ele>
        <time>2016-07-09T07:08:14Z</time>
      </trkpt>
      <trkpt lat="43.32761" lon="-6.57068">
        <ele>733.1</ele>
        <time>2016-07-09T07:08:22Z</time>
      </trkpt>
      <trkpt lat="43.32759" lon="-6.57082">
        <ele>733.8</ele>
        <time>2016-07-09T07:08:31Z</time>
      </trkpt>
      <trkpt lat="43.32757" lon="-6.57095">
        <ele>733.8</ele>
        <time>2016-07-09T07:08:40Z</time>
      </trkpt>
      <trkpt lat="43.32757" lon="-6.57107">
        <ele>733.8</ele>
        <time>2016-07-09T07:08:48Z</time>
      </trkpt>
      <trkpt lat="43.32757" lon="-6.57121">
        <ele>734.5</ele>
        <time>2016-07-09T07:08:57Z</time>
      </trkpt>
      <trkpt lat="43.32759" lon="-6.57134">
        <ele>734.9</ele>
        <time>2016-07-09T07:09:06Z</time>
      </trkpt>
      <trkpt lat="43.3276" lon="-6.57147">
        <ele>735.3</ele>
        <time>2016-07-09T07:09:14Z</time>
      </trkpt>
      <trkpt lat="43.32763" lon="-6.57159">
        <ele>736</ele>
        <time>2016-07-09T07:09:22Z</time>
      </trkpt>
      <trkpt lat="43.32765" lon="-6.57172">
        <ele>736.3</ele>
        <time>2016-07-09T07:09:30Z</time>
      </trkpt>
      <trkpt lat="43.32766" lon="-6.57185">
        <ele>736.2</ele>
        <time>2016-07-09T07:09:39Z</time>
      </trkpt>
      <trkpt lat="43.32766" lon="-6.57199">
        <ele>736.3</ele>
        <time>2016-07-09T07:09:47Z</time>
      </trkpt>
      <trkpt lat="43.32766" lon="-6.57212">
        <ele>736.4</ele>
        <time>2016-07-09T07:09:55Z</time>
      </trkpt>
      <trkpt lat="43.32767" lon="-6.57225">
        <ele>736.3</ele>
        <time>2016-07-09T07:10:02Z</time>
      </trkpt>
      <trkpt lat="43.32767" lon="-6.57239">
        <ele>736.5</ele>
        <time>2016-07-09T07:10:10Z</time>
      </trkpt>
      <trkpt lat="43.32768" lon="-6.57253">
        <ele>736.6</ele>
        <time>2016-07-09T07:10:25Z</time>
      </trkpt>
      <trkpt lat="43.32769" lon="-6.57267">
        <ele>736.1</ele>
        <time>2016-07-09T07:10:33Z</time>
      </trkpt>
      <trkpt lat="43.3277" lon="-6.57279">
        <ele>736.1</ele>
        <time>2016-07-09T07:10:40Z</time>
      </trkpt>
      <trkpt lat="43.32773" lon="-6.57292">
        <ele>736.2</ele>
        <time>2016-07-09T07:10:48Z</time>
      </trkpt>
      <trkpt lat="43.32772" lon="-6.57306">
        <ele>736.2</ele>
        <time>2016-07-09T07:10:55Z</time>
      </trkpt>
      <trkpt lat="43.32772" lon="-6.57318">
        <ele>736.1</ele>
        <time>2016-07-09T07:11:02Z</time>
      </trkpt>
      <trkpt lat="43.32773" lon="-6.57331">
        <ele>735.8</ele>
        <time>2016-07-09T07:11:09Z</time>
      </trkpt>
      <trkpt lat="43.32773" lon="-6.57345">
        <ele>735.6</ele>
        <time>2016-07-09T07:11:16Z</time>
      </trkpt>
      <trkpt lat="43.32774" lon="-6.57358">
        <ele>735.5</ele>
        <time>2016-07-09T07:11:23Z</time>
      </trkpt>
      <trkpt lat="43.32774" lon="-6.5737">
        <ele>735.4</ele>
        <time>2016-07-09T07:11:30Z</time>
      </trkpt>
      <trkpt lat="43.32774" lon="-6.57383">
        <ele>735.3</ele>
        <time>2016-07-09T07:11:38Z</time>
      </trkpt>
      <trkpt lat="43.32774" lon="-6.57397">
        <ele>735.1</ele>
        <time>2016-07-09T07:11:47Z</time>
      </trkpt>
      <trkpt lat="43.32774" lon="-6.5741">
        <ele>734.6</ele>
        <time>2016-07-09T07:11:56Z</time>
      </trkpt>
      <trkpt lat="43.32775" lon="-6.57423">
        <ele>734.4</ele>
        <time>2016-07-09T07:12:04Z</time>
      </trkpt>
      <trkpt lat="43.32774" lon="-6.57436">
        <ele>734.3</ele>
        <time>2016-07-09T07:12:16Z</time>
      </trkpt>
      <trkpt lat="43.32772" lon="-6.57449">
        <ele>734.3</ele>
        <time>2016-07-09T07:12:25Z</time>
      </trkpt>
      <trkpt lat="43.32769" lon="-6.57461">
        <ele>734</ele>
        <time>2016-07-09T07:12:36Z</time>
      </trkpt>
      <trkpt lat="43.32764" lon="-6.57473">
        <ele>733.8</ele>
        <time>2016-07-09T07:12:44Z</time>
      </trkpt>
      <trkpt lat="43.32759" lon="-6.57484">
        <ele>733.8</ele>
        <time>2016-07-09T07:12:52Z</time>
      </trkpt>
      <trkpt lat="43.32753" lon="-6.57494">
        <ele>735.4</ele>
        <time>2016-07-09T07:13:19Z</time>
      </trkpt>
      <trkpt lat="43.32745" lon="-6.57499">
        <ele>735.6</ele>
        <time>2016-07-09T07:14:16Z</time>
      </trkpt>
      <trkpt lat="43.32739" lon="-6.57509">
        <ele>735.4</ele>
        <time>2016-07-09T07:14:24Z</time>
      </trkpt>
      <trkpt lat="43.32732" lon="-6.57519">
        <ele>735.3</ele>
        <time>2016-07-09T07:14:31Z</time>
      </trkpt>
      <trkpt lat="43.32727" lon="-6.57529">
        <ele>735.2</ele>
        <time>2016-07-09T07:14:40Z</time>
      </trkpt>
      <trkpt lat="43.32721" lon="-6.57539">
        <ele>734.4</ele>
        <time>2016-07-09T07:14:47Z</time>
      </trkpt>
      <trkpt lat="43.32714" lon="-6.5755">
        <ele>733.7</ele>
        <time>2016-07-09T07:14:55Z</time>
      </trkpt>
      <trkpt lat="43.32708" lon="-6.5756">
        <ele>733.5</ele>
        <time>2016-07-09T07:15:02Z</time>
      </trkpt>
      <trkpt lat="43.32704" lon="-6.57573">
        <ele>733.7</ele>
        <time>2016-07-09T07:15:10Z</time>
      </trkpt>
      <trkpt lat="43.32702" lon="-6.57586">
        <ele>733.9</ele>
        <time>2016-07-09T07:15:18Z</time>
      </trkpt>
      <trkpt lat="43.32697" lon="-6.57598">
        <ele>734</ele>
        <time>2016-07-09T07:15:26Z</time>
      </trkpt>
      <trkpt lat="43.32691" lon="-6.57609">
        <ele>734</ele>
        <time>2016-07-09T07:15:33Z</time>
      </trkpt>
      <trkpt lat="43.32684" lon="-6.57618">
        <ele>733.2</ele>
        <time>2016-07-09T07:15:41Z</time>
      </trkpt>
      <trkpt lat="43.32678" lon="-6.57628">
        <ele>732.6</ele>
        <time>2016-07-09T07:15:48Z</time>
      </trkpt>
      <trkpt lat="43.32671" lon="-6.57638">
        <ele>731.9</ele>
        <time>2016-07-09T07:15:56Z</time>
      </trkpt>
      <trkpt lat="43.32666" lon="-6.5765">
        <ele>730.8</ele>
        <time>2016-07-09T07:16:03Z</time>
      </trkpt>
      <trkpt lat="43.32669" lon="-6.57662">
        <ele>730.2</ele>
        <time>2016-07-09T07:16:10Z</time>
      </trkpt>
      <trkpt lat="43.32672" lon="-6.57675">
        <ele>729.7</ele>
        <time>2016-07-09T07:16:18Z</time>
      </trkpt>
      <trkpt lat="43.32675" lon="-6.57688">
        <ele>729.3</ele>
        <time>2016-07-09T07:16:26Z</time>
      </trkpt>
      <trkpt lat="43.32676" lon="-6.57701">
        <ele>729.3</ele>
        <time>2016-07-09T07:16:33Z</time>
      </trkpt>
      <trkpt lat="43.32677" lon="-6.57715">
        <ele>729.8</ele>
        <time>2016-07-09T07:16:40Z</time>
      </trkpt>
      <trkpt lat="43.32676" lon="-6.57728">
        <ele>730</ele>
        <time>2016-07-09T07:16:47Z</time>
      </trkpt>
      <trkpt lat="43.32675" lon="-6.57741">
        <ele>730.1</ele>
        <time>2016-07-09T07:16:54Z</time>
      </trkpt>
      <trkpt lat="43.32677" lon="-6.57754">
        <ele>729.9</ele>
        <time>2016-07-09T07:17:01Z</time>
      </trkpt>
      <trkpt lat="43.32676" lon="-6.57768">
        <ele>729.9</ele>
        <time>2016-07-09T07:17:08Z</time>
      </trkpt>
      <trkpt lat="43.32669" lon="-6.57778">
        <ele>729.8</ele>
        <time>2016-07-09T07:17:15Z</time>
      </trkpt>
      <trkpt lat="43.32665" lon="-6.57789">
        <ele>729.7</ele>
        <time>2016-07-09T07:17:22Z</time>
      </trkpt>
      <trkpt lat="43.32662" lon="-6.57801">
        <ele>729.5</ele>
        <time>2016-07-09T07:17:29Z</time>
      </trkpt>
      <trkpt lat="43.3266" lon="-6.57814">
        <ele>729.3</ele>
        <time>2016-07-09T07:17:36Z</time>
      </trkpt>
      <trkpt lat="43.32658" lon="-6.57827">
        <ele>729.3</ele>
        <time>2016-07-09T07:17:44Z</time>
      </trkpt>
      <trkpt lat="43.32656" lon="-6.57839">
        <ele>729</ele>
        <time>2016-07-09T07:17:51Z</time>
      </trkpt>
      <trkpt lat="43.32654" lon="-6.57852">
        <ele>729.3</ele>
        <time>2016-07-09T07:17:59Z</time>
      </trkpt>
      <trkpt lat="43.32651" lon="-6.57864">
        <ele>729.8</ele>
        <time>2016-07-09T07:18:06Z</time>
      </trkpt>
      <trkpt lat="43.32649" lon="-6.57877">
        <ele>730.2</ele>
        <time>2016-07-09T07:18:14Z</time>
      </trkpt>
      <trkpt lat="43.32651" lon="-6.5789">
        <ele>730.6</ele>
        <time>2016-07-09T07:18:23Z</time>
      </trkpt>
      <trkpt lat="43.32651" lon="-6.57904">
        <ele>731.2</ele>
        <time>2016-07-09T07:18:33Z</time>
      </trkpt>
      <trkpt lat="43.32651" lon="-6.57918">
        <ele>731.2</ele>
        <time>2016-07-09T07:18:42Z</time>
      </trkpt>
      <trkpt lat="43.32652" lon="-6.57931">
        <ele>731.4</ele>
        <time>2016-07-09T07:18:49Z</time>
      </trkpt>
      <trkpt lat="43.32653" lon="-6.57944">
        <ele>731.3</ele>
        <time>2016-07-09T07:18:56Z</time>
      </trkpt>
      <trkpt lat="43.32654" lon="-6.57957">
        <ele>731.1</ele>
        <time>2016-07-09T07:19:04Z</time>
      </trkpt>
      <trkpt lat="43.32653" lon="-6.57971">
        <ele>730.9</ele>
        <time>2016-07-09T07:19:11Z</time>
      </trkpt>
      <trkpt lat="43.3265" lon="-6.57983">
        <ele>730.6</ele>
        <time>2016-07-09T07:19:18Z</time>
      </trkpt>
      <trkpt lat="43.32647" lon="-6.57995">
        <ele>730.6</ele>
        <time>2016-07-09T07:19:25Z</time>
      </trkpt>
      <trkpt lat="43.32642" lon="-6.58006">
        <ele>730.8</ele>
        <time>2016-07-09T07:19:32Z</time>
      </trkpt>
      <trkpt lat="43.32636" lon="-6.58017">
        <ele>731.4</ele>
        <time>2016-07-09T07:19:39Z</time>
      </trkpt>
      <trkpt lat="43.32631" lon="-6.58027">
        <ele>731.6</ele>
        <time>2016-07-09T07:19:46Z</time>
      </trkpt>
      <trkpt lat="43.32625" lon="-6.58038">
        <ele>731.7</ele>
        <time>2016-07-09T07:19:53Z</time>
      </trkpt>
      <trkpt lat="43.3262" lon="-6.58049">
        <ele>731.7</ele>
        <time>2016-07-09T07:20:01Z</time>
      </trkpt>
      <trkpt lat="43.32614" lon="-6.58058">
        <ele>731.3</ele>
        <time>2016-07-09T07:20:07Z</time>
      </trkpt>
      <trkpt lat="43.32607" lon="-6.58067">
        <ele>731.4</ele>
        <time>2016-07-09T07:20:14Z</time>
      </trkpt>
      <trkpt lat="43.32599" lon="-6.58074">
        <ele>731.5</ele>
        <time>2016-07-09T07:20:20Z</time>
      </trkpt>
      <trkpt lat="43.32592" lon="-6.58081">
        <ele>731.7</ele>
        <time>2016-07-09T07:20:26Z</time>
      </trkpt>
      <trkpt lat="43.32584" lon="-6.58091">
        <ele>731.8</ele>
        <time>2016-07-09T07:20:33Z</time>
      </trkpt>
      <trkpt lat="43.32578" lon="-6.58102">
        <ele>731.4</ele>
        <time>2016-07-09T07:20:41Z</time>
      </trkpt>
      <trkpt lat="43.32572" lon="-6.58112">
        <ele>730.4</ele>
        <time>2016-07-09T07:20:53Z</time>
      </trkpt>
      <trkpt lat="43.32566" lon="-6.58121">
        <ele>729.9</ele>
        <time>2016-07-09T07:21:01Z</time>
      </trkpt>
      <trkpt lat="43.32558" lon="-6.5813">
        <ele>729.1</ele>
        <time>2016-07-09T07:21:09Z</time>
      </trkpt>
      <trkpt lat="43.32552" lon="-6.58138">
        <ele>728.2</ele>
        <time>2016-07-09T07:21:16Z</time>
      </trkpt>
      <trkpt lat="43.32545" lon="-6.58149">
        <ele>727.1</ele>
        <time>2016-07-09T07:21:25Z</time>
      </trkpt>
      <trkpt lat="43.3254" lon="-6.5816">
        <ele>726.3</ele>
        <time>2016-07-09T07:21:33Z</time>
      </trkpt>
      <trkpt lat="43.32537" lon="-6.58173">
        <ele>725.6</ele>
        <time>2016-07-09T07:21:41Z</time>
      </trkpt>
      <trkpt lat="43.32537" lon="-6.58186">
        <ele>724.4</ele>
        <time>2016-07-09T07:21:48Z</time>
      </trkpt>
      <trkpt lat="43.32541" lon="-6.58199">
        <ele>723</ele>
        <time>2016-07-09T07:21:56Z</time>
      </trkpt>
      <trkpt lat="43.32543" lon="-6.58212">
        <ele>722.1</ele>
        <time>2016-07-09T07:22:05Z</time>
      </trkpt>
      <trkpt lat="43.32545" lon="-6.58225">
        <ele>721.5</ele>
        <time>2016-07-09T07:22:14Z</time>
      </trkpt>
      <trkpt lat="43.32546" lon="-6.58239">
        <ele>721</ele>
        <time>2016-07-09T07:22:22Z</time>
      </trkpt>
      <trkpt lat="43.32548" lon="-6.58252">
        <ele>720.5</ele>
        <time>2016-07-09T07:22:30Z</time>
      </trkpt>
      <trkpt lat="43.3255" lon="-6.58265">
        <ele>720.3</ele>
        <time>2016-07-09T07:22:38Z</time>
      </trkpt>
      <trkpt lat="43.32548" lon="-6.58277">
        <ele>720.6</ele>
        <time>2016-07-09T07:22:49Z</time>
      </trkpt>
      <trkpt lat="43.32557" lon="-6.5828">
        <ele>720.9</ele>
        <time>2016-07-09T07:24:01Z</time>
      </trkpt>
      <trkpt lat="43.32564" lon="-6.58289">
        <ele>721</ele>
        <time>2016-07-09T07:24:08Z</time>
      </trkpt>
      <trkpt lat="43.3257" lon="-6.58298">
        <ele>721.1</ele>
        <time>2016-07-09T07:24:15Z</time>
      </trkpt>
      <trkpt lat="43.32577" lon="-6.58307">
        <ele>721.7</ele>
        <time>2016-07-09T07:24:22Z</time>
      </trkpt>
      <trkpt lat="43.32582" lon="-6.58319">
        <ele>722.6</ele>
        <time>2016-07-09T07:24:31Z</time>
      </trkpt>
      <trkpt lat="43.32586" lon="-6.5833">
        <ele>723.9</ele>
        <time>2016-07-09T07:24:40Z</time>
      </trkpt>
      <trkpt lat="43.3259" lon="-6.58343">
        <ele>725.5</ele>
        <time>2016-07-09T07:24:50Z</time>
      </trkpt>
      <trkpt lat="43.32587" lon="-6.58355">
        <ele>726.9</ele>
        <time>2016-07-09T07:24:59Z</time>
      </trkpt>
      <trkpt lat="43.3258" lon="-6.58365">
        <ele>728</ele>
        <time>2016-07-09T07:25:07Z</time>
      </trkpt>
      <trkpt lat="43.32574" lon="-6.58375">
        <ele>729.4</ele>
        <time>2016-07-09T07:25:15Z</time>
      </trkpt>
      <trkpt lat="43.32568" lon="-6.58384">
        <ele>730.7</ele>
        <time>2016-07-09T07:25:23Z</time>
      </trkpt>
      <trkpt lat="43.32562" lon="-6.58395">
        <ele>731.6</ele>
        <time>2016-07-09T07:25:32Z</time>
      </trkpt>
      <trkpt lat="43.32555" lon="-6.58405">
        <ele>732.7</ele>
        <time>2016-07-09T07:25:41Z</time>
      </trkpt>
      <trkpt lat="43.3255" lon="-6.58416">
        <ele>733.9</ele>
        <time>2016-07-09T07:25:49Z</time>
      </trkpt>
      <trkpt lat="43.32546" lon="-6.58428">
        <ele>735</ele>
        <time>2016-07-09T07:25:58Z</time>
      </trkpt>
      <trkpt lat="43.32543" lon="-6.5844">
        <ele>735.8</ele>
        <time>2016-07-09T07:26:07Z</time>
      </trkpt>
      <trkpt lat="43.32541" lon="-6.58453">
        <ele>736.6</ele>
        <time>2016-07-09T07:26:17Z</time>
      </trkpt>
      <trkpt lat="43.32537" lon="-6.58464">
        <ele>736.9</ele>
        <time>2016-07-09T07:26:26Z</time>
      </trkpt>
      <trkpt lat="43.32533" lon="-6.58476">
        <ele>737.8</ele>
        <time>2016-07-09T07:26:35Z</time>
      </trkpt>
      <trkpt lat="43.32528" lon="-6.58487">
        <ele>740.3</ele>
        <time>2016-07-09T07:26:55Z</time>
      </trkpt>
      <trkpt lat="43.32526" lon="-6.585">
        <ele>741.5</ele>
        <time>2016-07-09T07:27:07Z</time>
      </trkpt>
      <trkpt lat="43.32521" lon="-6.58511">
        <ele>742.4</ele>
        <time>2016-07-09T07:27:18Z</time>
      </trkpt>
      <trkpt lat="43.32515" lon="-6.58521">
        <ele>744.9</ele>
        <time>2016-07-09T07:27:39Z</time>
      </trkpt>
      <trkpt lat="43.32508" lon="-6.58529">
        <ele>745.8</ele>
        <time>2016-07-09T07:28:01Z</time>
      </trkpt>
      <trkpt lat="43.32503" lon="-6.5854">
        <ele>746.8</ele>
        <time>2016-07-09T07:28:13Z</time>
      </trkpt>
      <trkpt lat="43.32497" lon="-6.58549">
        <ele>747.8</ele>
        <time>2016-07-09T07:28:23Z</time>
      </trkpt>
      <trkpt lat="43.3249" lon="-6.58558">
        <ele>749.7</ele>
        <time>2016-07-09T07:28:34Z</time>
      </trkpt>
      <trkpt lat="43.32484" lon="-6.58568">
        <ele>751.4</ele>
        <time>2016-07-09T07:28:45Z</time>
      </trkpt>
      <trkpt lat="43.32478" lon="-6.58578">
        <ele>753.1</ele>
        <time>2016-07-09T07:28:56Z</time>
      </trkpt>
      <trkpt lat="43.32471" lon="-6.58586">
        <ele>754.7</ele>
        <time>2016-07-09T07:29:07Z</time>
      </trkpt>
      <trkpt lat="43.32462" lon="-6.5859">
        <ele>757.7</ele>
        <time>2016-07-09T07:29:29Z</time>
      </trkpt>
      <trkpt lat="43.32455" lon="-6.58599">
        <ele>759.2</ele>
        <time>2016-07-09T07:29:40Z</time>
      </trkpt>
      <trkpt lat="43.32449" lon="-6.58608">
        <ele>760.6</ele>
        <time>2016-07-09T07:29:51Z</time>
      </trkpt>
      <trkpt lat="43.32442" lon="-6.58618">
        <ele>762.4</ele>
        <time>2016-07-09T07:30:03Z</time>
      </trkpt>
      <trkpt lat="43.32435" lon="-6.58627">
        <ele>763.8</ele>
        <time>2016-07-09T07:30:14Z</time>
      </trkpt>
      <trkpt lat="43.32428" lon="-6.58636">
        <ele>765.3</ele>
        <time>2016-07-09T07:30:25Z</time>
      </trkpt>
      <trkpt lat="43.32421" lon="-6.58645">
        <ele>767</ele>
        <time>2016-07-09T07:30:35Z</time>
      </trkpt>
      <trkpt lat="43.32415" lon="-6.58654">
        <ele>768.8</ele>
        <time>2016-07-09T07:30:45Z</time>
      </trkpt>
      <trkpt lat="43.32406" lon="-6.58657">
        <ele>771.8</ele>
        <time>2016-07-09T07:31:19Z</time>
      </trkpt>
      <trkpt lat="43.32399" lon="-6.58666">
        <ele>774.1</ele>
        <time>2016-07-09T07:32:09Z</time>
      </trkpt>
      <trkpt lat="43.32396" lon="-6.58679">
        <ele>774.6</ele>
        <time>2016-07-09T07:32:20Z</time>
      </trkpt>
      <trkpt lat="43.32395" lon="-6.58691">
        <ele>775.5</ele>
        <time>2016-07-09T07:32:31Z</time>
      </trkpt>
      <trkpt lat="43.32392" lon="-6.58703">
        <ele>777.1</ele>
        <time>2016-07-09T07:32:43Z</time>
      </trkpt>
      <trkpt lat="43.32386" lon="-6.58714">
        <ele>781.1</ele>
        <time>2016-07-09T07:33:40Z</time>
      </trkpt>
      <trkpt lat="43.32382" lon="-6.58726">
        <ele>781.6</ele>
        <time>2016-07-09T07:33:52Z</time>
      </trkpt>
      <trkpt lat="43.32379" lon="-6.58739">
        <ele>782.4</ele>
        <time>2016-07-09T07:34:02Z</time>
      </trkpt>
      <trkpt lat="43.32376" lon="-6.58751">
        <ele>783.5</ele>
        <time>2016-07-09T07:34:13Z</time>
      </trkpt>
      <trkpt lat="43.32374" lon="-6.58763">
        <ele>785.3</ele>
        <time>2016-07-09T07:34:25Z</time>
      </trkpt>
      <trkpt lat="43.32371" lon="-6.58775">
        <ele>787.1</ele>
        <time>2016-07-09T07:34:36Z</time>
      </trkpt>
      <trkpt lat="43.32369" lon="-6.58787">
        <ele>789.6</ele>
        <time>2016-07-09T07:34:55Z</time>
      </trkpt>
      <trkpt lat="43.32365" lon="-6.58798">
        <ele>790.1</ele>
        <time>2016-07-09T07:35:05Z</time>
      </trkpt>
      <trkpt lat="43.32363" lon="-6.58811">
        <ele>791.2</ele>
        <time>2016-07-09T07:35:16Z</time>
      </trkpt>
      <trkpt lat="43.32362" lon="-6.58823">
        <ele>793.2</ele>
        <time>2016-07-09T07:35:25Z</time>
      </trkpt>
      <trkpt lat="43.32362" lon="-6.58837">
        <ele>794.7</ele>
        <time>2016-07-09T07:35:35Z</time>
      </trkpt>
      <trkpt lat="43.32365" lon="-6.5885">
        <ele>795.7</ele>
        <time>2016-07-09T07:35:45Z</time>
      </trkpt>
      <trkpt lat="43.32366" lon="-6.58863">
        <ele>797.3</ele>
        <time>2016-07-09T07:36:10Z</time>
      </trkpt>
      <trkpt lat="43.32367" lon="-6.58876">
        <ele>797.5</ele>
        <time>2016-07-09T07:36:19Z</time>
      </trkpt>
      <trkpt lat="43.32369" lon="-6.58888">
        <ele>797.6</ele>
        <time>2016-07-09T07:36:27Z</time>
      </trkpt>
      <trkpt lat="43.32372" lon="-6.589">
        <ele>798.1</ele>
        <time>2016-07-09T07:36:35Z</time>
      </trkpt>
      <trkpt lat="43.32377" lon="-6.58911">
        <ele>798.6</ele>
        <time>2016-07-09T07:36:44Z</time>
      </trkpt>
      <trkpt lat="43.32381" lon="-6.58923">
        <ele>799</ele>
        <time>2016-07-09T07:36:53Z</time>
      </trkpt>
      <trkpt lat="43.32385" lon="-6.58935">
        <ele>799.4</ele>
        <time>2016-07-09T07:37:01Z</time>
      </trkpt>
      <trkpt lat="43.32391" lon="-6.58946">
        <ele>799.7</ele>
        <time>2016-07-09T07:37:09Z</time>
      </trkpt>
      <trkpt lat="43.32397" lon="-6.58956">
        <ele>800.1</ele>
        <time>2016-07-09T07:37:18Z</time>
      </trkpt>
      <trkpt lat="43.32403" lon="-6.58966">
        <ele>800.2</ele>
        <time>2016-07-09T07:37:26Z</time>
      </trkpt>
      <trkpt lat="43.32408" lon="-6.58978">
        <ele>800.2</ele>
        <time>2016-07-09T07:37:34Z</time>
      </trkpt>
      <trkpt lat="43.32414" lon="-6.58989">
        <ele>800.2</ele>
        <time>2016-07-09T07:37:42Z</time>
      </trkpt>
      <trkpt lat="43.3242" lon="-6.58999">
        <ele>800.3</ele>
        <time>2016-07-09T07:37:50Z</time>
      </trkpt>
      <trkpt lat="43.32426" lon="-6.5901">
        <ele>800.5</ele>
        <time>2016-07-09T07:37:58Z</time>
      </trkpt>
      <trkpt lat="43.3243" lon="-6.59021">
        <ele>800.7</ele>
        <time>2016-07-09T07:38:06Z</time>
      </trkpt>
      <trkpt lat="43.32434" lon="-6.59033">
        <ele>800.6</ele>
        <time>2016-07-09T07:38:14Z</time>
      </trkpt>
      <trkpt lat="43.32437" lon="-6.59046">
        <ele>801</ele>
        <time>2016-07-09T07:38:23Z</time>
      </trkpt>
      <trkpt lat="43.32438" lon="-6.59059">
        <ele>801.3</ele>
        <time>2016-07-09T07:38:31Z</time>
      </trkpt>
      <trkpt lat="43.32439" lon="-6.59073">
        <ele>801.3</ele>
        <time>2016-07-09T07:38:39Z</time>
      </trkpt>
      <trkpt lat="43.3244" lon="-6.59086">
        <ele>801.3</ele>
        <time>2016-07-09T07:38:46Z</time>
      </trkpt>
      <trkpt lat="43.32441" lon="-6.591">
        <ele>802</ele>
        <time>2016-07-09T07:38:54Z</time>
      </trkpt>
      <trkpt lat="43.32442" lon="-6.59113">
        <ele>802.6</ele>
        <time>2016-07-09T07:39:02Z</time>
      </trkpt>
      <trkpt lat="43.32443" lon="-6.59126">
        <ele>803</ele>
        <time>2016-07-09T07:39:10Z</time>
      </trkpt>
      <trkpt lat="43.32445" lon="-6.59138">
        <ele>803.1</ele>
        <time>2016-07-09T07:39:18Z</time>
      </trkpt>
      <trkpt lat="43.32446" lon="-6.59151">
        <ele>803.3</ele>
        <time>2016-07-09T07:39:27Z</time>
      </trkpt>
      <trkpt lat="43.32446" lon="-6.59164">
        <ele>803.7</ele>
        <time>2016-07-09T07:39:36Z</time>
      </trkpt>
      <trkpt lat="43.32447" lon="-6.59176">
        <ele>804.6</ele>
        <time>2016-07-09T07:39:46Z</time>
      </trkpt>
      <trkpt lat="43.32447" lon="-6.5919">
        <ele>805</ele>
        <time>2016-07-09T07:39:54Z</time>
      </trkpt>
      <trkpt lat="43.32448" lon="-6.59203">
        <ele>805.9</ele>
        <time>2016-07-09T07:40:02Z</time>
      </trkpt>
      <trkpt lat="43.32449" lon="-6.59217">
        <ele>806.6</ele>
        <time>2016-07-09T07:40:10Z</time>
      </trkpt>
      <trkpt lat="43.3245" lon="-6.5923">
        <ele>807.2</ele>
        <time>2016-07-09T07:40:18Z</time>
      </trkpt>
      <trkpt lat="43.3245" lon="-6.59242">
        <ele>807.8</ele>
        <time>2016-07-09T07:40:26Z</time>
      </trkpt>
      <trkpt lat="43.3245" lon="-6.59256">
        <ele>808.6</ele>
        <time>2016-07-09T07:40:35Z</time>
      </trkpt>
      <trkpt lat="43.3245" lon="-6.59269">
        <ele>809.7</ele>
        <time>2016-07-09T07:40:45Z</time>
      </trkpt>
      <trkpt lat="43.3245" lon="-6.59283">
        <ele>810.5</ele>
        <time>2016-07-09T07:40:55Z</time>
      </trkpt>
      <trkpt lat="43.32449" lon="-6.59296">
        <ele>811.2</ele>
        <time>2016-07-09T07:41:05Z</time>
      </trkpt>
      <trkpt lat="43.3245" lon="-6.59309">
        <ele>812</ele>
        <time>2016-07-09T07:41:14Z</time>
      </trkpt>
      <trkpt lat="43.3245" lon="-6.59321">
        <ele>813.3</ele>
        <time>2016-07-09T07:41:22Z</time>
      </trkpt>
      <trkpt lat="43.3245" lon="-6.59335">
        <ele>814.5</ele>
        <time>2016-07-09T07:41:31Z</time>
      </trkpt>
      <trkpt lat="43.3245" lon="-6.59349">
        <ele>815.4</ele>
        <time>2016-07-09T07:41:40Z</time>
      </trkpt>
      <trkpt lat="43.32453" lon="-6.59362">
        <ele>816</ele>
        <time>2016-07-09T07:41:49Z</time>
      </trkpt>
      <trkpt lat="43.32456" lon="-6.59374">
        <ele>819</ele>
        <time>2016-07-09T07:42:29Z</time>
      </trkpt>
      <trkpt lat="43.32457" lon="-6.59387">
        <ele>819.8</ele>
        <time>2016-07-09T07:42:39Z</time>
      </trkpt>
      <trkpt lat="43.32458" lon="-6.594">
        <ele>821.6</ele>
        <time>2016-07-09T07:42:49Z</time>
      </trkpt>
      <trkpt lat="43.32459" lon="-6.59414">
        <ele>823.5</ele>
        <time>2016-07-09T07:42:59Z</time>
      </trkpt>
      <trkpt lat="43.32459" lon="-6.59427">
        <ele>823.5</ele>
        <time>2016-07-09T07:43:09Z</time>
      </trkpt>
      <trkpt lat="43.32459" lon="-6.59439">
        <ele>823.7</ele>
        <time>2016-07-09T07:43:19Z</time>
      </trkpt>
      <trkpt lat="43.3246" lon="-6.59452">
        <ele>824.8</ele>
        <time>2016-07-09T07:43:29Z</time>
      </trkpt>
      <trkpt lat="43.3246" lon="-6.59465">
        <ele>825.7</ele>
        <time>2016-07-09T07:43:39Z</time>
      </trkpt>
      <trkpt lat="43.32461" lon="-6.59478">
        <ele>825.7</ele>
        <time>2016-07-09T07:43:49Z</time>
      </trkpt>
      <trkpt lat="43.32461" lon="-6.59491">
        <ele>826</ele>
        <time>2016-07-09T07:43:58Z</time>
      </trkpt>
      <trkpt lat="43.32461" lon="-6.59504">
        <ele>826.8</ele>
        <time>2016-07-09T07:44:07Z</time>
      </trkpt>
      <trkpt lat="43.32461" lon="-6.59517">
        <ele>828</ele>
        <time>2016-07-09T07:44:16Z</time>
      </trkpt>
      <trkpt lat="43.32461" lon="-6.59531">
        <ele>829.1</ele>
        <time>2016-07-09T07:44:25Z</time>
      </trkpt>
      <trkpt lat="43.32461" lon="-6.59544">
        <ele>829.9</ele>
        <time>2016-07-09T07:44:34Z</time>
      </trkpt>
      <trkpt lat="43.32461" lon="-6.59558">
        <ele>830.6</ele>
        <time>2016-07-09T07:44:44Z</time>
      </trkpt>
      <trkpt lat="43.32462" lon="-6.5957">
        <ele>831.2</ele>
        <time>2016-07-09T07:44:54Z</time>
      </trkpt>
      <trkpt lat="43.32462" lon="-6.59584">
        <ele>832.2</ele>
        <time>2016-07-09T07:45:05Z</time>
      </trkpt>
      <trkpt lat="43.32461" lon="-6.59597">
        <ele>833.2</ele>
        <time>2016-07-09T07:45:15Z</time>
      </trkpt>
      <trkpt lat="43.32461" lon="-6.5961">
        <ele>834.4</ele>
        <time>2016-07-09T07:45:25Z</time>
      </trkpt>
      <trkpt lat="43.3246" lon="-6.59623">
        <ele>836.1</ele>
        <time>2016-07-09T07:45:38Z</time>
      </trkpt>
      <trkpt lat="43.32459" lon="-6.59636">
        <ele>837.9</ele>
        <time>2016-07-09T07:45:49Z</time>
      </trkpt>
      <trkpt lat="43.32457" lon="-6.5965">
        <ele>839.7</ele>
        <time>2016-07-09T07:45:59Z</time>
      </trkpt>
      <trkpt lat="43.32455" lon="-6.59663">
        <ele>840.9</ele>
        <time>2016-07-09T07:46:08Z</time>
      </trkpt>
      <trkpt lat="43.32449" lon="-6.59674">
        <ele>841.9</ele>
        <time>2016-07-09T07:46:18Z</time>
      </trkpt>
      <trkpt lat="43.32442" lon="-6.59681">
        <ele>845</ele>
        <time>2016-07-09T07:46:43Z</time>
      </trkpt>
      <trkpt lat="43.32433" lon="-6.59686">
        <ele>845.8</ele>
        <time>2016-07-09T07:48:06Z</time>
      </trkpt>
      <trkpt lat="43.32423" lon="-6.5969">
        <ele>846.5</ele>
        <time>2016-07-09T07:48:16Z</time>
      </trkpt>
      <trkpt lat="43.32414" lon="-6.59691">
        <ele>847.9</ele>
        <time>2016-07-09T07:48:51Z</time>
      </trkpt>
      <trkpt lat="43.32405" lon="-6.59693">
        <ele>848.2</ele>
        <time>2016-07-09T07:49:13Z</time>
      </trkpt>
      <trkpt lat="43.32396" lon="-6.59696">
        <ele>848.7</ele>
        <time>2016-07-09T07:49:24Z</time>
      </trkpt>
      <trkpt lat="43.32387" lon="-6.59699">
        <ele>849.9</ele>
        <time>2016-07-09T07:49:35Z</time>
      </trkpt>
      <trkpt lat="43.32378" lon="-6.59701">
        <ele>851.2</ele>
        <time>2016-07-09T07:49:46Z</time>
      </trkpt>
      <trkpt lat="43.32369" lon="-6.59705">
        <ele>852.7</ele>
        <time>2016-07-09T07:49:57Z</time>
      </trkpt>
      <trkpt lat="43.3236" lon="-6.5971">
        <ele>854</ele>
        <time>2016-07-09T07:50:08Z</time>
      </trkpt>
      <trkpt lat="43.32351" lon="-6.5971">
        <ele>856.2</ele>
        <time>2016-07-09T07:50:19Z</time>
      </trkpt>
      <trkpt lat="43.32342" lon="-6.59706">
        <ele>858</ele>
        <time>2016-07-09T07:50:28Z</time>
      </trkpt>
      <trkpt lat="43.32335" lon="-6.59699">
        <ele>859.3</ele>
        <time>2016-07-09T07:50:39Z</time>
      </trkpt>
      <trkpt lat="43.3233" lon="-6.59688">
        <ele>860.9</ele>
        <time>2016-07-09T07:50:51Z</time>
      </trkpt>
      <trkpt lat="43.32323" lon="-6.59679">
        <ele>863</ele>
        <time>2016-07-09T07:51:05Z</time>
      </trkpt>
      <trkpt lat="43.32315" lon="-6.59672">
        <ele>865.2</ele>
        <time>2016-07-09T07:51:17Z</time>
      </trkpt>
      <trkpt lat="43.32308" lon="-6.59663">
        <ele>868.6</ele>
        <time>2016-07-09T07:51:45Z</time>
      </trkpt>
      <trkpt lat="43.323" lon="-6.59656">
        <ele>869.3</ele>
        <time>2016-07-09T07:51:56Z</time>
      </trkpt>
      <trkpt lat="43.32292" lon="-6.59648">
        <ele>869.8</ele>
        <time>2016-07-09T07:52:06Z</time>
      </trkpt>
      <trkpt lat="43.32284" lon="-6.59644">
        <ele>870.1</ele>
        <time>2016-07-09T07:52:15Z</time>
      </trkpt>
      <trkpt lat="43.32274" lon="-6.5964">
        <ele>870.7</ele>
        <time>2016-07-09T07:52:24Z</time>
      </trkpt>
      <trkpt lat="43.32264" lon="-6.59638">
        <ele>871.2</ele>
        <time>2016-07-09T07:52:33Z</time>
      </trkpt>
      <trkpt lat="43.32255" lon="-6.5964">
        <ele>872.7</ele>
        <time>2016-07-09T07:52:44Z</time>
      </trkpt>
      <trkpt lat="43.32245" lon="-6.59643">
        <ele>874.2</ele>
        <time>2016-07-09T07:52:55Z</time>
      </trkpt>
      <trkpt lat="43.32236" lon="-6.59645">
        <ele>875</ele>
        <time>2016-07-09T07:53:05Z</time>
      </trkpt>
      <trkpt lat="43.32226" lon="-6.59647">
        <ele>876</ele>
        <time>2016-07-09T07:53:16Z</time>
      </trkpt>
      <trkpt lat="43.32217" lon="-6.59649">
        <ele>878.1</ele>
        <time>2016-07-09T07:53:31Z</time>
      </trkpt>
      <trkpt lat="43.32207" lon="-6.59648">
        <ele>879</ele>
        <time>2016-07-09T07:54:36Z</time>
      </trkpt>
      <trkpt lat="43.32198" lon="-6.59651">
        <ele>879.5</ele>
        <time>2016-07-09T07:54:55Z</time>
      </trkpt>
      <trkpt lat="43.32189" lon="-6.59652">
        <ele>880</ele>
        <time>2016-07-09T07:55:05Z</time>
      </trkpt>
      <trkpt lat="43.32179" lon="-6.59654">
        <ele>881.2</ele>
        <time>2016-07-09T07:55:16Z</time>
      </trkpt>
      <trkpt lat="43.3217" lon="-6.59655">
        <ele>882.5</ele>
        <time>2016-07-09T07:55:26Z</time>
      </trkpt>
      <trkpt lat="43.32161" lon="-6.59656">
        <ele>883.5</ele>
        <time>2016-07-09T07:55:36Z</time>
      </trkpt>
      <trkpt lat="43.32151" lon="-6.59658">
        <ele>885.7</ele>
        <time>2016-07-09T07:55:46Z</time>
      </trkpt>
      <trkpt lat="43.32143" lon="-6.59663">
        <ele>887.2</ele>
        <time>2016-07-09T07:55:56Z</time>
      </trkpt>
      <trkpt lat="43.32134" lon="-6.59666">
        <ele>887.8</ele>
        <time>2016-07-09T07:56:06Z</time>
      </trkpt>
      <trkpt lat="43.32125" lon="-6.59671">
        <ele>888.3</ele>
        <time>2016-07-09T07:56:15Z</time>
      </trkpt>
      <trkpt lat="43.32117" lon="-6.59678">
        <ele>889.1</ele>
        <time>2016-07-09T07:56:24Z</time>
      </trkpt>
      <trkpt lat="43.32111" lon="-6.59688">
        <ele>889.9</ele>
        <time>2016-07-09T07:56:34Z</time>
      </trkpt>
      <trkpt lat="43.32108" lon="-6.597">
        <ele>890.4</ele>
        <time>2016-07-09T07:56:43Z</time>
      </trkpt>
      <trkpt lat="43.32106" lon="-6.59712">
        <ele>891.6</ele>
        <time>2016-07-09T07:56:52Z</time>
      </trkpt>
      <trkpt lat="43.32106" lon="-6.59725">
        <ele>892.7</ele>
        <time>2016-07-09T07:57:02Z</time>
      </trkpt>
      <trkpt lat="43.32108" lon="-6.59738">
        <ele>894.2</ele>
        <time>2016-07-09T07:57:14Z</time>
      </trkpt>
      <trkpt lat="43.32111" lon="-6.5975">
        <ele>895.8</ele>
        <time>2016-07-09T07:57:26Z</time>
      </trkpt>
      <trkpt lat="43.32115" lon="-6.59761">
        <ele>897.3</ele>
        <time>2016-07-09T07:57:37Z</time>
      </trkpt>
      <trkpt lat="43.32115" lon="-6.59775">
        <ele>899.7</ele>
        <time>2016-07-09T07:57:49Z</time>
      </trkpt>
      <trkpt lat="43.32113" lon="-6.59788">
        <ele>901</ele>
        <time>2016-07-09T07:58:00Z</time>
      </trkpt>
      <trkpt lat="43.3211" lon="-6.59799">
        <ele>903.7</ele>
        <time>2016-07-09T07:58:23Z</time>
      </trkpt>
      <trkpt lat="43.32107" lon="-6.59812">
        <ele>904.5</ele>
        <time>2016-07-09T07:58:33Z</time>
      </trkpt>
      <trkpt lat="43.32104" lon="-6.59825">
        <ele>905.3</ele>
        <time>2016-07-09T07:58:44Z</time>
      </trkpt>
      <trkpt lat="43.32102" lon="-6.59837">
        <ele>906.1</ele>
        <time>2016-07-09T07:58:54Z</time>
      </trkpt>
      <trkpt lat="43.32099" lon="-6.5985">
        <ele>906.8</ele>
        <time>2016-07-09T07:59:04Z</time>
      </trkpt>
      <trkpt lat="43.32095" lon="-6.59861">
        <ele>907.4</ele>
        <time>2016-07-09T07:59:13Z</time>
      </trkpt>
      <trkpt lat="43.32092" lon="-6.59873">
        <ele>908</ele>
        <time>2016-07-09T07:59:22Z</time>
      </trkpt>
      <trkpt lat="43.32088" lon="-6.59886">
        <ele>908.4</ele>
        <time>2016-07-09T07:59:32Z</time>
      </trkpt>
      <trkpt lat="43.32084" lon="-6.59899">
        <ele>909.1</ele>
        <time>2016-07-09T07:59:42Z</time>
      </trkpt>
      <trkpt lat="43.32079" lon="-6.5991">
        <ele>910.1</ele>
        <time>2016-07-09T07:59:51Z</time>
      </trkpt>
      <trkpt lat="43.32074" lon="-6.59923">
        <ele>910.7</ele>
        <time>2016-07-09T08:00:00Z</time>
      </trkpt>
      <trkpt lat="43.32068" lon="-6.59932">
        <ele>911.4</ele>
        <time>2016-07-09T08:00:09Z</time>
      </trkpt>
      <trkpt lat="43.32063" lon="-6.59943">
        <ele>912</ele>
        <time>2016-07-09T08:00:20Z</time>
      </trkpt>
      <trkpt lat="43.32058" lon="-6.59954">
        <ele>912.7</ele>
        <time>2016-07-09T08:00:29Z</time>
      </trkpt>
      <trkpt lat="43.32052" lon="-6.59964">
        <ele>913.4</ele>
        <time>2016-07-09T08:00:39Z</time>
      </trkpt>
      <trkpt lat="43.32044" lon="-6.5997">
        <ele>915.7</ele>
        <time>2016-07-09T08:02:11Z</time>
      </trkpt>
      <trkpt lat="43.32038" lon="-6.5998">
        <ele>915.1</ele>
        <time>2016-07-09T08:02:25Z</time>
      </trkpt>
      <trkpt lat="43.32031" lon="-6.59989">
        <ele>915.6</ele>
        <time>2016-07-09T08:02:35Z</time>
      </trkpt>
      <trkpt lat="43.32026" lon="-6.6">
        <ele>915.6</ele>
        <time>2016-07-09T08:02:44Z</time>
      </trkpt>
      <trkpt lat="43.3202" lon="-6.6001">
        <ele>915.8</ele>
        <time>2016-07-09T08:02:52Z</time>
      </trkpt>
      <trkpt lat="43.32014" lon="-6.60021">
        <ele>916.3</ele>
        <time>2016-07-09T08:03:01Z</time>
      </trkpt>
      <trkpt lat="43.32009" lon="-6.60032">
        <ele>917.5</ele>
        <time>2016-07-09T08:03:09Z</time>
      </trkpt>
      <trkpt lat="43.32003" lon="-6.60043">
        <ele>918.3</ele>
        <time>2016-07-09T08:03:18Z</time>
      </trkpt>
      <trkpt lat="43.31997" lon="-6.60053">
        <ele>919</ele>
        <time>2016-07-09T08:03:26Z</time>
      </trkpt>
      <trkpt lat="43.31992" lon="-6.60063">
        <ele>919.5</ele>
        <time>2016-07-09T08:03:34Z</time>
      </trkpt>
      <trkpt lat="43.31987" lon="-6.60075">
        <ele>919.9</ele>
        <time>2016-07-09T08:03:43Z</time>
      </trkpt>
      <trkpt lat="43.31981" lon="-6.60086">
        <ele>920.5</ele>
        <time>2016-07-09T08:03:52Z</time>
      </trkpt>
      <trkpt lat="43.31975" lon="-6.60096">
        <ele>920.9</ele>
        <time>2016-07-09T08:04:00Z</time>
      </trkpt>
      <trkpt lat="43.3197" lon="-6.60107">
        <ele>921.3</ele>
        <time>2016-07-09T08:04:09Z</time>
      </trkpt>
      <trkpt lat="43.31963" lon="-6.60118">
        <ele>921.9</ele>
        <time>2016-07-09T08:04:18Z</time>
      </trkpt>
      <trkpt lat="43.31956" lon="-6.60127">
        <ele>922.5</ele>
        <time>2016-07-09T08:04:26Z</time>
      </trkpt>
      <trkpt lat="43.3195" lon="-6.60136">
        <ele>923.1</ele>
        <time>2016-07-09T08:04:34Z</time>
      </trkpt>
      <trkpt lat="43.31943" lon="-6.60145">
        <ele>923.4</ele>
        <time>2016-07-09T08:04:43Z</time>
      </trkpt>
      <trkpt lat="43.31937" lon="-6.60155">
        <ele>923.6</ele>
        <time>2016-07-09T08:04:51Z</time>
      </trkpt>
      <trkpt lat="43.31931" lon="-6.60165">
        <ele>923.8</ele>
        <time>2016-07-09T08:05:00Z</time>
      </trkpt>
      <trkpt lat="43.31925" lon="-6.60175">
        <ele>924</ele>
        <time>2016-07-09T08:05:09Z</time>
      </trkpt>
      <trkpt lat="43.31919" lon="-6.60186">
        <ele>924.2</ele>
        <time>2016-07-09T08:05:18Z</time>
      </trkpt>
      <trkpt lat="43.31914" lon="-6.60197">
        <ele>924.6</ele>
        <time>2016-07-09T08:05:27Z</time>
      </trkpt>
      <trkpt lat="43.31909" lon="-6.60208">
        <ele>924.7</ele>
        <time>2016-07-09T08:05:36Z</time>
      </trkpt>
      <trkpt lat="43.31904" lon="-6.6022">
        <ele>924.9</ele>
        <time>2016-07-09T08:05:45Z</time>
      </trkpt>
      <trkpt lat="43.31899" lon="-6.6023">
        <ele>925.7</ele>
        <time>2016-07-09T08:05:53Z</time>
      </trkpt>
      <trkpt lat="43.31893" lon="-6.60241">
        <ele>926.5</ele>
        <time>2016-07-09T08:06:02Z</time>
      </trkpt>
      <trkpt lat="43.31887" lon="-6.60252">
        <ele>927.4</ele>
        <time>2016-07-09T08:06:11Z</time>
      </trkpt>
      <trkpt lat="43.31881" lon="-6.60262">
        <ele>927.8</ele>
        <time>2016-07-09T08:06:20Z</time>
      </trkpt>
      <trkpt lat="43.31874" lon="-6.60272">
        <ele>928.1</ele>
        <time>2016-07-09T08:06:30Z</time>
      </trkpt>
      <trkpt lat="43.31868" lon="-6.60281">
        <ele>928.4</ele>
        <time>2016-07-09T08:06:39Z</time>
      </trkpt>
      <trkpt lat="43.31862" lon="-6.60291">
        <ele>928.7</ele>
        <time>2016-07-09T08:06:47Z</time>
      </trkpt>
      <trkpt lat="43.31856" lon="-6.60302">
        <ele>929</ele>
        <time>2016-07-09T08:06:56Z</time>
      </trkpt>
      <trkpt lat="43.3185" lon="-6.60313">
        <ele>929.6</ele>
        <time>2016-07-09T08:07:05Z</time>
      </trkpt>
      <trkpt lat="43.31846" lon="-6.60324">
        <ele>929.9</ele>
        <time>2016-07-09T08:07:14Z</time>
      </trkpt>
      <trkpt lat="43.31841" lon="-6.60335">
        <ele>930</ele>
        <time>2016-07-09T08:07:23Z</time>
      </trkpt>
      <trkpt lat="43.31836" lon="-6.60345">
        <ele>930.1</ele>
        <time>2016-07-09T08:07:32Z</time>
      </trkpt>
      <trkpt lat="43.31828" lon="-6.60354">
        <ele>930.3</ele>
        <time>2016-07-09T08:07:42Z</time>
      </trkpt>
      <trkpt lat="43.31818" lon="-6.60358">
        <ele>931.2</ele>
        <time>2016-07-09T08:07:50Z</time>
      </trkpt>
      <trkpt lat="43.31809" lon="-6.60357">
        <ele>931.7</ele>
        <time>2016-07-09T08:07:58Z</time>
      </trkpt>
      <trkpt lat="43.31799" lon="-6.60352">
        <ele>932.3</ele>
        <time>2016-07-09T08:08:06Z</time>
      </trkpt>
      <trkpt lat="43.3179" lon="-6.60349">
        <ele>932.9</ele>
        <time>2016-07-09T08:08:14Z</time>
      </trkpt>
      <trkpt lat="43.3178" lon="-6.60347">
        <ele>933.7</ele>
        <time>2016-07-09T08:08:24Z</time>
      </trkpt>
      <trkpt lat="43.31771" lon="-6.60345">
        <ele>934.9</ele>
        <time>2016-07-09T08:08:34Z</time>
      </trkpt>
      <trkpt lat="43.31762" lon="-6.60343">
        <ele>935.4</ele>
        <time>2016-07-09T08:08:43Z</time>
      </trkpt>
      <trkpt lat="43.31753" lon="-6.60342">
        <ele>936.5</ele>
        <time>2016-07-09T08:08:53Z</time>
      </trkpt>
      <trkpt lat="43.31743" lon="-6.6034">
        <ele>937.3</ele>
        <time>2016-07-09T08:09:03Z</time>
      </trkpt>
      <trkpt lat="43.31734" lon="-6.60338">
        <ele>938.5</ele>
        <time>2016-07-09T08:09:12Z</time>
      </trkpt>
      <trkpt lat="43.31725" lon="-6.60333">
        <ele>939.6</ele>
        <time>2016-07-09T08:09:20Z</time>
      </trkpt>
      <trkpt lat="43.31716" lon="-6.6033">
        <ele>941.2</ele>
        <time>2016-07-09T08:09:39Z</time>
      </trkpt>
      <trkpt lat="43.31706" lon="-6.60329">
        <ele>941.7</ele>
        <time>2016-07-09T08:09:50Z</time>
      </trkpt>
      <trkpt lat="43.31697" lon="-6.60327">
        <ele>942.7</ele>
        <time>2016-07-09T08:10:00Z</time>
      </trkpt>
      <trkpt lat="43.31687" lon="-6.60326">
        <ele>943.5</ele>
        <time>2016-07-09T08:10:10Z</time>
      </trkpt>
      <trkpt lat="43.31678" lon="-6.60324">
        <ele>945.2</ele>
        <time>2016-07-09T08:10:30Z</time>
      </trkpt>
      <trkpt lat="43.3167" lon="-6.60318">
        <ele>946.4</ele>
        <time>2016-07-09T08:11:19Z</time>
      </trkpt>
      <trkpt lat="43.31661" lon="-6.60323">
        <ele>947.5</ele>
        <time>2016-07-09T08:11:44Z</time>
      </trkpt>
      <trkpt lat="43.31652" lon="-6.60326">
        <ele>948.5</ele>
        <time>2016-07-09T08:11:56Z</time>
      </trkpt>
      <trkpt lat="43.31643" lon="-6.60333">
        <ele>949.6</ele>
        <time>2016-07-09T08:12:08Z</time>
      </trkpt>
      <trkpt lat="43.31636" lon="-6.6034">
        <ele>951.7</ele>
        <time>2016-07-09T08:12:21Z</time>
      </trkpt>
      <trkpt lat="43.31629" lon="-6.60348">
        <ele>953</ele>
        <time>2016-07-09T08:12:33Z</time>
      </trkpt>
      <trkpt lat="43.31622" lon="-6.60357">
        <ele>955</ele>
        <time>2016-07-09T08:12:46Z</time>
      </trkpt>
      <trkpt lat="43.31616" lon="-6.60368">
        <ele>958.1</ele>
        <time>2016-07-09T08:13:09Z</time>
      </trkpt>
      <trkpt lat="43.31609" lon="-6.60377">
        <ele>959.3</ele>
        <time>2016-07-09T08:13:31Z</time>
      </trkpt>
      <trkpt lat="43.31602" lon="-6.60386">
        <ele>960.1</ele>
        <time>2016-07-09T08:13:42Z</time>
      </trkpt>
      <trkpt lat="43.31596" lon="-6.60394">
        <ele>961.3</ele>
        <time>2016-07-09T08:13:51Z</time>
      </trkpt>
      <trkpt lat="43.3159" lon="-6.60404">
        <ele>962</ele>
        <time>2016-07-09T08:14:00Z</time>
      </trkpt>
      <trkpt lat="43.31585" lon="-6.60415">
        <ele>962.6</ele>
        <time>2016-07-09T08:14:09Z</time>
      </trkpt>
      <trkpt lat="43.31582" lon="-6.60427">
        <ele>963.7</ele>
        <time>2016-07-09T08:14:19Z</time>
      </trkpt>
      <trkpt lat="43.31577" lon="-6.60439">
        <ele>964.6</ele>
        <time>2016-07-09T08:14:28Z</time>
      </trkpt>
      <trkpt lat="43.31572" lon="-6.6045">
        <ele>965.3</ele>
        <time>2016-07-09T08:14:37Z</time>
      </trkpt>
      <trkpt lat="43.31567" lon="-6.60463">
        <ele>966.3</ele>
        <time>2016-07-09T08:14:47Z</time>
      </trkpt>
      <trkpt lat="43.31562" lon="-6.60474">
        <ele>966.8</ele>
        <time>2016-07-09T08:14:56Z</time>
      </trkpt>
      <trkpt lat="43.31558" lon="-6.60486">
        <ele>967.7</ele>
        <time>2016-07-09T08:15:06Z</time>
      </trkpt>
      <trkpt lat="43.31554" lon="-6.60498">
        <ele>968.2</ele>
        <time>2016-07-09T08:15:15Z</time>
      </trkpt>
      <trkpt lat="43.3155" lon="-6.6051">
        <ele>968.6</ele>
        <time>2016-07-09T08:15:24Z</time>
      </trkpt>
      <trkpt lat="43.31546" lon="-6.60521">
        <ele>969</ele>
        <time>2016-07-09T08:15:33Z</time>
      </trkpt>
      <trkpt lat="43.31543" lon="-6.60533">
        <ele>969.4</ele>
        <time>2016-07-09T08:15:41Z</time>
      </trkpt>
      <trkpt lat="43.3154" lon="-6.60546">
        <ele>969.6</ele>
        <time>2016-07-09T08:15:50Z</time>
      </trkpt>
      <trkpt lat="43.31537" lon="-6.60559">
        <ele>969.8</ele>
        <time>2016-07-09T08:15:59Z</time>
      </trkpt>
      <trkpt lat="43.31533" lon="-6.6057">
        <ele>970.2</ele>
        <time>2016-07-09T08:16:08Z</time>
      </trkpt>
      <trkpt lat="43.3153" lon="-6.60583">
        <ele>970.5</ele>
        <time>2016-07-09T08:16:17Z</time>
      </trkpt>
      <trkpt lat="43.31527" lon="-6.60596">
        <ele>971.2</ele>
        <time>2016-07-09T08:16:27Z</time>
      </trkpt>
      <trkpt lat="43.31526" lon="-6.60608">
        <ele>972</ele>
        <time>2016-07-09T08:16:36Z</time>
      </trkpt>
      <trkpt lat="43.31523" lon="-6.60622">
        <ele>972.6</ele>
        <time>2016-07-09T08:16:46Z</time>
      </trkpt>
      <trkpt lat="43.3152" lon="-6.60634">
        <ele>973.5</ele>
        <time>2016-07-09T08:16:56Z</time>
      </trkpt>
      <trkpt lat="43.31517" lon="-6.60646">
        <ele>974.1</ele>
        <time>2016-07-09T08:17:05Z</time>
      </trkpt>
      <trkpt lat="43.31512" lon="-6.60658">
        <ele>974.4</ele>
        <time>2016-07-09T08:17:14Z</time>
      </trkpt>
      <trkpt lat="43.31507" lon="-6.60668">
        <ele>974.7</ele>
        <time>2016-07-09T08:17:22Z</time>
      </trkpt>
      <trkpt lat="43.315" lon="-6.60678">
        <ele>975.4</ele>
        <time>2016-07-09T08:17:31Z</time>
      </trkpt>
      <trkpt lat="43.31492" lon="-6.60684">
        <ele>976</ele>
        <time>2016-07-09T08:17:39Z</time>
      </trkpt>
      <trkpt lat="43.31482" lon="-6.60686">
        <ele>976.5</ele>
        <time>2016-07-09T08:17:48Z</time>
      </trkpt>
      <trkpt lat="43.31473" lon="-6.60689">
        <ele>977</ele>
        <time>2016-07-09T08:17:58Z</time>
      </trkpt>
      <trkpt lat="43.31464" lon="-6.60689">
        <ele>977.8</ele>
        <time>2016-07-09T08:18:07Z</time>
      </trkpt>
      <trkpt lat="43.31454" lon="-6.6069">
        <ele>978.6</ele>
        <time>2016-07-09T08:18:16Z</time>
      </trkpt>
      <trkpt lat="43.31445" lon="-6.60694">
        <ele>979.5</ele>
        <time>2016-07-09T08:18:25Z</time>
      </trkpt>
      <trkpt lat="43.31437" lon="-6.60701">
        <ele>980.8</ele>
        <time>2016-07-09T08:18:34Z</time>
      </trkpt>
      <trkpt lat="43.31432" lon="-6.60711">
        <ele>984</ele>
        <time>2016-07-09T08:19:23Z</time>
      </trkpt>
      <trkpt lat="43.31426" lon="-6.60721">
        <ele>984</ele>
        <time>2016-07-09T08:19:33Z</time>
      </trkpt>
      <trkpt lat="43.3142" lon="-6.60731">
        <ele>985.2</ele>
        <time>2016-07-09T08:19:43Z</time>
      </trkpt>
      <trkpt lat="43.31415" lon="-6.60742">
        <ele>986.5</ele>
        <time>2016-07-09T08:19:54Z</time>
      </trkpt>
      <trkpt lat="43.31411" lon="-6.60754">
        <ele>987.5</ele>
        <time>2016-07-09T08:20:04Z</time>
      </trkpt>
      <trkpt lat="43.31408" lon="-6.60766">
        <ele>988.3</ele>
        <time>2016-07-09T08:20:15Z</time>
      </trkpt>
      <trkpt lat="43.31404" lon="-6.60779">
        <ele>989.8</ele>
        <time>2016-07-09T08:20:26Z</time>
      </trkpt>
      <trkpt lat="43.31401" lon="-6.60791">
        <ele>992.2</ele>
        <time>2016-07-09T08:20:40Z</time>
      </trkpt>
      <trkpt lat="43.314" lon="-6.60805">
        <ele>993.5</ele>
        <time>2016-07-09T08:20:52Z</time>
      </trkpt>
      <trkpt lat="43.31397" lon="-6.60817">
        <ele>994.6</ele>
        <time>2016-07-09T08:21:02Z</time>
      </trkpt>
      <trkpt lat="43.31393" lon="-6.60828">
        <ele>996.2</ele>
        <time>2016-07-09T08:21:11Z</time>
      </trkpt>
      <trkpt lat="43.31389" lon="-6.6084">
        <ele>997.5</ele>
        <time>2016-07-09T08:21:19Z</time>
      </trkpt>
      <trkpt lat="43.31384" lon="-6.60852">
        <ele>998.5</ele>
        <time>2016-07-09T08:21:28Z</time>
      </trkpt>
      <trkpt lat="43.3138" lon="-6.60863">
        <ele>998.9</ele>
        <time>2016-07-09T08:21:36Z</time>
      </trkpt>
      <trkpt lat="43.31377" lon="-6.60875">
        <ele>999.1</ele>
        <time>2016-07-09T08:21:45Z</time>
      </trkpt>
      <trkpt lat="43.31373" lon="-6.60888">
        <ele>999.7</ele>
        <time>2016-07-09T08:21:55Z</time>
      </trkpt>
      <trkpt lat="43.3137" lon="-6.609">
        <ele>1000</ele>
        <time>2016-07-09T08:22:04Z</time>
      </trkpt>
      <trkpt lat="43.31367" lon="-6.60913">
        <ele>1000</ele>
        <time>2016-07-09T08:22:12Z</time>
      </trkpt>
      <trkpt lat="43.31363" lon="-6.60925">
        <ele>1000.1</ele>
        <time>2016-07-09T08:22:21Z</time>
      </trkpt>
      <trkpt lat="43.31361" lon="-6.60937">
        <ele>1000.2</ele>
        <time>2016-07-09T08:22:30Z</time>
      </trkpt>
      <trkpt lat="43.31357" lon="-6.6095">
        <ele>1000.3</ele>
        <time>2016-07-09T08:22:39Z</time>
      </trkpt>
      <trkpt lat="43.31351" lon="-6.60961">
        <ele>1000.5</ele>
        <time>2016-07-09T08:22:47Z</time>
      </trkpt>
      <trkpt lat="43.31346" lon="-6.60972">
        <ele>1000.6</ele>
        <time>2016-07-09T08:22:55Z</time>
      </trkpt>
      <trkpt lat="43.3134" lon="-6.60983">
        <ele>1000.7</ele>
        <time>2016-07-09T08:23:03Z</time>
      </trkpt>
      <trkpt lat="43.31333" lon="-6.60993">
        <ele>1000.8</ele>
        <time>2016-07-09T08:23:12Z</time>
      </trkpt>
      <trkpt lat="43.31328" lon="-6.61004">
        <ele>1001.3</ele>
        <time>2016-07-09T08:23:21Z</time>
      </trkpt>
      <trkpt lat="43.31323" lon="-6.61015">
        <ele>1001.8</ele>
        <time>2016-07-09T08:23:30Z</time>
      </trkpt>
      <trkpt lat="43.3132" lon="-6.61028">
        <ele>1003.5</ele>
        <time>2016-07-09T08:23:40Z</time>
      </trkpt>
      <trkpt lat="43.31318" lon="-6.61041">
        <ele>1004.7</ele>
        <time>2016-07-09T08:23:49Z</time>
      </trkpt>
      <trkpt lat="43.31316" lon="-6.61054">
        <ele>1005.9</ele>
        <time>2016-07-09T08:23:58Z</time>
      </trkpt>
      <trkpt lat="43.31309" lon="-6.61064">
        <ele>1007.5</ele>
        <time>2016-07-09T08:25:49Z</time>
      </trkpt>
      <trkpt lat="43.31306" lon="-6.61075">
        <ele>1007.3</ele>
        <time>2016-07-09T08:26:11Z</time>
      </trkpt>
      <trkpt lat="43.31299" lon="-6.61085">
        <ele>1007.2</ele>
        <time>2016-07-09T08:26:21Z</time>
      </trkpt>
      <trkpt lat="43.31293" lon="-6.61095">
        <ele>1006.9</ele>
        <time>2016-07-09T08:26:30Z</time>
      </trkpt>
      <trkpt lat="43.31286" lon="-6.61105">
        <ele>1006.8</ele>
        <time>2016-07-09T08:26:39Z</time>
      </trkpt>
      <trkpt lat="43.31279" lon="-6.61114">
        <ele>1006.9</ele>
        <time>2016-07-09T08:26:48Z</time>
      </trkpt>
      <trkpt lat="43.31272" lon="-6.61124">
        <ele>1006.7</ele>
        <time>2016-07-09T08:26:57Z</time>
      </trkpt>
      <trkpt lat="43.31265" lon="-6.61134">
        <ele>1006.6</ele>
        <time>2016-07-09T08:27:06Z</time>
      </trkpt>
      <trkpt lat="43.31258" lon="-6.61144">
        <ele>1006.5</ele>
        <time>2016-07-09T08:27:15Z</time>
      </trkpt>
      <trkpt lat="43.31251" lon="-6.61153">
        <ele>1006.6</ele>
        <time>2016-07-09T08:27:24Z</time>
      </trkpt>
      <trkpt lat="43.31244" lon="-6.61164">
        <ele>1006.6</ele>
        <time>2016-07-09T08:27:33Z</time>
      </trkpt>
      <trkpt lat="43.31238" lon="-6.61172">
        <ele>1006.6</ele>
        <time>2016-07-09T08:27:41Z</time>
      </trkpt>
      <trkpt lat="43.31232" lon="-6.61182">
        <ele>1006.6</ele>
        <time>2016-07-09T08:27:49Z</time>
      </trkpt>
      <trkpt lat="43.31226" lon="-6.61192">
        <ele>1006.8</ele>
        <time>2016-07-09T08:27:57Z</time>
      </trkpt>
      <trkpt lat="43.31221" lon="-6.61204">
        <ele>1006.8</ele>
        <time>2016-07-09T08:28:06Z</time>
      </trkpt>
      <trkpt lat="43.31218" lon="-6.61216">
        <ele>1006.1</ele>
        <time>2016-07-09T08:28:14Z</time>
      </trkpt>
      <trkpt lat="43.31215" lon="-6.61229">
        <ele>1006.3</ele>
        <time>2016-07-09T08:28:23Z</time>
      </trkpt>
      <trkpt lat="43.31211" lon="-6.61241">
        <ele>1006.3</ele>
        <time>2016-07-09T08:28:31Z</time>
      </trkpt>
      <trkpt lat="43.31205" lon="-6.61252">
        <ele>1006.3</ele>
        <time>2016-07-09T08:28:39Z</time>
      </trkpt>
      <trkpt lat="43.31199" lon="-6.61262">
        <ele>1006.2</ele>
        <time>2016-07-09T08:28:47Z</time>
      </trkpt>
      <trkpt lat="43.31194" lon="-6.61272">
        <ele>1006.2</ele>
        <time>2016-07-09T08:28:55Z</time>
      </trkpt>
      <trkpt lat="43.31187" lon="-6.61282">
        <ele>1005.8</ele>
        <time>2016-07-09T08:29:03Z</time>
      </trkpt>
      <trkpt lat="43.31179" lon="-6.61291">
        <ele>1005.5</ele>
        <time>2016-07-09T08:29:11Z</time>
      </trkpt>
      <trkpt lat="43.31171" lon="-6.61297">
        <ele>1005.2</ele>
        <time>2016-07-09T08:29:19Z</time>
      </trkpt>
      <trkpt lat="43.31163" lon="-6.61303">
        <ele>1004.8</ele>
        <time>2016-07-09T08:29:29Z</time>
      </trkpt>
      <trkpt lat="43.31155" lon="-6.61309">
        <ele>1004.7</ele>
        <time>2016-07-09T08:29:38Z</time>
      </trkpt>
      <trkpt lat="43.31147" lon="-6.61315">
        <ele>1003.8</ele>
        <time>2016-07-09T08:29:47Z</time>
      </trkpt>
      <trkpt lat="43.31138" lon="-6.61321">
        <ele>1003.1</ele>
        <time>2016-07-09T08:29:56Z</time>
      </trkpt>
      <trkpt lat="43.31129" lon="-6.61328">
        <ele>1002.6</ele>
        <time>2016-07-09T08:30:05Z</time>
      </trkpt>
      <trkpt lat="43.31121" lon="-6.61334">
        <ele>1002</ele>
        <time>2016-07-09T08:30:13Z</time>
      </trkpt>
      <trkpt lat="43.31113" lon="-6.6134">
        <ele>1001.4</ele>
        <time>2016-07-09T08:30:21Z</time>
      </trkpt>
      <trkpt lat="43.31104" lon="-6.61345">
        <ele>1001</ele>
        <time>2016-07-09T08:30:29Z</time>
      </trkpt>
      <trkpt lat="43.31096" lon="-6.61351">
        <ele>1000.8</ele>
        <time>2016-07-09T08:30:38Z</time>
      </trkpt>
      <trkpt lat="43.31087" lon="-6.61358">
        <ele>1000.6</ele>
        <time>2016-07-09T08:30:47Z</time>
      </trkpt>
      <trkpt lat="43.31079" lon="-6.61365">
        <ele>1000.2</ele>
        <time>2016-07-09T08:30:56Z</time>
      </trkpt>
      <trkpt lat="43.31072" lon="-6.61374">
        <ele>999</ele>
        <time>2016-07-09T08:31:05Z</time>
      </trkpt>
      <trkpt lat="43.31065" lon="-6.61384">
        <ele>998.9</ele>
        <time>2016-07-09T08:31:14Z</time>
      </trkpt>
      <trkpt lat="43.31058" lon="-6.61394">
        <ele>999.1</ele>
        <time>2016-07-09T08:31:23Z</time>
      </trkpt>
      <trkpt lat="43.31052" lon="-6.61404">
        <ele>999.2</ele>
        <time>2016-07-09T08:31:31Z</time>
      </trkpt>
      <trkpt lat="43.31046" lon="-6.61415">
        <ele>999.3</ele>
        <time>2016-07-09T08:31:40Z</time>
      </trkpt>
      <trkpt lat="43.3104" lon="-6.61424">
        <ele>999.3</ele>
        <time>2016-07-09T08:31:48Z</time>
      </trkpt>
      <trkpt lat="43.31036" lon="-6.61435">
        <ele>999.2</ele>
        <time>2016-07-09T08:31:56Z</time>
      </trkpt>
      <trkpt lat="43.31031" lon="-6.61448">
        <ele>999.1</ele>
        <time>2016-07-09T08:32:05Z</time>
      </trkpt>
      <trkpt lat="43.31027" lon="-6.61459">
        <ele>998.3</ele>
        <time>2016-07-09T08:32:14Z</time>
      </trkpt>
      <trkpt lat="43.31023" lon="-6.61472">
        <ele>997.4</ele>
        <time>2016-07-09T08:32:23Z</time>
      </trkpt>
      <trkpt lat="43.31019" lon="-6.61485">
        <ele>996.8</ele>
        <time>2016-07-09T08:32:32Z</time>
      </trkpt>
      <trkpt lat="43.31015" lon="-6.61496">
        <ele>996.5</ele>
        <time>2016-07-09T08:32:40Z</time>
      </trkpt>
      <trkpt lat="43.31009" lon="-6.61508">
        <ele>996.4</ele>
        <time>2016-07-09T08:32:49Z</time>
      </trkpt>
      <trkpt lat="43.31005" lon="-6.6152">
        <ele>995.7</ele>
        <time>2016-07-09T08:32:57Z</time>
      </trkpt>
      <trkpt lat="43.31" lon="-6.61532">
        <ele>995.4</ele>
        <time>2016-07-09T08:33:06Z</time>
      </trkpt>
      <trkpt lat="43.30995" lon="-6.61543">
        <ele>995.3</ele>
        <time>2016-07-09T08:33:16Z</time>
      </trkpt>
      <trkpt lat="43.3099" lon="-6.61554">
        <ele>994.8</ele>
        <time>2016-07-09T08:33:25Z</time>
      </trkpt>
      <trkpt lat="43.30984" lon="-6.61564">
        <ele>994.5</ele>
        <time>2016-07-09T08:33:33Z</time>
      </trkpt>
      <trkpt lat="43.3098" lon="-6.61576">
        <ele>994.3</ele>
        <time>2016-07-09T08:33:42Z</time>
      </trkpt>
      <trkpt lat="43.30977" lon="-6.61588">
        <ele>994.1</ele>
        <time>2016-07-09T08:33:51Z</time>
      </trkpt>
      <trkpt lat="43.30974" lon="-6.61601">
        <ele>993.7</ele>
        <time>2016-07-09T08:34:03Z</time>
      </trkpt>
      <trkpt lat="43.30974" lon="-6.61613">
        <ele>993</ele>
        <time>2016-07-09T08:34:30Z</time>
      </trkpt>
      <trkpt lat="43.30974" lon="-6.61627">
        <ele>992.7</ele>
        <time>2016-07-09T08:35:25Z</time>
      </trkpt>
      <trkpt lat="43.30973" lon="-6.6164">
        <ele>992.2</ele>
        <time>2016-07-09T08:35:35Z</time>
      </trkpt>
      <trkpt lat="43.30972" lon="-6.61653">
        <ele>992.2</ele>
        <time>2016-07-09T08:35:45Z</time>
      </trkpt>
      <trkpt lat="43.30971" lon="-6.61665">
        <ele>992.2</ele>
        <time>2016-07-09T08:35:55Z</time>
      </trkpt>
      <trkpt lat="43.30968" lon="-6.61678">
        <ele>992.1</ele>
        <time>2016-07-09T08:36:05Z</time>
      </trkpt>
      <trkpt lat="43.30964" lon="-6.6169">
        <ele>992</ele>
        <time>2016-07-09T08:36:15Z</time>
      </trkpt>
      <trkpt lat="43.30961" lon="-6.61702">
        <ele>993.7</ele>
        <time>2016-07-09T08:38:07Z</time>
      </trkpt>
      <trkpt lat="43.30955" lon="-6.61712">
        <ele>993.4</ele>
        <time>2016-07-09T08:38:55Z</time>
      </trkpt>
      <trkpt lat="43.30949" lon="-6.61721">
        <ele>993.5</ele>
        <time>2016-07-09T08:39:12Z</time>
      </trkpt>
      <trkpt lat="43.30943" lon="-6.61732">
        <ele>994.1</ele>
        <time>2016-07-09T08:39:23Z</time>
      </trkpt>
      <trkpt lat="43.30937" lon="-6.61742">
        <ele>994.4</ele>
        <time>2016-07-09T08:39:35Z</time>
      </trkpt>
      <trkpt lat="43.30932" lon="-6.61753">
        <ele>995</ele>
        <time>2016-07-09T08:39:46Z</time>
      </trkpt>
      <trkpt lat="43.30927" lon="-6.61764">
        <ele>996.5</ele>
        <time>2016-07-09T08:39:57Z</time>
      </trkpt>
      <trkpt lat="43.30923" lon="-6.61775">
        <ele>997.6</ele>
        <time>2016-07-09T08:40:08Z</time>
      </trkpt>
      <trkpt lat="43.30919" lon="-6.61787">
        <ele>998.2</ele>
        <time>2016-07-09T08:40:18Z</time>
      </trkpt>
      <trkpt lat="43.30916" lon="-6.61799">
        <ele>998.9</ele>
        <time>2016-07-09T08:40:28Z</time>
      </trkpt>
      <trkpt lat="43.30913" lon="-6.61811">
        <ele>999.3</ele>
        <time>2016-07-09T08:40:38Z</time>
      </trkpt>
      <trkpt lat="43.3091" lon="-6.61824">
        <ele>1000.5</ele>
        <time>2016-07-09T08:40:49Z</time>
      </trkpt>
      <trkpt lat="43.30908" lon="-6.61838">
        <ele>1001.2</ele>
        <time>2016-07-09T08:40:59Z</time>
      </trkpt>
      <trkpt lat="43.30905" lon="-6.6185">
        <ele>1002.1</ele>
        <time>2016-07-09T08:41:09Z</time>
      </trkpt>
      <trkpt lat="43.30903" lon="-6.61862">
        <ele>1003</ele>
        <time>2016-07-09T08:41:20Z</time>
      </trkpt>
      <trkpt lat="43.30899" lon="-6.61874">
        <ele>1003.9</ele>
        <time>2016-07-09T08:41:31Z</time>
      </trkpt>
      <trkpt lat="43.30896" lon="-6.61886">
        <ele>1004.5</ele>
        <time>2016-07-09T08:41:43Z</time>
      </trkpt>
      <trkpt lat="43.30892" lon="-6.61897">
        <ele>1006</ele>
        <time>2016-07-09T08:41:56Z</time>
      </trkpt>
      <trkpt lat="43.30887" lon="-6.61908">
        <ele>1007.4</ele>
        <time>2016-07-09T08:42:09Z</time>
      </trkpt>
      <trkpt lat="43.30883" lon="-6.6192">
        <ele>1009.3</ele>
        <time>2016-07-09T08:42:22Z</time>
      </trkpt>
      <trkpt lat="43.3088" lon="-6.61932">
        <ele>1011.6</ele>
        <time>2016-07-09T08:42:37Z</time>
      </trkpt>
      <trkpt lat="43.30877" lon="-6.61944">
        <ele>1013.5</ele>
        <time>2016-07-09T08:42:51Z</time>
      </trkpt>
      <trkpt lat="43.30871" lon="-6.61954">
        <ele>1015</ele>
        <time>2016-07-09T08:43:06Z</time>
      </trkpt>
      <trkpt lat="43.3087" lon="-6.61967">
        <ele>1018.1</ele>
        <time>2016-07-09T08:43:25Z</time>
      </trkpt>
      <trkpt lat="43.30865" lon="-6.61979">
        <ele>1020.3</ele>
        <time>2016-07-09T08:43:41Z</time>
      </trkpt>
      <trkpt lat="43.30861" lon="-6.6199">
        <ele>1022</ele>
        <time>2016-07-09T08:43:56Z</time>
      </trkpt>
      <trkpt lat="43.30857" lon="-6.62001">
        <ele>1024.5</ele>
        <time>2016-07-09T08:44:12Z</time>
      </trkpt>
      <trkpt lat="43.30855" lon="-6.62013">
        <ele>1029.2</ele>
        <time>2016-07-09T08:44:47Z</time>
      </trkpt>
      <trkpt lat="43.30851" lon="-6.62025">
        <ele>1029.8</ele>
        <time>2016-07-09T08:45:03Z</time>
      </trkpt>
      <trkpt lat="43.30848" lon="-6.62037">
        <ele>1031.9</ele>
        <time>2016-07-09T08:45:20Z</time>
      </trkpt>
      <trkpt lat="43.30845" lon="-6.62049">
        <ele>1033.9</ele>
        <time>2016-07-09T08:45:37Z</time>
      </trkpt>
      <trkpt lat="43.30842" lon="-6.62061">
        <ele>1037</ele>
        <time>2016-07-09T08:46:04Z</time>
      </trkpt>
      <trkpt lat="43.30841" lon="-6.62073">
        <ele>1040.2</ele>
        <time>2016-07-09T08:46:30Z</time>
      </trkpt>
      <trkpt lat="43.30837" lon="-6.62085">
        <ele>1042.9</ele>
        <time>2016-07-09T08:46:50Z</time>
      </trkpt>
      <trkpt lat="43.30833" lon="-6.62097">
        <ele>1047</ele>
        <time>2016-07-09T08:48:10Z</time>
      </trkpt>
      <trkpt lat="43.3083" lon="-6.62109">
        <ele>1048.6</ele>
        <time>2016-07-09T08:48:27Z</time>
      </trkpt>
      <trkpt lat="43.30827" lon="-6.62121">
        <ele>1050.4</ele>
        <time>2016-07-09T08:48:41Z</time>
      </trkpt>
      <trkpt lat="43.30824" lon="-6.62133">
        <ele>1052.4</ele>
        <time>2016-07-09T08:48:56Z</time>
      </trkpt>
      <trkpt lat="43.3082" lon="-6.62144">
        <ele>1054.5</ele>
        <time>2016-07-09T08:49:11Z</time>
      </trkpt>
      <trkpt lat="43.30817" lon="-6.62156">
        <ele>1056.9</ele>
        <time>2016-07-09T08:49:27Z</time>
      </trkpt>
      <trkpt lat="43.30814" lon="-6.62168">
        <ele>1061.6</ele>
        <time>2016-07-09T08:49:53Z</time>
      </trkpt>
      <trkpt lat="43.30812" lon="-6.62181">
        <ele>1063.6</ele>
        <time>2016-07-09T08:50:13Z</time>
      </trkpt>
      <trkpt lat="43.30809" lon="-6.62193">
        <ele>1067.3</ele>
        <time>2016-07-09T08:51:05Z</time>
      </trkpt>
      <trkpt lat="43.30806" lon="-6.62205">
        <ele>1069.5</ele>
        <time>2016-07-09T08:51:25Z</time>
      </trkpt>
      <trkpt lat="43.30806" lon="-6.62218">
        <ele>1072.1</ele>
        <time>2016-07-09T08:51:43Z</time>
      </trkpt>
      <trkpt lat="43.30806" lon="-6.6223">
        <ele>1074.4</ele>
        <time>2016-07-09T08:51:58Z</time>
      </trkpt>
      <trkpt lat="43.30808" lon="-6.62242">
        <ele>1079</ele>
        <time>2016-07-09T08:52:46Z</time>
      </trkpt>
      <trkpt lat="43.30808" lon="-6.62255">
        <ele>1079.4</ele>
        <time>2016-07-09T08:52:59Z</time>
      </trkpt>
      <trkpt lat="43.30807" lon="-6.62267">
        <ele>1080.5</ele>
        <time>2016-07-09T08:53:11Z</time>
      </trkpt>
      <trkpt lat="43.30804" lon="-6.6228">
        <ele>1081.9</ele>
        <time>2016-07-09T08:53:22Z</time>
      </trkpt>
      <trkpt lat="43.30803" lon="-6.62293">
        <ele>1082.9</ele>
        <time>2016-07-09T08:53:34Z</time>
      </trkpt>
      <trkpt lat="43.30801" lon="-6.62305">
        <ele>1084.4</ele>
        <time>2016-07-09T08:53:45Z</time>
      </trkpt>
      <trkpt lat="43.30797" lon="-6.62318">
        <ele>1086</ele>
        <time>2016-07-09T08:54:01Z</time>
      </trkpt>
      <trkpt lat="43.30795" lon="-6.6233">
        <ele>1087.5</ele>
        <time>2016-07-09T08:54:13Z</time>
      </trkpt>
      <trkpt lat="43.30791" lon="-6.62342">
        <ele>1089</ele>
        <time>2016-07-09T08:54:25Z</time>
      </trkpt>
      <trkpt lat="43.30786" lon="-6.62353">
        <ele>1090.9</ele>
        <time>2016-07-09T08:54:50Z</time>
      </trkpt>
      <trkpt lat="43.30783" lon="-6.62365">
        <ele>1094</ele>
        <time>2016-07-09T08:55:03Z</time>
      </trkpt>
      <trkpt lat="43.30779" lon="-6.62377">
        <ele>1094.8</ele>
        <time>2016-07-09T08:55:12Z</time>
      </trkpt>
      <trkpt lat="43.30776" lon="-6.62389">
        <ele>1095.1</ele>
        <time>2016-07-09T08:55:23Z</time>
      </trkpt>
      <trkpt lat="43.30774" lon="-6.62402">
        <ele>1095.8</ele>
        <time>2016-07-09T08:55:35Z</time>
      </trkpt>
      <trkpt lat="43.30771" lon="-6.62414">
        <ele>1096.4</ele>
        <time>2016-07-09T08:55:47Z</time>
      </trkpt>
      <trkpt lat="43.30768" lon="-6.62427">
        <ele>1097.7</ele>
        <time>2016-07-09T08:55:59Z</time>
      </trkpt>
      <trkpt lat="43.30764" lon="-6.62438">
        <ele>1099.1</ele>
        <time>2016-07-09T08:56:11Z</time>
      </trkpt>
      <trkpt lat="43.3076" lon="-6.62451">
        <ele>1100.4</ele>
        <time>2016-07-09T08:56:23Z</time>
      </trkpt>
      <trkpt lat="43.30756" lon="-6.62463">
        <ele>1102.1</ele>
        <time>2016-07-09T08:56:35Z</time>
      </trkpt>
      <trkpt lat="43.30753" lon="-6.62474">
        <ele>1103.5</ele>
        <time>2016-07-09T08:56:46Z</time>
      </trkpt>
      <trkpt lat="43.30748" lon="-6.62486">
        <ele>1104.7</ele>
        <time>2016-07-09T08:56:58Z</time>
      </trkpt>
      <trkpt lat="43.30742" lon="-6.62496">
        <ele>1107.5</ele>
        <time>2016-07-09T08:57:18Z</time>
      </trkpt>
      <trkpt lat="43.30733" lon="-6.62498">
        <ele>1110.1</ele>
        <time>2016-07-09T08:58:23Z</time>
      </trkpt>
      <trkpt lat="43.3073" lon="-6.6251">
        <ele>1110.6</ele>
        <time>2016-07-09T08:58:39Z</time>
      </trkpt>
      <trkpt lat="43.30726" lon="-6.62522">
        <ele>1111.3</ele>
        <time>2016-07-09T08:58:49Z</time>
      </trkpt>
      <trkpt lat="43.30722" lon="-6.62533">
        <ele>1112.5</ele>
        <time>2016-07-09T08:59:00Z</time>
      </trkpt>
      <trkpt lat="43.30716" lon="-6.62544">
        <ele>1113.6</ele>
        <time>2016-07-09T08:59:11Z</time>
      </trkpt>
      <trkpt lat="43.3071" lon="-6.62553">
        <ele>1114.3</ele>
        <time>2016-07-09T08:59:22Z</time>
      </trkpt>
      <trkpt lat="43.30704" lon="-6.62563">
        <ele>1115.9</ele>
        <time>2016-07-09T08:59:34Z</time>
      </trkpt>
      <trkpt lat="43.30699" lon="-6.62574">
        <ele>1117.4</ele>
        <time>2016-07-09T08:59:47Z</time>
      </trkpt>
      <trkpt lat="43.30698" lon="-6.62587">
        <ele>1119.2</ele>
        <time>2016-07-09T09:00:02Z</time>
      </trkpt>
      <trkpt lat="43.30703" lon="-6.62597">
        <ele>1121.5</ele>
        <time>2016-07-09T09:00:16Z</time>
      </trkpt>
      <trkpt lat="43.30707" lon="-6.62609">
        <ele>1123.5</ele>
        <time>2016-07-09T09:00:29Z</time>
      </trkpt>
      <trkpt lat="43.30716" lon="-6.62613">
        <ele>1128.5</ele>
        <time>2016-07-09T09:02:06Z</time>
      </trkpt>
      <trkpt lat="43.30709" lon="-6.62622">
        <ele>1130.2</ele>
        <time>2016-07-09T09:04:09Z</time>
      </trkpt>
      <trkpt lat="43.30702" lon="-6.6263">
        <ele>1130.4</ele>
        <time>2016-07-09T09:04:20Z</time>
      </trkpt>
      <trkpt lat="43.30696" lon="-6.6264">
        <ele>1130.5</ele>
        <time>2016-07-09T09:04:31Z</time>
      </trkpt>
      <trkpt lat="43.30689" lon="-6.62649">
        <ele>1131.1</ele>
        <time>2016-07-09T09:04:43Z</time>
      </trkpt>
      <trkpt lat="43.30681" lon="-6.62655">
        <ele>1132.2</ele>
        <time>2016-07-09T09:04:54Z</time>
      </trkpt>
      <trkpt lat="43.30673" lon="-6.62664">
        <ele>1133.1</ele>
        <time>2016-07-09T09:05:05Z</time>
      </trkpt>
      <trkpt lat="43.30666" lon="-6.62671">
        <ele>1134.4</ele>
        <time>2016-07-09T09:05:16Z</time>
      </trkpt>
      <trkpt lat="43.30659" lon="-6.62678">
        <ele>1135.1</ele>
        <time>2016-07-09T09:05:27Z</time>
      </trkpt>
      <trkpt lat="43.30651" lon="-6.62686">
        <ele>1136</ele>
        <time>2016-07-09T09:05:39Z</time>
      </trkpt>
      <trkpt lat="43.30645" lon="-6.62696">
        <ele>1137.6</ele>
        <time>2016-07-09T09:05:52Z</time>
      </trkpt>
      <trkpt lat="43.30636" lon="-6.62701">
        <ele>1138.8</ele>
        <time>2016-07-09T09:06:04Z</time>
      </trkpt>
      <trkpt lat="43.30628" lon="-6.62707">
        <ele>1140.4</ele>
        <time>2016-07-09T09:06:19Z</time>
      </trkpt>
      <trkpt lat="43.3062" lon="-6.62716">
        <ele>1141.9</ele>
        <time>2016-07-09T09:06:32Z</time>
      </trkpt>
      <trkpt lat="43.30615" lon="-6.62727">
        <ele>1143.4</ele>
        <time>2016-07-09T09:06:44Z</time>
      </trkpt>
      <trkpt lat="43.30608" lon="-6.62735">
        <ele>1146.1</ele>
        <time>2016-07-09T09:07:40Z</time>
      </trkpt>
      <trkpt lat="43.30601" lon="-6.62744">
        <ele>1146.5</ele>
        <time>2016-07-09T09:07:51Z</time>
      </trkpt>
      <trkpt lat="43.30595" lon="-6.62754">
        <ele>1147</ele>
        <time>2016-07-09T09:08:00Z</time>
      </trkpt>
      <trkpt lat="43.30588" lon="-6.62763">
        <ele>1147.4</ele>
        <time>2016-07-09T09:08:09Z</time>
      </trkpt>
      <trkpt lat="43.30584" lon="-6.62774">
        <ele>1147.9</ele>
        <time>2016-07-09T09:08:20Z</time>
      </trkpt>
      <trkpt lat="43.30582" lon="-6.62786">
        <ele>1148</ele>
        <time>2016-07-09T09:08:30Z</time>
      </trkpt>
      <trkpt lat="43.30581" lon="-6.628">
        <ele>1148.2</ele>
        <time>2016-07-09T09:08:40Z</time>
      </trkpt>
      <trkpt lat="43.30578" lon="-6.62812">
        <ele>1148.8</ele>
        <time>2016-07-09T09:08:48Z</time>
      </trkpt>
      <trkpt lat="43.30574" lon="-6.62823">
        <ele>1149.2</ele>
        <time>2016-07-09T09:08:56Z</time>
      </trkpt>
      <trkpt lat="43.3057" lon="-6.62834">
        <ele>1149.6</ele>
        <time>2016-07-09T09:09:05Z</time>
      </trkpt>
      <trkpt lat="43.30565" lon="-6.62847">
        <ele>1150.5</ele>
        <time>2016-07-09T09:09:16Z</time>
      </trkpt>
      <trkpt lat="43.30559" lon="-6.62858">
        <ele>1151.1</ele>
        <time>2016-07-09T09:09:26Z</time>
      </trkpt>
      <trkpt lat="43.30555" lon="-6.62869">
        <ele>1152</ele>
        <time>2016-07-09T09:09:36Z</time>
      </trkpt>
      <trkpt lat="43.30549" lon="-6.62881">
        <ele>1153</ele>
        <time>2016-07-09T09:09:46Z</time>
      </trkpt>
      <trkpt lat="43.30545" lon="-6.62891">
        <ele>1154.2</ele>
        <time>2016-07-09T09:09:58Z</time>
      </trkpt>
      <trkpt lat="43.30541" lon="-6.62903">
        <ele>1154.9</ele>
        <time>2016-07-09T09:10:07Z</time>
      </trkpt>
      <trkpt lat="43.30538" lon="-6.62915">
        <ele>1155.3</ele>
        <time>2016-07-09T09:10:16Z</time>
      </trkpt>
      <trkpt lat="43.30533" lon="-6.62926">
        <ele>1155.6</ele>
        <time>2016-07-09T09:10:25Z</time>
      </trkpt>
      <trkpt lat="43.30528" lon="-6.62937">
        <ele>1155.8</ele>
        <time>2016-07-09T09:10:35Z</time>
      </trkpt>
      <trkpt lat="43.30523" lon="-6.62948">
        <ele>1156.3</ele>
        <time>2016-07-09T09:10:45Z</time>
      </trkpt>
      <trkpt lat="43.3052" lon="-6.62959">
        <ele>1157.1</ele>
        <time>2016-07-09T09:10:55Z</time>
      </trkpt>
      <trkpt lat="43.30514" lon="-6.6297">
        <ele>1158.2</ele>
        <time>2016-07-09T09:11:05Z</time>
      </trkpt>
      <trkpt lat="43.30509" lon="-6.62979">
        <ele>1159.1</ele>
        <time>2016-07-09T09:11:14Z</time>
      </trkpt>
      <trkpt lat="43.30503" lon="-6.6299">
        <ele>1159.7</ele>
        <time>2016-07-09T09:11:24Z</time>
      </trkpt>
      <trkpt lat="43.30506" lon="-6.62978">
        <ele>1161.3</ele>
        <time>2016-07-09T09:12:02Z</time>
      </trkpt>
      <trkpt lat="43.305" lon="-6.62989">
        <ele>1161.1</ele>
        <time>2016-07-09T09:13:17Z</time>
      </trkpt>
      <trkpt lat="43.30496" lon="-6.63001">
        <ele>1161.2</ele>
        <time>2016-07-09T09:13:27Z</time>
      </trkpt>
      <trkpt lat="43.30489" lon="-6.63011">
        <ele>1161.5</ele>
        <time>2016-07-09T09:13:36Z</time>
      </trkpt>
      <trkpt lat="43.30484" lon="-6.63022">
        <ele>1162.2</ele>
        <time>2016-07-09T09:13:45Z</time>
      </trkpt>
      <trkpt lat="43.30478" lon="-6.63031">
        <ele>1162.7</ele>
        <time>2016-07-09T09:13:55Z</time>
      </trkpt>
      <trkpt lat="43.30472" lon="-6.63042">
        <ele>1163.8</ele>
        <time>2016-07-09T09:14:05Z</time>
      </trkpt>
      <trkpt lat="43.30467" lon="-6.63052">
        <ele>1164.7</ele>
        <time>2016-07-09T09:14:15Z</time>
      </trkpt>
      <trkpt lat="43.30462" lon="-6.63064">
        <ele>1166.1</ele>
        <time>2016-07-09T09:14:26Z</time>
      </trkpt>
      <trkpt lat="43.30455" lon="-6.63073">
        <ele>1167</ele>
        <time>2016-07-09T09:14:36Z</time>
      </trkpt>
      <trkpt lat="43.30449" lon="-6.63083">
        <ele>1167.7</ele>
        <time>2016-07-09T09:14:46Z</time>
      </trkpt>
      <trkpt lat="43.30442" lon="-6.63092">
        <ele>1168.6</ele>
        <time>2016-07-09T09:14:56Z</time>
      </trkpt>
      <trkpt lat="43.30438" lon="-6.63103">
        <ele>1170.1</ele>
        <time>2016-07-09T09:15:08Z</time>
      </trkpt>
      <trkpt lat="43.30432" lon="-6.63112">
        <ele>1171.2</ele>
        <time>2016-07-09T09:15:21Z</time>
      </trkpt>
      <trkpt lat="43.30425" lon="-6.63121">
        <ele>1173</ele>
        <time>2016-07-09T09:15:33Z</time>
      </trkpt>
      <trkpt lat="43.30418" lon="-6.63128">
        <ele>1174.8</ele>
        <time>2016-07-09T09:15:47Z</time>
      </trkpt>
      <trkpt lat="43.30409" lon="-6.63135">
        <ele>1177</ele>
        <time>2016-07-09T09:16:00Z</time>
      </trkpt>
      <trkpt lat="43.30404" lon="-6.63145">
        <ele>1179.1</ele>
        <time>2016-07-09T09:16:21Z</time>
      </trkpt>
      <trkpt lat="43.30396" lon="-6.63152">
        <ele>1180.8</ele>
        <time>2016-07-09T09:16:37Z</time>
      </trkpt>
      <trkpt lat="43.30387" lon="-6.63157">
        <ele>1181.9</ele>
        <time>2016-07-09T09:16:49Z</time>
      </trkpt>
      <trkpt lat="43.30379" lon="-6.63164">
        <ele>1182.9</ele>
        <time>2016-07-09T09:17:00Z</time>
      </trkpt>
      <trkpt lat="43.30375" lon="-6.63175">
        <ele>1184.2</ele>
        <time>2016-07-09T09:17:15Z</time>
      </trkpt>
      <trkpt lat="43.30376" lon="-6.63187">
        <ele>1187.1</ele>
        <time>2016-07-09T09:17:37Z</time>
      </trkpt>
      <trkpt lat="43.30374" lon="-6.632">
        <ele>1188.6</ele>
        <time>2016-07-09T09:17:51Z</time>
      </trkpt>
      <trkpt lat="43.30372" lon="-6.63213">
        <ele>1190.1</ele>
        <time>2016-07-09T09:18:02Z</time>
      </trkpt>
      <trkpt lat="43.30369" lon="-6.63224">
        <ele>1192.1</ele>
        <time>2016-07-09T09:18:19Z</time>
      </trkpt>
      <trkpt lat="43.30363" lon="-6.63234">
        <ele>1193.8</ele>
        <time>2016-07-09T09:18:33Z</time>
      </trkpt>
      <trkpt lat="43.30356" lon="-6.63243">
        <ele>1195.8</ele>
        <time>2016-07-09T09:18:47Z</time>
      </trkpt>
      <trkpt lat="43.30349" lon="-6.63252">
        <ele>1197.4</ele>
        <time>2016-07-09T09:18:59Z</time>
      </trkpt>
      <trkpt lat="43.30341" lon="-6.63259">
        <ele>1201.2</ele>
        <time>2016-07-09T09:19:34Z</time>
      </trkpt>
      <trkpt lat="43.30334" lon="-6.63268">
        <ele>1201.9</ele>
        <time>2016-07-09T09:19:49Z</time>
      </trkpt>
      <trkpt lat="43.30328" lon="-6.63279">
        <ele>1203.2</ele>
        <time>2016-07-09T09:20:03Z</time>
      </trkpt>
      <trkpt lat="43.30321" lon="-6.63288">
        <ele>1204.8</ele>
        <time>2016-07-09T09:20:16Z</time>
      </trkpt>
      <trkpt lat="43.30316" lon="-6.63298">
        <ele>1206.2</ele>
        <time>2016-07-09T09:20:30Z</time>
      </trkpt>
      <trkpt lat="43.30308" lon="-6.63306">
        <ele>1208.3</ele>
        <time>2016-07-09T09:20:43Z</time>
      </trkpt>
      <trkpt lat="43.303" lon="-6.63313">
        <ele>1211.1</ele>
        <time>2016-07-09T09:21:00Z</time>
      </trkpt>
      <trkpt lat="43.30292" lon="-6.6332">
        <ele>1212.3</ele>
        <time>2016-07-09T09:21:13Z</time>
      </trkpt>
      <trkpt lat="43.30283" lon="-6.63317">
        <ele>1214.9</ele>
        <time>2016-07-09T09:23:24Z</time>
      </trkpt>
      <trkpt lat="43.30274" lon="-6.63316">
        <ele>1214.9</ele>
        <time>2016-07-09T09:23:33Z</time>
      </trkpt>
      <trkpt lat="43.30263" lon="-6.63315">
        <ele>1215</ele>
        <time>2016-07-09T09:23:42Z</time>
      </trkpt>
      <trkpt lat="43.30253" lon="-6.63314">
        <ele>1215.1</ele>
        <time>2016-07-09T09:23:52Z</time>
      </trkpt>
      <trkpt lat="43.30244" lon="-6.63312">
        <ele>1214.9</ele>
        <time>2016-07-09T09:24:05Z</time>
      </trkpt>
      <trkpt lat="43.30234" lon="-6.63311">
        <ele>1214.9</ele>
        <time>2016-07-09T09:24:14Z</time>
      </trkpt>
      <trkpt lat="43.30224" lon="-6.63313">
        <ele>1214.6</ele>
        <time>2016-07-09T09:24:28Z</time>
      </trkpt>
      <trkpt lat="43.30215" lon="-6.63315">
        <ele>1214.5</ele>
        <time>2016-07-09T09:24:37Z</time>
      </trkpt>
      <trkpt lat="43.30205" lon="-6.63316">
        <ele>1214.5</ele>
        <time>2016-07-09T09:24:46Z</time>
      </trkpt>
      <trkpt lat="43.30195" lon="-6.63317">
        <ele>1214.3</ele>
        <time>2016-07-09T09:24:55Z</time>
      </trkpt>
      <trkpt lat="43.30186" lon="-6.63315">
        <ele>1214.3</ele>
        <time>2016-07-09T09:25:04Z</time>
      </trkpt>
      <trkpt lat="43.30176" lon="-6.63315">
        <ele>1214.2</ele>
        <time>2016-07-09T09:25:13Z</time>
      </trkpt>
      <trkpt lat="43.30166" lon="-6.63316">
        <ele>1214</ele>
        <time>2016-07-09T09:25:22Z</time>
      </trkpt>
      <trkpt lat="43.30157" lon="-6.63321">
        <ele>1213.9</ele>
        <time>2016-07-09T09:25:32Z</time>
      </trkpt>
      <trkpt lat="43.30149" lon="-6.63326">
        <ele>1213.9</ele>
        <time>2016-07-09T09:25:41Z</time>
      </trkpt>
      <trkpt lat="43.3014" lon="-6.6333">
        <ele>1213.4</ele>
        <time>2016-07-09T09:25:55Z</time>
      </trkpt>
      <trkpt lat="43.30131" lon="-6.63334">
        <ele>1213.6</ele>
        <time>2016-07-09T09:26:04Z</time>
      </trkpt>
      <trkpt lat="43.30122" lon="-6.63339">
        <ele>1213.7</ele>
        <time>2016-07-09T09:26:12Z</time>
      </trkpt>
      <trkpt lat="43.30113" lon="-6.63346">
        <ele>1213.6</ele>
        <time>2016-07-09T09:26:20Z</time>
      </trkpt>
      <trkpt lat="43.30105" lon="-6.63352">
        <ele>1213.4</ele>
        <time>2016-07-09T09:26:28Z</time>
      </trkpt>
      <trkpt lat="43.30097" lon="-6.63358">
        <ele>1213.3</ele>
        <time>2016-07-09T09:26:36Z</time>
      </trkpt>
      <trkpt lat="43.30088" lon="-6.63365">
        <ele>1213.2</ele>
        <time>2016-07-09T09:26:47Z</time>
      </trkpt>
      <trkpt lat="43.3008" lon="-6.63373">
        <ele>1213.1</ele>
        <time>2016-07-09T09:26:56Z</time>
      </trkpt>
      <trkpt lat="43.30074" lon="-6.63382">
        <ele>1213</ele>
        <time>2016-07-09T09:27:05Z</time>
      </trkpt>
      <trkpt lat="43.30067" lon="-6.63392">
        <ele>1213</ele>
        <time>2016-07-09T09:27:14Z</time>
      </trkpt>
      <trkpt lat="43.30061" lon="-6.63402">
        <ele>1213.2</ele>
        <time>2016-07-09T09:27:23Z</time>
      </trkpt>
      <trkpt lat="43.30055" lon="-6.63413">
        <ele>1213.4</ele>
        <time>2016-07-09T09:27:31Z</time>
      </trkpt>
      <trkpt lat="43.3005" lon="-6.63423">
        <ele>1213.5</ele>
        <time>2016-07-09T09:27:39Z</time>
      </trkpt>
      <trkpt lat="43.30045" lon="-6.63433">
        <ele>1213.7</ele>
        <time>2016-07-09T09:27:47Z</time>
      </trkpt>
      <trkpt lat="43.30041" lon="-6.63445">
        <ele>1213.8</ele>
        <time>2016-07-09T09:27:55Z</time>
      </trkpt>
      <trkpt lat="43.30037" lon="-6.63457">
        <ele>1213.5</ele>
        <time>2016-07-09T09:28:04Z</time>
      </trkpt>
      <trkpt lat="43.30033" lon="-6.63468">
        <ele>1213.2</ele>
        <time>2016-07-09T09:28:12Z</time>
      </trkpt>
      <trkpt lat="43.30031" lon="-6.63482">
        <ele>1212.9</ele>
        <time>2016-07-09T09:28:21Z</time>
      </trkpt>
      <trkpt lat="43.3003" lon="-6.63494">
        <ele>1213.3</ele>
        <time>2016-07-09T09:29:22Z</time>
      </trkpt>
      <trkpt lat="43.30027" lon="-6.63506">
        <ele>1212.9</ele>
        <time>2016-07-09T09:29:31Z</time>
      </trkpt>
      <trkpt lat="43.30029" lon="-6.63519">
        <ele>1212.4</ele>
        <time>2016-07-09T09:29:40Z</time>
      </trkpt>
      <trkpt lat="43.30032" lon="-6.63533">
        <ele>1212.1</ele>
        <time>2016-07-09T09:29:49Z</time>
      </trkpt>
      <trkpt lat="43.30032" lon="-6.63545">
        <ele>1211.9</ele>
        <time>2016-07-09T09:29:57Z</time>
      </trkpt>
      <trkpt lat="43.30031" lon="-6.63557">
        <ele>1211.6</ele>
        <time>2016-07-09T09:30:05Z</time>
      </trkpt>
      <trkpt lat="43.30031" lon="-6.6357">
        <ele>1211.2</ele>
        <time>2016-07-09T09:30:14Z</time>
      </trkpt>
      <trkpt lat="43.3003" lon="-6.63583">
        <ele>1210.9</ele>
        <time>2016-07-09T09:30:23Z</time>
      </trkpt>
      <trkpt lat="43.30031" lon="-6.63597">
        <ele>1209.6</ele>
        <time>2016-07-09T09:30:38Z</time>
      </trkpt>
      <trkpt lat="43.30033" lon="-6.63609">
        <ele>1208.5</ele>
        <time>2016-07-09T09:30:47Z</time>
      </trkpt>
      <trkpt lat="43.30036" lon="-6.63621">
        <ele>1207.9</ele>
        <time>2016-07-09T09:30:56Z</time>
      </trkpt>
      <trkpt lat="43.30037" lon="-6.63635">
        <ele>1207.6</ele>
        <time>2016-07-09T09:31:05Z</time>
      </trkpt>
      <trkpt lat="43.30038" lon="-6.63648">
        <ele>1207.6</ele>
        <time>2016-07-09T09:31:14Z</time>
      </trkpt>
      <trkpt lat="43.30042" lon="-6.6366">
        <ele>1207.3</ele>
        <time>2016-07-09T09:31:23Z</time>
      </trkpt>
      <trkpt lat="43.30044" lon="-6.63673">
        <ele>1206.7</ele>
        <time>2016-07-09T09:31:32Z</time>
      </trkpt>
      <trkpt lat="43.30048" lon="-6.63684">
        <ele>1206.2</ele>
        <time>2016-07-09T09:31:41Z</time>
      </trkpt>
      <trkpt lat="43.30051" lon="-6.63697">
        <ele>1206.5</ele>
        <time>2016-07-09T09:31:50Z</time>
      </trkpt>
      <trkpt lat="43.30042" lon="-6.637">
        <ele>1205.4</ele>
        <time>2016-07-09T09:32:20Z</time>
      </trkpt>
      <trkpt lat="43.3004" lon="-6.63712">
        <ele>1202.3</ele>
        <time>2016-07-09T09:32:55Z</time>
      </trkpt>
      <trkpt lat="43.30044" lon="-6.63723">
        <ele>1202.4</ele>
        <time>2016-07-09T09:33:05Z</time>
      </trkpt>
      <trkpt lat="43.30048" lon="-6.63735">
        <ele>1202.4</ele>
        <time>2016-07-09T09:33:16Z</time>
      </trkpt>
      <trkpt lat="43.3005" lon="-6.63748">
        <ele>1202.3</ele>
        <time>2016-07-09T09:33:25Z</time>
      </trkpt>
      <trkpt lat="43.30049" lon="-6.6376">
        <ele>1201.6</ele>
        <time>2016-07-09T09:33:51Z</time>
      </trkpt>
      <trkpt lat="43.30052" lon="-6.63772">
        <ele>1200.9</ele>
        <time>2016-07-09T09:34:02Z</time>
      </trkpt>
      <trkpt lat="43.30058" lon="-6.63782">
        <ele>1199.2</ele>
        <time>2016-07-09T09:35:10Z</time>
      </trkpt>
      <trkpt lat="43.30062" lon="-6.63794">
        <ele>1199.1</ele>
        <time>2016-07-09T09:35:47Z</time>
      </trkpt>
      <trkpt lat="43.30065" lon="-6.63806">
        <ele>1198.5</ele>
        <time>2016-07-09T09:35:57Z</time>
      </trkpt>
      <trkpt lat="43.3007" lon="-6.63818">
        <ele>1198.7</ele>
        <time>2016-07-09T09:36:07Z</time>
      </trkpt>
      <trkpt lat="43.30075" lon="-6.63829">
        <ele>1198.8</ele>
        <time>2016-07-09T09:36:17Z</time>
      </trkpt>
      <trkpt lat="43.30071" lon="-6.63841">
        <ele>1199</ele>
        <time>2016-07-09T09:36:52Z</time>
      </trkpt>
      <trkpt lat="43.30068" lon="-6.63853">
        <ele>1198.3</ele>
        <time>2016-07-09T09:37:09Z</time>
      </trkpt>
      <trkpt lat="43.30065" lon="-6.6384">
        <ele>1197.2</ele>
        <time>2016-07-09T09:37:25Z</time>
      </trkpt>
      <trkpt lat="43.30066" lon="-6.63853">
        <ele>1196.8</ele>
        <time>2016-07-09T09:38:02Z</time>
      </trkpt>
      <trkpt lat="43.30068" lon="-6.63866">
        <ele>1196.4</ele>
        <time>2016-07-09T09:38:12Z</time>
      </trkpt>
      <trkpt lat="43.3007" lon="-6.63878">
        <ele>1196.4</ele>
        <time>2016-07-09T09:38:21Z</time>
      </trkpt>
      <trkpt lat="43.30071" lon="-6.6389">
        <ele>1196.2</ele>
        <time>2016-07-09T09:38:31Z</time>
      </trkpt>
      <trkpt lat="43.30073" lon="-6.63903">
        <ele>1195.9</ele>
        <time>2016-07-09T09:38:44Z</time>
      </trkpt>
      <trkpt lat="43.30077" lon="-6.63915">
        <ele>1195.9</ele>
        <time>2016-07-09T09:38:57Z</time>
      </trkpt>
      <trkpt lat="43.30079" lon="-6.63928">
        <ele>1195.6</ele>
        <time>2016-07-09T09:39:07Z</time>
      </trkpt>
      <trkpt lat="43.30083" lon="-6.6394">
        <ele>1195.2</ele>
        <time>2016-07-09T09:39:17Z</time>
      </trkpt>
      <trkpt lat="43.30086" lon="-6.63952">
        <ele>1195.2</ele>
        <time>2016-07-09T09:39:28Z</time>
      </trkpt>
      <trkpt lat="43.30088" lon="-6.63964">
        <ele>1195.2</ele>
        <time>2016-07-09T09:39:37Z</time>
      </trkpt>
      <trkpt lat="43.30092" lon="-6.63976">
        <ele>1195.5</ele>
        <time>2016-07-09T09:39:47Z</time>
      </trkpt>
      <trkpt lat="43.30094" lon="-6.63989">
        <ele>1195.5</ele>
        <time>2016-07-09T09:39:57Z</time>
      </trkpt>
      <trkpt lat="43.30096" lon="-6.64002">
        <ele>1195.5</ele>
        <time>2016-07-09T09:40:07Z</time>
      </trkpt>
      <trkpt lat="43.30101" lon="-6.64014">
        <ele>1195.5</ele>
        <time>2016-07-09T09:40:17Z</time>
      </trkpt>
      <trkpt lat="43.30103" lon="-6.64027">
        <ele>1195.5</ele>
        <time>2016-07-09T09:40:26Z</time>
      </trkpt>
      <trkpt lat="43.30107" lon="-6.64039">
        <ele>1196.3</ele>
        <time>2016-07-09T09:40:35Z</time>
      </trkpt>
      <trkpt lat="43.30107" lon="-6.64052">
        <ele>1197.1</ele>
        <time>2016-07-09T09:40:45Z</time>
      </trkpt>
      <trkpt lat="43.30105" lon="-6.64065">
        <ele>1197.5</ele>
        <time>2016-07-09T09:40:54Z</time>
      </trkpt>
      <trkpt lat="43.30104" lon="-6.64078">
        <ele>1197.9</ele>
        <time>2016-07-09T09:41:04Z</time>
      </trkpt>
      <trkpt lat="43.30099" lon="-6.6409">
        <ele>1198.4</ele>
        <time>2016-07-09T09:41:13Z</time>
      </trkpt>
      <trkpt lat="43.30095" lon="-6.64102">
        <ele>1199.2</ele>
        <time>2016-07-09T09:41:22Z</time>
      </trkpt>
      <trkpt lat="43.30092" lon="-6.64115">
        <ele>1200</ele>
        <time>2016-07-09T09:41:32Z</time>
      </trkpt>
      <trkpt lat="43.30088" lon="-6.64126">
        <ele>1200.9</ele>
        <time>2016-07-09T09:41:41Z</time>
      </trkpt>
      <trkpt lat="43.30086" lon="-6.64139">
        <ele>1202.3</ele>
        <time>2016-07-09T09:41:51Z</time>
      </trkpt>
      <trkpt lat="43.30083" lon="-6.64151">
        <ele>1203.3</ele>
        <time>2016-07-09T09:42:00Z</time>
      </trkpt>
      <trkpt lat="43.3008" lon="-6.64164">
        <ele>1204.3</ele>
        <time>2016-07-09T09:42:10Z</time>
      </trkpt>
      <trkpt lat="43.30078" lon="-6.64177">
        <ele>1205.2</ele>
        <time>2016-07-09T09:42:21Z</time>
      </trkpt>
      <trkpt lat="43.30076" lon="-6.64189">
        <ele>1206.2</ele>
        <time>2016-07-09T09:42:31Z</time>
      </trkpt>
      <trkpt lat="43.30074" lon="-6.64202">
        <ele>1207.1</ele>
        <time>2016-07-09T09:42:43Z</time>
      </trkpt>
      <trkpt lat="43.30073" lon="-6.64215">
        <ele>1207.7</ele>
        <time>2016-07-09T09:42:53Z</time>
      </trkpt>
      <trkpt lat="43.30072" lon="-6.64228">
        <ele>1208.9</ele>
        <time>2016-07-09T09:43:03Z</time>
      </trkpt>
      <trkpt lat="43.30072" lon="-6.64242">
        <ele>1209.4</ele>
        <time>2016-07-09T09:43:12Z</time>
      </trkpt>
      <trkpt lat="43.30071" lon="-6.64254">
        <ele>1210.3</ele>
        <time>2016-07-09T09:43:21Z</time>
      </trkpt>
      <trkpt lat="43.30073" lon="-6.64267">
        <ele>1211.4</ele>
        <time>2016-07-09T09:43:30Z</time>
      </trkpt>
      <trkpt lat="43.30073" lon="-6.6428">
        <ele>1212</ele>
        <time>2016-07-09T09:43:39Z</time>
      </trkpt>
      <trkpt lat="43.30073" lon="-6.64292">
        <ele>1213.1</ele>
        <time>2016-07-09T09:43:48Z</time>
      </trkpt>
      <trkpt lat="43.30073" lon="-6.64306">
        <ele>1214.1</ele>
        <time>2016-07-09T09:43:58Z</time>
      </trkpt>
      <trkpt lat="43.30074" lon="-6.64319">
        <ele>1214.7</ele>
        <time>2016-07-09T09:44:08Z</time>
      </trkpt>
      <trkpt lat="43.30075" lon="-6.64332">
        <ele>1216.1</ele>
        <time>2016-07-09T09:44:18Z</time>
      </trkpt>
      <trkpt lat="43.30076" lon="-6.64345">
        <ele>1217.2</ele>
        <time>2016-07-09T09:44:27Z</time>
      </trkpt>
      <trkpt lat="43.30077" lon="-6.64358">
        <ele>1218.1</ele>
        <time>2016-07-09T09:44:41Z</time>
      </trkpt>
      <trkpt lat="43.30078" lon="-6.6437">
        <ele>1218.7</ele>
        <time>2016-07-09T09:44:50Z</time>
      </trkpt>
      <trkpt lat="43.30077" lon="-6.64383">
        <ele>1219.1</ele>
        <time>2016-07-09T09:44:58Z</time>
      </trkpt>
      <trkpt lat="43.30077" lon="-6.64396">
        <ele>1219.4</ele>
        <time>2016-07-09T09:45:07Z</time>
      </trkpt>
      <trkpt lat="43.30076" lon="-6.64409">
        <ele>1219.6</ele>
        <time>2016-07-09T09:45:17Z</time>
      </trkpt>
      <trkpt lat="43.30076" lon="-6.64423">
        <ele>1219.6</ele>
        <time>2016-07-09T09:45:26Z</time>
      </trkpt>
      <trkpt lat="43.30075" lon="-6.64435">
        <ele>1219.8</ele>
        <time>2016-07-09T09:45:35Z</time>
      </trkpt>
      <trkpt lat="43.30076" lon="-6.64448">
        <ele>1220.6</ele>
        <time>2016-07-09T09:45:45Z</time>
      </trkpt>
      <trkpt lat="43.30078" lon="-6.6446">
        <ele>1222</ele>
        <time>2016-07-09T09:45:56Z</time>
      </trkpt>
      <trkpt lat="43.30076" lon="-6.64473">
        <ele>1224.5</ele>
        <time>2016-07-09T09:47:14Z</time>
      </trkpt>
      <trkpt lat="43.30077" lon="-6.64486">
        <ele>1224.8</ele>
        <time>2016-07-09T09:47:36Z</time>
      </trkpt>
      <trkpt lat="43.30074" lon="-6.64499">
        <ele>1224.8</ele>
        <time>2016-07-09T09:47:47Z</time>
      </trkpt>
      <trkpt lat="43.30074" lon="-6.64513">
        <ele>1224.2</ele>
        <time>2016-07-09T09:47:56Z</time>
      </trkpt>
      <trkpt lat="43.30075" lon="-6.64525">
        <ele>1223.2</ele>
        <time>2016-07-09T09:48:05Z</time>
      </trkpt>
      <trkpt lat="43.30076" lon="-6.64538">
        <ele>1222.7</ele>
        <time>2016-07-09T09:48:14Z</time>
      </trkpt>
      <trkpt lat="43.30078" lon="-6.64551">
        <ele>1222.8</ele>
        <time>2016-07-09T09:48:23Z</time>
      </trkpt>
      <trkpt lat="43.3008" lon="-6.64564">
        <ele>1222.5</ele>
        <time>2016-07-09T09:48:32Z</time>
      </trkpt>
      <trkpt lat="43.30084" lon="-6.64575">
        <ele>1223.2</ele>
        <time>2016-07-09T09:48:42Z</time>
      </trkpt>
      <trkpt lat="43.30088" lon="-6.64586">
        <ele>1223.8</ele>
        <time>2016-07-09T09:48:52Z</time>
      </trkpt>
      <trkpt lat="43.30089" lon="-6.64599">
        <ele>1223.9</ele>
        <time>2016-07-09T09:49:02Z</time>
      </trkpt>
      <trkpt lat="43.30088" lon="-6.64612">
        <ele>1223.4</ele>
        <time>2016-07-09T09:49:10Z</time>
      </trkpt>
      <trkpt lat="43.30087" lon="-6.64625">
        <ele>1222.8</ele>
        <time>2016-07-09T09:49:18Z</time>
      </trkpt>
      <trkpt lat="43.30088" lon="-6.64637">
        <ele>1222.1</ele>
        <time>2016-07-09T09:49:26Z</time>
      </trkpt>
      <trkpt lat="43.30089" lon="-6.64651">
        <ele>1221.5</ele>
        <time>2016-07-09T09:49:35Z</time>
      </trkpt>
      <trkpt lat="43.30091" lon="-6.64663">
        <ele>1221</ele>
        <time>2016-07-09T09:49:44Z</time>
      </trkpt>
      <trkpt lat="43.30092" lon="-6.64677">
        <ele>1221</ele>
        <time>2016-07-09T09:49:54Z</time>
      </trkpt>
      <trkpt lat="43.30093" lon="-6.64689">
        <ele>1221.6</ele>
        <time>2016-07-09T09:50:05Z</time>
      </trkpt>
      <trkpt lat="43.30092" lon="-6.64703">
        <ele>1222.7</ele>
        <time>2016-07-09T09:50:16Z</time>
      </trkpt>
      <trkpt lat="43.30093" lon="-6.64716">
        <ele>1224.1</ele>
        <time>2016-07-09T09:50:28Z</time>
      </trkpt>
      <trkpt lat="43.30097" lon="-6.64728">
        <ele>1225</ele>
        <time>2016-07-09T09:50:39Z</time>
      </trkpt>
      <trkpt lat="43.30102" lon="-6.64739">
        <ele>1225.8</ele>
        <time>2016-07-09T09:50:50Z</time>
      </trkpt>
      <trkpt lat="43.30107" lon="-6.64749">
        <ele>1227.2</ele>
        <time>2016-07-09T09:51:00Z</time>
      </trkpt>
      <trkpt lat="43.30113" lon="-6.64759">
        <ele>1228.1</ele>
        <time>2016-07-09T09:51:10Z</time>
      </trkpt>
      <trkpt lat="43.3012" lon="-6.64766">
        <ele>1228.8</ele>
        <time>2016-07-09T09:51:20Z</time>
      </trkpt>
      <trkpt lat="43.30129" lon="-6.6477">
        <ele>1230.1</ele>
        <time>2016-07-09T09:51:56Z</time>
      </trkpt>
      <trkpt lat="43.30137" lon="-6.64776">
        <ele>1229.8</ele>
        <time>2016-07-09T09:52:05Z</time>
      </trkpt>
      <trkpt lat="43.30144" lon="-6.64786">
        <ele>1229.5</ele>
        <time>2016-07-09T09:52:14Z</time>
      </trkpt>
      <trkpt lat="43.30151" lon="-6.64795">
        <ele>1228.8</ele>
        <time>2016-07-09T09:52:24Z</time>
      </trkpt>
      <trkpt lat="43.30159" lon="-6.64802">
        <ele>1226.5</ele>
        <time>2016-07-09T09:52:42Z</time>
      </trkpt>
      <trkpt lat="43.30169" lon="-6.64803">
        <ele>1225.2</ele>
        <time>2016-07-09T09:52:55Z</time>
      </trkpt>
      <trkpt lat="43.30177" lon="-6.64809">
        <ele>1224.4</ele>
        <time>2016-07-09T09:53:08Z</time>
      </trkpt>
      <trkpt lat="43.30184" lon="-6.64818">
        <ele>1222.7</ele>
        <time>2016-07-09T09:53:22Z</time>
      </trkpt>
      <trkpt lat="43.3019" lon="-6.64828">
        <ele>1220.5</ele>
        <time>2016-07-09T09:53:39Z</time>
      </trkpt>
      <trkpt lat="43.30196" lon="-6.64839">
        <ele>1217.6</ele>
        <time>2016-07-09T09:53:56Z</time>
      </trkpt>
      <trkpt lat="43.30202" lon="-6.64849">
        <ele>1215.6</ele>
        <time>2016-07-09T09:54:08Z</time>
      </trkpt>
      <trkpt lat="43.30208" lon="-6.64858">
        <ele>1213.6</ele>
        <time>2016-07-09T09:54:19Z</time>
      </trkpt>
      <trkpt lat="43.30214" lon="-6.64868">
        <ele>1211.8</ele>
        <time>2016-07-09T09:54:30Z</time>
      </trkpt>
      <trkpt lat="43.30221" lon="-6.64877">
        <ele>1209.8</ele>
        <time>2016-07-09T09:54:41Z</time>
      </trkpt>
      <trkpt lat="43.30229" lon="-6.64885">
        <ele>1208.1</ele>
        <time>2016-07-09T09:54:52Z</time>
      </trkpt>
      <trkpt lat="43.30236" lon="-6.64892">
        <ele>1206</ele>
        <time>2016-07-09T09:55:02Z</time>
      </trkpt>
      <trkpt lat="43.30244" lon="-6.649">
        <ele>1204.5</ele>
        <time>2016-07-09T09:55:12Z</time>
      </trkpt>
      <trkpt lat="43.3025" lon="-6.64909">
        <ele>1202.1</ele>
        <time>2016-07-09T09:55:22Z</time>
      </trkpt>
      <trkpt lat="43.30258" lon="-6.64915">
        <ele>1201.4</ele>
        <time>2016-07-09T09:55:33Z</time>
      </trkpt>
      <trkpt lat="43.30267" lon="-6.64921">
        <ele>1198.4</ele>
        <time>2016-07-09T09:55:42Z</time>
      </trkpt>
      <trkpt lat="43.30273" lon="-6.64931">
        <ele>1200.4</ele>
        <time>2016-07-09T09:55:51Z</time>
      </trkpt>
      <trkpt lat="43.30279" lon="-6.64941">
        <ele>1199.2</ele>
        <time>2016-07-09T09:56:01Z</time>
      </trkpt>
      <trkpt lat="43.30284" lon="-6.64952">
        <ele>1197.5</ele>
        <time>2016-07-09T09:56:11Z</time>
      </trkpt>
      <trkpt lat="43.3029" lon="-6.64963">
        <ele>1195.9</ele>
        <time>2016-07-09T09:56:21Z</time>
      </trkpt>
      <trkpt lat="43.30295" lon="-6.64973">
        <ele>1194.6</ele>
        <time>2016-07-09T09:56:30Z</time>
      </trkpt>
      <trkpt lat="43.30303" lon="-6.64981">
        <ele>1193.2</ele>
        <time>2016-07-09T09:56:40Z</time>
      </trkpt>
      <trkpt lat="43.30309" lon="-6.64991">
        <ele>1192</ele>
        <time>2016-07-09T09:56:50Z</time>
      </trkpt>
      <trkpt lat="43.30315" lon="-6.65001">
        <ele>1190.8</ele>
        <time>2016-07-09T09:56:59Z</time>
      </trkpt>
      <trkpt lat="43.30321" lon="-6.6501">
        <ele>1189.7</ele>
        <time>2016-07-09T09:57:07Z</time>
      </trkpt>
      <trkpt lat="43.30327" lon="-6.6502">
        <ele>1188.7</ele>
        <time>2016-07-09T09:57:16Z</time>
      </trkpt>
      <trkpt lat="43.30333" lon="-6.65032">
        <ele>1187.9</ele>
        <time>2016-07-09T09:57:25Z</time>
      </trkpt>
      <trkpt lat="43.30338" lon="-6.65042">
        <ele>1187.2</ele>
        <time>2016-07-09T09:57:33Z</time>
      </trkpt>
      <trkpt lat="43.30342" lon="-6.65054">
        <ele>1186.5</ele>
        <time>2016-07-09T09:57:41Z</time>
      </trkpt>
      <trkpt lat="43.30347" lon="-6.65065">
        <ele>1186.1</ele>
        <time>2016-07-09T09:57:49Z</time>
      </trkpt>
      <trkpt lat="43.30351" lon="-6.65077">
        <ele>1185.9</ele>
        <time>2016-07-09T09:57:57Z</time>
      </trkpt>
      <trkpt lat="43.30355" lon="-6.65088">
        <ele>1185.6</ele>
        <time>2016-07-09T09:58:05Z</time>
      </trkpt>
      <trkpt lat="43.30359" lon="-6.65099">
        <ele>1185.4</ele>
        <time>2016-07-09T09:58:13Z</time>
      </trkpt>
      <trkpt lat="43.30363" lon="-6.65112">
        <ele>1185.2</ele>
        <time>2016-07-09T09:58:22Z</time>
      </trkpt>
      <trkpt lat="43.30367" lon="-6.65123">
        <ele>1185.2</ele>
        <time>2016-07-09T09:58:43Z</time>
      </trkpt>
      <trkpt lat="43.30369" lon="-6.65136">
        <ele>1185.6</ele>
        <time>2016-07-09T09:59:00Z</time>
      </trkpt>
      <trkpt lat="43.30371" lon="-6.65149">
        <ele>1186</ele>
        <time>2016-07-09T09:59:10Z</time>
      </trkpt>
      <trkpt lat="43.30371" lon="-6.65162">
        <ele>1185.9</ele>
        <time>2016-07-09T09:59:19Z</time>
      </trkpt>
      <trkpt lat="43.30372" lon="-6.65176">
        <ele>1185.8</ele>
        <time>2016-07-09T09:59:27Z</time>
      </trkpt>
      <trkpt lat="43.30374" lon="-6.65189">
        <ele>1185.6</ele>
        <time>2016-07-09T09:59:36Z</time>
      </trkpt>
      <trkpt lat="43.30378" lon="-6.65201">
        <ele>1185.4</ele>
        <time>2016-07-09T09:59:45Z</time>
      </trkpt>
      <trkpt lat="43.30382" lon="-6.65213">
        <ele>1185.3</ele>
        <time>2016-07-09T09:59:54Z</time>
      </trkpt>
      <trkpt lat="43.30385" lon="-6.65224">
        <ele>1184.8</ele>
        <time>2016-07-09T10:00:02Z</time>
      </trkpt>
      <trkpt lat="43.30388" lon="-6.65237">
        <ele>1184.5</ele>
        <time>2016-07-09T10:00:10Z</time>
      </trkpt>
      <trkpt lat="43.30391" lon="-6.6525">
        <ele>1184.1</ele>
        <time>2016-07-09T10:00:19Z</time>
      </trkpt>
      <trkpt lat="43.30395" lon="-6.65262">
        <ele>1183.8</ele>
        <time>2016-07-09T10:00:27Z</time>
      </trkpt>
      <trkpt lat="43.30397" lon="-6.65274">
        <ele>1183.7</ele>
        <time>2016-07-09T10:00:34Z</time>
      </trkpt>
      <trkpt lat="43.30403" lon="-6.65285">
        <ele>1182.8</ele>
        <time>2016-07-09T10:00:51Z</time>
      </trkpt>
      <trkpt lat="43.3041" lon="-6.65293">
        <ele>1182.4</ele>
        <time>2016-07-09T10:00:58Z</time>
      </trkpt>
      <trkpt lat="43.30416" lon="-6.65304">
        <ele>1181.4</ele>
        <time>2016-07-09T10:01:07Z</time>
      </trkpt>
      <trkpt lat="43.30423" lon="-6.65312">
        <ele>1181</ele>
        <time>2016-07-09T10:01:16Z</time>
      </trkpt>
      <trkpt lat="43.30429" lon="-6.65323">
        <ele>1180.3</ele>
        <time>2016-07-09T10:01:28Z</time>
      </trkpt>
      <trkpt lat="43.30435" lon="-6.65333">
        <ele>1179.7</ele>
        <time>2016-07-09T10:01:38Z</time>
      </trkpt>
      <trkpt lat="43.3044" lon="-6.65345">
        <ele>1178.9</ele>
        <time>2016-07-09T10:01:48Z</time>
      </trkpt>
      <trkpt lat="43.30445" lon="-6.65357">
        <ele>1178.5</ele>
        <time>2016-07-09T10:01:57Z</time>
      </trkpt>
      <trkpt lat="43.30448" lon="-6.65368">
        <ele>1177.8</ele>
        <time>2016-07-09T10:02:06Z</time>
      </trkpt>
      <trkpt lat="43.30439" lon="-6.65366">
        <ele>1176.4</ele>
        <time>2016-07-09T10:02:32Z</time>
      </trkpt>
      <trkpt lat="43.30431" lon="-6.65361">
        <ele>1172.5</ele>
        <time>2016-07-09T10:03:18Z</time>
      </trkpt>
      <trkpt lat="43.30422" lon="-6.65363">
        <ele>1170.9</ele>
        <time>2016-07-09T10:28:36Z</time>
      </trkpt>
      <trkpt lat="43.30431" lon="-6.6536">
        <ele>1171.1</ele>
        <time>2016-07-09T10:30:11Z</time>
      </trkpt>
      <trkpt lat="43.30435" lon="-6.65372">
        <ele>1171.9</ele>
        <time>2016-07-09T10:37:04Z</time>
      </trkpt>
      <trkpt lat="43.3044" lon="-6.65382">
        <ele>1171.5</ele>
        <time>2016-07-09T10:37:14Z</time>
      </trkpt>
      <trkpt lat="43.30445" lon="-6.65393">
        <ele>1171.9</ele>
        <time>2016-07-09T10:37:24Z</time>
      </trkpt>
      <trkpt lat="43.3045" lon="-6.65404">
        <ele>1172.9</ele>
        <time>2016-07-09T10:37:34Z</time>
      </trkpt>
      <trkpt lat="43.3045" lon="-6.65416">
        <ele>1173.2</ele>
        <time>2016-07-09T10:37:45Z</time>
      </trkpt>
      <trkpt lat="43.30448" lon="-6.6543">
        <ele>1173.4</ele>
        <time>2016-07-09T10:37:54Z</time>
      </trkpt>
      <trkpt lat="43.30446" lon="-6.65442">
        <ele>1173.1</ele>
        <time>2016-07-09T10:38:02Z</time>
      </trkpt>
      <trkpt lat="43.30443" lon="-6.65454">
        <ele>1172.8</ele>
        <time>2016-07-09T10:38:11Z</time>
      </trkpt>
      <trkpt lat="43.30438" lon="-6.65465">
        <ele>1172.1</ele>
        <time>2016-07-09T10:38:19Z</time>
      </trkpt>
      <trkpt lat="43.30436" lon="-6.65478">
        <ele>1171.4</ele>
        <time>2016-07-09T10:38:28Z</time>
      </trkpt>
      <trkpt lat="43.30431" lon="-6.65489">
        <ele>1170.3</ele>
        <time>2016-07-09T10:38:38Z</time>
      </trkpt>
      <trkpt lat="43.30428" lon="-6.65502">
        <ele>1169.2</ele>
        <time>2016-07-09T10:38:47Z</time>
      </trkpt>
      <trkpt lat="43.30425" lon="-6.65515">
        <ele>1167.9</ele>
        <time>2016-07-09T10:38:56Z</time>
      </trkpt>
      <trkpt lat="43.30422" lon="-6.65527">
        <ele>1166.8</ele>
        <time>2016-07-09T10:39:04Z</time>
      </trkpt>
      <trkpt lat="43.3042" lon="-6.65539">
        <ele>1165.9</ele>
        <time>2016-07-09T10:39:12Z</time>
      </trkpt>
      <trkpt lat="43.30417" lon="-6.65551">
        <ele>1165.3</ele>
        <time>2016-07-09T10:39:20Z</time>
      </trkpt>
      <trkpt lat="43.30415" lon="-6.65564">
        <ele>1164.8</ele>
        <time>2016-07-09T10:39:28Z</time>
      </trkpt>
      <trkpt lat="43.30412" lon="-6.65578">
        <ele>1164.1</ele>
        <time>2016-07-09T10:39:36Z</time>
      </trkpt>
      <trkpt lat="43.3041" lon="-6.6559">
        <ele>1163.5</ele>
        <time>2016-07-09T10:39:44Z</time>
      </trkpt>
      <trkpt lat="43.30408" lon="-6.65603">
        <ele>1163.1</ele>
        <time>2016-07-09T10:39:51Z</time>
      </trkpt>
      <trkpt lat="43.30405" lon="-6.65616">
        <ele>1162.8</ele>
        <time>2016-07-09T10:39:59Z</time>
      </trkpt>
      <trkpt lat="43.30401" lon="-6.65628">
        <ele>1162</ele>
        <time>2016-07-09T10:40:08Z</time>
      </trkpt>
      <trkpt lat="43.30398" lon="-6.65641">
        <ele>1161.5</ele>
        <time>2016-07-09T10:40:17Z</time>
      </trkpt>
      <trkpt lat="43.30395" lon="-6.65653">
        <ele>1161.1</ele>
        <time>2016-07-09T10:40:26Z</time>
      </trkpt>
      <trkpt lat="43.30393" lon="-6.65666">
        <ele>1160.6</ele>
        <time>2016-07-09T10:40:34Z</time>
      </trkpt>
      <trkpt lat="43.3039" lon="-6.65679">
        <ele>1160</ele>
        <time>2016-07-09T10:40:43Z</time>
      </trkpt>
      <trkpt lat="43.30384" lon="-6.6569">
        <ele>1159.6</ele>
        <time>2016-07-09T10:40:52Z</time>
      </trkpt>
      <trkpt lat="43.3038" lon="-6.65702">
        <ele>1159.1</ele>
        <time>2016-07-09T10:41:00Z</time>
      </trkpt>
      <trkpt lat="43.30374" lon="-6.65713">
        <ele>1158.6</ele>
        <time>2016-07-09T10:41:08Z</time>
      </trkpt>
      <trkpt lat="43.30367" lon="-6.65722">
        <ele>1158</ele>
        <time>2016-07-09T10:41:16Z</time>
      </trkpt>
      <trkpt lat="43.30361" lon="-6.65732">
        <ele>1157.6</ele>
        <time>2016-07-09T10:41:24Z</time>
      </trkpt>
      <trkpt lat="43.30355" lon="-6.65741">
        <ele>1157.2</ele>
        <time>2016-07-09T10:41:32Z</time>
      </trkpt>
      <trkpt lat="43.30348" lon="-6.65751">
        <ele>1156.9</ele>
        <time>2016-07-09T10:41:40Z</time>
      </trkpt>
      <trkpt lat="43.3034" lon="-6.65759">
        <ele>1157.2</ele>
        <time>2016-07-09T10:41:48Z</time>
      </trkpt>
      <trkpt lat="43.30332" lon="-6.65766">
        <ele>1157.1</ele>
        <time>2016-07-09T10:41:56Z</time>
      </trkpt>
      <trkpt lat="43.30323" lon="-6.65772">
        <ele>1157</ele>
        <time>2016-07-09T10:42:04Z</time>
      </trkpt>
      <trkpt lat="43.30314" lon="-6.65775">
        <ele>1157.1</ele>
        <time>2016-07-09T10:42:12Z</time>
      </trkpt>
      <trkpt lat="43.30306" lon="-6.65779">
        <ele>1157.3</ele>
        <time>2016-07-09T10:42:20Z</time>
      </trkpt>
      <trkpt lat="43.30296" lon="-6.65783">
        <ele>1157.6</ele>
        <time>2016-07-09T10:42:31Z</time>
      </trkpt>
      <trkpt lat="43.30288" lon="-6.65787">
        <ele>1158.5</ele>
        <time>2016-07-09T10:42:41Z</time>
      </trkpt>
      <trkpt lat="43.30281" lon="-6.65796">
        <ele>1159.6</ele>
        <time>2016-07-09T10:42:52Z</time>
      </trkpt>
      <trkpt lat="43.30275" lon="-6.65806">
        <ele>1160.9</ele>
        <time>2016-07-09T10:43:03Z</time>
      </trkpt>
      <trkpt lat="43.30269" lon="-6.65816">
        <ele>1161.8</ele>
        <time>2016-07-09T10:43:12Z</time>
      </trkpt>
      <trkpt lat="43.30263" lon="-6.65826">
        <ele>1162.5</ele>
        <time>2016-07-09T10:43:20Z</time>
      </trkpt>
      <trkpt lat="43.30257" lon="-6.65837">
        <ele>1163.1</ele>
        <time>2016-07-09T10:43:29Z</time>
      </trkpt>
      <trkpt lat="43.30251" lon="-6.65848">
        <ele>1163.7</ele>
        <time>2016-07-09T10:43:38Z</time>
      </trkpt>
      <trkpt lat="43.30246" lon="-6.65859">
        <ele>1164.5</ele>
        <time>2016-07-09T10:43:47Z</time>
      </trkpt>
      <trkpt lat="43.30241" lon="-6.6587">
        <ele>1164.9</ele>
        <time>2016-07-09T10:44:03Z</time>
      </trkpt>
      <trkpt lat="43.30236" lon="-6.65882">
        <ele>1164.5</ele>
        <time>2016-07-09T10:44:12Z</time>
      </trkpt>
      <trkpt lat="43.30233" lon="-6.65895">
        <ele>1164.4</ele>
        <time>2016-07-09T10:44:20Z</time>
      </trkpt>
      <trkpt lat="43.30231" lon="-6.65907">
        <ele>1164.6</ele>
        <time>2016-07-09T10:44:28Z</time>
      </trkpt>
      <trkpt lat="43.30227" lon="-6.65918">
        <ele>1164.7</ele>
        <time>2016-07-09T10:44:38Z</time>
      </trkpt>
      <trkpt lat="43.30224" lon="-6.65931">
        <ele>1164.9</ele>
        <time>2016-07-09T10:44:48Z</time>
      </trkpt>
      <trkpt lat="43.30223" lon="-6.65943">
        <ele>1165.2</ele>
        <time>2016-07-09T10:44:56Z</time>
      </trkpt>
      <trkpt lat="43.30222" lon="-6.65957">
        <ele>1165.5</ele>
        <time>2016-07-09T10:45:05Z</time>
      </trkpt>
      <trkpt lat="43.30222" lon="-6.6597">
        <ele>1165.5</ele>
        <time>2016-07-09T10:45:14Z</time>
      </trkpt>
      <trkpt lat="43.30223" lon="-6.65983">
        <ele>1165</ele>
        <time>2016-07-09T10:45:23Z</time>
      </trkpt>
      <trkpt lat="43.30223" lon="-6.65997">
        <ele>1163.9</ele>
        <time>2016-07-09T10:45:32Z</time>
      </trkpt>
      <trkpt lat="43.30225" lon="-6.6601">
        <ele>1162.8</ele>
        <time>2016-07-09T10:45:40Z</time>
      </trkpt>
      <trkpt lat="43.30226" lon="-6.66022">
        <ele>1162.1</ele>
        <time>2016-07-09T10:45:48Z</time>
      </trkpt>
      <trkpt lat="43.30227" lon="-6.66035">
        <ele>1161.2</ele>
        <time>2016-07-09T10:45:56Z</time>
      </trkpt>
      <trkpt lat="43.30229" lon="-6.66048">
        <ele>1160</ele>
        <time>2016-07-09T10:46:05Z</time>
      </trkpt>
      <trkpt lat="43.3023" lon="-6.66062">
        <ele>1159.3</ele>
        <time>2016-07-09T10:46:14Z</time>
      </trkpt>
      <trkpt lat="43.3023" lon="-6.66076">
        <ele>1159</ele>
        <time>2016-07-09T10:46:22Z</time>
      </trkpt>
      <trkpt lat="43.3023" lon="-6.66089">
        <ele>1158.5</ele>
        <time>2016-07-09T10:46:30Z</time>
      </trkpt>
      <trkpt lat="43.3023" lon="-6.66102">
        <ele>1158.1</ele>
        <time>2016-07-09T10:46:38Z</time>
      </trkpt>
      <trkpt lat="43.30229" lon="-6.66115">
        <ele>1157.8</ele>
        <time>2016-07-09T10:46:46Z</time>
      </trkpt>
      <trkpt lat="43.30228" lon="-6.66128">
        <ele>1157.7</ele>
        <time>2016-07-09T10:46:55Z</time>
      </trkpt>
      <trkpt lat="43.30226" lon="-6.66141">
        <ele>1157.3</ele>
        <time>2016-07-09T10:47:04Z</time>
      </trkpt>
      <trkpt lat="43.30224" lon="-6.66153">
        <ele>1157</ele>
        <time>2016-07-09T10:47:12Z</time>
      </trkpt>
      <trkpt lat="43.30223" lon="-6.66166">
        <ele>1156.8</ele>
        <time>2016-07-09T10:47:19Z</time>
      </trkpt>
      <trkpt lat="43.30221" lon="-6.6618">
        <ele>1156.7</ele>
        <time>2016-07-09T10:47:27Z</time>
      </trkpt>
      <trkpt lat="43.30219" lon="-6.66193">
        <ele>1156.9</ele>
        <time>2016-07-09T10:47:35Z</time>
      </trkpt>
      <trkpt lat="43.30216" lon="-6.66206">
        <ele>1156.9</ele>
        <time>2016-07-09T10:47:43Z</time>
      </trkpt>
      <trkpt lat="43.30215" lon="-6.66218">
        <ele>1156.9</ele>
        <time>2016-07-09T10:47:51Z</time>
      </trkpt>
      <trkpt lat="43.30213" lon="-6.66231">
        <ele>1156.9</ele>
        <time>2016-07-09T10:47:59Z</time>
      </trkpt>
      <trkpt lat="43.3021" lon="-6.66244">
        <ele>1156.9</ele>
        <time>2016-07-09T10:48:07Z</time>
      </trkpt>
      <trkpt lat="43.30206" lon="-6.66256">
        <ele>1156.9</ele>
        <time>2016-07-09T10:48:16Z</time>
      </trkpt>
      <trkpt lat="43.30202" lon="-6.66269">
        <ele>1157</ele>
        <time>2016-07-09T10:48:25Z</time>
      </trkpt>
      <trkpt lat="43.30198" lon="-6.6628">
        <ele>1157.7</ele>
        <time>2016-07-09T10:48:34Z</time>
      </trkpt>
      <trkpt lat="43.30192" lon="-6.66291">
        <ele>1158</ele>
        <time>2016-07-09T10:48:43Z</time>
      </trkpt>
      <trkpt lat="43.30188" lon="-6.66303">
        <ele>1158.3</ele>
        <time>2016-07-09T10:48:52Z</time>
      </trkpt>
      <trkpt lat="43.30185" lon="-6.66315">
        <ele>1158.9</ele>
        <time>2016-07-09T10:49:00Z</time>
      </trkpt>
      <trkpt lat="43.30184" lon="-6.66328">
        <ele>1159.5</ele>
        <time>2016-07-09T10:49:07Z</time>
      </trkpt>
      <trkpt lat="43.30177" lon="-6.66336">
        <ele>1160.4</ele>
        <time>2016-07-09T10:49:22Z</time>
      </trkpt>
      <trkpt lat="43.30168" lon="-6.66342">
        <ele>1160.6</ele>
        <time>2016-07-09T10:49:29Z</time>
      </trkpt>
      <trkpt lat="43.30163" lon="-6.66353">
        <ele>1160.7</ele>
        <time>2016-07-09T10:49:37Z</time>
      </trkpt>
      <trkpt lat="43.30158" lon="-6.66364">
        <ele>1160.6</ele>
        <time>2016-07-09T10:49:44Z</time>
      </trkpt>
      <trkpt lat="43.30155" lon="-6.66376">
        <ele>1160.2</ele>
        <time>2016-07-09T10:49:51Z</time>
      </trkpt>
      <trkpt lat="43.30152" lon="-6.66389">
        <ele>1160.2</ele>
        <time>2016-07-09T10:49:59Z</time>
      </trkpt>
      <trkpt lat="43.30149" lon="-6.66401">
        <ele>1159.9</ele>
        <time>2016-07-09T10:50:07Z</time>
      </trkpt>
      <trkpt lat="43.30146" lon="-6.66413">
        <ele>1159.6</ele>
        <time>2016-07-09T10:50:15Z</time>
      </trkpt>
      <trkpt lat="43.30142" lon="-6.66424">
        <ele>1159.5</ele>
        <time>2016-07-09T10:50:23Z</time>
      </trkpt>
      <trkpt lat="43.30137" lon="-6.66436">
        <ele>1159.3</ele>
        <time>2016-07-09T10:50:32Z</time>
      </trkpt>
      <trkpt lat="43.30131" lon="-6.66446">
        <ele>1159.2</ele>
        <time>2016-07-09T10:50:40Z</time>
      </trkpt>
      <trkpt lat="43.30125" lon="-6.66456">
        <ele>1158.7</ele>
        <time>2016-07-09T10:50:49Z</time>
      </trkpt>
      <trkpt lat="43.30118" lon="-6.66465">
        <ele>1157.7</ele>
        <time>2016-07-09T10:51:11Z</time>
      </trkpt>
      <trkpt lat="43.30112" lon="-6.66477">
        <ele>1157.2</ele>
        <time>2016-07-09T10:51:20Z</time>
      </trkpt>
      <trkpt lat="43.30108" lon="-6.66489">
        <ele>1157.2</ele>
        <time>2016-07-09T10:51:29Z</time>
      </trkpt>
      <trkpt lat="43.30106" lon="-6.66502">
        <ele>1157.2</ele>
        <time>2016-07-09T10:51:38Z</time>
      </trkpt>
      <trkpt lat="43.30104" lon="-6.66515">
        <ele>1157.2</ele>
        <time>2016-07-09T10:51:46Z</time>
      </trkpt>
      <trkpt lat="43.30102" lon="-6.66527">
        <ele>1157.7</ele>
        <time>2016-07-09T10:51:54Z</time>
      </trkpt>
      <trkpt lat="43.30099" lon="-6.6654">
        <ele>1158.1</ele>
        <time>2016-07-09T10:52:03Z</time>
      </trkpt>
      <trkpt lat="43.30095" lon="-6.66551">
        <ele>1158.4</ele>
        <time>2016-07-09T10:52:12Z</time>
      </trkpt>
      <trkpt lat="43.30089" lon="-6.66561">
        <ele>1158.6</ele>
        <time>2016-07-09T10:52:21Z</time>
      </trkpt>
      <trkpt lat="43.30085" lon="-6.66573">
        <ele>1158.6</ele>
        <time>2016-07-09T10:52:30Z</time>
      </trkpt>
      <trkpt lat="43.30078" lon="-6.66582">
        <ele>1159</ele>
        <time>2016-07-09T10:53:06Z</time>
      </trkpt>
      <trkpt lat="43.30073" lon="-6.66592">
        <ele>1159.1</ele>
        <time>2016-07-09T10:53:15Z</time>
      </trkpt>
      <trkpt lat="43.30067" lon="-6.66603">
        <ele>1159.1</ele>
        <time>2016-07-09T10:53:24Z</time>
      </trkpt>
      <trkpt lat="43.30062" lon="-6.66613">
        <ele>1159.2</ele>
        <time>2016-07-09T10:53:33Z</time>
      </trkpt>
      <trkpt lat="43.30056" lon="-6.66624">
        <ele>1159.6</ele>
        <time>2016-07-09T10:53:42Z</time>
      </trkpt>
      <trkpt lat="43.30051" lon="-6.66634">
        <ele>1159.9</ele>
        <time>2016-07-09T10:53:51Z</time>
      </trkpt>
      <trkpt lat="43.30044" lon="-6.66643">
        <ele>1160.5</ele>
        <time>2016-07-09T10:54:00Z</time>
      </trkpt>
      <trkpt lat="43.30036" lon="-6.66648">
        <ele>1161</ele>
        <time>2016-07-09T10:54:09Z</time>
      </trkpt>
      <trkpt lat="43.30027" lon="-6.66654">
        <ele>1161.6</ele>
        <time>2016-07-09T10:54:19Z</time>
      </trkpt>
      <trkpt lat="43.30018" lon="-6.6666">
        <ele>1162.3</ele>
        <time>2016-07-09T10:54:29Z</time>
      </trkpt>
      <trkpt lat="43.3001" lon="-6.66666">
        <ele>1163</ele>
        <time>2016-07-09T10:54:40Z</time>
      </trkpt>
      <trkpt lat="43.30003" lon="-6.66673">
        <ele>1164.2</ele>
        <time>2016-07-09T10:54:50Z</time>
      </trkpt>
      <trkpt lat="43.29994" lon="-6.66678">
        <ele>1166.4</ele>
        <time>2016-07-09T10:54:59Z</time>
      </trkpt>
      <trkpt lat="43.29986" lon="-6.66685">
        <ele>1167.5</ele>
        <time>2016-07-09T10:55:09Z</time>
      </trkpt>
      <trkpt lat="43.29977" lon="-6.66692">
        <ele>1168.1</ele>
        <time>2016-07-09T10:55:18Z</time>
      </trkpt>
      <trkpt lat="43.29969" lon="-6.66698">
        <ele>1168.5</ele>
        <time>2016-07-09T10:55:26Z</time>
      </trkpt>
      <trkpt lat="43.29961" lon="-6.66706">
        <ele>1168.9</ele>
        <time>2016-07-09T10:55:34Z</time>
      </trkpt>
      <trkpt lat="43.29954" lon="-6.66714">
        <ele>1169</ele>
        <time>2016-07-09T10:55:43Z</time>
      </trkpt>
      <trkpt lat="43.29946" lon="-6.66722">
        <ele>1169</ele>
        <time>2016-07-09T10:55:51Z</time>
      </trkpt>
      <trkpt lat="43.29939" lon="-6.66729">
        <ele>1168.8</ele>
        <time>2016-07-09T10:55:59Z</time>
      </trkpt>
      <trkpt lat="43.29931" lon="-6.66737">
        <ele>1168.2</ele>
        <time>2016-07-09T10:56:07Z</time>
      </trkpt>
      <trkpt lat="43.29924" lon="-6.66745">
        <ele>1167.6</ele>
        <time>2016-07-09T10:56:15Z</time>
      </trkpt>
      <trkpt lat="43.29917" lon="-6.66754">
        <ele>1166.8</ele>
        <time>2016-07-09T10:56:24Z</time>
      </trkpt>
      <trkpt lat="43.29911" lon="-6.66763">
        <ele>1166</ele>
        <time>2016-07-09T10:56:33Z</time>
      </trkpt>
      <trkpt lat="43.29904" lon="-6.66773">
        <ele>1165.3</ele>
        <time>2016-07-09T10:56:43Z</time>
      </trkpt>
      <trkpt lat="43.29897" lon="-6.66783">
        <ele>1164.3</ele>
        <time>2016-07-09T10:56:52Z</time>
      </trkpt>
      <trkpt lat="43.29891" lon="-6.66792">
        <ele>1163.5</ele>
        <time>2016-07-09T10:57:01Z</time>
      </trkpt>
      <trkpt lat="43.29884" lon="-6.66802">
        <ele>1162.9</ele>
        <time>2016-07-09T10:57:09Z</time>
      </trkpt>
      <trkpt lat="43.29878" lon="-6.66812">
        <ele>1162.3</ele>
        <time>2016-07-09T10:57:18Z</time>
      </trkpt>
      <trkpt lat="43.29871" lon="-6.66821">
        <ele>1161.6</ele>
        <time>2016-07-09T10:57:27Z</time>
      </trkpt>
      <trkpt lat="43.29864" lon="-6.66831">
        <ele>1161.2</ele>
        <time>2016-07-09T10:57:35Z</time>
      </trkpt>
      <trkpt lat="43.29858" lon="-6.66841">
        <ele>1160.5</ele>
        <time>2016-07-09T10:57:44Z</time>
      </trkpt>
      <trkpt lat="43.29852" lon="-6.66851">
        <ele>1159.9</ele>
        <time>2016-07-09T10:57:53Z</time>
      </trkpt>
      <trkpt lat="43.29847" lon="-6.66861">
        <ele>1159.2</ele>
        <time>2016-07-09T10:58:02Z</time>
      </trkpt>
      <trkpt lat="43.2984" lon="-6.66872">
        <ele>1158.3</ele>
        <time>2016-07-09T10:58:11Z</time>
      </trkpt>
      <trkpt lat="43.29833" lon="-6.66882">
        <ele>1156.8</ele>
        <time>2016-07-09T10:58:20Z</time>
      </trkpt>
      <trkpt lat="43.29827" lon="-6.66891">
        <ele>1155.2</ele>
        <time>2016-07-09T10:58:29Z</time>
      </trkpt>
      <trkpt lat="43.29819" lon="-6.669">
        <ele>1153.8</ele>
        <time>2016-07-09T10:58:37Z</time>
      </trkpt>
      <trkpt lat="43.29813" lon="-6.6691">
        <ele>1152.5</ele>
        <time>2016-07-09T10:58:45Z</time>
      </trkpt>
      <trkpt lat="43.29808" lon="-6.66921">
        <ele>1151.8</ele>
        <time>2016-07-09T10:58:53Z</time>
      </trkpt>
      <trkpt lat="43.29801" lon="-6.66929">
        <ele>1151.3</ele>
        <time>2016-07-09T10:59:01Z</time>
      </trkpt>
      <trkpt lat="43.29794" lon="-6.66937">
        <ele>1150.8</ele>
        <time>2016-07-09T10:59:09Z</time>
      </trkpt>
      <trkpt lat="43.29785" lon="-6.66943">
        <ele>1150.2</ele>
        <time>2016-07-09T10:59:17Z</time>
      </trkpt>
      <trkpt lat="43.29777" lon="-6.6695">
        <ele>1149.5</ele>
        <time>2016-07-09T10:59:25Z</time>
      </trkpt>
      <trkpt lat="43.29769" lon="-6.66957">
        <ele>1148.2</ele>
        <time>2016-07-09T10:59:33Z</time>
      </trkpt>
      <trkpt lat="43.29761" lon="-6.66964">
        <ele>1147.4</ele>
        <time>2016-07-09T10:59:41Z</time>
      </trkpt>
      <trkpt lat="43.29754" lon="-6.66972">
        <ele>1146.4</ele>
        <time>2016-07-09T10:59:49Z</time>
      </trkpt>
      <trkpt lat="43.29747" lon="-6.6698">
        <ele>1145.9</ele>
        <time>2016-07-09T10:59:57Z</time>
      </trkpt>
      <trkpt lat="43.2974" lon="-6.66989">
        <ele>1145.5</ele>
        <time>2016-07-09T11:00:05Z</time>
      </trkpt>
      <trkpt lat="43.29733" lon="-6.66997">
        <ele>1145.1</ele>
        <time>2016-07-09T11:00:13Z</time>
      </trkpt>
      <trkpt lat="43.29727" lon="-6.67007">
        <ele>1144.4</ele>
        <time>2016-07-09T11:00:21Z</time>
      </trkpt>
      <trkpt lat="43.29719" lon="-6.67015">
        <ele>1143.5</ele>
        <time>2016-07-09T11:00:29Z</time>
      </trkpt>
      <trkpt lat="43.29712" lon="-6.67023">
        <ele>1142.5</ele>
        <time>2016-07-09T11:00:36Z</time>
      </trkpt>
      <trkpt lat="43.29704" lon="-6.67028">
        <ele>1141.7</ele>
        <time>2016-07-09T11:00:43Z</time>
      </trkpt>
      <trkpt lat="43.29696" lon="-6.67037">
        <ele>1140.9</ele>
        <time>2016-07-09T11:00:51Z</time>
      </trkpt>
      <trkpt lat="43.29688" lon="-6.67043">
        <ele>1140.2</ele>
        <time>2016-07-09T11:00:59Z</time>
      </trkpt>
      <trkpt lat="43.29678" lon="-6.67049">
        <ele>1139.4</ele>
        <time>2016-07-09T11:01:08Z</time>
      </trkpt>
      <trkpt lat="43.29672" lon="-6.67058">
        <ele>1139.2</ele>
        <time>2016-07-09T11:01:16Z</time>
      </trkpt>
      <trkpt lat="43.29662" lon="-6.67063">
        <ele>1138.8</ele>
        <time>2016-07-09T11:01:25Z</time>
      </trkpt>
      <trkpt lat="43.29653" lon="-6.67066">
        <ele>1138.4</ele>
        <time>2016-07-09T11:01:34Z</time>
      </trkpt>
      <trkpt lat="43.29644" lon="-6.67073">
        <ele>1137.6</ele>
        <time>2016-07-09T11:02:11Z</time>
      </trkpt>
      <trkpt lat="43.29634" lon="-6.67075">
        <ele>1137.4</ele>
        <time>2016-07-09T11:02:19Z</time>
      </trkpt>
      <trkpt lat="43.29625" lon="-6.67077">
        <ele>1137.2</ele>
        <time>2016-07-09T11:02:27Z</time>
      </trkpt>
      <trkpt lat="43.29615" lon="-6.67081">
        <ele>1136.9</ele>
        <time>2016-07-09T11:02:35Z</time>
      </trkpt>
      <trkpt lat="43.29606" lon="-6.67086">
        <ele>1136.7</ele>
        <time>2016-07-09T11:02:43Z</time>
      </trkpt>
      <trkpt lat="43.29598" lon="-6.6709">
        <ele>1136.5</ele>
        <time>2016-07-09T11:02:51Z</time>
      </trkpt>
      <trkpt lat="43.29589" lon="-6.67094">
        <ele>1135.7</ele>
        <time>2016-07-09T11:02:59Z</time>
      </trkpt>
      <trkpt lat="43.2958" lon="-6.67099">
        <ele>1134.8</ele>
        <time>2016-07-09T11:03:08Z</time>
      </trkpt>
      <trkpt lat="43.29571" lon="-6.67103">
        <ele>1133.9</ele>
        <time>2016-07-09T11:03:19Z</time>
      </trkpt>
      <trkpt lat="43.29563" lon="-6.67093">
        <ele>1133</ele>
        <time>2016-07-09T11:03:31Z</time>
      </trkpt>
      <trkpt lat="43.29568" lon="-6.67082">
        <ele>1131.7</ele>
        <time>2016-07-09T11:03:42Z</time>
      </trkpt>
      <trkpt lat="43.29576" lon="-6.67075">
        <ele>1130.7</ele>
        <time>2016-07-09T11:03:53Z</time>
      </trkpt>
      <trkpt lat="43.29583" lon="-6.67066">
        <ele>1130</ele>
        <time>2016-07-09T11:04:04Z</time>
      </trkpt>
      <trkpt lat="43.29591" lon="-6.67058">
        <ele>1129.4</ele>
        <time>2016-07-09T11:04:14Z</time>
      </trkpt>
      <trkpt lat="43.29596" lon="-6.67047">
        <ele>1128.7</ele>
        <time>2016-07-09T11:04:26Z</time>
      </trkpt>
      <trkpt lat="43.29587" lon="-6.6705">
        <ele>1125.8</ele>
        <time>2016-07-09T11:04:50Z</time>
      </trkpt>
      <trkpt lat="43.2958" lon="-6.67059">
        <ele>1124.7</ele>
        <time>2016-07-09T11:04:59Z</time>
      </trkpt>
      <trkpt lat="43.29573" lon="-6.67066">
        <ele>1124.4</ele>
        <time>2016-07-09T11:05:07Z</time>
      </trkpt>
      <trkpt lat="43.29566" lon="-6.67074">
        <ele>1124.5</ele>
        <time>2016-07-09T11:05:16Z</time>
      </trkpt>
      <trkpt lat="43.29559" lon="-6.67084">
        <ele>1124.8</ele>
        <time>2016-07-09T11:05:32Z</time>
      </trkpt>
      <trkpt lat="43.29551" lon="-6.67092">
        <ele>1125.2</ele>
        <time>2016-07-09T11:05:41Z</time>
      </trkpt>
      <trkpt lat="43.29544" lon="-6.67101">
        <ele>1126</ele>
        <time>2016-07-09T11:05:51Z</time>
      </trkpt>
      <trkpt lat="43.29535" lon="-6.67106">
        <ele>1127.2</ele>
        <time>2016-07-09T11:06:02Z</time>
      </trkpt>
      <trkpt lat="43.29526" lon="-6.67111">
        <ele>1128.3</ele>
        <time>2016-07-09T11:06:11Z</time>
      </trkpt>
      <trkpt lat="43.29517" lon="-6.67117">
        <ele>1128.5</ele>
        <time>2016-07-09T11:06:19Z</time>
      </trkpt>
      <trkpt lat="43.29508" lon="-6.6712">
        <ele>1128.5</ele>
        <time>2016-07-09T11:06:27Z</time>
      </trkpt>
      <trkpt lat="43.29499" lon="-6.67126">
        <ele>1128.6</ele>
        <time>2016-07-09T11:06:36Z</time>
      </trkpt>
      <trkpt lat="43.2949" lon="-6.6713">
        <ele>1128.8</ele>
        <time>2016-07-09T11:06:45Z</time>
      </trkpt>
      <trkpt lat="43.29481" lon="-6.67133">
        <ele>1128.9</ele>
        <time>2016-07-09T11:06:53Z</time>
      </trkpt>
      <trkpt lat="43.29472" lon="-6.67139">
        <ele>1128.9</ele>
        <time>2016-07-09T11:07:02Z</time>
      </trkpt>
      <trkpt lat="43.29465" lon="-6.67148">
        <ele>1129.3</ele>
        <time>2016-07-09T11:07:11Z</time>
      </trkpt>
      <trkpt lat="43.29459" lon="-6.67157">
        <ele>1129.9</ele>
        <time>2016-07-09T11:07:19Z</time>
      </trkpt>
      <trkpt lat="43.29451" lon="-6.67166">
        <ele>1130.4</ele>
        <time>2016-07-09T11:07:28Z</time>
      </trkpt>
      <trkpt lat="43.29445" lon="-6.67175">
        <ele>1131.1</ele>
        <time>2016-07-09T11:07:37Z</time>
      </trkpt>
      <trkpt lat="43.29439" lon="-6.67185">
        <ele>1131.9</ele>
        <time>2016-07-09T11:07:46Z</time>
      </trkpt>
      <trkpt lat="43.29434" lon="-6.67196">
        <ele>1132.7</ele>
        <time>2016-07-09T11:07:56Z</time>
      </trkpt>
      <trkpt lat="43.29429" lon="-6.67207">
        <ele>1133.7</ele>
        <time>2016-07-09T11:08:06Z</time>
      </trkpt>
      <trkpt lat="43.29424" lon="-6.67219">
        <ele>1135.4</ele>
        <time>2016-07-09T11:08:16Z</time>
      </trkpt>
      <trkpt lat="43.29419" lon="-6.67229">
        <ele>1136.5</ele>
        <time>2016-07-09T11:08:24Z</time>
      </trkpt>
      <trkpt lat="43.29418" lon="-6.67243">
        <ele>1137.6</ele>
        <time>2016-07-09T11:08:35Z</time>
      </trkpt>
      <trkpt lat="43.29412" lon="-6.67253">
        <ele>1138.6</ele>
        <time>2016-07-09T11:08:45Z</time>
      </trkpt>
      <trkpt lat="43.29408" lon="-6.67264">
        <ele>1139.5</ele>
        <time>2016-07-09T11:08:54Z</time>
      </trkpt>
      <trkpt lat="43.29402" lon="-6.67275">
        <ele>1140.3</ele>
        <time>2016-07-09T11:09:03Z</time>
      </trkpt>
      <trkpt lat="43.29397" lon="-6.67285">
        <ele>1141</ele>
        <time>2016-07-09T11:09:11Z</time>
      </trkpt>
      <trkpt lat="43.29391" lon="-6.67295">
        <ele>1141.4</ele>
        <time>2016-07-09T11:09:19Z</time>
      </trkpt>
      <trkpt lat="43.29385" lon="-6.67305">
        <ele>1141.6</ele>
        <time>2016-07-09T11:09:27Z</time>
      </trkpt>
      <trkpt lat="43.29379" lon="-6.67314">
        <ele>1142</ele>
        <time>2016-07-09T11:09:36Z</time>
      </trkpt>
      <trkpt lat="43.29373" lon="-6.67324">
        <ele>1142.8</ele>
        <time>2016-07-09T11:09:45Z</time>
      </trkpt>
      <trkpt lat="43.29366" lon="-6.67333">
        <ele>1143.3</ele>
        <time>2016-07-09T11:09:54Z</time>
      </trkpt>
      <trkpt lat="43.29358" lon="-6.6734">
        <ele>1143.7</ele>
        <time>2016-07-09T11:10:03Z</time>
      </trkpt>
      <trkpt lat="43.29349" lon="-6.67346">
        <ele>1144.4</ele>
        <time>2016-07-09T11:10:12Z</time>
      </trkpt>
      <trkpt lat="43.29339" lon="-6.6735">
        <ele>1144.9</ele>
        <time>2016-07-09T11:10:22Z</time>
      </trkpt>
      <trkpt lat="43.2933" lon="-6.67354">
        <ele>1145.4</ele>
        <time>2016-07-09T11:10:32Z</time>
      </trkpt>
      <trkpt lat="43.29322" lon="-6.67358">
        <ele>1146.1</ele>
        <time>2016-07-09T11:10:42Z</time>
      </trkpt>
      <trkpt lat="43.29312" lon="-6.67361">
        <ele>1146.9</ele>
        <time>2016-07-09T11:10:52Z</time>
      </trkpt>
      <trkpt lat="43.29302" lon="-6.67364">
        <ele>1148.2</ele>
        <time>2016-07-09T11:11:02Z</time>
      </trkpt>
      <trkpt lat="43.29293" lon="-6.67367">
        <ele>1151.8</ele>
        <time>2016-07-09T11:12:21Z</time>
      </trkpt>
      <trkpt lat="43.29284" lon="-6.6737">
        <ele>1151.9</ele>
        <time>2016-07-09T11:12:31Z</time>
      </trkpt>
      <trkpt lat="43.29276" lon="-6.67375">
        <ele>1152.7</ele>
        <time>2016-07-09T11:12:40Z</time>
      </trkpt>
      <trkpt lat="43.29267" lon="-6.67379">
        <ele>1153.5</ele>
        <time>2016-07-09T11:12:48Z</time>
      </trkpt>
      <trkpt lat="43.29257" lon="-6.67384">
        <ele>1154</ele>
        <time>2016-07-09T11:12:57Z</time>
      </trkpt>
      <trkpt lat="43.29248" lon="-6.67388">
        <ele>1154.4</ele>
        <time>2016-07-09T11:13:06Z</time>
      </trkpt>
      <trkpt lat="43.29236" lon="-6.67394">
        <ele>1155</ele>
        <time>2016-07-09T11:13:16Z</time>
      </trkpt>
      <trkpt lat="43.29228" lon="-6.674">
        <ele>1156.1</ele>
        <time>2016-07-09T11:13:26Z</time>
      </trkpt>
      <trkpt lat="43.29218" lon="-6.67404">
        <ele>1156.6</ele>
        <time>2016-07-09T11:13:35Z</time>
      </trkpt>
      <trkpt lat="43.29209" lon="-6.67408">
        <ele>1157.3</ele>
        <time>2016-07-09T11:13:43Z</time>
      </trkpt>
      <trkpt lat="43.292" lon="-6.67411">
        <ele>1157.7</ele>
        <time>2016-07-09T11:13:51Z</time>
      </trkpt>
      <trkpt lat="43.29191" lon="-6.67414">
        <ele>1158.1</ele>
        <time>2016-07-09T11:14:01Z</time>
      </trkpt>
      <trkpt lat="43.29181" lon="-6.67418">
        <ele>1158.4</ele>
        <time>2016-07-09T11:14:11Z</time>
      </trkpt>
      <trkpt lat="43.29172" lon="-6.67423">
        <ele>1159.2</ele>
        <time>2016-07-09T11:14:21Z</time>
      </trkpt>
      <trkpt lat="43.29163" lon="-6.67426">
        <ele>1160.2</ele>
        <time>2016-07-09T11:14:30Z</time>
      </trkpt>
      <trkpt lat="43.29155" lon="-6.67431">
        <ele>1161</ele>
        <time>2016-07-09T11:14:39Z</time>
      </trkpt>
      <trkpt lat="43.29146" lon="-6.67435">
        <ele>1161.9</ele>
        <time>2016-07-09T11:14:48Z</time>
      </trkpt>
      <trkpt lat="43.29137" lon="-6.6744">
        <ele>1163.3</ele>
        <time>2016-07-09T11:14:57Z</time>
      </trkpt>
      <trkpt lat="43.29128" lon="-6.67444">
        <ele>1163.9</ele>
        <time>2016-07-09T11:15:05Z</time>
      </trkpt>
      <trkpt lat="43.2912" lon="-6.67448">
        <ele>1164.4</ele>
        <time>2016-07-09T11:15:13Z</time>
      </trkpt>
      <trkpt lat="43.29111" lon="-6.67453">
        <ele>1164.8</ele>
        <time>2016-07-09T11:15:22Z</time>
      </trkpt>
      <trkpt lat="43.29103" lon="-6.6746">
        <ele>1165.2</ele>
        <time>2016-07-09T11:15:30Z</time>
      </trkpt>
      <trkpt lat="43.29094" lon="-6.67465">
        <ele>1165.8</ele>
        <time>2016-07-09T11:15:38Z</time>
      </trkpt>
      <trkpt lat="43.29085" lon="-6.67471">
        <ele>1166.2</ele>
        <time>2016-07-09T11:15:47Z</time>
      </trkpt>
      <trkpt lat="43.29076" lon="-6.67477">
        <ele>1166.6</ele>
        <time>2016-07-09T11:15:55Z</time>
      </trkpt>
      <trkpt lat="43.29068" lon="-6.67483">
        <ele>1167.1</ele>
        <time>2016-07-09T11:16:03Z</time>
      </trkpt>
      <trkpt lat="43.2906" lon="-6.6749">
        <ele>1167.6</ele>
        <time>2016-07-09T11:16:13Z</time>
      </trkpt>
      <trkpt lat="43.29052" lon="-6.67496">
        <ele>1168.1</ele>
        <time>2016-07-09T11:16:22Z</time>
      </trkpt>
      <trkpt lat="43.29044" lon="-6.67502">
        <ele>1168.6</ele>
        <time>2016-07-09T11:16:32Z</time>
      </trkpt>
      <trkpt lat="43.29035" lon="-6.67508">
        <ele>1169.1</ele>
        <time>2016-07-09T11:16:41Z</time>
      </trkpt>
      <trkpt lat="43.29026" lon="-6.67513">
        <ele>1170</ele>
        <time>2016-07-09T11:16:50Z</time>
      </trkpt>
      <trkpt lat="43.29018" lon="-6.67518">
        <ele>1170.9</ele>
        <time>2016-07-09T11:16:59Z</time>
      </trkpt>
      <trkpt lat="43.29009" lon="-6.67523">
        <ele>1171.9</ele>
        <time>2016-07-09T11:17:09Z</time>
      </trkpt>
      <trkpt lat="43.29001" lon="-6.67529">
        <ele>1172.9</ele>
        <time>2016-07-09T11:17:18Z</time>
      </trkpt>
      <trkpt lat="43.28993" lon="-6.67535">
        <ele>1173.7</ele>
        <time>2016-07-09T11:17:27Z</time>
      </trkpt>
      <trkpt lat="43.28984" lon="-6.67541">
        <ele>1174.8</ele>
        <time>2016-07-09T11:17:37Z</time>
      </trkpt>
      <trkpt lat="43.28975" lon="-6.67545">
        <ele>1176</ele>
        <time>2016-07-09T11:17:46Z</time>
      </trkpt>
      <trkpt lat="43.28967" lon="-6.6755">
        <ele>1177</ele>
        <time>2016-07-09T11:17:55Z</time>
      </trkpt>
      <trkpt lat="43.28959" lon="-6.67554">
        <ele>1177.6</ele>
        <time>2016-07-09T11:18:04Z</time>
      </trkpt>
      <trkpt lat="43.2895" lon="-6.6756">
        <ele>1178.4</ele>
        <time>2016-07-09T11:18:13Z</time>
      </trkpt>
      <trkpt lat="43.28942" lon="-6.67565">
        <ele>1179.4</ele>
        <time>2016-07-09T11:18:23Z</time>
      </trkpt>
      <trkpt lat="43.28933" lon="-6.67571">
        <ele>1180.7</ele>
        <time>2016-07-09T11:18:33Z</time>
      </trkpt>
      <trkpt lat="43.28924" lon="-6.67575">
        <ele>1181.7</ele>
        <time>2016-07-09T11:18:42Z</time>
      </trkpt>
      <trkpt lat="43.28915" lon="-6.67579">
        <ele>1182.7</ele>
        <time>2016-07-09T11:18:51Z</time>
      </trkpt>
      <trkpt lat="43.28906" lon="-6.67584">
        <ele>1183.6</ele>
        <time>2016-07-09T11:19:00Z</time>
      </trkpt>
      <trkpt lat="43.28898" lon="-6.67588">
        <ele>1184.3</ele>
        <time>2016-07-09T11:19:09Z</time>
      </trkpt>
      <trkpt lat="43.28888" lon="-6.67589">
        <ele>1186.4</ele>
        <time>2016-07-09T11:20:00Z</time>
      </trkpt>
      <trkpt lat="43.2888" lon="-6.67593">
        <ele>1186.5</ele>
        <time>2016-07-09T11:20:09Z</time>
      </trkpt>
      <trkpt lat="43.28871" lon="-6.67598">
        <ele>1186.9</ele>
        <time>2016-07-09T11:20:18Z</time>
      </trkpt>
      <trkpt lat="43.28862" lon="-6.67602">
        <ele>1187.3</ele>
        <time>2016-07-09T11:20:27Z</time>
      </trkpt>
      <trkpt lat="43.28853" lon="-6.67605">
        <ele>1188.4</ele>
        <time>2016-07-09T11:20:36Z</time>
      </trkpt>
      <trkpt lat="43.28844" lon="-6.67606">
        <ele>1189.1</ele>
        <time>2016-07-09T11:20:45Z</time>
      </trkpt>
      <trkpt lat="43.28835" lon="-6.67609">
        <ele>1189.7</ele>
        <time>2016-07-09T11:20:55Z</time>
      </trkpt>
      <trkpt lat="43.28826" lon="-6.67608">
        <ele>1191</ele>
        <time>2016-07-09T11:21:04Z</time>
      </trkpt>
      <trkpt lat="43.28816" lon="-6.67607">
        <ele>1191.8</ele>
        <time>2016-07-09T11:21:13Z</time>
      </trkpt>
      <trkpt lat="43.28807" lon="-6.67607">
        <ele>1192.4</ele>
        <time>2016-07-09T11:21:22Z</time>
      </trkpt>
      <trkpt lat="43.28797" lon="-6.67606">
        <ele>1193.7</ele>
        <time>2016-07-09T11:21:31Z</time>
      </trkpt>
      <trkpt lat="43.28788" lon="-6.67606">
        <ele>1194.7</ele>
        <time>2016-07-09T11:21:40Z</time>
      </trkpt>
      <trkpt lat="43.28778" lon="-6.67606">
        <ele>1195.2</ele>
        <time>2016-07-09T11:21:49Z</time>
      </trkpt>
      <trkpt lat="43.28769" lon="-6.67605">
        <ele>1196.1</ele>
        <time>2016-07-09T11:21:58Z</time>
      </trkpt>
      <trkpt lat="43.28759" lon="-6.67605">
        <ele>1196.9</ele>
        <time>2016-07-09T11:22:08Z</time>
      </trkpt>
      <trkpt lat="43.2875" lon="-6.67605">
        <ele>1198.2</ele>
        <time>2016-07-09T11:22:18Z</time>
      </trkpt>
      <trkpt lat="43.28741" lon="-6.67606">
        <ele>1199.2</ele>
        <time>2016-07-09T11:22:27Z</time>
      </trkpt>
      <trkpt lat="43.28732" lon="-6.67608">
        <ele>1200.5</ele>
        <time>2016-07-09T11:22:37Z</time>
      </trkpt>
      <trkpt lat="43.28723" lon="-6.67609">
        <ele>1201.5</ele>
        <time>2016-07-09T11:22:46Z</time>
      </trkpt>
      <trkpt lat="43.28714" lon="-6.67611">
        <ele>1202.5</ele>
        <time>2016-07-09T11:22:56Z</time>
      </trkpt>
      <trkpt lat="43.28705" lon="-6.67611">
        <ele>1203.1</ele>
        <time>2016-07-09T11:23:06Z</time>
      </trkpt>
      <trkpt lat="43.28695" lon="-6.67611">
        <ele>1204.3</ele>
        <time>2016-07-09T11:23:15Z</time>
      </trkpt>
      <trkpt lat="43.28685" lon="-6.67614">
        <ele>1205.5</ele>
        <time>2016-07-09T11:23:25Z</time>
      </trkpt>
      <trkpt lat="43.28676" lon="-6.67614">
        <ele>1206.2</ele>
        <time>2016-07-09T11:23:33Z</time>
      </trkpt>
      <trkpt lat="43.28666" lon="-6.67614">
        <ele>1206.7</ele>
        <time>2016-07-09T11:23:41Z</time>
      </trkpt>
      <trkpt lat="43.28657" lon="-6.67615">
        <ele>1207.2</ele>
        <time>2016-07-09T11:23:50Z</time>
      </trkpt>
      <trkpt lat="43.28647" lon="-6.67616">
        <ele>1207.8</ele>
        <time>2016-07-09T11:23:59Z</time>
      </trkpt>
      <trkpt lat="43.28637" lon="-6.67617">
        <ele>1207.9</ele>
        <time>2016-07-09T11:24:07Z</time>
      </trkpt>
      <trkpt lat="43.28628" lon="-6.67618">
        <ele>1208.1</ele>
        <time>2016-07-09T11:24:15Z</time>
      </trkpt>
      <trkpt lat="43.28619" lon="-6.67618">
        <ele>1208.2</ele>
        <time>2016-07-09T11:24:23Z</time>
      </trkpt>
      <trkpt lat="43.28609" lon="-6.67617">
        <ele>1208.3</ele>
        <time>2016-07-09T11:24:32Z</time>
      </trkpt>
      <trkpt lat="43.286" lon="-6.67617">
        <ele>1208.9</ele>
        <time>2016-07-09T11:24:40Z</time>
      </trkpt>
      <trkpt lat="43.2859" lon="-6.67617">
        <ele>1209.5</ele>
        <time>2016-07-09T11:24:49Z</time>
      </trkpt>
      <trkpt lat="43.28581" lon="-6.67619">
        <ele>1209.9</ele>
        <time>2016-07-09T11:24:58Z</time>
      </trkpt>
      <trkpt lat="43.28571" lon="-6.67618">
        <ele>1210.1</ele>
        <time>2016-07-09T11:25:07Z</time>
      </trkpt>
      <trkpt lat="43.28562" lon="-6.67618">
        <ele>1210.7</ele>
        <time>2016-07-09T11:26:15Z</time>
      </trkpt>
      <trkpt lat="43.28554" lon="-6.67626">
        <ele>1212.5</ele>
        <time>2016-07-09T11:27:23Z</time>
      </trkpt>
      <trkpt lat="43.28546" lon="-6.67632">
        <ele>1211.5</ele>
        <time>2016-07-09T11:27:33Z</time>
      </trkpt>
      <trkpt lat="43.28538" lon="-6.6764">
        <ele>1209.9</ele>
        <time>2016-07-09T11:28:00Z</time>
      </trkpt>
      <trkpt lat="43.28531" lon="-6.67646">
        <ele>1210.2</ele>
        <time>2016-07-09T11:28:08Z</time>
      </trkpt>
      <trkpt lat="43.28523" lon="-6.67653">
        <ele>1209.9</ele>
        <time>2016-07-09T11:28:17Z</time>
      </trkpt>
      <trkpt lat="43.28514" lon="-6.67661">
        <ele>1209.1</ele>
        <time>2016-07-09T11:28:26Z</time>
      </trkpt>
      <trkpt lat="43.28505" lon="-6.67667">
        <ele>1208.3</ele>
        <time>2016-07-09T11:28:35Z</time>
      </trkpt>
      <trkpt lat="43.28497" lon="-6.67673">
        <ele>1207.4</ele>
        <time>2016-07-09T11:28:43Z</time>
      </trkpt>
      <trkpt lat="43.28487" lon="-6.67677">
        <ele>1206.5</ele>
        <time>2016-07-09T11:28:52Z</time>
      </trkpt>
      <trkpt lat="43.28479" lon="-6.67684">
        <ele>1205.6</ele>
        <time>2016-07-09T11:29:00Z</time>
      </trkpt>
      <trkpt lat="43.2847" lon="-6.67689">
        <ele>1204.6</ele>
        <time>2016-07-09T11:29:08Z</time>
      </trkpt>
      <trkpt lat="43.28461" lon="-6.67694">
        <ele>1203.9</ele>
        <time>2016-07-09T11:29:17Z</time>
      </trkpt>
      <trkpt lat="43.28452" lon="-6.67699">
        <ele>1203.1</ele>
        <time>2016-07-09T11:29:25Z</time>
      </trkpt>
      <trkpt lat="43.28443" lon="-6.67704">
        <ele>1202.1</ele>
        <time>2016-07-09T11:29:34Z</time>
      </trkpt>
      <trkpt lat="43.28435" lon="-6.67709">
        <ele>1201.3</ele>
        <time>2016-07-09T11:29:43Z</time>
      </trkpt>
      <trkpt lat="43.28426" lon="-6.67714">
        <ele>1200.1</ele>
        <time>2016-07-09T11:29:52Z</time>
      </trkpt>
      <trkpt lat="43.28418" lon="-6.67719">
        <ele>1199.4</ele>
        <time>2016-07-09T11:30:00Z</time>
      </trkpt>
      <trkpt lat="43.28408" lon="-6.67723">
        <ele>1198.9</ele>
        <time>2016-07-09T11:30:08Z</time>
      </trkpt>
      <trkpt lat="43.28399" lon="-6.67726">
        <ele>1198.6</ele>
        <time>2016-07-09T11:30:16Z</time>
      </trkpt>
      <trkpt lat="43.28389" lon="-6.67728">
        <ele>1198.4</ele>
        <time>2016-07-09T11:30:23Z</time>
      </trkpt>
      <trkpt lat="43.28381" lon="-6.67732">
        <ele>1198</ele>
        <time>2016-07-09T11:30:30Z</time>
      </trkpt>
      <trkpt lat="43.28372" lon="-6.67735">
        <ele>1197.4</ele>
        <time>2016-07-09T11:30:38Z</time>
      </trkpt>
      <trkpt lat="43.28363" lon="-6.67741">
        <ele>1196.4</ele>
        <time>2016-07-09T11:30:47Z</time>
      </trkpt>
      <trkpt lat="43.28353" lon="-6.67745">
        <ele>1195.7</ele>
        <time>2016-07-09T11:30:55Z</time>
      </trkpt>
      <trkpt lat="43.28344" lon="-6.67749">
        <ele>1194.6</ele>
        <time>2016-07-09T11:31:03Z</time>
      </trkpt>
      <trkpt lat="43.28335" lon="-6.67752">
        <ele>1193.9</ele>
        <time>2016-07-09T11:31:11Z</time>
      </trkpt>
      <trkpt lat="43.28326" lon="-6.67755">
        <ele>1193.5</ele>
        <time>2016-07-09T11:31:19Z</time>
      </trkpt>
      <trkpt lat="43.28316" lon="-6.67759">
        <ele>1193.4</ele>
        <time>2016-07-09T11:31:27Z</time>
      </trkpt>
      <trkpt lat="43.28307" lon="-6.67759">
        <ele>1193.2</ele>
        <time>2016-07-09T11:31:34Z</time>
      </trkpt>
      <trkpt lat="43.28297" lon="-6.67757">
        <ele>1192.8</ele>
        <time>2016-07-09T11:31:43Z</time>
      </trkpt>
      <trkpt lat="43.28288" lon="-6.67756">
        <ele>1192.5</ele>
        <time>2016-07-09T11:31:50Z</time>
      </trkpt>
      <trkpt lat="43.28278" lon="-6.67756">
        <ele>1192</ele>
        <time>2016-07-09T11:31:58Z</time>
      </trkpt>
      <trkpt lat="43.28269" lon="-6.67757">
        <ele>1191.3</ele>
        <time>2016-07-09T11:32:06Z</time>
      </trkpt>
      <trkpt lat="43.28259" lon="-6.67756">
        <ele>1190.7</ele>
        <time>2016-07-09T11:32:14Z</time>
      </trkpt>
      <trkpt lat="43.28249" lon="-6.67758">
        <ele>1189.9</ele>
        <time>2016-07-09T11:32:23Z</time>
      </trkpt>
      <trkpt lat="43.2824" lon="-6.67761">
        <ele>1189.5</ele>
        <time>2016-07-09T11:32:32Z</time>
      </trkpt>
      <trkpt lat="43.28231" lon="-6.67764">
        <ele>1189.3</ele>
        <time>2016-07-09T11:32:41Z</time>
      </trkpt>
      <trkpt lat="43.28221" lon="-6.67767">
        <ele>1189.4</ele>
        <time>2016-07-09T11:32:50Z</time>
      </trkpt>
      <trkpt lat="43.28212" lon="-6.6777">
        <ele>1190</ele>
        <time>2016-07-09T11:32:59Z</time>
      </trkpt>
      <trkpt lat="43.28203" lon="-6.67775">
        <ele>1190.5</ele>
        <time>2016-07-09T11:33:08Z</time>
      </trkpt>
      <trkpt lat="43.28194" lon="-6.67779">
        <ele>1191.3</ele>
        <time>2016-07-09T11:33:17Z</time>
      </trkpt>
      <trkpt lat="43.28185" lon="-6.67785">
        <ele>1192.1</ele>
        <time>2016-07-09T11:33:27Z</time>
      </trkpt>
      <trkpt lat="43.28177" lon="-6.6779">
        <ele>1193.8</ele>
        <time>2016-07-09T11:33:37Z</time>
      </trkpt>
      <trkpt lat="43.28169" lon="-6.67796">
        <ele>1195.4</ele>
        <time>2016-07-09T11:33:48Z</time>
      </trkpt>
      <trkpt lat="43.2816" lon="-6.67801">
        <ele>1196.5</ele>
        <time>2016-07-09T11:33:58Z</time>
      </trkpt>
      <trkpt lat="43.28152" lon="-6.67806">
        <ele>1197.5</ele>
        <time>2016-07-09T11:34:08Z</time>
      </trkpt>
      <trkpt lat="43.28143" lon="-6.67807">
        <ele>1198.6</ele>
        <time>2016-07-09T11:34:18Z</time>
      </trkpt>
      <trkpt lat="43.28133" lon="-6.67806">
        <ele>1200.1</ele>
        <time>2016-07-09T11:34:29Z</time>
      </trkpt>
      <trkpt lat="43.28124" lon="-6.67802">
        <ele>1200.9</ele>
        <time>2016-07-09T11:34:39Z</time>
      </trkpt>
      <trkpt lat="43.28116" lon="-6.67797">
        <ele>1201.8</ele>
        <time>2016-07-09T11:34:49Z</time>
      </trkpt>
      <trkpt lat="43.28107" lon="-6.67792">
        <ele>1202.8</ele>
        <time>2016-07-09T11:34:59Z</time>
      </trkpt>
      <trkpt lat="43.28098" lon="-6.67788">
        <ele>1204.3</ele>
        <time>2016-07-09T11:35:08Z</time>
      </trkpt>
      <trkpt lat="43.2809" lon="-6.67782">
        <ele>1205.7</ele>
        <time>2016-07-09T11:35:25Z</time>
      </trkpt>
      <trkpt lat="43.28081" lon="-6.67775">
        <ele>1206</ele>
        <time>2016-07-09T11:35:34Z</time>
      </trkpt>
      <trkpt lat="43.28072" lon="-6.67769">
        <ele>1205.8</ele>
        <time>2016-07-09T11:35:43Z</time>
      </trkpt>
      <trkpt lat="43.28064" lon="-6.67763">
        <ele>1205.6</ele>
        <time>2016-07-09T11:35:51Z</time>
      </trkpt>
      <trkpt lat="43.28056" lon="-6.67757">
        <ele>1205.5</ele>
        <time>2016-07-09T11:36:00Z</time>
      </trkpt>
      <trkpt lat="43.28048" lon="-6.67751">
        <ele>1205.5</ele>
        <time>2016-07-09T11:36:08Z</time>
      </trkpt>
      <trkpt lat="43.2804" lon="-6.67743">
        <ele>1205.5</ele>
        <time>2016-07-09T11:36:17Z</time>
      </trkpt>
      <trkpt lat="43.28031" lon="-6.6774">
        <ele>1205.7</ele>
        <time>2016-07-09T11:36:26Z</time>
      </trkpt>
      <trkpt lat="43.28021" lon="-6.67739">
        <ele>1205.8</ele>
        <time>2016-07-09T11:36:35Z</time>
      </trkpt>
      <trkpt lat="43.28012" lon="-6.67737">
        <ele>1205.9</ele>
        <time>2016-07-09T11:36:44Z</time>
      </trkpt>
      <trkpt lat="43.28002" lon="-6.67736">
        <ele>1205.7</ele>
        <time>2016-07-09T11:36:53Z</time>
      </trkpt>
      <trkpt lat="43.27992" lon="-6.67735">
        <ele>1205.7</ele>
        <time>2016-07-09T11:37:02Z</time>
      </trkpt>
      <trkpt lat="43.27983" lon="-6.67736">
        <ele>1205.4</ele>
        <time>2016-07-09T11:37:11Z</time>
      </trkpt>
      <trkpt lat="43.27974" lon="-6.67741">
        <ele>1205.2</ele>
        <time>2016-07-09T11:37:20Z</time>
      </trkpt>
      <trkpt lat="43.27964" lon="-6.67744">
        <ele>1205.1</ele>
        <time>2016-07-09T11:37:29Z</time>
      </trkpt>
      <trkpt lat="43.27955" lon="-6.67747">
        <ele>1204.7</ele>
        <time>2016-07-09T11:37:37Z</time>
      </trkpt>
      <trkpt lat="43.27947" lon="-6.67751">
        <ele>1204.3</ele>
        <time>2016-07-09T11:37:45Z</time>
      </trkpt>
      <trkpt lat="43.27938" lon="-6.67755">
        <ele>1203.8</ele>
        <time>2016-07-09T11:37:53Z</time>
      </trkpt>
      <trkpt lat="43.27928" lon="-6.67759">
        <ele>1203.4</ele>
        <time>2016-07-09T11:38:02Z</time>
      </trkpt>
      <trkpt lat="43.2792" lon="-6.67761">
        <ele>1202.9</ele>
        <time>2016-07-09T11:38:10Z</time>
      </trkpt>
      <trkpt lat="43.27911" lon="-6.67765">
        <ele>1202.2</ele>
        <time>2016-07-09T11:38:18Z</time>
      </trkpt>
      <trkpt lat="43.27901" lon="-6.67767">
        <ele>1201.5</ele>
        <time>2016-07-09T11:38:27Z</time>
      </trkpt>
      <trkpt lat="43.27892" lon="-6.67769">
        <ele>1200.8</ele>
        <time>2016-07-09T11:38:35Z</time>
      </trkpt>
      <trkpt lat="43.27883" lon="-6.67773">
        <ele>1200.1</ele>
        <time>2016-07-09T11:38:43Z</time>
      </trkpt>
      <trkpt lat="43.27873" lon="-6.67776">
        <ele>1199</ele>
        <time>2016-07-09T11:38:52Z</time>
      </trkpt>
      <trkpt lat="43.27864" lon="-6.67778">
        <ele>1198.4</ele>
        <time>2016-07-09T11:39:00Z</time>
      </trkpt>
      <trkpt lat="43.27854" lon="-6.6778">
        <ele>1197.7</ele>
        <time>2016-07-09T11:39:08Z</time>
      </trkpt>
      <trkpt lat="43.27845" lon="-6.67783">
        <ele>1197.2</ele>
        <time>2016-07-09T11:39:16Z</time>
      </trkpt>
      <trkpt lat="43.27836" lon="-6.67787">
        <ele>1196.4</ele>
        <time>2016-07-09T11:39:25Z</time>
      </trkpt>
      <trkpt lat="43.27827" lon="-6.67791">
        <ele>1195.4</ele>
        <time>2016-07-09T11:39:33Z</time>
      </trkpt>
      <trkpt lat="43.27818" lon="-6.67795">
        <ele>1194.6</ele>
        <time>2016-07-09T11:39:42Z</time>
      </trkpt>
      <trkpt lat="43.27809" lon="-6.67799">
        <ele>1194.1</ele>
        <time>2016-07-09T11:39:50Z</time>
      </trkpt>
      <trkpt lat="43.278" lon="-6.67804">
        <ele>1193.3</ele>
        <time>2016-07-09T11:39:58Z</time>
      </trkpt>
      <trkpt lat="43.27792" lon="-6.6781">
        <ele>1192.1</ele>
        <time>2016-07-09T11:40:06Z</time>
      </trkpt>
      <trkpt lat="43.27783" lon="-6.67815">
        <ele>1191.2</ele>
        <time>2016-07-09T11:40:14Z</time>
      </trkpt>
      <trkpt lat="43.27774" lon="-6.67817">
        <ele>1190.7</ele>
        <time>2016-07-09T11:40:22Z</time>
      </trkpt>
      <trkpt lat="43.27764" lon="-6.6782">
        <ele>1190.6</ele>
        <time>2016-07-09T11:40:30Z</time>
      </trkpt>
      <trkpt lat="43.27755" lon="-6.67824">
        <ele>1190.4</ele>
        <time>2016-07-09T11:40:39Z</time>
      </trkpt>
      <trkpt lat="43.27745" lon="-6.67826">
        <ele>1189.9</ele>
        <time>2016-07-09T11:40:48Z</time>
      </trkpt>
      <trkpt lat="43.27736" lon="-6.67827">
        <ele>1189.4</ele>
        <time>2016-07-09T11:40:57Z</time>
      </trkpt>
      <trkpt lat="43.27726" lon="-6.6783">
        <ele>1188.5</ele>
        <time>2016-07-09T11:41:06Z</time>
      </trkpt>
      <trkpt lat="43.27717" lon="-6.67831">
        <ele>1187.9</ele>
        <time>2016-07-09T11:41:14Z</time>
      </trkpt>
      <trkpt lat="43.27707" lon="-6.67831">
        <ele>1187.3</ele>
        <time>2016-07-09T11:41:22Z</time>
      </trkpt>
      <trkpt lat="43.27698" lon="-6.67833">
        <ele>1187</ele>
        <time>2016-07-09T11:41:30Z</time>
      </trkpt>
      <trkpt lat="43.27689" lon="-6.67835">
        <ele>1186.7</ele>
        <time>2016-07-09T11:41:38Z</time>
      </trkpt>
      <trkpt lat="43.27679" lon="-6.67837">
        <ele>1186.2</ele>
        <time>2016-07-09T11:41:47Z</time>
      </trkpt>
      <trkpt lat="43.2767" lon="-6.67839">
        <ele>1185.7</ele>
        <time>2016-07-09T11:41:56Z</time>
      </trkpt>
      <trkpt lat="43.2766" lon="-6.67841">
        <ele>1185.2</ele>
        <time>2016-07-09T11:42:04Z</time>
      </trkpt>
      <trkpt lat="43.2765" lon="-6.67841">
        <ele>1184.5</ele>
        <time>2016-07-09T11:42:12Z</time>
      </trkpt>
      <trkpt lat="43.27641" lon="-6.67843">
        <ele>1183.6</ele>
        <time>2016-07-09T11:42:20Z</time>
      </trkpt>
      <trkpt lat="43.27632" lon="-6.67843">
        <ele>1182.8</ele>
        <time>2016-07-09T11:42:28Z</time>
      </trkpt>
      <trkpt lat="43.27623" lon="-6.67845">
        <ele>1182.2</ele>
        <time>2016-07-09T11:42:36Z</time>
      </trkpt>
      <trkpt lat="43.27613" lon="-6.67847">
        <ele>1181.8</ele>
        <time>2016-07-09T11:42:44Z</time>
      </trkpt>
      <trkpt lat="43.27603" lon="-6.67847">
        <ele>1181.5</ele>
        <time>2016-07-09T11:42:52Z</time>
      </trkpt>
      <trkpt lat="43.27594" lon="-6.67848">
        <ele>1181.2</ele>
        <time>2016-07-09T11:43:00Z</time>
      </trkpt>
      <trkpt lat="43.27584" lon="-6.67851">
        <ele>1180.6</ele>
        <time>2016-07-09T11:43:08Z</time>
      </trkpt>
      <trkpt lat="43.27575" lon="-6.67853">
        <ele>1180.2</ele>
        <time>2016-07-09T11:43:16Z</time>
      </trkpt>
      <trkpt lat="43.27566" lon="-6.67856">
        <ele>1179.8</ele>
        <time>2016-07-09T11:43:25Z</time>
      </trkpt>
      <trkpt lat="43.27556" lon="-6.67859">
        <ele>1179.6</ele>
        <time>2016-07-09T11:43:34Z</time>
      </trkpt>
      <trkpt lat="43.27547" lon="-6.67863">
        <ele>1178.9</ele>
        <time>2016-07-09T11:43:43Z</time>
      </trkpt>
      <trkpt lat="43.27537" lon="-6.67865">
        <ele>1178</ele>
        <time>2016-07-09T11:43:52Z</time>
      </trkpt>
      <trkpt lat="43.27528" lon="-6.67864">
        <ele>1177.4</ele>
        <time>2016-07-09T11:44:00Z</time>
      </trkpt>
      <trkpt lat="43.27519" lon="-6.67864">
        <ele>1176.8</ele>
        <time>2016-07-09T11:44:08Z</time>
      </trkpt>
      <trkpt lat="43.27509" lon="-6.67864">
        <ele>1176</ele>
        <time>2016-07-09T11:44:16Z</time>
      </trkpt>
      <trkpt lat="43.275" lon="-6.67864">
        <ele>1175</ele>
        <time>2016-07-09T11:44:24Z</time>
      </trkpt>
      <trkpt lat="43.2749" lon="-6.67865">
        <ele>1174.2</ele>
        <time>2016-07-09T11:44:32Z</time>
      </trkpt>
      <trkpt lat="43.2748" lon="-6.67865">
        <ele>1173.3</ele>
        <time>2016-07-09T11:44:40Z</time>
      </trkpt>
      <trkpt lat="43.27471" lon="-6.67865">
        <ele>1172.6</ele>
        <time>2016-07-09T11:44:49Z</time>
      </trkpt>
      <trkpt lat="43.27462" lon="-6.67864">
        <ele>1172</ele>
        <time>2016-07-09T11:44:57Z</time>
      </trkpt>
      <trkpt lat="43.27453" lon="-6.67862">
        <ele>1171.2</ele>
        <time>2016-07-09T11:45:05Z</time>
      </trkpt>
      <trkpt lat="43.27443" lon="-6.67859">
        <ele>1170.5</ele>
        <time>2016-07-09T11:45:13Z</time>
      </trkpt>
      <trkpt lat="43.27434" lon="-6.67857">
        <ele>1169.7</ele>
        <time>2016-07-09T11:45:22Z</time>
      </trkpt>
      <trkpt lat="43.27424" lon="-6.67856">
        <ele>1169</ele>
        <time>2016-07-09T11:45:30Z</time>
      </trkpt>
      <trkpt lat="43.27415" lon="-6.67857">
        <ele>1168.6</ele>
        <time>2016-07-09T11:45:38Z</time>
      </trkpt>
      <trkpt lat="43.27406" lon="-6.67856">
        <ele>1168</ele>
        <time>2016-07-09T11:45:46Z</time>
      </trkpt>
      <trkpt lat="43.27396" lon="-6.67856">
        <ele>1167.2</ele>
        <time>2016-07-09T11:45:54Z</time>
      </trkpt>
      <trkpt lat="43.27387" lon="-6.67856">
        <ele>1166.7</ele>
        <time>2016-07-09T11:46:02Z</time>
      </trkpt>
      <trkpt lat="43.27378" lon="-6.67858">
        <ele>1166</ele>
        <time>2016-07-09T11:46:10Z</time>
      </trkpt>
      <trkpt lat="43.27368" lon="-6.67858">
        <ele>1165.1</ele>
        <time>2016-07-09T11:46:18Z</time>
      </trkpt>
      <trkpt lat="43.27359" lon="-6.67859">
        <ele>1164.6</ele>
        <time>2016-07-09T11:46:26Z</time>
      </trkpt>
      <trkpt lat="43.2735" lon="-6.6786">
        <ele>1163.8</ele>
        <time>2016-07-09T11:46:35Z</time>
      </trkpt>
      <trkpt lat="43.2734" lon="-6.6786">
        <ele>1163</ele>
        <time>2016-07-09T11:46:43Z</time>
      </trkpt>
      <trkpt lat="43.27331" lon="-6.67857">
        <ele>1161.9</ele>
        <time>2016-07-09T11:46:51Z</time>
      </trkpt>
      <trkpt lat="43.27321" lon="-6.67855">
        <ele>1160.8</ele>
        <time>2016-07-09T11:46:59Z</time>
      </trkpt>
      <trkpt lat="43.27311" lon="-6.67855">
        <ele>1160.1</ele>
        <time>2016-07-09T11:47:07Z</time>
      </trkpt>
      <trkpt lat="43.27301" lon="-6.67855">
        <ele>1159.5</ele>
        <time>2016-07-09T11:47:15Z</time>
      </trkpt>
      <trkpt lat="43.27291" lon="-6.67855">
        <ele>1159</ele>
        <time>2016-07-09T11:47:23Z</time>
      </trkpt>
      <trkpt lat="43.27282" lon="-6.67852">
        <ele>1158.6</ele>
        <time>2016-07-09T11:47:31Z</time>
      </trkpt>
      <trkpt lat="43.27273" lon="-6.6785">
        <ele>1158</ele>
        <time>2016-07-09T11:47:39Z</time>
      </trkpt>
      <trkpt lat="43.27267" lon="-6.67859">
        <ele>1157.2</ele>
        <time>2016-07-09T11:57:18Z</time>
      </trkpt>
      <trkpt lat="43.27264" lon="-6.67872">
        <ele>1157</ele>
        <time>2016-07-09T11:57:28Z</time>
      </trkpt>
      <trkpt lat="43.27261" lon="-6.67885">
        <ele>1156.8</ele>
        <time>2016-07-09T11:57:37Z</time>
      </trkpt>
      <trkpt lat="43.27257" lon="-6.67897">
        <ele>1156.3</ele>
        <time>2016-07-09T11:57:46Z</time>
      </trkpt>
      <trkpt lat="43.27252" lon="-6.67908">
        <ele>1155.8</ele>
        <time>2016-07-09T11:57:55Z</time>
      </trkpt>
      <trkpt lat="43.27249" lon="-6.67921">
        <ele>1155</ele>
        <time>2016-07-09T11:58:04Z</time>
      </trkpt>
      <trkpt lat="43.27244" lon="-6.67933">
        <ele>1153.9</ele>
        <time>2016-07-09T11:58:13Z</time>
      </trkpt>
      <trkpt lat="43.27239" lon="-6.67944">
        <ele>1152.8</ele>
        <time>2016-07-09T11:58:22Z</time>
      </trkpt>
      <trkpt lat="43.27235" lon="-6.67955">
        <ele>1151.2</ele>
        <time>2016-07-09T11:58:31Z</time>
      </trkpt>
      <trkpt lat="43.27229" lon="-6.67967">
        <ele>1149.2</ele>
        <time>2016-07-09T11:58:41Z</time>
      </trkpt>
      <trkpt lat="43.27223" lon="-6.67977">
        <ele>1147.1</ele>
        <time>2016-07-09T11:58:50Z</time>
      </trkpt>
      <trkpt lat="43.27217" lon="-6.67988">
        <ele>1145.5</ele>
        <time>2016-07-09T11:58:59Z</time>
      </trkpt>
      <trkpt lat="43.27215" lon="-6.68001">
        <ele>1143.4</ele>
        <time>2016-07-09T11:59:08Z</time>
      </trkpt>
      <trkpt lat="43.2721" lon="-6.68012">
        <ele>1141.6</ele>
        <time>2016-07-09T11:59:17Z</time>
      </trkpt>
      <trkpt lat="43.27206" lon="-6.68023">
        <ele>1139.4</ele>
        <time>2016-07-09T11:59:28Z</time>
      </trkpt>
      <trkpt lat="43.27203" lon="-6.68035">
        <ele>1136.8</ele>
        <time>2016-07-09T11:59:39Z</time>
      </trkpt>
      <trkpt lat="43.27202" lon="-6.68047">
        <ele>1134.2</ele>
        <time>2016-07-09T11:59:50Z</time>
      </trkpt>
      <trkpt lat="43.27198" lon="-6.68059">
        <ele>1131.5</ele>
        <time>2016-07-09T12:00:01Z</time>
      </trkpt>
      <trkpt lat="43.27198" lon="-6.68072">
        <ele>1128</ele>
        <time>2016-07-09T12:00:14Z</time>
      </trkpt>
      <trkpt lat="43.27194" lon="-6.68083">
        <ele>1124.8</ele>
        <time>2016-07-09T12:00:26Z</time>
      </trkpt>
      <trkpt lat="43.27193" lon="-6.68096">
        <ele>1121.7</ele>
        <time>2016-07-09T12:00:37Z</time>
      </trkpt>
      <trkpt lat="43.2719" lon="-6.68108">
        <ele>1119.5</ele>
        <time>2016-07-09T12:00:47Z</time>
      </trkpt>
      <trkpt lat="43.27188" lon="-6.68121">
        <ele>1116.8</ele>
        <time>2016-07-09T12:00:58Z</time>
      </trkpt>
      <trkpt lat="43.27188" lon="-6.68133">
        <ele>1113.2</ele>
        <time>2016-07-09T12:01:12Z</time>
      </trkpt>
      <trkpt lat="43.27189" lon="-6.68146">
        <ele>1109.2</ele>
        <time>2016-07-09T12:01:30Z</time>
      </trkpt>
      <trkpt lat="43.27187" lon="-6.68158">
        <ele>1106.4</ele>
        <time>2016-07-09T12:01:43Z</time>
      </trkpt>
      <trkpt lat="43.27184" lon="-6.6817">
        <ele>1103.6</ele>
        <time>2016-07-09T12:01:57Z</time>
      </trkpt>
      <trkpt lat="43.27181" lon="-6.68182">
        <ele>1101.1</ele>
        <time>2016-07-09T12:02:09Z</time>
      </trkpt>
      <trkpt lat="43.27175" lon="-6.68193">
        <ele>1098.7</ele>
        <time>2016-07-09T12:02:21Z</time>
      </trkpt>
      <trkpt lat="43.27172" lon="-6.68205">
        <ele>1095.9</ele>
        <time>2016-07-09T12:02:33Z</time>
      </trkpt>
      <trkpt lat="43.27169" lon="-6.68217">
        <ele>1092.2</ele>
        <time>2016-07-09T12:02:48Z</time>
      </trkpt>
      <trkpt lat="43.27167" lon="-6.68229">
        <ele>1088.4</ele>
        <time>2016-07-09T12:03:03Z</time>
      </trkpt>
      <trkpt lat="43.27167" lon="-6.68242">
        <ele>1083.4</ele>
        <time>2016-07-09T12:03:25Z</time>
      </trkpt>
      <trkpt lat="43.27162" lon="-6.68252">
        <ele>1083.9</ele>
        <time>2016-07-09T12:03:36Z</time>
      </trkpt>
      <trkpt lat="43.27157" lon="-6.68264">
        <ele>1081.1</ele>
        <time>2016-07-09T12:03:45Z</time>
      </trkpt>
      <trkpt lat="43.27152" lon="-6.68275">
        <ele>1078.5</ele>
        <time>2016-07-09T12:03:55Z</time>
      </trkpt>
      <trkpt lat="43.2715" lon="-6.68288">
        <ele>1075.3</ele>
        <time>2016-07-09T12:04:06Z</time>
      </trkpt>
      <trkpt lat="43.27146" lon="-6.683">
        <ele>1073.2</ele>
        <time>2016-07-09T12:04:15Z</time>
      </trkpt>
      <trkpt lat="43.27142" lon="-6.68311">
        <ele>1070.9</ele>
        <time>2016-07-09T12:04:24Z</time>
      </trkpt>
      <trkpt lat="43.27136" lon="-6.68321">
        <ele>1069</ele>
        <time>2016-07-09T12:04:33Z</time>
      </trkpt>
      <trkpt lat="43.27129" lon="-6.68329">
        <ele>1067.4</ele>
        <time>2016-07-09T12:04:42Z</time>
      </trkpt>
      <trkpt lat="43.27124" lon="-6.6834">
        <ele>1065</ele>
        <time>2016-07-09T12:04:53Z</time>
      </trkpt>
      <trkpt lat="43.27117" lon="-6.6835">
        <ele>1062.7</ele>
        <time>2016-07-09T12:05:05Z</time>
      </trkpt>
      <trkpt lat="43.27113" lon="-6.68361">
        <ele>1060.9</ele>
        <time>2016-07-09T12:05:16Z</time>
      </trkpt>
      <trkpt lat="43.2711" lon="-6.68373">
        <ele>1059.3</ele>
        <time>2016-07-09T12:05:24Z</time>
      </trkpt>
      <trkpt lat="43.27107" lon="-6.68386">
        <ele>1057.6</ele>
        <time>2016-07-09T12:05:35Z</time>
      </trkpt>
      <trkpt lat="43.27102" lon="-6.68397">
        <ele>1055.8</ele>
        <time>2016-07-09T12:05:44Z</time>
      </trkpt>
      <trkpt lat="43.27096" lon="-6.68406">
        <ele>1054.5</ele>
        <time>2016-07-09T12:05:52Z</time>
      </trkpt>
      <trkpt lat="43.2709" lon="-6.68417">
        <ele>1052.7</ele>
        <time>2016-07-09T12:06:01Z</time>
      </trkpt>
      <trkpt lat="43.27084" lon="-6.68427">
        <ele>1050.4</ele>
        <time>2016-07-09T12:06:10Z</time>
      </trkpt>
      <trkpt lat="43.27078" lon="-6.68438">
        <ele>1048.7</ele>
        <time>2016-07-09T12:06:19Z</time>
      </trkpt>
      <trkpt lat="43.27072" lon="-6.68448">
        <ele>1046.9</ele>
        <time>2016-07-09T12:06:29Z</time>
      </trkpt>
      <trkpt lat="43.27066" lon="-6.68459">
        <ele>1044.7</ele>
        <time>2016-07-09T12:06:39Z</time>
      </trkpt>
      <trkpt lat="43.2706" lon="-6.68469">
        <ele>1043.1</ele>
        <time>2016-07-09T12:06:47Z</time>
      </trkpt>
      <trkpt lat="43.27057" lon="-6.6848">
        <ele>1041.2</ele>
        <time>2016-07-09T12:06:58Z</time>
      </trkpt>
      <trkpt lat="43.27051" lon="-6.68492">
        <ele>1039.3</ele>
        <time>2016-07-09T12:07:08Z</time>
      </trkpt>
      <trkpt lat="43.27046" lon="-6.68502">
        <ele>1037.5</ele>
        <time>2016-07-09T12:07:17Z</time>
      </trkpt>
      <trkpt lat="43.27041" lon="-6.68513">
        <ele>1034.7</ele>
        <time>2016-07-09T12:07:28Z</time>
      </trkpt>
      <trkpt lat="43.27035" lon="-6.68522">
        <ele>1032.9</ele>
        <time>2016-07-09T12:07:38Z</time>
      </trkpt>
      <trkpt lat="43.27029" lon="-6.68532">
        <ele>1031.5</ele>
        <time>2016-07-09T12:07:47Z</time>
      </trkpt>
      <trkpt lat="43.27023" lon="-6.68542">
        <ele>1029.4</ele>
        <time>2016-07-09T12:07:58Z</time>
      </trkpt>
      <trkpt lat="43.2702" lon="-6.68553">
        <ele>1027.7</ele>
        <time>2016-07-09T12:08:08Z</time>
      </trkpt>
      <trkpt lat="43.27013" lon="-6.68563">
        <ele>1026.5</ele>
        <time>2016-07-09T12:08:17Z</time>
      </trkpt>
      <trkpt lat="43.27008" lon="-6.68574">
        <ele>1024.2</ele>
        <time>2016-07-09T12:08:28Z</time>
      </trkpt>
      <trkpt lat="43.27002" lon="-6.68585">
        <ele>1022.7</ele>
        <time>2016-07-09T12:08:37Z</time>
      </trkpt>
      <trkpt lat="43.26996" lon="-6.68594">
        <ele>1020.9</ele>
        <time>2016-07-09T12:08:45Z</time>
      </trkpt>
      <trkpt lat="43.26991" lon="-6.68605">
        <ele>1019.2</ele>
        <time>2016-07-09T12:08:54Z</time>
      </trkpt>
      <trkpt lat="43.26984" lon="-6.68615">
        <ele>1017.1</ele>
        <time>2016-07-09T12:09:03Z</time>
      </trkpt>
      <trkpt lat="43.26982" lon="-6.68627">
        <ele>1015.5</ele>
        <time>2016-07-09T12:09:15Z</time>
      </trkpt>
      <trkpt lat="43.26979" lon="-6.6864">
        <ele>1013.5</ele>
        <time>2016-07-09T12:09:26Z</time>
      </trkpt>
      <trkpt lat="43.26975" lon="-6.68652">
        <ele>1012.5</ele>
        <time>2016-07-09T12:09:35Z</time>
      </trkpt>
      <trkpt lat="43.2697" lon="-6.68663">
        <ele>1010.6</ele>
        <time>2016-07-09T12:09:45Z</time>
      </trkpt>
      <trkpt lat="43.26964" lon="-6.68674">
        <ele>1008.9</ele>
        <time>2016-07-09T12:09:54Z</time>
      </trkpt>
      <trkpt lat="43.26961" lon="-6.68686">
        <ele>1006.9</ele>
        <time>2016-07-09T12:10:05Z</time>
      </trkpt>
      <trkpt lat="43.26957" lon="-6.68697">
        <ele>1003.8</ele>
        <time>2016-07-09T12:10:27Z</time>
      </trkpt>
      <trkpt lat="43.26953" lon="-6.68709">
        <ele>1002.6</ele>
        <time>2016-07-09T12:10:36Z</time>
      </trkpt>
      <trkpt lat="43.26949" lon="-6.68721">
        <ele>1001.7</ele>
        <time>2016-07-09T12:10:44Z</time>
      </trkpt>
      <trkpt lat="43.26946" lon="-6.68733">
        <ele>1000.7</ele>
        <time>2016-07-09T12:10:53Z</time>
      </trkpt>
      <trkpt lat="43.26941" lon="-6.68745">
        <ele>999</ele>
        <time>2016-07-09T12:11:02Z</time>
      </trkpt>
      <trkpt lat="43.26937" lon="-6.68757">
        <ele>997.6</ele>
        <time>2016-07-09T12:11:11Z</time>
      </trkpt>
      <trkpt lat="43.26932" lon="-6.68769">
        <ele>996.8</ele>
        <time>2016-07-09T12:11:19Z</time>
      </trkpt>
      <trkpt lat="43.26928" lon="-6.6878">
        <ele>995.7</ele>
        <time>2016-07-09T12:11:27Z</time>
      </trkpt>
      <trkpt lat="43.26924" lon="-6.68791">
        <ele>994.3</ele>
        <time>2016-07-09T12:11:36Z</time>
      </trkpt>
      <trkpt lat="43.2692" lon="-6.68803">
        <ele>993.3</ele>
        <time>2016-07-09T12:11:45Z</time>
      </trkpt>
      <trkpt lat="43.26914" lon="-6.68815">
        <ele>992.4</ele>
        <time>2016-07-09T12:11:53Z</time>
      </trkpt>
      <trkpt lat="43.2691" lon="-6.68827">
        <ele>992</ele>
        <time>2016-07-09T12:12:00Z</time>
      </trkpt>
      <trkpt lat="43.26903" lon="-6.68838">
        <ele>991.5</ele>
        <time>2016-07-09T12:12:07Z</time>
      </trkpt>
      <trkpt lat="43.26895" lon="-6.68846">
        <ele>990.5</ele>
        <time>2016-07-09T12:12:15Z</time>
      </trkpt>
      <trkpt lat="43.26887" lon="-6.68852">
        <ele>989.8</ele>
        <time>2016-07-09T12:12:26Z</time>
      </trkpt>
      <trkpt lat="43.26883" lon="-6.68864">
        <ele>988.3</ele>
        <time>2016-07-09T12:12:45Z</time>
      </trkpt>
      <trkpt lat="43.26876" lon="-6.68872">
        <ele>987.4</ele>
        <time>2016-07-09T12:12:55Z</time>
      </trkpt>
      <trkpt lat="43.26869" lon="-6.68881">
        <ele>985.7</ele>
        <time>2016-07-09T12:13:05Z</time>
      </trkpt>
      <trkpt lat="43.26862" lon="-6.68891">
        <ele>983.9</ele>
        <time>2016-07-09T12:13:16Z</time>
      </trkpt>
      <trkpt lat="43.26855" lon="-6.689">
        <ele>982.3</ele>
        <time>2016-07-09T12:13:26Z</time>
      </trkpt>
      <trkpt lat="43.26849" lon="-6.6891">
        <ele>980.3</ele>
        <time>2016-07-09T12:13:37Z</time>
      </trkpt>
      <trkpt lat="43.26845" lon="-6.68921">
        <ele>979</ele>
        <time>2016-07-09T12:13:45Z</time>
      </trkpt>
      <trkpt lat="43.2684" lon="-6.68933">
        <ele>977.2</ele>
        <time>2016-07-09T12:13:54Z</time>
      </trkpt>
      <trkpt lat="43.26835" lon="-6.68945">
        <ele>975.6</ele>
        <time>2016-07-09T12:14:02Z</time>
      </trkpt>
      <trkpt lat="43.26833" lon="-6.68957">
        <ele>973.6</ele>
        <time>2016-07-09T12:14:10Z</time>
      </trkpt>
      <trkpt lat="43.26829" lon="-6.68969">
        <ele>972.1</ele>
        <time>2016-07-09T12:14:18Z</time>
      </trkpt>
      <trkpt lat="43.26825" lon="-6.68982">
        <ele>970.7</ele>
        <time>2016-07-09T12:14:26Z</time>
      </trkpt>
      <trkpt lat="43.26822" lon="-6.68995">
        <ele>969</ele>
        <time>2016-07-09T12:14:34Z</time>
      </trkpt>
      <trkpt lat="43.26814" lon="-6.69002">
        <ele>967.7</ele>
        <time>2016-07-09T12:14:41Z</time>
      </trkpt>
      <trkpt lat="43.26806" lon="-6.6901">
        <ele>965.9</ele>
        <time>2016-07-09T12:14:49Z</time>
      </trkpt>
      <trkpt lat="43.26799" lon="-6.6902">
        <ele>964.1</ele>
        <time>2016-07-09T12:14:58Z</time>
      </trkpt>
      <trkpt lat="43.26795" lon="-6.69031">
        <ele>962.3</ele>
        <time>2016-07-09T12:15:05Z</time>
      </trkpt>
      <trkpt lat="43.26792" lon="-6.69044">
        <ele>960.5</ele>
        <time>2016-07-09T12:15:13Z</time>
      </trkpt>
      <trkpt lat="43.26791" lon="-6.69056">
        <ele>959.3</ele>
        <time>2016-07-09T12:15:21Z</time>
      </trkpt>
      <trkpt lat="43.26788" lon="-6.69068">
        <ele>958</ele>
        <time>2016-07-09T12:15:29Z</time>
      </trkpt>
      <trkpt lat="43.26783" lon="-6.6908">
        <ele>956.9</ele>
        <time>2016-07-09T12:15:35Z</time>
      </trkpt>
      <trkpt lat="43.26778" lon="-6.69092">
        <ele>955.8</ele>
        <time>2016-07-09T12:15:42Z</time>
      </trkpt>
      <trkpt lat="43.26774" lon="-6.69104">
        <ele>954.5</ele>
        <time>2016-07-09T12:15:50Z</time>
      </trkpt>
      <trkpt lat="43.2677" lon="-6.69116">
        <ele>953.4</ele>
        <time>2016-07-09T12:15:58Z</time>
      </trkpt>
      <trkpt lat="43.26766" lon="-6.69128">
        <ele>952.5</ele>
        <time>2016-07-09T12:16:05Z</time>
      </trkpt>
      <trkpt lat="43.26761" lon="-6.69139">
        <ele>951.7</ele>
        <time>2016-07-09T12:16:13Z</time>
      </trkpt>
      <trkpt lat="43.26757" lon="-6.69151">
        <ele>950.1</ele>
        <time>2016-07-09T12:16:25Z</time>
      </trkpt>
      <trkpt lat="43.26752" lon="-6.69164">
        <ele>949.6</ele>
        <time>2016-07-09T12:16:33Z</time>
      </trkpt>
      <trkpt lat="43.26747" lon="-6.69175">
        <ele>949.3</ele>
        <time>2016-07-09T12:16:39Z</time>
      </trkpt>
      <trkpt lat="43.26745" lon="-6.69188">
        <ele>949.1</ele>
        <time>2016-07-09T12:16:46Z</time>
      </trkpt>
      <trkpt lat="43.26741" lon="-6.69201">
        <ele>948.7</ele>
        <time>2016-07-09T12:16:54Z</time>
      </trkpt>
      <trkpt lat="43.26739" lon="-6.69213">
        <ele>947.8</ele>
        <time>2016-07-09T12:17:02Z</time>
      </trkpt>
      <trkpt lat="43.26736" lon="-6.69225">
        <ele>947.3</ele>
        <time>2016-07-09T12:17:10Z</time>
      </trkpt>
      <trkpt lat="43.26732" lon="-6.69237">
        <ele>947</ele>
        <time>2016-07-09T12:17:18Z</time>
      </trkpt>
      <trkpt lat="43.26727" lon="-6.69249">
        <ele>946.5</ele>
        <time>2016-07-09T12:17:26Z</time>
      </trkpt>
      <trkpt lat="43.26722" lon="-6.69261">
        <ele>945.1</ele>
        <time>2016-07-09T12:17:38Z</time>
      </trkpt>
      <trkpt lat="43.2672" lon="-6.69273">
        <ele>944.1</ele>
        <time>2016-07-09T12:17:46Z</time>
      </trkpt>
      <trkpt lat="43.26719" lon="-6.69286">
        <ele>943.3</ele>
        <time>2016-07-09T12:17:55Z</time>
      </trkpt>
      <trkpt lat="43.26716" lon="-6.69299">
        <ele>942.7</ele>
        <time>2016-07-09T12:18:04Z</time>
      </trkpt>
      <trkpt lat="43.26714" lon="-6.69312">
        <ele>942.5</ele>
        <time>2016-07-09T12:18:12Z</time>
      </trkpt>
      <trkpt lat="43.26712" lon="-6.69325">
        <ele>942.3</ele>
        <time>2016-07-09T12:18:21Z</time>
      </trkpt>
      <trkpt lat="43.26706" lon="-6.69335">
        <ele>942.1</ele>
        <time>2016-07-09T12:18:38Z</time>
      </trkpt>
      <trkpt lat="43.26698" lon="-6.69344">
        <ele>941.8</ele>
        <time>2016-07-09T12:18:48Z</time>
      </trkpt>
      <trkpt lat="43.26692" lon="-6.69354">
        <ele>940.7</ele>
        <time>2016-07-09T12:18:57Z</time>
      </trkpt>
      <trkpt lat="43.26686" lon="-6.69365">
        <ele>940</ele>
        <time>2016-07-09T12:19:06Z</time>
      </trkpt>
      <trkpt lat="43.2668" lon="-6.69376">
        <ele>939.1</ele>
        <time>2016-07-09T12:19:15Z</time>
      </trkpt>
      <trkpt lat="43.26673" lon="-6.69384">
        <ele>938.3</ele>
        <time>2016-07-09T12:19:23Z</time>
      </trkpt>
      <trkpt lat="43.26668" lon="-6.69395">
        <ele>937.5</ele>
        <time>2016-07-09T12:19:31Z</time>
      </trkpt>
      <trkpt lat="43.26663" lon="-6.69407">
        <ele>936.6</ele>
        <time>2016-07-09T12:19:40Z</time>
      </trkpt>
      <trkpt lat="43.26658" lon="-6.69419">
        <ele>935.6</ele>
        <time>2016-07-09T12:19:49Z</time>
      </trkpt>
      <trkpt lat="43.26652" lon="-6.69429">
        <ele>935.3</ele>
        <time>2016-07-09T12:19:58Z</time>
      </trkpt>
      <trkpt lat="43.26645" lon="-6.69439">
        <ele>935.7</ele>
        <time>2016-07-09T12:20:07Z</time>
      </trkpt>
      <trkpt lat="43.26639" lon="-6.69449">
        <ele>936.4</ele>
        <time>2016-07-09T12:20:16Z</time>
      </trkpt>
      <trkpt lat="43.26632" lon="-6.69458">
        <ele>937.8</ele>
        <time>2016-07-09T12:20:26Z</time>
      </trkpt>
      <trkpt lat="43.26624" lon="-6.69465">
        <ele>938.8</ele>
        <time>2016-07-09T12:20:36Z</time>
      </trkpt>
      <trkpt lat="43.26617" lon="-6.69473">
        <ele>940.3</ele>
        <time>2016-07-09T12:20:46Z</time>
      </trkpt>
      <trkpt lat="43.26611" lon="-6.69484">
        <ele>941.8</ele>
        <time>2016-07-09T12:20:55Z</time>
      </trkpt>
      <trkpt lat="43.26605" lon="-6.69494">
        <ele>942.9</ele>
        <time>2016-07-09T12:21:04Z</time>
      </trkpt>
      <trkpt lat="43.266" lon="-6.69505">
        <ele>944</ele>
        <time>2016-07-09T12:21:14Z</time>
      </trkpt>
      <trkpt lat="43.26595" lon="-6.69516">
        <ele>945</ele>
        <time>2016-07-09T12:21:26Z</time>
      </trkpt>
      <trkpt lat="43.26588" lon="-6.69526">
        <ele>945.3</ele>
        <time>2016-07-09T12:21:35Z</time>
      </trkpt>
      <trkpt lat="43.26582" lon="-6.69534">
        <ele>945.5</ele>
        <time>2016-07-09T12:21:42Z</time>
      </trkpt>
      <trkpt lat="43.26575" lon="-6.69543">
        <ele>945.6</ele>
        <time>2016-07-09T12:21:50Z</time>
      </trkpt>
      <trkpt lat="43.26569" lon="-6.69553">
        <ele>945</ele>
        <time>2016-07-09T12:23:09Z</time>
      </trkpt>
      <trkpt lat="43.26561" lon="-6.6956">
        <ele>945</ele>
        <time>2016-07-09T12:23:18Z</time>
      </trkpt>
      <trkpt lat="43.26552" lon="-6.69566">
        <ele>945.1</ele>
        <time>2016-07-09T12:23:26Z</time>
      </trkpt>
      <trkpt lat="43.26544" lon="-6.69573">
        <ele>944.9</ele>
        <time>2016-07-09T12:23:35Z</time>
      </trkpt>
      <trkpt lat="43.26535" lon="-6.69577">
        <ele>944.8</ele>
        <time>2016-07-09T12:23:44Z</time>
      </trkpt>
      <trkpt lat="43.26526" lon="-6.69582">
        <ele>944.5</ele>
        <time>2016-07-09T12:23:58Z</time>
      </trkpt>
      <trkpt lat="43.26517" lon="-6.69589">
        <ele>944.1</ele>
        <time>2016-07-09T12:24:06Z</time>
      </trkpt>
      <trkpt lat="43.2651" lon="-6.69598">
        <ele>943.7</ele>
        <time>2016-07-09T12:24:15Z</time>
      </trkpt>
      <trkpt lat="43.26504" lon="-6.69608">
        <ele>943.3</ele>
        <time>2016-07-09T12:24:24Z</time>
      </trkpt>
      <trkpt lat="43.26496" lon="-6.69617">
        <ele>943.4</ele>
        <time>2016-07-09T12:24:35Z</time>
      </trkpt>
      <trkpt lat="43.26488" lon="-6.69623">
        <ele>943.4</ele>
        <time>2016-07-09T12:24:44Z</time>
      </trkpt>
      <trkpt lat="43.2648" lon="-6.6963">
        <ele>943.5</ele>
        <time>2016-07-09T12:24:52Z</time>
      </trkpt>
      <trkpt lat="43.26472" lon="-6.69637">
        <ele>943.2</ele>
        <time>2016-07-09T12:25:00Z</time>
      </trkpt>
      <trkpt lat="43.26464" lon="-6.69644">
        <ele>942.9</ele>
        <time>2016-07-09T12:25:08Z</time>
      </trkpt>
      <trkpt lat="43.26456" lon="-6.69651">
        <ele>943.2</ele>
        <time>2016-07-09T12:25:18Z</time>
      </trkpt>
      <trkpt lat="43.26447" lon="-6.69658">
        <ele>943.8</ele>
        <time>2016-07-09T12:25:27Z</time>
      </trkpt>
      <trkpt lat="43.2644" lon="-6.69666">
        <ele>944.5</ele>
        <time>2016-07-09T12:25:37Z</time>
      </trkpt>
      <trkpt lat="43.26433" lon="-6.69675">
        <ele>944.9</ele>
        <time>2016-07-09T12:25:46Z</time>
      </trkpt>
      <trkpt lat="43.26428" lon="-6.69685">
        <ele>945.4</ele>
        <time>2016-07-09T12:25:55Z</time>
      </trkpt>
      <trkpt lat="43.26422" lon="-6.69695">
        <ele>946.1</ele>
        <time>2016-07-09T12:26:06Z</time>
      </trkpt>
      <trkpt lat="43.26416" lon="-6.69705">
        <ele>946.7</ele>
        <time>2016-07-09T12:26:15Z</time>
      </trkpt>
      <trkpt lat="43.26409" lon="-6.69714">
        <ele>947.3</ele>
        <time>2016-07-09T12:26:25Z</time>
      </trkpt>
      <trkpt lat="43.26403" lon="-6.69724">
        <ele>947.7</ele>
        <time>2016-07-09T12:26:33Z</time>
      </trkpt>
      <trkpt lat="43.26399" lon="-6.69735">
        <ele>948.5</ele>
        <time>2016-07-09T12:26:41Z</time>
      </trkpt>
      <trkpt lat="43.26393" lon="-6.69746">
        <ele>950.3</ele>
        <time>2016-07-09T12:26:57Z</time>
      </trkpt>
      <trkpt lat="43.26386" lon="-6.69754">
        <ele>952.8</ele>
        <time>2016-07-09T12:27:28Z</time>
      </trkpt>
      <trkpt lat="43.26379" lon="-6.69762">
        <ele>953.2</ele>
        <time>2016-07-09T12:27:38Z</time>
      </trkpt>
      <trkpt lat="43.26373" lon="-6.69771">
        <ele>954.1</ele>
        <time>2016-07-09T12:27:47Z</time>
      </trkpt>
      <trkpt lat="43.26364" lon="-6.69778">
        <ele>955</ele>
        <time>2016-07-09T12:27:56Z</time>
      </trkpt>
      <trkpt lat="43.26358" lon="-6.69786">
        <ele>955.6</ele>
        <time>2016-07-09T12:28:04Z</time>
      </trkpt>
      <trkpt lat="43.26351" lon="-6.69796">
        <ele>956</ele>
        <time>2016-07-09T12:28:12Z</time>
      </trkpt>
      <trkpt lat="43.26344" lon="-6.69804">
        <ele>956.6</ele>
        <time>2016-07-09T12:28:20Z</time>
      </trkpt>
      <trkpt lat="43.26337" lon="-6.69813">
        <ele>957.5</ele>
        <time>2016-07-09T12:28:28Z</time>
      </trkpt>
      <trkpt lat="43.26331" lon="-6.69823">
        <ele>958.5</ele>
        <time>2016-07-09T12:28:38Z</time>
      </trkpt>
      <trkpt lat="43.26325" lon="-6.69832">
        <ele>959.5</ele>
        <time>2016-07-09T12:28:47Z</time>
      </trkpt>
      <trkpt lat="43.2632" lon="-6.69842">
        <ele>960.6</ele>
        <time>2016-07-09T12:28:58Z</time>
      </trkpt>
      <trkpt lat="43.26315" lon="-6.69853">
        <ele>961.1</ele>
        <time>2016-07-09T12:29:07Z</time>
      </trkpt>
      <trkpt lat="43.26309" lon="-6.69862">
        <ele>961.6</ele>
        <time>2016-07-09T12:29:15Z</time>
      </trkpt>
      <trkpt lat="43.26302" lon="-6.69872">
        <ele>962.4</ele>
        <time>2016-07-09T12:29:24Z</time>
      </trkpt>
      <trkpt lat="43.26295" lon="-6.69881">
        <ele>963.6</ele>
        <time>2016-07-09T12:29:33Z</time>
      </trkpt>
      <trkpt lat="43.26287" lon="-6.69888">
        <ele>965</ele>
        <time>2016-07-09T12:29:48Z</time>
      </trkpt>
      <trkpt lat="43.26281" lon="-6.69897">
        <ele>965.3</ele>
        <time>2016-07-09T12:29:57Z</time>
      </trkpt>
      <trkpt lat="43.26275" lon="-6.69908">
        <ele>965.8</ele>
        <time>2016-07-09T12:30:07Z</time>
      </trkpt>
      <trkpt lat="43.26269" lon="-6.69918">
        <ele>966.5</ele>
        <time>2016-07-09T12:30:16Z</time>
      </trkpt>
      <trkpt lat="43.26262" lon="-6.69927">
        <ele>967.3</ele>
        <time>2016-07-09T12:30:27Z</time>
      </trkpt>
      <trkpt lat="43.26256" lon="-6.69937">
        <ele>968</ele>
        <time>2016-07-09T12:30:38Z</time>
      </trkpt>
      <trkpt lat="43.26247" lon="-6.69945">
        <ele>968.9</ele>
        <time>2016-07-09T12:30:50Z</time>
      </trkpt>
      <trkpt lat="43.2624" lon="-6.69952">
        <ele>970</ele>
        <time>2016-07-09T12:30:59Z</time>
      </trkpt>
      <trkpt lat="43.26231" lon="-6.69957">
        <ele>971</ele>
        <time>2016-07-09T12:31:11Z</time>
      </trkpt>
      <trkpt lat="43.26222" lon="-6.69962">
        <ele>971.7</ele>
        <time>2016-07-09T12:31:21Z</time>
      </trkpt>
      <trkpt lat="43.26214" lon="-6.6997">
        <ele>972.4</ele>
        <time>2016-07-09T12:31:30Z</time>
      </trkpt>
      <trkpt lat="43.26206" lon="-6.69978">
        <ele>973.2</ele>
        <time>2016-07-09T12:31:39Z</time>
      </trkpt>
      <trkpt lat="43.26198" lon="-6.69985">
        <ele>973.8</ele>
        <time>2016-07-09T12:31:47Z</time>
      </trkpt>
      <trkpt lat="43.26191" lon="-6.69993">
        <ele>974.5</ele>
        <time>2016-07-09T12:31:57Z</time>
      </trkpt>
      <trkpt lat="43.26182" lon="-6.7">
        <ele>976</ele>
        <time>2016-07-09T12:32:08Z</time>
      </trkpt>
      <trkpt lat="43.26176" lon="-6.70009">
        <ele>976.8</ele>
        <time>2016-07-09T12:32:18Z</time>
      </trkpt>
      <trkpt lat="43.26168" lon="-6.70017">
        <ele>978.2</ele>
        <time>2016-07-09T12:32:33Z</time>
      </trkpt>
      <trkpt lat="43.26162" lon="-6.70028">
        <ele>978.9</ele>
        <time>2016-07-09T12:32:44Z</time>
      </trkpt>
      <trkpt lat="43.26156" lon="-6.70037">
        <ele>980</ele>
        <time>2016-07-09T12:32:55Z</time>
      </trkpt>
      <trkpt lat="43.2615" lon="-6.70049">
        <ele>980.9</ele>
        <time>2016-07-09T12:33:04Z</time>
      </trkpt>
      <trkpt lat="43.26145" lon="-6.70059">
        <ele>982.3</ele>
        <time>2016-07-09T12:33:15Z</time>
      </trkpt>
      <trkpt lat="43.26143" lon="-6.70071">
        <ele>984.4</ele>
        <time>2016-07-09T12:34:08Z</time>
      </trkpt>
      <trkpt lat="43.2614" lon="-6.70084">
        <ele>985.3</ele>
        <time>2016-07-09T12:34:18Z</time>
      </trkpt>
      <trkpt lat="43.26135" lon="-6.70094">
        <ele>986.4</ele>
        <time>2016-07-09T12:34:29Z</time>
      </trkpt>
      <trkpt lat="43.26132" lon="-6.70106">
        <ele>987.7</ele>
        <time>2016-07-09T12:34:42Z</time>
      </trkpt>
      <trkpt lat="43.26132" lon="-6.70119">
        <ele>990.1</ele>
        <time>2016-07-09T12:34:56Z</time>
      </trkpt>
      <trkpt lat="43.26129" lon="-6.70131">
        <ele>993.3</ele>
        <time>2016-07-09T12:35:21Z</time>
      </trkpt>
      <trkpt lat="43.26125" lon="-6.70143">
        <ele>994.5</ele>
        <time>2016-07-09T12:35:34Z</time>
      </trkpt>
      <trkpt lat="43.26121" lon="-6.70155">
        <ele>996.6</ele>
        <time>2016-07-09T12:35:49Z</time>
      </trkpt>
      <trkpt lat="43.26116" lon="-6.70165">
        <ele>998.4</ele>
        <time>2016-07-09T12:36:04Z</time>
      </trkpt>
      <trkpt lat="43.26112" lon="-6.70177">
        <ele>1000.1</ele>
        <time>2016-07-09T12:36:21Z</time>
      </trkpt>
      <trkpt lat="43.26105" lon="-6.70185">
        <ele>1001.9</ele>
        <time>2016-07-09T12:36:36Z</time>
      </trkpt>
      <trkpt lat="43.26099" lon="-6.70195">
        <ele>1002.8</ele>
        <time>2016-07-09T12:36:49Z</time>
      </trkpt>
      <trkpt lat="43.26092" lon="-6.70204">
        <ele>1004.4</ele>
        <time>2016-07-09T12:37:04Z</time>
      </trkpt>
      <trkpt lat="43.26083" lon="-6.7021">
        <ele>1007.9</ele>
        <time>2016-07-09T12:37:38Z</time>
      </trkpt>
      <trkpt lat="43.26075" lon="-6.70217">
        <ele>1008.1</ele>
        <time>2016-07-09T12:37:48Z</time>
      </trkpt>
      <trkpt lat="43.26067" lon="-6.70224">
        <ele>1008.3</ele>
        <time>2016-07-09T12:37:57Z</time>
      </trkpt>
      <trkpt lat="43.2606" lon="-6.70232">
        <ele>1008.8</ele>
        <time>2016-07-09T12:38:08Z</time>
      </trkpt>
      <trkpt lat="43.26053" lon="-6.70241">
        <ele>1009.7</ele>
        <time>2016-07-09T12:38:20Z</time>
      </trkpt>
      <trkpt lat="43.26048" lon="-6.70252">
        <ele>1010.8</ele>
        <time>2016-07-09T12:38:31Z</time>
      </trkpt>
      <trkpt lat="43.26047" lon="-6.70265">
        <ele>1011.9</ele>
        <time>2016-07-09T12:38:44Z</time>
      </trkpt>
      <trkpt lat="43.26044" lon="-6.70277">
        <ele>1013.8</ele>
        <time>2016-07-09T12:38:59Z</time>
      </trkpt>
      <trkpt lat="43.26043" lon="-6.7029">
        <ele>1017.3</ele>
        <time>2016-07-09T12:39:23Z</time>
      </trkpt>
      <trkpt lat="43.26041" lon="-6.70302">
        <ele>1019</ele>
        <time>2016-07-09T12:39:57Z</time>
      </trkpt>
      <trkpt lat="43.26039" lon="-6.70314">
        <ele>1018.2</ele>
        <time>2016-07-09T12:40:29Z</time>
      </trkpt>
      <trkpt lat="43.26035" lon="-6.70326">
        <ele>1017.9</ele>
        <time>2016-07-09T12:40:40Z</time>
      </trkpt>
      <trkpt lat="43.2603" lon="-6.70337">
        <ele>1017.6</ele>
        <time>2016-07-09T12:40:48Z</time>
      </trkpt>
      <trkpt lat="43.26024" lon="-6.70348">
        <ele>1017.4</ele>
        <time>2016-07-09T12:40:55Z</time>
      </trkpt>
      <trkpt lat="43.26018" lon="-6.70357">
        <ele>1017.2</ele>
        <time>2016-07-09T12:41:02Z</time>
      </trkpt>
      <trkpt lat="43.2601" lon="-6.70365">
        <ele>1017</ele>
        <time>2016-07-09T12:41:10Z</time>
      </trkpt>
      <trkpt lat="43.26003" lon="-6.70373">
        <ele>1016.9</ele>
        <time>2016-07-09T12:41:17Z</time>
      </trkpt>
      <trkpt lat="43.25995" lon="-6.70379">
        <ele>1016.7</ele>
        <time>2016-07-09T12:41:25Z</time>
      </trkpt>
      <trkpt lat="43.25986" lon="-6.70387">
        <ele>1016.5</ele>
        <time>2016-07-09T12:41:33Z</time>
      </trkpt>
      <trkpt lat="43.2598" lon="-6.70396">
        <ele>1016.3</ele>
        <time>2016-07-09T12:41:54Z</time>
      </trkpt>
      <trkpt lat="43.25973" lon="-6.70405">
        <ele>1016.4</ele>
        <time>2016-07-09T12:42:03Z</time>
      </trkpt>
      <trkpt lat="43.25966" lon="-6.70413">
        <ele>1016</ele>
        <time>2016-07-09T12:42:12Z</time>
      </trkpt>
      <trkpt lat="43.25958" lon="-6.70422">
        <ele>1016</ele>
        <time>2016-07-09T12:42:21Z</time>
      </trkpt>
      <trkpt lat="43.25951" lon="-6.70432">
        <ele>1015.6</ele>
        <time>2016-07-09T12:42:30Z</time>
      </trkpt>
      <trkpt lat="43.25945" lon="-6.70442">
        <ele>1015.2</ele>
        <time>2016-07-09T12:42:38Z</time>
      </trkpt>
      <trkpt lat="43.25941" lon="-6.70452">
        <ele>1014.6</ele>
        <time>2016-07-09T12:42:46Z</time>
      </trkpt>
      <trkpt lat="43.25935" lon="-6.70463">
        <ele>1014.1</ele>
        <time>2016-07-09T12:42:53Z</time>
      </trkpt>
      <trkpt lat="43.2593" lon="-6.70475">
        <ele>1013.5</ele>
        <time>2016-07-09T12:43:01Z</time>
      </trkpt>
      <trkpt lat="43.25925" lon="-6.70486">
        <ele>1012.8</ele>
        <time>2016-07-09T12:43:08Z</time>
      </trkpt>
      <trkpt lat="43.25918" lon="-6.70496">
        <ele>1012</ele>
        <time>2016-07-09T12:43:16Z</time>
      </trkpt>
      <trkpt lat="43.25912" lon="-6.70506">
        <ele>1010.7</ele>
        <time>2016-07-09T12:43:24Z</time>
      </trkpt>
      <trkpt lat="43.25905" lon="-6.70517">
        <ele>1008.9</ele>
        <time>2016-07-09T12:43:33Z</time>
      </trkpt>
      <trkpt lat="43.25899" lon="-6.70527">
        <ele>1007.6</ele>
        <time>2016-07-09T12:43:42Z</time>
      </trkpt>
      <trkpt lat="43.25895" lon="-6.70538">
        <ele>1006.5</ele>
        <time>2016-07-09T12:43:51Z</time>
      </trkpt>
      <trkpt lat="43.2589" lon="-6.70548">
        <ele>1004.8</ele>
        <time>2016-07-09T12:43:59Z</time>
      </trkpt>
      <trkpt lat="43.25883" lon="-6.70557">
        <ele>1003.6</ele>
        <time>2016-07-09T12:44:07Z</time>
      </trkpt>
      <trkpt lat="43.25878" lon="-6.70568">
        <ele>1002.1</ele>
        <time>2016-07-09T12:44:15Z</time>
      </trkpt>
      <trkpt lat="43.25873" lon="-6.7058">
        <ele>1000.8</ele>
        <time>2016-07-09T12:44:23Z</time>
      </trkpt>
      <trkpt lat="43.25867" lon="-6.70591">
        <ele>999.8</ele>
        <time>2016-07-09T12:44:31Z</time>
      </trkpt>
      <trkpt lat="43.25863" lon="-6.70603">
        <ele>998.4</ele>
        <time>2016-07-09T12:44:39Z</time>
      </trkpt>
      <trkpt lat="43.25857" lon="-6.70613">
        <ele>997.6</ele>
        <time>2016-07-09T12:44:47Z</time>
      </trkpt>
      <trkpt lat="43.25851" lon="-6.70623">
        <ele>996.7</ele>
        <time>2016-07-09T12:44:55Z</time>
      </trkpt>
      <trkpt lat="43.25844" lon="-6.70633">
        <ele>995.8</ele>
        <time>2016-07-09T12:45:04Z</time>
      </trkpt>
      <trkpt lat="43.25839" lon="-6.70643">
        <ele>995.1</ele>
        <time>2016-07-09T12:45:12Z</time>
      </trkpt>
      <trkpt lat="43.25838" lon="-6.70656">
        <ele>994.4</ele>
        <time>2016-07-09T12:45:21Z</time>
      </trkpt>
      <trkpt lat="43.25839" lon="-6.70669">
        <ele>994</ele>
        <time>2016-07-09T12:45:29Z</time>
      </trkpt>
      <trkpt lat="43.2584" lon="-6.70682">
        <ele>993.5</ele>
        <time>2016-07-09T12:45:37Z</time>
      </trkpt>
      <trkpt lat="43.25844" lon="-6.70695">
        <ele>992.8</ele>
        <time>2016-07-09T12:45:46Z</time>
      </trkpt>
      <trkpt lat="43.25846" lon="-6.70707">
        <ele>992.3</ele>
        <time>2016-07-09T12:45:54Z</time>
      </trkpt>
      <trkpt lat="43.25848" lon="-6.7072">
        <ele>992.3</ele>
        <time>2016-07-09T12:46:01Z</time>
      </trkpt>
      <trkpt lat="43.25851" lon="-6.70733">
        <ele>992.4</ele>
        <time>2016-07-09T12:46:09Z</time>
      </trkpt>
      <trkpt lat="43.25853" lon="-6.70745">
        <ele>992.5</ele>
        <time>2016-07-09T12:46:17Z</time>
      </trkpt>
      <trkpt lat="43.25853" lon="-6.70758">
        <ele>992.3</ele>
        <time>2016-07-09T12:46:25Z</time>
      </trkpt>
      <trkpt lat="43.25852" lon="-6.70772">
        <ele>991.7</ele>
        <time>2016-07-09T12:46:33Z</time>
      </trkpt>
      <trkpt lat="43.25849" lon="-6.70785">
        <ele>990.9</ele>
        <time>2016-07-09T12:46:41Z</time>
      </trkpt>
      <trkpt lat="43.25845" lon="-6.70797">
        <ele>989.9</ele>
        <time>2016-07-09T12:46:49Z</time>
      </trkpt>
      <trkpt lat="43.25838" lon="-6.70806">
        <ele>989</ele>
        <time>2016-07-09T12:46:57Z</time>
      </trkpt>
      <trkpt lat="43.25833" lon="-6.70818">
        <ele>987.7</ele>
        <time>2016-07-09T12:47:06Z</time>
      </trkpt>
      <trkpt lat="43.25829" lon="-6.70829">
        <ele>986</ele>
        <time>2016-07-09T12:47:15Z</time>
      </trkpt>
      <trkpt lat="43.25823" lon="-6.7084">
        <ele>984.6</ele>
        <time>2016-07-09T12:47:23Z</time>
      </trkpt>
      <trkpt lat="43.25818" lon="-6.70851">
        <ele>983</ele>
        <time>2016-07-09T12:47:32Z</time>
      </trkpt>
      <trkpt lat="43.25813" lon="-6.70863">
        <ele>981.7</ele>
        <time>2016-07-09T12:47:40Z</time>
      </trkpt>
      <trkpt lat="43.25809" lon="-6.70873">
        <ele>980.1</ele>
        <time>2016-07-09T12:47:48Z</time>
      </trkpt>
      <trkpt lat="43.25805" lon="-6.70886">
        <ele>978.3</ele>
        <time>2016-07-09T12:47:57Z</time>
      </trkpt>
      <trkpt lat="43.25801" lon="-6.70899">
        <ele>976.9</ele>
        <time>2016-07-09T12:48:06Z</time>
      </trkpt>
      <trkpt lat="43.25801" lon="-6.70911">
        <ele>974.8</ele>
        <time>2016-07-09T12:48:15Z</time>
      </trkpt>
      <trkpt lat="43.25798" lon="-6.70924">
        <ele>973.7</ele>
        <time>2016-07-09T12:48:24Z</time>
      </trkpt>
      <trkpt lat="43.25794" lon="-6.70935">
        <ele>972.1</ele>
        <time>2016-07-09T12:48:33Z</time>
      </trkpt>
      <trkpt lat="43.25789" lon="-6.70946">
        <ele>970.5</ele>
        <time>2016-07-09T12:48:42Z</time>
      </trkpt>
      <trkpt lat="43.25786" lon="-6.70959">
        <ele>969.1</ele>
        <time>2016-07-09T12:48:51Z</time>
      </trkpt>
      <trkpt lat="43.25783" lon="-6.70972">
        <ele>967</ele>
        <time>2016-07-09T12:49:01Z</time>
      </trkpt>
      <trkpt lat="43.25784" lon="-6.70985">
        <ele>965.6</ele>
        <time>2016-07-09T12:49:09Z</time>
      </trkpt>
      <trkpt lat="43.25784" lon="-6.70998">
        <ele>964.4</ele>
        <time>2016-07-09T12:49:17Z</time>
      </trkpt>
      <trkpt lat="43.25784" lon="-6.7101">
        <ele>962.5</ele>
        <time>2016-07-09T12:49:31Z</time>
      </trkpt>
      <trkpt lat="43.25783" lon="-6.71023">
        <ele>961.5</ele>
        <time>2016-07-09T12:49:40Z</time>
      </trkpt>
      <trkpt lat="43.25784" lon="-6.71036">
        <ele>960.1</ele>
        <time>2016-07-09T12:49:50Z</time>
      </trkpt>
      <trkpt lat="43.25785" lon="-6.7105">
        <ele>958.3</ele>
        <time>2016-07-09T12:50:00Z</time>
      </trkpt>
      <trkpt lat="43.25787" lon="-6.71062">
        <ele>956.9</ele>
        <time>2016-07-09T12:50:09Z</time>
      </trkpt>
      <trkpt lat="43.25788" lon="-6.71075">
        <ele>955.7</ele>
        <time>2016-07-09T12:50:18Z</time>
      </trkpt>
      <trkpt lat="43.25787" lon="-6.71089">
        <ele>954.5</ele>
        <time>2016-07-09T12:50:26Z</time>
      </trkpt>
      <trkpt lat="43.25788" lon="-6.71102">
        <ele>953.1</ele>
        <time>2016-07-09T12:50:35Z</time>
      </trkpt>
      <trkpt lat="43.25789" lon="-6.71115">
        <ele>951.6</ele>
        <time>2016-07-09T12:50:44Z</time>
      </trkpt>
      <trkpt lat="43.2579" lon="-6.71128">
        <ele>950.1</ele>
        <time>2016-07-09T12:50:52Z</time>
      </trkpt>
      <trkpt lat="43.25791" lon="-6.71141">
        <ele>948.9</ele>
        <time>2016-07-09T12:51:00Z</time>
      </trkpt>
      <trkpt lat="43.25793" lon="-6.71154">
        <ele>947.5</ele>
        <time>2016-07-09T12:51:08Z</time>
      </trkpt>
      <trkpt lat="43.25795" lon="-6.71167">
        <ele>946.1</ele>
        <time>2016-07-09T12:51:16Z</time>
      </trkpt>
      <trkpt lat="43.25795" lon="-6.7118">
        <ele>945</ele>
        <time>2016-07-09T12:51:23Z</time>
      </trkpt>
      <trkpt lat="43.25795" lon="-6.71192">
        <ele>944.1</ele>
        <time>2016-07-09T12:51:30Z</time>
      </trkpt>
      <trkpt lat="43.25794" lon="-6.71206">
        <ele>942.6</ele>
        <time>2016-07-09T12:51:38Z</time>
      </trkpt>
      <trkpt lat="43.25794" lon="-6.7122">
        <ele>940.4</ele>
        <time>2016-07-09T12:51:47Z</time>
      </trkpt>
      <trkpt lat="43.25794" lon="-6.71233">
        <ele>939.3</ele>
        <time>2016-07-09T12:51:56Z</time>
      </trkpt>
      <trkpt lat="43.25794" lon="-6.71247">
        <ele>939.8</ele>
        <time>2016-07-09T12:52:05Z</time>
      </trkpt>
      <trkpt lat="43.25794" lon="-6.7126">
        <ele>939.3</ele>
        <time>2016-07-09T12:52:13Z</time>
      </trkpt>
      <trkpt lat="43.25793" lon="-6.71273">
        <ele>937.9</ele>
        <time>2016-07-09T12:52:21Z</time>
      </trkpt>
      <trkpt lat="43.25793" lon="-6.71286">
        <ele>936.9</ele>
        <time>2016-07-09T12:52:30Z</time>
      </trkpt>
      <trkpt lat="43.25794" lon="-6.713">
        <ele>936</ele>
        <time>2016-07-09T12:52:39Z</time>
      </trkpt>
      <trkpt lat="43.25795" lon="-6.71313">
        <ele>934.3</ele>
        <time>2016-07-09T12:52:48Z</time>
      </trkpt>
      <trkpt lat="43.25794" lon="-6.71327">
        <ele>933</ele>
        <time>2016-07-09T12:52:57Z</time>
      </trkpt>
      <trkpt lat="43.25793" lon="-6.7134">
        <ele>931.5</ele>
        <time>2016-07-09T12:53:06Z</time>
      </trkpt>
      <trkpt lat="43.25793" lon="-6.71352">
        <ele>930.5</ele>
        <time>2016-07-09T12:53:14Z</time>
      </trkpt>
      <trkpt lat="43.25795" lon="-6.71366">
        <ele>929.5</ele>
        <time>2016-07-09T12:53:22Z</time>
      </trkpt>
      <trkpt lat="43.25798" lon="-6.71378">
        <ele>928.1</ele>
        <time>2016-07-09T12:53:30Z</time>
      </trkpt>
      <trkpt lat="43.25802" lon="-6.7139">
        <ele>926.7</ele>
        <time>2016-07-09T12:53:39Z</time>
      </trkpt>
      <trkpt lat="43.25805" lon="-6.71401">
        <ele>925.7</ele>
        <time>2016-07-09T12:53:47Z</time>
      </trkpt>
      <trkpt lat="43.25808" lon="-6.71414">
        <ele>924.2</ele>
        <time>2016-07-09T12:53:55Z</time>
      </trkpt>
      <trkpt lat="43.2581" lon="-6.71428">
        <ele>923</ele>
        <time>2016-07-09T12:54:03Z</time>
      </trkpt>
      <trkpt lat="43.25813" lon="-6.7144">
        <ele>922.2</ele>
        <time>2016-07-09T12:54:10Z</time>
      </trkpt>
      <trkpt lat="43.25814" lon="-6.71453">
        <ele>921.2</ele>
        <time>2016-07-09T12:54:19Z</time>
      </trkpt>
      <trkpt lat="43.25813" lon="-6.71466">
        <ele>920.4</ele>
        <time>2016-07-09T12:54:27Z</time>
      </trkpt>
      <trkpt lat="43.25813" lon="-6.71479">
        <ele>919.5</ele>
        <time>2016-07-09T12:54:35Z</time>
      </trkpt>
      <trkpt lat="43.25813" lon="-6.71493">
        <ele>918.3</ele>
        <time>2016-07-09T12:54:43Z</time>
      </trkpt>
      <trkpt lat="43.25815" lon="-6.71506">
        <ele>917.3</ele>
        <time>2016-07-09T12:54:51Z</time>
      </trkpt>
      <trkpt lat="43.25815" lon="-6.7152">
        <ele>916.3</ele>
        <time>2016-07-09T12:54:59Z</time>
      </trkpt>
      <trkpt lat="43.25813" lon="-6.71532">
        <ele>915.7</ele>
        <time>2016-07-09T12:55:06Z</time>
      </trkpt>
      <trkpt lat="43.25811" lon="-6.71545">
        <ele>915</ele>
        <time>2016-07-09T12:55:14Z</time>
      </trkpt>
      <trkpt lat="43.25808" lon="-6.71558">
        <ele>914.1</ele>
        <time>2016-07-09T12:55:22Z</time>
      </trkpt>
      <trkpt lat="43.25807" lon="-6.71572">
        <ele>913.2</ele>
        <time>2016-07-09T12:55:31Z</time>
      </trkpt>
      <trkpt lat="43.25807" lon="-6.71585">
        <ele>912.3</ele>
        <time>2016-07-09T12:55:40Z</time>
      </trkpt>
      <trkpt lat="43.25807" lon="-6.71597">
        <ele>911.4</ele>
        <time>2016-07-09T12:55:48Z</time>
      </trkpt>
      <trkpt lat="43.25806" lon="-6.71611">
        <ele>910.2</ele>
        <time>2016-07-09T12:55:57Z</time>
      </trkpt>
      <trkpt lat="43.25807" lon="-6.71624">
        <ele>909.3</ele>
        <time>2016-07-09T12:56:05Z</time>
      </trkpt>
      <trkpt lat="43.25808" lon="-6.71636">
        <ele>908.6</ele>
        <time>2016-07-09T12:56:12Z</time>
      </trkpt>
      <trkpt lat="43.2581" lon="-6.71649">
        <ele>907.9</ele>
        <time>2016-07-09T12:56:20Z</time>
      </trkpt>
      <trkpt lat="43.2581" lon="-6.71661">
        <ele>906.2</ele>
        <time>2016-07-09T12:56:29Z</time>
      </trkpt>
      <trkpt lat="43.25809" lon="-6.71674">
        <ele>904.8</ele>
        <time>2016-07-09T12:56:38Z</time>
      </trkpt>
      <trkpt lat="43.25808" lon="-6.71687">
        <ele>903.7</ele>
        <time>2016-07-09T12:56:47Z</time>
      </trkpt>
      <trkpt lat="43.25808" lon="-6.717">
        <ele>902.4</ele>
        <time>2016-07-09T12:56:56Z</time>
      </trkpt>
      <trkpt lat="43.25809" lon="-6.71712">
        <ele>896.6</ele>
        <time>2016-07-09T12:58:04Z</time>
      </trkpt>
      <trkpt lat="43.25809" lon="-6.71726">
        <ele>895.6</ele>
        <time>2016-07-09T12:59:23Z</time>
      </trkpt>
      <trkpt lat="43.25807" lon="-6.71738">
        <ele>895</ele>
        <time>2016-07-09T12:59:31Z</time>
      </trkpt>
      <trkpt lat="43.25805" lon="-6.7175">
        <ele>894.5</ele>
        <time>2016-07-09T12:59:39Z</time>
      </trkpt>
      <trkpt lat="43.25801" lon="-6.71761">
        <ele>893.9</ele>
        <time>2016-07-09T12:59:47Z</time>
      </trkpt>
      <trkpt lat="43.25798" lon="-6.71775">
        <ele>893.1</ele>
        <time>2016-07-09T12:59:55Z</time>
      </trkpt>
      <trkpt lat="43.25795" lon="-6.71787">
        <ele>892.5</ele>
        <time>2016-07-09T13:00:03Z</time>
      </trkpt>
      <trkpt lat="43.25792" lon="-6.718">
        <ele>891.1</ele>
        <time>2016-07-09T13:00:11Z</time>
      </trkpt>
      <trkpt lat="43.25789" lon="-6.71814">
        <ele>889.8</ele>
        <time>2016-07-09T13:00:19Z</time>
      </trkpt>
      <trkpt lat="43.25791" lon="-6.71826">
        <ele>888.2</ele>
        <time>2016-07-09T13:00:28Z</time>
      </trkpt>
      <trkpt lat="43.25796" lon="-6.71836">
        <ele>886.9</ele>
        <time>2016-07-09T13:00:37Z</time>
      </trkpt>
      <trkpt lat="43.25802" lon="-6.71848">
        <ele>885.5</ele>
        <time>2016-07-09T13:00:46Z</time>
      </trkpt>
      <trkpt lat="43.25806" lon="-6.7186">
        <ele>884.5</ele>
        <time>2016-07-09T13:00:55Z</time>
      </trkpt>
      <trkpt lat="43.25809" lon="-6.71873">
        <ele>883.5</ele>
        <time>2016-07-09T13:01:03Z</time>
      </trkpt>
      <trkpt lat="43.25809" lon="-6.71887">
        <ele>882.3</ele>
        <time>2016-07-09T13:01:11Z</time>
      </trkpt>
      <trkpt lat="43.25806" lon="-6.71901">
        <ele>881.1</ele>
        <time>2016-07-09T13:01:19Z</time>
      </trkpt>
      <trkpt lat="43.25805" lon="-6.71915">
        <ele>880.2</ele>
        <time>2016-07-09T13:01:27Z</time>
      </trkpt>
      <trkpt lat="43.25806" lon="-6.71929">
        <ele>879</ele>
        <time>2016-07-09T13:01:36Z</time>
      </trkpt>
      <trkpt lat="43.25806" lon="-6.71941">
        <ele>877.6</ele>
        <time>2016-07-09T13:01:48Z</time>
      </trkpt>
      <trkpt lat="43.25806" lon="-6.71954">
        <ele>875.4</ele>
        <time>2016-07-09T13:02:19Z</time>
      </trkpt>
      <trkpt lat="43.25805" lon="-6.71967">
        <ele>875.1</ele>
        <time>2016-07-09T13:02:28Z</time>
      </trkpt>
      <trkpt lat="43.25805" lon="-6.71979">
        <ele>875.1</ele>
        <time>2016-07-09T13:02:37Z</time>
      </trkpt>
      <trkpt lat="43.25805" lon="-6.71993">
        <ele>874.7</ele>
        <time>2016-07-09T13:02:47Z</time>
      </trkpt>
      <trkpt lat="43.25803" lon="-6.72006">
        <ele>874.1</ele>
        <time>2016-07-09T13:02:56Z</time>
      </trkpt>
      <trkpt lat="43.25802" lon="-6.72019">
        <ele>873.4</ele>
        <time>2016-07-09T13:03:05Z</time>
      </trkpt>
      <trkpt lat="43.25801" lon="-6.72032">
        <ele>872.8</ele>
        <time>2016-07-09T13:03:13Z</time>
      </trkpt>
      <trkpt lat="43.25796" lon="-6.72044">
        <ele>871.9</ele>
        <time>2016-07-09T13:03:22Z</time>
      </trkpt>
      <trkpt lat="43.25792" lon="-6.72056">
        <ele>871.4</ele>
        <time>2016-07-09T13:03:31Z</time>
      </trkpt>
      <trkpt lat="43.25787" lon="-6.72067">
        <ele>871</ele>
        <time>2016-07-09T13:03:38Z</time>
      </trkpt>
      <trkpt lat="43.25783" lon="-6.72079">
        <ele>870.4</ele>
        <time>2016-07-09T13:03:45Z</time>
      </trkpt>
      <trkpt lat="43.25779" lon="-6.72092">
        <ele>870.3</ele>
        <time>2016-07-09T13:03:53Z</time>
      </trkpt>
      <trkpt lat="43.25775" lon="-6.72104">
        <ele>869.9</ele>
        <time>2016-07-09T13:04:01Z</time>
      </trkpt>
      <trkpt lat="43.25769" lon="-6.72116">
        <ele>869.6</ele>
        <time>2016-07-09T13:04:08Z</time>
      </trkpt>
      <trkpt lat="43.25765" lon="-6.72128">
        <ele>869.4</ele>
        <time>2016-07-09T13:04:15Z</time>
      </trkpt>
      <trkpt lat="43.2576" lon="-6.7214">
        <ele>868.9</ele>
        <time>2016-07-09T13:04:22Z</time>
      </trkpt>
      <trkpt lat="43.25756" lon="-6.72151">
        <ele>868.6</ele>
        <time>2016-07-09T13:04:29Z</time>
      </trkpt>
      <trkpt lat="43.25752" lon="-6.72164">
        <ele>868.3</ele>
        <time>2016-07-09T13:04:37Z</time>
      </trkpt>
      <trkpt lat="43.25749" lon="-6.72176">
        <ele>868.2</ele>
        <time>2016-07-09T13:04:44Z</time>
      </trkpt>
      <trkpt lat="43.25744" lon="-6.72189">
        <ele>868</ele>
        <time>2016-07-09T13:04:51Z</time>
      </trkpt>
      <trkpt lat="43.25739" lon="-6.722">
        <ele>867.9</ele>
        <time>2016-07-09T13:04:59Z</time>
      </trkpt>
      <trkpt lat="43.25735" lon="-6.72211">
        <ele>867.9</ele>
        <time>2016-07-09T13:05:07Z</time>
      </trkpt>
      <trkpt lat="43.25732" lon="-6.72223">
        <ele>867.7</ele>
        <time>2016-07-09T13:05:16Z</time>
      </trkpt>
      <trkpt lat="43.25725" lon="-6.72233">
        <ele>867.7</ele>
        <time>2016-07-09T13:05:26Z</time>
      </trkpt>
      <trkpt lat="43.25716" lon="-6.72238">
        <ele>868</ele>
        <time>2016-07-09T13:05:35Z</time>
      </trkpt>
      <trkpt lat="43.25708" lon="-6.72243">
        <ele>868.7</ele>
        <time>2016-07-09T13:05:46Z</time>
      </trkpt>
      <trkpt lat="43.25698" lon="-6.72243">
        <ele>868.9</ele>
        <time>2016-07-09T13:05:55Z</time>
      </trkpt>
      <trkpt lat="43.25689" lon="-6.72242">
        <ele>870.2</ele>
        <time>2016-07-09T13:06:04Z</time>
      </trkpt>
      <trkpt lat="43.2568" lon="-6.72242">
        <ele>871.1</ele>
        <time>2016-07-09T13:06:12Z</time>
      </trkpt>
      <trkpt lat="43.25671" lon="-6.72241">
        <ele>871.6</ele>
        <time>2016-07-09T13:06:21Z</time>
      </trkpt>
      <trkpt lat="43.25662" lon="-6.7224">
        <ele>871.8</ele>
        <time>2016-07-09T13:06:28Z</time>
      </trkpt>
      <trkpt lat="43.25653" lon="-6.7224">
        <ele>872.3</ele>
        <time>2016-07-09T13:06:35Z</time>
      </trkpt>
      <trkpt lat="43.25644" lon="-6.72237">
        <ele>872.6</ele>
        <time>2016-07-09T13:06:42Z</time>
      </trkpt>
      <trkpt lat="43.25635" lon="-6.72234">
        <ele>872.9</ele>
        <time>2016-07-09T13:06:50Z</time>
      </trkpt>
      <trkpt lat="43.25626" lon="-6.72232">
        <ele>873</ele>
        <time>2016-07-09T13:06:58Z</time>
      </trkpt>
      <trkpt lat="43.25617" lon="-6.72232">
        <ele>873.1</ele>
        <time>2016-07-09T13:07:07Z</time>
      </trkpt>
      <trkpt lat="43.25607" lon="-6.72232">
        <ele>873.5</ele>
        <time>2016-07-09T13:07:17Z</time>
      </trkpt>
      <trkpt lat="43.25597" lon="-6.72229">
        <ele>873.8</ele>
        <time>2016-07-09T13:07:27Z</time>
      </trkpt>
      <trkpt lat="43.25589" lon="-6.72223">
        <ele>874.3</ele>
        <time>2016-07-09T13:07:35Z</time>
      </trkpt>
      <trkpt lat="43.25581" lon="-6.72218">
        <ele>874.7</ele>
        <time>2016-07-09T13:07:42Z</time>
      </trkpt>
      <trkpt lat="43.25571" lon="-6.72216">
        <ele>874.9</ele>
        <time>2016-07-09T13:07:49Z</time>
      </trkpt>
      <trkpt lat="43.25562" lon="-6.72215">
        <ele>875</ele>
        <time>2016-07-09T13:07:57Z</time>
      </trkpt>
      <trkpt lat="43.25552" lon="-6.72214">
        <ele>875.3</ele>
        <time>2016-07-09T13:08:04Z</time>
      </trkpt>
      <trkpt lat="43.25543" lon="-6.72216">
        <ele>875.5</ele>
        <time>2016-07-09T13:08:11Z</time>
      </trkpt>
      <trkpt lat="43.25534" lon="-6.72218">
        <ele>875.5</ele>
        <time>2016-07-09T13:08:19Z</time>
      </trkpt>
      <trkpt lat="43.25525" lon="-6.72222">
        <ele>874.5</ele>
        <time>2016-07-09T13:08:38Z</time>
      </trkpt>
      <trkpt lat="43.25517" lon="-6.7223">
        <ele>874.7</ele>
        <time>2016-07-09T13:08:46Z</time>
      </trkpt>
      <trkpt lat="43.25509" lon="-6.72238">
        <ele>874.5</ele>
        <time>2016-07-09T13:08:53Z</time>
      </trkpt>
      <trkpt lat="43.255" lon="-6.72243">
        <ele>874.3</ele>
        <time>2016-07-09T13:09:01Z</time>
      </trkpt>
      <trkpt lat="43.25492" lon="-6.72249">
        <ele>873.7</ele>
        <time>2016-07-09T13:09:10Z</time>
      </trkpt>
      <trkpt lat="43.25484" lon="-6.72256">
        <ele>873.3</ele>
        <time>2016-07-09T13:09:18Z</time>
      </trkpt>
      <trkpt lat="43.25477" lon="-6.72265">
        <ele>872.6</ele>
        <time>2016-07-09T13:09:26Z</time>
      </trkpt>
      <trkpt lat="43.2547" lon="-6.72274">
        <ele>871.4</ele>
        <time>2016-07-09T13:09:35Z</time>
      </trkpt>
      <trkpt lat="43.25462" lon="-6.72281">
        <ele>870.5</ele>
        <time>2016-07-09T13:09:44Z</time>
      </trkpt>
      <trkpt lat="43.25456" lon="-6.7229">
        <ele>869.8</ele>
        <time>2016-07-09T13:09:51Z</time>
      </trkpt>
      <trkpt lat="43.2545" lon="-6.723">
        <ele>869.6</ele>
        <time>2016-07-09T13:09:59Z</time>
      </trkpt>
      <trkpt lat="43.25444" lon="-6.7231">
        <ele>869.3</ele>
        <time>2016-07-09T13:10:07Z</time>
      </trkpt>
      <trkpt lat="43.2544" lon="-6.72322">
        <ele>868.5</ele>
        <time>2016-07-09T13:10:31Z</time>
      </trkpt>
      <trkpt lat="43.25435" lon="-6.72333">
        <ele>868</ele>
        <time>2016-07-09T13:11:05Z</time>
      </trkpt>
      <trkpt lat="43.2543" lon="-6.72343">
        <ele>867.5</ele>
        <time>2016-07-09T13:11:13Z</time>
      </trkpt>
      <trkpt lat="43.25426" lon="-6.72355">
        <ele>866.7</ele>
        <time>2016-07-09T13:11:21Z</time>
      </trkpt>
      <trkpt lat="43.25423" lon="-6.72367">
        <ele>866.3</ele>
        <time>2016-07-09T13:11:28Z</time>
      </trkpt>
      <trkpt lat="43.25419" lon="-6.7238">
        <ele>865.8</ele>
        <time>2016-07-09T13:11:36Z</time>
      </trkpt>
      <trkpt lat="43.25414" lon="-6.72393">
        <ele>865.3</ele>
        <time>2016-07-09T13:11:43Z</time>
      </trkpt>
      <trkpt lat="43.25411" lon="-6.72404">
        <ele>864.6</ele>
        <time>2016-07-09T13:11:49Z</time>
      </trkpt>
      <trkpt lat="43.25409" lon="-6.72416">
        <ele>864</ele>
        <time>2016-07-09T13:11:55Z</time>
      </trkpt>
      <trkpt lat="43.25406" lon="-6.72429">
        <ele>863.4</ele>
        <time>2016-07-09T13:12:02Z</time>
      </trkpt>
      <trkpt lat="43.25404" lon="-6.72442">
        <ele>862.6</ele>
        <time>2016-07-09T13:12:09Z</time>
      </trkpt>
      <trkpt lat="43.25404" lon="-6.72455">
        <ele>861.8</ele>
        <time>2016-07-09T13:12:17Z</time>
      </trkpt>
      <trkpt lat="43.25402" lon="-6.72469">
        <ele>860.8</ele>
        <time>2016-07-09T13:12:25Z</time>
      </trkpt>
      <trkpt lat="43.25401" lon="-6.72482">
        <ele>860.3</ele>
        <time>2016-07-09T13:12:33Z</time>
      </trkpt>
      <trkpt lat="43.254" lon="-6.72496">
        <ele>859.8</ele>
        <time>2016-07-09T13:12:41Z</time>
      </trkpt>
      <trkpt lat="43.25399" lon="-6.72509">
        <ele>859.4</ele>
        <time>2016-07-09T13:12:49Z</time>
      </trkpt>
      <trkpt lat="43.25397" lon="-6.72521">
        <ele>859.2</ele>
        <time>2016-07-09T13:12:57Z</time>
      </trkpt>
      <trkpt lat="43.25396" lon="-6.72534">
        <ele>859</ele>
        <time>2016-07-09T13:13:05Z</time>
      </trkpt>
      <trkpt lat="43.25394" lon="-6.72547">
        <ele>858.8</ele>
        <time>2016-07-09T13:13:13Z</time>
      </trkpt>
      <trkpt lat="43.25393" lon="-6.7256">
        <ele>858.5</ele>
        <time>2016-07-09T13:13:21Z</time>
      </trkpt>
      <trkpt lat="43.25393" lon="-6.72574">
        <ele>858.3</ele>
        <time>2016-07-09T13:13:29Z</time>
      </trkpt>
      <trkpt lat="43.25392" lon="-6.72587">
        <ele>858.2</ele>
        <time>2016-07-09T13:13:37Z</time>
      </trkpt>
      <trkpt lat="43.25392" lon="-6.72601">
        <ele>858</ele>
        <time>2016-07-09T13:13:46Z</time>
      </trkpt>
      <trkpt lat="43.25391" lon="-6.72614">
        <ele>857.3</ele>
        <time>2016-07-09T13:13:54Z</time>
      </trkpt>
      <trkpt lat="43.2539" lon="-6.72628">
        <ele>856.9</ele>
        <time>2016-07-09T13:14:02Z</time>
      </trkpt>
      <trkpt lat="43.25388" lon="-6.72641">
        <ele>856.1</ele>
        <time>2016-07-09T13:14:10Z</time>
      </trkpt>
      <trkpt lat="43.25387" lon="-6.72654">
        <ele>855.1</ele>
        <time>2016-07-09T13:14:20Z</time>
      </trkpt>
      <trkpt lat="43.25382" lon="-6.72664">
        <ele>854.5</ele>
        <time>2016-07-09T13:14:28Z</time>
      </trkpt>
      <trkpt lat="43.25376" lon="-6.72673">
        <ele>854.5</ele>
        <time>2016-07-09T13:14:36Z</time>
      </trkpt>
      <trkpt lat="43.25366" lon="-6.72678">
        <ele>853.7</ele>
        <time>2016-07-09T13:14:45Z</time>
      </trkpt>
      <trkpt lat="43.25357" lon="-6.7268">
        <ele>853</ele>
        <time>2016-07-09T13:14:53Z</time>
      </trkpt>
      <trkpt lat="43.25348" lon="-6.72683">
        <ele>851.1</ele>
        <time>2016-07-09T13:15:03Z</time>
      </trkpt>
      <trkpt lat="43.25339" lon="-6.72685">
        <ele>852.2</ele>
        <time>2016-07-09T13:15:13Z</time>
      </trkpt>
      <trkpt lat="43.25329" lon="-6.72682">
        <ele>853.2</ele>
        <time>2016-07-09T13:15:24Z</time>
      </trkpt>
      <trkpt lat="43.2532" lon="-6.72683">
        <ele>853.9</ele>
        <time>2016-07-09T13:15:37Z</time>
      </trkpt>
      <trkpt lat="43.25311" lon="-6.72684">
        <ele>854.3</ele>
        <time>2016-07-09T13:15:47Z</time>
      </trkpt>
      <trkpt lat="43.25302" lon="-6.7269">
        <ele>854.5</ele>
        <time>2016-07-09T13:15:57Z</time>
      </trkpt>
      <trkpt lat="43.25294" lon="-6.72696">
        <ele>854.6</ele>
        <time>2016-07-09T13:16:07Z</time>
      </trkpt>
      <trkpt lat="43.25285" lon="-6.72697">
        <ele>855.3</ele>
        <time>2016-07-09T13:16:17Z</time>
      </trkpt>
      <trkpt lat="43.25276" lon="-6.72703">
        <ele>857.5</ele>
        <time>2016-07-09T13:16:46Z</time>
      </trkpt>
      <trkpt lat="43.25266" lon="-6.72706">
        <ele>858.3</ele>
        <time>2016-07-09T13:17:00Z</time>
      </trkpt>
      <trkpt lat="43.25258" lon="-6.72712">
        <ele>858.9</ele>
        <time>2016-07-09T13:17:11Z</time>
      </trkpt>
      <trkpt lat="43.2525" lon="-6.7272">
        <ele>860.3</ele>
        <time>2016-07-09T13:17:24Z</time>
      </trkpt>
      <trkpt lat="43.25243" lon="-6.72729">
        <ele>861.5</ele>
        <time>2016-07-09T13:17:35Z</time>
      </trkpt>
      <trkpt lat="43.25238" lon="-6.72739">
        <ele>863.1</ele>
        <time>2016-07-09T13:17:46Z</time>
      </trkpt>
      <trkpt lat="43.25232" lon="-6.7275">
        <ele>864.6</ele>
        <time>2016-07-09T13:17:56Z</time>
      </trkpt>
      <trkpt lat="43.25226" lon="-6.7276">
        <ele>865.5</ele>
        <time>2016-07-09T13:18:04Z</time>
      </trkpt>
      <trkpt lat="43.25221" lon="-6.7277">
        <ele>866.2</ele>
        <time>2016-07-09T13:18:13Z</time>
      </trkpt>
      <trkpt lat="43.25217" lon="-6.72782">
        <ele>867</ele>
        <time>2016-07-09T13:18:22Z</time>
      </trkpt>
      <trkpt lat="43.25213" lon="-6.72794">
        <ele>868.5</ele>
        <time>2016-07-09T13:18:39Z</time>
      </trkpt>
      <trkpt lat="43.2521" lon="-6.72807">
        <ele>869.3</ele>
        <time>2016-07-09T13:18:50Z</time>
      </trkpt>
      <trkpt lat="43.25209" lon="-6.7282">
        <ele>870</ele>
        <time>2016-07-09T13:19:00Z</time>
      </trkpt>
      <trkpt lat="43.25211" lon="-6.72832">
        <ele>870.5</ele>
        <time>2016-07-09T13:19:09Z</time>
      </trkpt>
      <trkpt lat="43.2521" lon="-6.72846">
        <ele>871.5</ele>
        <time>2016-07-09T13:19:20Z</time>
      </trkpt>
      <trkpt lat="43.25212" lon="-6.72858">
        <ele>872.7</ele>
        <time>2016-07-09T13:19:30Z</time>
      </trkpt>
      <trkpt lat="43.25214" lon="-6.72871">
        <ele>873.8</ele>
        <time>2016-07-09T13:19:40Z</time>
      </trkpt>
      <trkpt lat="43.25217" lon="-6.72882">
        <ele>875.8</ele>
        <time>2016-07-09T13:19:54Z</time>
      </trkpt>
      <trkpt lat="43.25222" lon="-6.72894">
        <ele>876.4</ele>
        <time>2016-07-09T13:20:05Z</time>
      </trkpt>
      <trkpt lat="43.25227" lon="-6.72905">
        <ele>877.3</ele>
        <time>2016-07-09T13:20:15Z</time>
      </trkpt>
      <trkpt lat="43.25235" lon="-6.72912">
        <ele>878.6</ele>
        <time>2016-07-09T13:20:25Z</time>
      </trkpt>
      <trkpt lat="43.25243" lon="-6.72918">
        <ele>880.3</ele>
        <time>2016-07-09T13:20:37Z</time>
      </trkpt>
      <trkpt lat="43.25252" lon="-6.72923">
        <ele>883.5</ele>
        <time>2016-07-09T13:21:00Z</time>
      </trkpt>
      <trkpt lat="43.25261" lon="-6.72925">
        <ele>884.3</ele>
        <time>2016-07-09T13:21:21Z</time>
      </trkpt>
      <trkpt lat="43.25269" lon="-6.72932">
        <ele>884.7</ele>
        <time>2016-07-09T13:21:31Z</time>
      </trkpt>
      <trkpt lat="43.25275" lon="-6.72943">
        <ele>884.6</ele>
        <time>2016-07-09T13:21:39Z</time>
      </trkpt>
      <trkpt lat="43.25279" lon="-6.72954">
        <ele>884.2</ele>
        <time>2016-07-09T13:21:47Z</time>
      </trkpt>
      <trkpt lat="43.25282" lon="-6.72966">
        <ele>883.5</ele>
        <time>2016-07-09T13:21:56Z</time>
      </trkpt>
      <trkpt lat="43.25285" lon="-6.72979">
        <ele>883.1</ele>
        <time>2016-07-09T13:22:05Z</time>
      </trkpt>
      <trkpt lat="43.2529" lon="-6.72991">
        <ele>882.8</ele>
        <time>2016-07-09T13:22:14Z</time>
      </trkpt>
      <trkpt lat="43.25295" lon="-6.73002">
        <ele>882.9</ele>
        <time>2016-07-09T13:22:23Z</time>
      </trkpt>
      <trkpt lat="43.25301" lon="-6.73011">
        <ele>883</ele>
        <time>2016-07-09T13:22:31Z</time>
      </trkpt>
      <trkpt lat="43.25306" lon="-6.73021">
        <ele>883</ele>
        <time>2016-07-09T13:22:39Z</time>
      </trkpt>
      <trkpt lat="43.2531" lon="-6.73032">
        <ele>882.8</ele>
        <time>2016-07-09T13:22:47Z</time>
      </trkpt>
      <trkpt lat="43.25314" lon="-6.73044">
        <ele>882.4</ele>
        <time>2016-07-09T13:23:02Z</time>
      </trkpt>
      <trkpt lat="43.25319" lon="-6.73055">
        <ele>881.9</ele>
        <time>2016-07-09T13:23:11Z</time>
      </trkpt>
      <trkpt lat="43.25322" lon="-6.73068">
        <ele>881.2</ele>
        <time>2016-07-09T13:23:21Z</time>
      </trkpt>
      <trkpt lat="43.25325" lon="-6.7308">
        <ele>880.3</ele>
        <time>2016-07-09T13:23:35Z</time>
      </trkpt>
      <trkpt lat="43.25326" lon="-6.73093">
        <ele>879.3</ele>
        <time>2016-07-09T13:24:45Z</time>
      </trkpt>
      <trkpt lat="43.25334" lon="-6.731">
        <ele>878.7</ele>
        <time>2016-07-09T13:25:00Z</time>
      </trkpt>
      <trkpt lat="43.25332" lon="-6.73112">
        <ele>879.1</ele>
        <time>2016-07-09T13:25:17Z</time>
      </trkpt>
      <trkpt lat="43.25328" lon="-6.73124">
        <ele>879.9</ele>
        <time>2016-07-09T13:25:31Z</time>
      </trkpt>
      <trkpt lat="43.25326" lon="-6.73136">
        <ele>881.5</ele>
        <time>2016-07-09T13:25:44Z</time>
      </trkpt>
      <trkpt lat="43.25332" lon="-6.73145">
        <ele>883.5</ele>
        <time>2016-07-09T13:26:00Z</time>
      </trkpt>
      <trkpt lat="43.25337" lon="-6.73155">
        <ele>885.4</ele>
        <time>2016-07-09T13:26:16Z</time>
      </trkpt>
      <trkpt lat="43.25335" lon="-6.73168">
        <ele>887</ele>
        <time>2016-07-09T13:26:29Z</time>
      </trkpt>
      <trkpt lat="43.25344" lon="-6.73173">
        <ele>891.5</ele>
        <time>2016-07-09T13:27:40Z</time>
      </trkpt>
      <trkpt lat="43.25348" lon="-6.73184">
        <ele>890.8</ele>
        <time>2016-07-09T13:28:09Z</time>
      </trkpt>
      <trkpt lat="43.25349" lon="-6.73197">
        <ele>891.5</ele>
        <time>2016-07-09T13:28:20Z</time>
      </trkpt>
      <trkpt lat="43.25346" lon="-6.73209">
        <ele>892.7</ele>
        <time>2016-07-09T13:28:30Z</time>
      </trkpt>
      <trkpt lat="43.25339" lon="-6.73219">
        <ele>893.7</ele>
        <time>2016-07-09T13:28:38Z</time>
      </trkpt>
      <trkpt lat="43.25334" lon="-6.7323">
        <ele>895.4</ele>
        <time>2016-07-09T13:28:47Z</time>
      </trkpt>
      <trkpt lat="43.25338" lon="-6.73241">
        <ele>897.8</ele>
        <time>2016-07-09T13:29:02Z</time>
      </trkpt>
      <trkpt lat="43.25347" lon="-6.73243">
        <ele>899.5</ele>
        <time>2016-07-09T13:29:14Z</time>
      </trkpt>
      <trkpt lat="43.25356" lon="-6.73242">
        <ele>902.4</ele>
        <time>2016-07-09T13:29:30Z</time>
      </trkpt>
      <trkpt lat="43.25365" lon="-6.73237">
        <ele>903.7</ele>
        <time>2016-07-09T13:29:42Z</time>
      </trkpt>
      <trkpt lat="43.25369" lon="-6.73249">
        <ele>906.3</ele>
        <time>2016-07-09T13:30:01Z</time>
      </trkpt>
      <trkpt lat="43.25364" lon="-6.73259">
        <ele>907.1</ele>
        <time>2016-07-09T13:30:12Z</time>
      </trkpt>
      <trkpt lat="43.25356" lon="-6.73267">
        <ele>907.9</ele>
        <time>2016-07-09T13:30:23Z</time>
      </trkpt>
      <trkpt lat="43.2535" lon="-6.73276">
        <ele>908.9</ele>
        <time>2016-07-09T13:30:36Z</time>
      </trkpt>
      <trkpt lat="43.25343" lon="-6.73285">
        <ele>909.5</ele>
        <time>2016-07-09T13:30:46Z</time>
      </trkpt>
      <trkpt lat="43.25336" lon="-6.73293">
        <ele>910.1</ele>
        <time>2016-07-09T13:30:55Z</time>
      </trkpt>
      <trkpt lat="43.25328" lon="-6.73301">
        <ele>910.4</ele>
        <time>2016-07-09T13:31:02Z</time>
      </trkpt>
      <trkpt lat="43.25319" lon="-6.73307">
        <ele>910.7</ele>
        <time>2016-07-09T13:31:12Z</time>
      </trkpt>
      <trkpt lat="43.25312" lon="-6.73314">
        <ele>911.2</ele>
        <time>2016-07-09T13:31:37Z</time>
      </trkpt>
      <trkpt lat="43.25308" lon="-6.73326">
        <ele>911.5</ele>
        <time>2016-07-09T13:32:16Z</time>
      </trkpt>
      <trkpt lat="43.25299" lon="-6.73323">
        <ele>911.7</ele>
        <time>2016-07-09T13:33:40Z</time>
      </trkpt>
      <trkpt lat="43.25308" lon="-6.73326">
        <ele>911.4</ele>
        <time>2016-07-09T13:34:29Z</time>
      </trkpt>
      <trkpt lat="43.25311" lon="-6.73314">
        <ele>910.4</ele>
        <time>2016-07-09T13:35:20Z</time>
      </trkpt>
      <trkpt lat="43.25314" lon="-6.73295">
        <ele>912</ele>
        <time>2016-07-09T13:39:02Z</time>
      </trkpt>
      <trkpt lat="43.25323" lon="-6.73291">
        <ele>912.3</ele>
        <time>2016-07-09T13:39:12Z</time>
      </trkpt>
      <trkpt lat="43.25319" lon="-6.73302">
        <ele>912</ele>
        <time>2016-07-09T13:39:25Z</time>
      </trkpt>
      <trkpt lat="43.25312" lon="-6.7331">
        <ele>911.4</ele>
        <time>2016-07-09T13:39:42Z</time>
      </trkpt>
      <trkpt lat="43.2532" lon="-6.73316">
        <ele>909.9</ele>
        <time>2016-07-09T13:41:43Z</time>
      </trkpt>
      <trkpt lat="43.25329" lon="-6.73318">
        <ele>910.9</ele>
        <time>2016-07-09T13:42:24Z</time>
      </trkpt>
      <trkpt lat="43.2532" lon="-6.73315">
        <ele>910.9</ele>
        <time>2016-07-09T13:42:44Z</time>
      </trkpt>
      <trkpt lat="43.25315" lon="-6.73304">
        <ele>910.6</ele>
        <time>2016-07-09T13:46:04Z</time>
      </trkpt>
      <trkpt lat="43.25315" lon="-6.73317">
        <ele>911.8</ele>
        <time>2016-07-09T13:48:19Z</time>
      </trkpt>
      <trkpt lat="43.25313" lon="-6.73329">
        <ele>911.5</ele>
        <time>2016-07-09T13:49:10Z</time>
      </trkpt>
      <trkpt lat="43.25304" lon="-6.73334">
        <ele>912.4</ele>
        <time>2016-07-09T13:50:23Z</time>
      </trkpt>
      <trkpt lat="43.25297" lon="-6.73344">
        <ele>912.4</ele>
        <time>2016-07-09T13:50:36Z</time>
      </trkpt>
      <trkpt lat="43.2529" lon="-6.73353">
        <ele>912.6</ele>
        <time>2016-07-09T13:50:46Z</time>
      </trkpt>
      <trkpt lat="43.25284" lon="-6.73361">
        <ele>913.4</ele>
        <time>2016-07-09T13:51:02Z</time>
      </trkpt>
      <trkpt lat="43.25276" lon="-6.73368">
        <ele>913.8</ele>
        <time>2016-07-09T13:51:20Z</time>
      </trkpt>
      <trkpt lat="43.25268" lon="-6.73373">
        <ele>914.5</ele>
        <time>2016-07-09T13:51:31Z</time>
      </trkpt>
      <trkpt lat="43.25259" lon="-6.7338">
        <ele>916</ele>
        <time>2016-07-09T13:51:45Z</time>
      </trkpt>
      <trkpt lat="43.25254" lon="-6.7339">
        <ele>917.7</ele>
        <time>2016-07-09T13:51:57Z</time>
      </trkpt>
      <trkpt lat="43.25246" lon="-6.73397">
        <ele>919.1</ele>
        <time>2016-07-09T13:52:10Z</time>
      </trkpt>
      <trkpt lat="43.2524" lon="-6.73408">
        <ele>920.4</ele>
        <time>2016-07-09T13:52:20Z</time>
      </trkpt>
      <trkpt lat="43.25233" lon="-6.73417">
        <ele>921.2</ele>
        <time>2016-07-09T13:52:29Z</time>
      </trkpt>
      <trkpt lat="43.25226" lon="-6.73426">
        <ele>922.3</ele>
        <time>2016-07-09T13:52:38Z</time>
      </trkpt>
      <trkpt lat="43.25219" lon="-6.73435">
        <ele>923.3</ele>
        <time>2016-07-09T13:52:47Z</time>
      </trkpt>
      <trkpt lat="43.25212" lon="-6.73444">
        <ele>923.8</ele>
        <time>2016-07-09T13:52:56Z</time>
      </trkpt>
      <trkpt lat="43.25204" lon="-6.73451">
        <ele>924.2</ele>
        <time>2016-07-09T13:53:05Z</time>
      </trkpt>
      <trkpt lat="43.25196" lon="-6.73458">
        <ele>924.6</ele>
        <time>2016-07-09T13:53:14Z</time>
      </trkpt>
      <trkpt lat="43.25188" lon="-6.73466">
        <ele>924.9</ele>
        <time>2016-07-09T13:53:23Z</time>
      </trkpt>
      <trkpt lat="43.2518" lon="-6.73472">
        <ele>925.3</ele>
        <time>2016-07-09T13:53:32Z</time>
      </trkpt>
      <trkpt lat="43.25172" lon="-6.73479">
        <ele>925.6</ele>
        <time>2016-07-09T13:53:41Z</time>
      </trkpt>
      <trkpt lat="43.25165" lon="-6.73487">
        <ele>925.9</ele>
        <time>2016-07-09T13:53:51Z</time>
      </trkpt>
      <trkpt lat="43.25157" lon="-6.73495">
        <ele>926.5</ele>
        <time>2016-07-09T13:54:00Z</time>
      </trkpt>
      <trkpt lat="43.2515" lon="-6.73502">
        <ele>927.2</ele>
        <time>2016-07-09T13:54:10Z</time>
      </trkpt>
      <trkpt lat="43.2514" lon="-6.73506">
        <ele>927.8</ele>
        <time>2016-07-09T13:54:20Z</time>
      </trkpt>
      <trkpt lat="43.25132" lon="-6.73514">
        <ele>928.7</ele>
        <time>2016-07-09T13:54:30Z</time>
      </trkpt>
      <trkpt lat="43.25127" lon="-6.73524">
        <ele>929.7</ele>
        <time>2016-07-09T13:54:39Z</time>
      </trkpt>
      <trkpt lat="43.25123" lon="-6.73536">
        <ele>930.4</ele>
        <time>2016-07-09T13:54:48Z</time>
      </trkpt>
      <trkpt lat="43.25121" lon="-6.73549">
        <ele>931.4</ele>
        <time>2016-07-09T13:54:59Z</time>
      </trkpt>
      <trkpt lat="43.25121" lon="-6.73563">
        <ele>933</ele>
        <time>2016-07-09T13:55:11Z</time>
      </trkpt>
      <trkpt lat="43.25121" lon="-6.73576">
        <ele>934.3</ele>
        <time>2016-07-09T13:55:21Z</time>
      </trkpt>
      <trkpt lat="43.25117" lon="-6.73589">
        <ele>935.7</ele>
        <time>2016-07-09T13:55:31Z</time>
      </trkpt>
      <trkpt lat="43.25113" lon="-6.736">
        <ele>936.3</ele>
        <time>2016-07-09T13:55:39Z</time>
      </trkpt>
      <trkpt lat="43.25108" lon="-6.73611">
        <ele>936.7</ele>
        <time>2016-07-09T13:55:48Z</time>
      </trkpt>
      <trkpt lat="43.25113" lon="-6.73601">
        <ele>936.3</ele>
        <time>2016-07-09T13:56:15Z</time>
      </trkpt>
      <trkpt lat="43.25118" lon="-6.73591">
        <ele>936.6</ele>
        <time>2016-07-09T13:56:27Z</time>
      </trkpt>
      <trkpt lat="43.25111" lon="-6.736">
        <ele>938.1</ele>
        <time>2016-07-09T13:57:19Z</time>
      </trkpt>
      <trkpt lat="43.25105" lon="-6.7361">
        <ele>937.8</ele>
        <time>2016-07-09T13:57:29Z</time>
      </trkpt>
      <trkpt lat="43.251" lon="-6.73621">
        <ele>937.6</ele>
        <time>2016-07-09T13:57:40Z</time>
      </trkpt>
      <trkpt lat="43.25094" lon="-6.73631">
        <ele>937.4</ele>
        <time>2016-07-09T13:57:48Z</time>
      </trkpt>
      <trkpt lat="43.25089" lon="-6.73642">
        <ele>937</ele>
        <time>2016-07-09T13:57:56Z</time>
      </trkpt>
      <trkpt lat="43.25084" lon="-6.73654">
        <ele>936.5</ele>
        <time>2016-07-09T13:58:04Z</time>
      </trkpt>
      <trkpt lat="43.25079" lon="-6.73665">
        <ele>936.1</ele>
        <time>2016-07-09T13:58:12Z</time>
      </trkpt>
      <trkpt lat="43.25075" lon="-6.73677">
        <ele>935.7</ele>
        <time>2016-07-09T13:58:21Z</time>
      </trkpt>
      <trkpt lat="43.25071" lon="-6.73689">
        <ele>935.4</ele>
        <time>2016-07-09T13:58:30Z</time>
      </trkpt>
      <trkpt lat="43.25066" lon="-6.737">
        <ele>934.8</ele>
        <time>2016-07-09T13:58:39Z</time>
      </trkpt>
      <trkpt lat="43.2506" lon="-6.7371">
        <ele>934.5</ele>
        <time>2016-07-09T13:58:48Z</time>
      </trkpt>
      <trkpt lat="43.25055" lon="-6.73721">
        <ele>934.6</ele>
        <time>2016-07-09T13:58:57Z</time>
      </trkpt>
      <trkpt lat="43.25049" lon="-6.73732">
        <ele>934.6</ele>
        <time>2016-07-09T13:59:06Z</time>
      </trkpt>
      <trkpt lat="43.25045" lon="-6.73744">
        <ele>934.7</ele>
        <time>2016-07-09T13:59:14Z</time>
      </trkpt>
      <trkpt lat="43.25041" lon="-6.73756">
        <ele>934.9</ele>
        <time>2016-07-09T13:59:22Z</time>
      </trkpt>
      <trkpt lat="43.25038" lon="-6.73767">
        <ele>935</ele>
        <time>2016-07-09T13:59:30Z</time>
      </trkpt>
      <trkpt lat="43.25035" lon="-6.73779">
        <ele>935.1</ele>
        <time>2016-07-09T13:59:38Z</time>
      </trkpt>
      <trkpt lat="43.25031" lon="-6.73791">
        <ele>935.3</ele>
        <time>2016-07-09T13:59:46Z</time>
      </trkpt>
      <trkpt lat="43.25026" lon="-6.73803">
        <ele>935.7</ele>
        <time>2016-07-09T13:59:55Z</time>
      </trkpt>
      <trkpt lat="43.25022" lon="-6.73814">
        <ele>936.1</ele>
        <time>2016-07-09T14:00:04Z</time>
      </trkpt>
      <trkpt lat="43.25018" lon="-6.73826">
        <ele>936.8</ele>
        <time>2016-07-09T14:00:13Z</time>
      </trkpt>
      <trkpt lat="43.25014" lon="-6.73838">
        <ele>937.2</ele>
        <time>2016-07-09T14:00:23Z</time>
      </trkpt>
      <trkpt lat="43.25009" lon="-6.73849">
        <ele>937.6</ele>
        <time>2016-07-09T14:00:32Z</time>
      </trkpt>
      <trkpt lat="43.25004" lon="-6.73859">
        <ele>937.9</ele>
        <time>2016-07-09T14:00:40Z</time>
      </trkpt>
      <trkpt lat="43.24999" lon="-6.73872">
        <ele>938</ele>
        <time>2016-07-09T14:00:49Z</time>
      </trkpt>
      <trkpt lat="43.24994" lon="-6.73883">
        <ele>938</ele>
        <time>2016-07-09T14:00:58Z</time>
      </trkpt>
      <trkpt lat="43.24987" lon="-6.73892">
        <ele>938.3</ele>
        <time>2016-07-09T14:01:07Z</time>
      </trkpt>
      <trkpt lat="43.24981" lon="-6.73902">
        <ele>938.6</ele>
        <time>2016-07-09T14:01:15Z</time>
      </trkpt>
      <trkpt lat="43.24974" lon="-6.73911">
        <ele>938.8</ele>
        <time>2016-07-09T14:01:23Z</time>
      </trkpt>
      <trkpt lat="43.24968" lon="-6.7392">
        <ele>939</ele>
        <time>2016-07-09T14:01:31Z</time>
      </trkpt>
      <trkpt lat="43.24961" lon="-6.73929">
        <ele>939.1</ele>
        <time>2016-07-09T14:01:39Z</time>
      </trkpt>
      <trkpt lat="43.24954" lon="-6.73939">
        <ele>939.3</ele>
        <time>2016-07-09T14:01:48Z</time>
      </trkpt>
      <trkpt lat="43.24948" lon="-6.73949">
        <ele>939.4</ele>
        <time>2016-07-09T14:01:57Z</time>
      </trkpt>
      <trkpt lat="43.24943" lon="-6.73959">
        <ele>939.5</ele>
        <time>2016-07-09T14:02:07Z</time>
      </trkpt>
      <trkpt lat="43.24935" lon="-6.73968">
        <ele>939.7</ele>
        <time>2016-07-09T14:02:16Z</time>
      </trkpt>
      <trkpt lat="43.24928" lon="-6.73977">
        <ele>939.9</ele>
        <time>2016-07-09T14:02:24Z</time>
      </trkpt>
      <trkpt lat="43.24922" lon="-6.73987">
        <ele>940.2</ele>
        <time>2016-07-09T14:02:32Z</time>
      </trkpt>
      <trkpt lat="43.24917" lon="-6.73997">
        <ele>940.4</ele>
        <time>2016-07-09T14:02:40Z</time>
      </trkpt>
      <trkpt lat="43.2491" lon="-6.74006">
        <ele>940.4</ele>
        <time>2016-07-09T14:02:50Z</time>
      </trkpt>
      <trkpt lat="43.24904" lon="-6.74017">
        <ele>940.4</ele>
        <time>2016-07-09T14:03:00Z</time>
      </trkpt>
      <trkpt lat="43.24898" lon="-6.74026">
        <ele>940.8</ele>
        <time>2016-07-09T14:03:11Z</time>
      </trkpt>
      <trkpt lat="43.2489" lon="-6.74033">
        <ele>941</ele>
        <time>2016-07-09T14:03:20Z</time>
      </trkpt>
      <trkpt lat="43.24883" lon="-6.74042">
        <ele>941.1</ele>
        <time>2016-07-09T14:03:29Z</time>
      </trkpt>
      <trkpt lat="43.24876" lon="-6.74052">
        <ele>941.5</ele>
        <time>2016-07-09T14:03:40Z</time>
      </trkpt>
      <trkpt lat="43.24868" lon="-6.7406">
        <ele>941.6</ele>
        <time>2016-07-09T14:03:48Z</time>
      </trkpt>
      <trkpt lat="43.24861" lon="-6.74067">
        <ele>941.6</ele>
        <time>2016-07-09T14:03:57Z</time>
      </trkpt>
      <trkpt lat="43.24854" lon="-6.74077">
        <ele>941.6</ele>
        <time>2016-07-09T14:04:07Z</time>
      </trkpt>
      <trkpt lat="43.24846" lon="-6.74084">
        <ele>941.9</ele>
        <time>2016-07-09T14:04:16Z</time>
      </trkpt>
      <trkpt lat="43.24839" lon="-6.74091">
        <ele>942</ele>
        <time>2016-07-09T14:04:30Z</time>
      </trkpt>
      <trkpt lat="43.24833" lon="-6.74101">
        <ele>942.1</ele>
        <time>2016-07-09T14:04:42Z</time>
      </trkpt>
      <trkpt lat="43.24827" lon="-6.74112">
        <ele>942</ele>
        <time>2016-07-09T14:04:51Z</time>
      </trkpt>
      <trkpt lat="43.2482" lon="-6.74122">
        <ele>942</ele>
        <time>2016-07-09T14:04:59Z</time>
      </trkpt>
      <trkpt lat="43.24812" lon="-6.74131">
        <ele>942</ele>
        <time>2016-07-09T14:05:07Z</time>
      </trkpt>
      <trkpt lat="43.24807" lon="-6.74142">
        <ele>942.4</ele>
        <time>2016-07-09T14:05:16Z</time>
      </trkpt>
      <trkpt lat="43.24801" lon="-6.74153">
        <ele>942.9</ele>
        <time>2016-07-09T14:05:29Z</time>
      </trkpt>
      <trkpt lat="43.24796" lon="-6.74164">
        <ele>943.3</ele>
        <time>2016-07-09T14:05:39Z</time>
      </trkpt>
      <trkpt lat="43.2479" lon="-6.74174">
        <ele>943.9</ele>
        <time>2016-07-09T14:05:48Z</time>
      </trkpt>
      <trkpt lat="43.24784" lon="-6.74185">
        <ele>944.3</ele>
        <time>2016-07-09T14:05:55Z</time>
      </trkpt>
      <trkpt lat="43.24779" lon="-6.74197">
        <ele>944.6</ele>
        <time>2016-07-09T14:06:03Z</time>
      </trkpt>
      <trkpt lat="43.24774" lon="-6.74208">
        <ele>944.8</ele>
        <time>2016-07-09T14:06:11Z</time>
      </trkpt>
      <trkpt lat="43.24771" lon="-6.74219">
        <ele>945</ele>
        <time>2016-07-09T14:06:23Z</time>
      </trkpt>
      <trkpt lat="43.24766" lon="-6.74231">
        <ele>945.3</ele>
        <time>2016-07-09T14:06:33Z</time>
      </trkpt>
      <trkpt lat="43.24762" lon="-6.74242">
        <ele>945.7</ele>
        <time>2016-07-09T14:06:42Z</time>
      </trkpt>
      <trkpt lat="43.24757" lon="-6.74254">
        <ele>945.9</ele>
        <time>2016-07-09T14:06:52Z</time>
      </trkpt>
      <trkpt lat="43.24754" lon="-6.74266">
        <ele>946</ele>
        <time>2016-07-09T14:07:01Z</time>
      </trkpt>
      <trkpt lat="43.2475" lon="-6.74277">
        <ele>946.1</ele>
        <time>2016-07-09T14:07:10Z</time>
      </trkpt>
      <trkpt lat="43.24745" lon="-6.74288">
        <ele>946.2</ele>
        <time>2016-07-09T14:07:20Z</time>
      </trkpt>
      <trkpt lat="43.24739" lon="-6.74298">
        <ele>946.2</ele>
        <time>2016-07-09T14:07:28Z</time>
      </trkpt>
      <trkpt lat="43.24733" lon="-6.74308">
        <ele>946.1</ele>
        <time>2016-07-09T14:07:38Z</time>
      </trkpt>
      <trkpt lat="43.24729" lon="-6.74321">
        <ele>945.3</ele>
        <time>2016-07-09T14:07:49Z</time>
      </trkpt>
      <trkpt lat="43.24721" lon="-6.74328">
        <ele>944.7</ele>
        <time>2016-07-09T14:07:57Z</time>
      </trkpt>
      <trkpt lat="43.24714" lon="-6.74337">
        <ele>944.4</ele>
        <time>2016-07-09T14:08:04Z</time>
      </trkpt>
      <trkpt lat="43.24707" lon="-6.74346">
        <ele>944.2</ele>
        <time>2016-07-09T14:08:12Z</time>
      </trkpt>
      <trkpt lat="43.24701" lon="-6.74355">
        <ele>943.9</ele>
        <time>2016-07-09T14:08:19Z</time>
      </trkpt>
      <trkpt lat="43.24697" lon="-6.74366">
        <ele>943.5</ele>
        <time>2016-07-09T14:08:27Z</time>
      </trkpt>
      <trkpt lat="43.24696" lon="-6.7438">
        <ele>943.2</ele>
        <time>2016-07-09T14:08:35Z</time>
      </trkpt>
      <trkpt lat="43.24694" lon="-6.74392">
        <ele>942.7</ele>
        <time>2016-07-09T14:08:42Z</time>
      </trkpt>
      <trkpt lat="43.24694" lon="-6.74405">
        <ele>942.1</ele>
        <time>2016-07-09T14:08:50Z</time>
      </trkpt>
      <trkpt lat="43.24692" lon="-6.74419">
        <ele>941.7</ele>
        <time>2016-07-09T14:08:59Z</time>
      </trkpt>
      <trkpt lat="43.24689" lon="-6.7443">
        <ele>941.6</ele>
        <time>2016-07-09T14:09:09Z</time>
      </trkpt>
      <trkpt lat="43.24683" lon="-6.74441">
        <ele>941.4</ele>
        <time>2016-07-09T14:09:19Z</time>
      </trkpt>
      <trkpt lat="43.24678" lon="-6.74452">
        <ele>941.3</ele>
        <time>2016-07-09T14:09:28Z</time>
      </trkpt>
      <trkpt lat="43.24673" lon="-6.74464">
        <ele>941.2</ele>
        <time>2016-07-09T14:09:37Z</time>
      </trkpt>
      <trkpt lat="43.24667" lon="-6.74474">
        <ele>941.2</ele>
        <time>2016-07-09T14:09:46Z</time>
      </trkpt>
      <trkpt lat="43.24661" lon="-6.74483">
        <ele>941.1</ele>
        <time>2016-07-09T14:09:54Z</time>
      </trkpt>
      <trkpt lat="43.24654" lon="-6.74493">
        <ele>941.4</ele>
        <time>2016-07-09T14:10:02Z</time>
      </trkpt>
      <trkpt lat="43.24647" lon="-6.74503">
        <ele>941.5</ele>
        <time>2016-07-09T14:10:11Z</time>
      </trkpt>
      <trkpt lat="43.24641" lon="-6.74513">
        <ele>941.4</ele>
        <time>2016-07-09T14:10:19Z</time>
      </trkpt>
      <trkpt lat="43.24635" lon="-6.74523">
        <ele>941.6</ele>
        <time>2016-07-09T14:10:27Z</time>
      </trkpt>
      <trkpt lat="43.2463" lon="-6.74535">
        <ele>941.7</ele>
        <time>2016-07-09T14:10:35Z</time>
      </trkpt>
      <trkpt lat="43.24623" lon="-6.74544">
        <ele>941.8</ele>
        <time>2016-07-09T14:10:43Z</time>
      </trkpt>
      <trkpt lat="43.24616" lon="-6.74553">
        <ele>942.2</ele>
        <time>2016-07-09T14:10:52Z</time>
      </trkpt>
      <trkpt lat="43.24609" lon="-6.74562">
        <ele>942.6</ele>
        <time>2016-07-09T14:11:02Z</time>
      </trkpt>
      <trkpt lat="43.24602" lon="-6.74571">
        <ele>942.9</ele>
        <time>2016-07-09T14:11:11Z</time>
      </trkpt>
      <trkpt lat="43.24596" lon="-6.74581">
        <ele>943.1</ele>
        <time>2016-07-09T14:11:20Z</time>
      </trkpt>
      <trkpt lat="43.24589" lon="-6.7459">
        <ele>943.8</ele>
        <time>2016-07-09T14:11:28Z</time>
      </trkpt>
      <trkpt lat="43.24583" lon="-6.74601">
        <ele>944.2</ele>
        <time>2016-07-09T14:11:36Z</time>
      </trkpt>
      <trkpt lat="43.24577" lon="-6.74611">
        <ele>944.8</ele>
        <time>2016-07-09T14:11:46Z</time>
      </trkpt>
      <trkpt lat="43.24572" lon="-6.74622">
        <ele>945.3</ele>
        <time>2016-07-09T14:11:54Z</time>
      </trkpt>
      <trkpt lat="43.24566" lon="-6.74633">
        <ele>945.9</ele>
        <time>2016-07-09T14:12:03Z</time>
      </trkpt>
      <trkpt lat="43.24559" lon="-6.74642">
        <ele>946.3</ele>
        <time>2016-07-09T14:12:11Z</time>
      </trkpt>
      <trkpt lat="43.24554" lon="-6.74654">
        <ele>946.5</ele>
        <time>2016-07-09T14:12:19Z</time>
      </trkpt>
      <trkpt lat="43.24548" lon="-6.74665">
        <ele>947</ele>
        <time>2016-07-09T14:12:28Z</time>
      </trkpt>
      <trkpt lat="43.24543" lon="-6.74677">
        <ele>947.2</ele>
        <time>2016-07-09T14:12:37Z</time>
      </trkpt>
      <trkpt lat="43.24539" lon="-6.74688">
        <ele>947.2</ele>
        <time>2016-07-09T14:12:44Z</time>
      </trkpt>
      <trkpt lat="43.24535" lon="-6.747">
        <ele>946.8</ele>
        <time>2016-07-09T14:12:52Z</time>
      </trkpt>
      <trkpt lat="43.24529" lon="-6.74711">
        <ele>946.6</ele>
        <time>2016-07-09T14:13:00Z</time>
      </trkpt>
      <trkpt lat="43.24523" lon="-6.74722">
        <ele>946.5</ele>
        <time>2016-07-09T14:13:08Z</time>
      </trkpt>
      <trkpt lat="43.24517" lon="-6.74733">
        <ele>946.6</ele>
        <time>2016-07-09T14:13:16Z</time>
      </trkpt>
      <trkpt lat="43.24512" lon="-6.74745">
        <ele>946.5</ele>
        <time>2016-07-09T14:13:25Z</time>
      </trkpt>
      <trkpt lat="43.24507" lon="-6.74757">
        <ele>946.5</ele>
        <time>2016-07-09T14:13:36Z</time>
      </trkpt>
      <trkpt lat="43.24502" lon="-6.74768">
        <ele>946.6</ele>
        <time>2016-07-09T14:13:44Z</time>
      </trkpt>
      <trkpt lat="43.24498" lon="-6.74779">
        <ele>946.6</ele>
        <time>2016-07-09T14:13:52Z</time>
      </trkpt>
      <trkpt lat="43.24494" lon="-6.74791">
        <ele>946.9</ele>
        <time>2016-07-09T14:14:00Z</time>
      </trkpt>
      <trkpt lat="43.24489" lon="-6.74803">
        <ele>947.3</ele>
        <time>2016-07-09T14:14:09Z</time>
      </trkpt>
      <trkpt lat="43.24483" lon="-6.74812">
        <ele>948</ele>
        <time>2016-07-09T14:14:17Z</time>
      </trkpt>
      <trkpt lat="43.24476" lon="-6.74822">
        <ele>948.4</ele>
        <time>2016-07-09T14:14:25Z</time>
      </trkpt>
      <trkpt lat="43.24472" lon="-6.74834">
        <ele>948.7</ele>
        <time>2016-07-09T14:14:33Z</time>
      </trkpt>
      <trkpt lat="43.24467" lon="-6.74846">
        <ele>948.9</ele>
        <time>2016-07-09T14:14:41Z</time>
      </trkpt>
      <trkpt lat="43.24462" lon="-6.74856">
        <ele>949</ele>
        <time>2016-07-09T14:14:49Z</time>
      </trkpt>
      <trkpt lat="43.24456" lon="-6.74867">
        <ele>949</ele>
        <time>2016-07-09T14:14:57Z</time>
      </trkpt>
      <trkpt lat="43.24451" lon="-6.74879">
        <ele>948.9</ele>
        <time>2016-07-09T14:15:03Z</time>
      </trkpt>
      <trkpt lat="43.24448" lon="-6.74892">
        <ele>948.9</ele>
        <time>2016-07-09T14:15:11Z</time>
      </trkpt>
      <trkpt lat="43.24445" lon="-6.74905">
        <ele>949</ele>
        <time>2016-07-09T14:15:19Z</time>
      </trkpt>
      <trkpt lat="43.24441" lon="-6.74918">
        <ele>949</ele>
        <time>2016-07-09T14:15:27Z</time>
      </trkpt>
      <trkpt lat="43.24438" lon="-6.74931">
        <ele>949.1</ele>
        <time>2016-07-09T14:15:35Z</time>
      </trkpt>
      <trkpt lat="43.24436" lon="-6.74944">
        <ele>948.8</ele>
        <time>2016-07-09T14:15:43Z</time>
      </trkpt>
      <trkpt lat="43.24435" lon="-6.74957">
        <ele>948.5</ele>
        <time>2016-07-09T14:15:52Z</time>
      </trkpt>
      <trkpt lat="43.24433" lon="-6.7497">
        <ele>948.4</ele>
        <time>2016-07-09T14:16:00Z</time>
      </trkpt>
      <trkpt lat="43.24431" lon="-6.74982">
        <ele>948.3</ele>
        <time>2016-07-09T14:16:09Z</time>
      </trkpt>
      <trkpt lat="43.2443" lon="-6.74996">
        <ele>948.1</ele>
        <time>2016-07-09T14:16:18Z</time>
      </trkpt>
      <trkpt lat="43.24426" lon="-6.75009">
        <ele>948.1</ele>
        <time>2016-07-09T14:16:26Z</time>
      </trkpt>
      <trkpt lat="43.24422" lon="-6.7502">
        <ele>948.3</ele>
        <time>2016-07-09T14:16:33Z</time>
      </trkpt>
      <trkpt lat="43.24419" lon="-6.75032">
        <ele>948.8</ele>
        <time>2016-07-09T14:16:40Z</time>
      </trkpt>
      <trkpt lat="43.24418" lon="-6.75045">
        <ele>948.8</ele>
        <time>2016-07-09T14:16:49Z</time>
      </trkpt>
      <trkpt lat="43.24416" lon="-6.75059">
        <ele>948.8</ele>
        <time>2016-07-09T14:16:58Z</time>
      </trkpt>
      <trkpt lat="43.24413" lon="-6.75072">
        <ele>948.8</ele>
        <time>2016-07-09T14:17:06Z</time>
      </trkpt>
      <trkpt lat="43.24413" lon="-6.75085">
        <ele>948.8</ele>
        <time>2016-07-09T14:17:14Z</time>
      </trkpt>
      <trkpt lat="43.24411" lon="-6.75098">
        <ele>948.8</ele>
        <time>2016-07-09T14:17:22Z</time>
      </trkpt>
      <trkpt lat="43.2441" lon="-6.75111">
        <ele>948.8</ele>
        <time>2016-07-09T14:17:30Z</time>
      </trkpt>
      <trkpt lat="43.24409" lon="-6.75124">
        <ele>948.5</ele>
        <time>2016-07-09T14:17:38Z</time>
      </trkpt>
      <trkpt lat="43.2441" lon="-6.75137">
        <ele>948.2</ele>
        <time>2016-07-09T14:17:46Z</time>
      </trkpt>
      <trkpt lat="43.24409" lon="-6.7515">
        <ele>948</ele>
        <time>2016-07-09T14:17:54Z</time>
      </trkpt>
      <trkpt lat="43.24411" lon="-6.75163">
        <ele>947.7</ele>
        <time>2016-07-09T14:18:03Z</time>
      </trkpt>
      <trkpt lat="43.24415" lon="-6.75174">
        <ele>947.4</ele>
        <time>2016-07-09T14:18:13Z</time>
      </trkpt>
      <trkpt lat="43.24418" lon="-6.75186">
        <ele>947.3</ele>
        <time>2016-07-09T14:18:22Z</time>
      </trkpt>
      <trkpt lat="43.24419" lon="-6.75199">
        <ele>947.8</ele>
        <time>2016-07-09T14:18:31Z</time>
      </trkpt>
      <trkpt lat="43.24418" lon="-6.75212">
        <ele>947.3</ele>
        <time>2016-07-09T14:18:40Z</time>
      </trkpt>
      <trkpt lat="43.24418" lon="-6.75226">
        <ele>947.1</ele>
        <time>2016-07-09T14:18:48Z</time>
      </trkpt>
      <trkpt lat="43.24417" lon="-6.75239">
        <ele>946.7</ele>
        <time>2016-07-09T14:18:57Z</time>
      </trkpt>
      <trkpt lat="43.24418" lon="-6.75252">
        <ele>946.4</ele>
        <time>2016-07-09T14:19:06Z</time>
      </trkpt>
      <trkpt lat="43.24417" lon="-6.75264">
        <ele>946.2</ele>
        <time>2016-07-09T14:19:14Z</time>
      </trkpt>
      <trkpt lat="43.24415" lon="-6.75277">
        <ele>946.1</ele>
        <time>2016-07-09T14:19:22Z</time>
      </trkpt>
      <trkpt lat="43.24412" lon="-6.75289">
        <ele>946.1</ele>
        <time>2016-07-09T14:19:30Z</time>
      </trkpt>
      <trkpt lat="43.24412" lon="-6.75303">
        <ele>945.9</ele>
        <time>2016-07-09T14:19:38Z</time>
      </trkpt>
      <trkpt lat="43.24409" lon="-6.75316">
        <ele>945.6</ele>
        <time>2016-07-09T14:19:47Z</time>
      </trkpt>
      <trkpt lat="43.24402" lon="-6.75324">
        <ele>945.5</ele>
        <time>2016-07-09T14:19:54Z</time>
      </trkpt>
      <trkpt lat="43.24393" lon="-6.7533">
        <ele>944.8</ele>
        <time>2016-07-09T14:20:08Z</time>
      </trkpt>
      <trkpt lat="43.24384" lon="-6.75335">
        <ele>944.7</ele>
        <time>2016-07-09T14:20:16Z</time>
      </trkpt>
      <trkpt lat="43.24377" lon="-6.75344">
        <ele>944.3</ele>
        <time>2016-07-09T14:20:26Z</time>
      </trkpt>
      <trkpt lat="43.24374" lon="-6.75356">
        <ele>944.1</ele>
        <time>2016-07-09T14:20:37Z</time>
      </trkpt>
      <trkpt lat="43.24369" lon="-6.75368">
        <ele>944.2</ele>
        <time>2016-07-09T14:20:46Z</time>
      </trkpt>
      <trkpt lat="43.24365" lon="-6.7538">
        <ele>944.2</ele>
        <time>2016-07-09T14:20:55Z</time>
      </trkpt>
      <trkpt lat="43.24358" lon="-6.7539">
        <ele>944.2</ele>
        <time>2016-07-09T14:21:04Z</time>
      </trkpt>
      <trkpt lat="43.24354" lon="-6.75403">
        <ele>944.1</ele>
        <time>2016-07-09T14:21:12Z</time>
      </trkpt>
      <trkpt lat="43.24348" lon="-6.75413">
        <ele>944</ele>
        <time>2016-07-09T14:21:19Z</time>
      </trkpt>
      <trkpt lat="43.24343" lon="-6.75423">
        <ele>943.9</ele>
        <time>2016-07-09T14:21:29Z</time>
      </trkpt>
      <trkpt lat="43.24337" lon="-6.75435">
        <ele>944</ele>
        <time>2016-07-09T14:21:38Z</time>
      </trkpt>
      <trkpt lat="43.24334" lon="-6.75447">
        <ele>944</ele>
        <time>2016-07-09T14:21:46Z</time>
      </trkpt>
      <trkpt lat="43.2433" lon="-6.75459">
        <ele>943.9</ele>
        <time>2016-07-09T14:21:55Z</time>
      </trkpt>
      <trkpt lat="43.24326" lon="-6.75471">
        <ele>944</ele>
        <time>2016-07-09T14:22:03Z</time>
      </trkpt>
      <trkpt lat="43.24322" lon="-6.75484">
        <ele>944.1</ele>
        <time>2016-07-09T14:22:12Z</time>
      </trkpt>
      <trkpt lat="43.24316" lon="-6.75494">
        <ele>944.5</ele>
        <time>2016-07-09T14:22:20Z</time>
      </trkpt>
      <trkpt lat="43.24312" lon="-6.75506">
        <ele>944.7</ele>
        <time>2016-07-09T14:22:28Z</time>
      </trkpt>
      <trkpt lat="43.24307" lon="-6.75519">
        <ele>944.9</ele>
        <time>2016-07-09T14:22:37Z</time>
      </trkpt>
      <trkpt lat="43.24304" lon="-6.7553">
        <ele>945.1</ele>
        <time>2016-07-09T14:22:45Z</time>
      </trkpt>
      <trkpt lat="43.24298" lon="-6.75541">
        <ele>945.4</ele>
        <time>2016-07-09T14:22:53Z</time>
      </trkpt>
      <trkpt lat="43.24292" lon="-6.75551">
        <ele>945.7</ele>
        <time>2016-07-09T14:23:02Z</time>
      </trkpt>
      <trkpt lat="43.24288" lon="-6.75562">
        <ele>945.9</ele>
        <time>2016-07-09T14:23:11Z</time>
      </trkpt>
      <trkpt lat="43.24283" lon="-6.75575">
        <ele>946.3</ele>
        <time>2016-07-09T14:23:20Z</time>
      </trkpt>
      <trkpt lat="43.2428" lon="-6.75587">
        <ele>947.2</ele>
        <time>2016-07-09T14:23:29Z</time>
      </trkpt>
      <trkpt lat="43.24278" lon="-6.75599">
        <ele>947.8</ele>
        <time>2016-07-09T14:23:37Z</time>
      </trkpt>
      <trkpt lat="43.24273" lon="-6.75612">
        <ele>948.8</ele>
        <time>2016-07-09T14:23:46Z</time>
      </trkpt>
      <trkpt lat="43.24268" lon="-6.75623">
        <ele>949.4</ele>
        <time>2016-07-09T14:23:54Z</time>
      </trkpt>
      <trkpt lat="43.24265" lon="-6.75636">
        <ele>950.3</ele>
        <time>2016-07-09T14:24:03Z</time>
      </trkpt>
      <trkpt lat="43.24261" lon="-6.75649">
        <ele>951.2</ele>
        <time>2016-07-09T14:24:12Z</time>
      </trkpt>
      <trkpt lat="43.24258" lon="-6.75661">
        <ele>952.1</ele>
        <time>2016-07-09T14:24:20Z</time>
      </trkpt>
      <trkpt lat="43.24255" lon="-6.75674">
        <ele>952.8</ele>
        <time>2016-07-09T14:24:29Z</time>
      </trkpt>
      <trkpt lat="43.24253" lon="-6.75687">
        <ele>953.6</ele>
        <time>2016-07-09T14:24:38Z</time>
      </trkpt>
      <trkpt lat="43.2425" lon="-6.75699">
        <ele>954</ele>
        <time>2016-07-09T14:24:46Z</time>
      </trkpt>
      <trkpt lat="43.24247" lon="-6.75711">
        <ele>954.2</ele>
        <time>2016-07-09T14:24:54Z</time>
      </trkpt>
      <trkpt lat="43.24243" lon="-6.75723">
        <ele>954.4</ele>
        <time>2016-07-09T14:25:05Z</time>
      </trkpt>
      <trkpt lat="43.2424" lon="-6.75736">
        <ele>954.4</ele>
        <time>2016-07-09T14:25:14Z</time>
      </trkpt>
      <trkpt lat="43.24238" lon="-6.75749">
        <ele>954.4</ele>
        <time>2016-07-09T14:25:23Z</time>
      </trkpt>
      <trkpt lat="43.24238" lon="-6.75763">
        <ele>954.4</ele>
        <time>2016-07-09T14:25:32Z</time>
      </trkpt>
      <trkpt lat="43.24235" lon="-6.75775">
        <ele>954.4</ele>
        <time>2016-07-09T14:25:40Z</time>
      </trkpt>
      <trkpt lat="43.2423" lon="-6.75786">
        <ele>954.4</ele>
        <time>2016-07-09T14:25:47Z</time>
      </trkpt>
      <trkpt lat="43.24224" lon="-6.75797">
        <ele>954.4</ele>
        <time>2016-07-09T14:25:55Z</time>
      </trkpt>
      <trkpt lat="43.24219" lon="-6.75808">
        <ele>953.8</ele>
        <time>2016-07-09T14:26:03Z</time>
      </trkpt>
      <trkpt lat="43.24214" lon="-6.75818">
        <ele>953.3</ele>
        <time>2016-07-09T14:26:11Z</time>
      </trkpt>
      <trkpt lat="43.24209" lon="-6.75829">
        <ele>953</ele>
        <time>2016-07-09T14:26:19Z</time>
      </trkpt>
      <trkpt lat="43.24203" lon="-6.75841">
        <ele>952.8</ele>
        <time>2016-07-09T14:26:27Z</time>
      </trkpt>
      <trkpt lat="43.24198" lon="-6.75852">
        <ele>952.7</ele>
        <time>2016-07-09T14:26:35Z</time>
      </trkpt>
      <trkpt lat="43.24194" lon="-6.75864">
        <ele>952.7</ele>
        <time>2016-07-09T14:26:43Z</time>
      </trkpt>
      <trkpt lat="43.24189" lon="-6.75876">
        <ele>952.6</ele>
        <time>2016-07-09T14:26:52Z</time>
      </trkpt>
      <trkpt lat="43.24184" lon="-6.75888">
        <ele>952.5</ele>
        <time>2016-07-09T14:27:01Z</time>
      </trkpt>
      <trkpt lat="43.24179" lon="-6.759">
        <ele>951.9</ele>
        <time>2016-07-09T14:27:10Z</time>
      </trkpt>
      <trkpt lat="43.24174" lon="-6.7591">
        <ele>951.5</ele>
        <time>2016-07-09T14:27:18Z</time>
      </trkpt>
      <trkpt lat="43.24169" lon="-6.7592">
        <ele>951.3</ele>
        <time>2016-07-09T14:27:26Z</time>
      </trkpt>
      <trkpt lat="43.24163" lon="-6.7593">
        <ele>951.1</ele>
        <time>2016-07-09T14:27:34Z</time>
      </trkpt>
      <trkpt lat="43.24156" lon="-6.7594">
        <ele>950.9</ele>
        <time>2016-07-09T14:27:42Z</time>
      </trkpt>
      <trkpt lat="43.24149" lon="-6.75948">
        <ele>950.8</ele>
        <time>2016-07-09T14:27:50Z</time>
      </trkpt>
      <trkpt lat="43.24142" lon="-6.75956">
        <ele>950.7</ele>
        <time>2016-07-09T14:27:58Z</time>
      </trkpt>
      <trkpt lat="43.24134" lon="-6.75964">
        <ele>950.4</ele>
        <time>2016-07-09T14:28:06Z</time>
      </trkpt>
      <trkpt lat="43.24126" lon="-6.75972">
        <ele>950.1</ele>
        <time>2016-07-09T14:28:15Z</time>
      </trkpt>
      <trkpt lat="43.24121" lon="-6.75983">
        <ele>949.9</ele>
        <time>2016-07-09T14:28:24Z</time>
      </trkpt>
      <trkpt lat="43.24114" lon="-6.75993">
        <ele>950</ele>
        <time>2016-07-09T14:28:32Z</time>
      </trkpt>
      <trkpt lat="43.24108" lon="-6.76002">
        <ele>950</ele>
        <time>2016-07-09T14:28:40Z</time>
      </trkpt>
      <trkpt lat="43.24101" lon="-6.76011">
        <ele>949.6</ele>
        <time>2016-07-09T14:28:48Z</time>
      </trkpt>
      <trkpt lat="43.24094" lon="-6.7602">
        <ele>949.4</ele>
        <time>2016-07-09T14:28:56Z</time>
      </trkpt>
      <trkpt lat="43.24089" lon="-6.76031">
        <ele>949.2</ele>
        <time>2016-07-09T14:29:05Z</time>
      </trkpt>
      <trkpt lat="43.24082" lon="-6.76041">
        <ele>949.1</ele>
        <time>2016-07-09T14:29:14Z</time>
      </trkpt>
      <trkpt lat="43.24075" lon="-6.76051">
        <ele>949.1</ele>
        <time>2016-07-09T14:29:23Z</time>
      </trkpt>
      <trkpt lat="43.24069" lon="-6.7606">
        <ele>948.9</ele>
        <time>2016-07-09T14:29:31Z</time>
      </trkpt>
      <trkpt lat="43.24063" lon="-6.76071">
        <ele>948.7</ele>
        <time>2016-07-09T14:29:40Z</time>
      </trkpt>
      <trkpt lat="43.24058" lon="-6.76082">
        <ele>948.6</ele>
        <time>2016-07-09T14:29:49Z</time>
      </trkpt>
      <trkpt lat="43.24052" lon="-6.76093">
        <ele>948.5</ele>
        <time>2016-07-09T14:29:58Z</time>
      </trkpt>
      <trkpt lat="43.24045" lon="-6.76102">
        <ele>948.5</ele>
        <time>2016-07-09T14:30:07Z</time>
      </trkpt>
      <trkpt lat="43.24038" lon="-6.76111">
        <ele>948.3</ele>
        <time>2016-07-09T14:30:16Z</time>
      </trkpt>
      <trkpt lat="43.2403" lon="-6.76119">
        <ele>947.9</ele>
        <time>2016-07-09T14:30:24Z</time>
      </trkpt>
      <trkpt lat="43.24023" lon="-6.76127">
        <ele>947.7</ele>
        <time>2016-07-09T14:30:31Z</time>
      </trkpt>
      <trkpt lat="43.24017" lon="-6.76136">
        <ele>947.5</ele>
        <time>2016-07-09T14:30:40Z</time>
      </trkpt>
      <trkpt lat="43.2401" lon="-6.76144">
        <ele>947.4</ele>
        <time>2016-07-09T14:30:48Z</time>
      </trkpt>
      <trkpt lat="43.24002" lon="-6.76153">
        <ele>947.4</ele>
        <time>2016-07-09T14:30:56Z</time>
      </trkpt>
      <trkpt lat="43.23995" lon="-6.76162">
        <ele>947.4</ele>
        <time>2016-07-09T14:31:04Z</time>
      </trkpt>
      <trkpt lat="43.23988" lon="-6.7617">
        <ele>947.3</ele>
        <time>2016-07-09T14:31:12Z</time>
      </trkpt>
      <trkpt lat="43.23982" lon="-6.7618">
        <ele>947.2</ele>
        <time>2016-07-09T14:31:20Z</time>
      </trkpt>
      <trkpt lat="43.23976" lon="-6.7619">
        <ele>947.2</ele>
        <time>2016-07-09T14:31:28Z</time>
      </trkpt>
      <trkpt lat="43.23971" lon="-6.76201">
        <ele>947.1</ele>
        <time>2016-07-09T14:31:37Z</time>
      </trkpt>
      <trkpt lat="43.23966" lon="-6.76212">
        <ele>947.2</ele>
        <time>2016-07-09T14:31:46Z</time>
      </trkpt>
      <trkpt lat="43.2396" lon="-6.76223">
        <ele>947.6</ele>
        <time>2016-07-09T14:31:54Z</time>
      </trkpt>
      <trkpt lat="43.23954" lon="-6.76234">
        <ele>947.4</ele>
        <time>2016-07-09T14:32:02Z</time>
      </trkpt>
      <trkpt lat="43.23947" lon="-6.76243">
        <ele>945.9</ele>
        <time>2016-07-09T14:32:10Z</time>
      </trkpt>
      <trkpt lat="43.23942" lon="-6.76253">
        <ele>949.7</ele>
        <time>2016-07-09T14:32:18Z</time>
      </trkpt>
      <trkpt lat="43.23937" lon="-6.76265">
        <ele>949.5</ele>
        <time>2016-07-09T14:32:27Z</time>
      </trkpt>
      <trkpt lat="43.23932" lon="-6.76275">
        <ele>950.3</ele>
        <time>2016-07-09T14:32:35Z</time>
      </trkpt>
      <trkpt lat="43.23927" lon="-6.76285">
        <ele>950.2</ele>
        <time>2016-07-09T14:32:43Z</time>
      </trkpt>
      <trkpt lat="43.23921" lon="-6.76295">
        <ele>949.9</ele>
        <time>2016-07-09T14:32:51Z</time>
      </trkpt>
      <trkpt lat="43.23914" lon="-6.76305">
        <ele>949.6</ele>
        <time>2016-07-09T14:32:59Z</time>
      </trkpt>
      <trkpt lat="43.23908" lon="-6.76315">
        <ele>949.4</ele>
        <time>2016-07-09T14:33:08Z</time>
      </trkpt>
      <trkpt lat="43.23902" lon="-6.76324">
        <ele>949.2</ele>
        <time>2016-07-09T14:33:17Z</time>
      </trkpt>
      <trkpt lat="43.23895" lon="-6.76334">
        <ele>949</ele>
        <time>2016-07-09T14:33:25Z</time>
      </trkpt>
      <trkpt lat="43.23889" lon="-6.76345">
        <ele>948.6</ele>
        <time>2016-07-09T14:33:34Z</time>
      </trkpt>
      <trkpt lat="43.23883" lon="-6.76355">
        <ele>948.3</ele>
        <time>2016-07-09T14:33:42Z</time>
      </trkpt>
      <trkpt lat="43.23877" lon="-6.76364">
        <ele>947.6</ele>
        <time>2016-07-09T14:33:50Z</time>
      </trkpt>
      <trkpt lat="43.23872" lon="-6.76375">
        <ele>947.2</ele>
        <time>2016-07-09T14:33:58Z</time>
      </trkpt>
      <trkpt lat="43.23866" lon="-6.76386">
        <ele>946.7</ele>
        <time>2016-07-09T14:34:07Z</time>
      </trkpt>
      <trkpt lat="43.2386" lon="-6.76396">
        <ele>945.9</ele>
        <time>2016-07-09T14:34:15Z</time>
      </trkpt>
      <trkpt lat="43.23854" lon="-6.76405">
        <ele>945.4</ele>
        <time>2016-07-09T14:34:23Z</time>
      </trkpt>
      <trkpt lat="43.23846" lon="-6.76412">
        <ele>945.1</ele>
        <time>2016-07-09T14:34:31Z</time>
      </trkpt>
      <trkpt lat="43.23837" lon="-6.76419">
        <ele>944.4</ele>
        <time>2016-07-09T14:34:39Z</time>
      </trkpt>
      <trkpt lat="43.23829" lon="-6.76426">
        <ele>943.8</ele>
        <time>2016-07-09T14:34:48Z</time>
      </trkpt>
      <trkpt lat="43.2382" lon="-6.76432">
        <ele>943</ele>
        <time>2016-07-09T14:34:57Z</time>
      </trkpt>
      <trkpt lat="43.23813" lon="-6.7644">
        <ele>942</ele>
        <time>2016-07-09T14:35:08Z</time>
      </trkpt>
      <trkpt lat="43.23805" lon="-6.76446">
        <ele>941.3</ele>
        <time>2016-07-09T14:35:17Z</time>
      </trkpt>
      <trkpt lat="43.23797" lon="-6.76454">
        <ele>940.8</ele>
        <time>2016-07-09T14:35:26Z</time>
      </trkpt>
      <trkpt lat="43.23789" lon="-6.7646">
        <ele>940.4</ele>
        <time>2016-07-09T14:35:34Z</time>
      </trkpt>
      <trkpt lat="43.23782" lon="-6.76467">
        <ele>939.6</ele>
        <time>2016-07-09T14:35:43Z</time>
      </trkpt>
      <trkpt lat="43.23774" lon="-6.76475">
        <ele>938.5</ele>
        <time>2016-07-09T14:35:54Z</time>
      </trkpt>
      <trkpt lat="43.23766" lon="-6.76481">
        <ele>937.9</ele>
        <time>2016-07-09T14:36:02Z</time>
      </trkpt>
      <trkpt lat="43.23757" lon="-6.76487">
        <ele>937.2</ele>
        <time>2016-07-09T14:36:11Z</time>
      </trkpt>
      <trkpt lat="43.23748" lon="-6.76493">
        <ele>936.5</ele>
        <time>2016-07-09T14:36:19Z</time>
      </trkpt>
      <trkpt lat="43.23739" lon="-6.76496">
        <ele>935.9</ele>
        <time>2016-07-09T14:36:30Z</time>
      </trkpt>
      <trkpt lat="43.23729" lon="-6.765">
        <ele>935.6</ele>
        <time>2016-07-09T14:36:39Z</time>
      </trkpt>
      <trkpt lat="43.2372" lon="-6.76504">
        <ele>935</ele>
        <time>2016-07-09T14:36:48Z</time>
      </trkpt>
      <trkpt lat="43.23711" lon="-6.76507">
        <ele>934.7</ele>
        <time>2016-07-09T14:36:55Z</time>
      </trkpt>
      <trkpt lat="43.23703" lon="-6.76511">
        <ele>934.1</ele>
        <time>2016-07-09T14:37:02Z</time>
      </trkpt>
      <trkpt lat="43.23693" lon="-6.76513">
        <ele>933.5</ele>
        <time>2016-07-09T14:37:09Z</time>
      </trkpt>
      <trkpt lat="43.23683" lon="-6.76515">
        <ele>933</ele>
        <time>2016-07-09T14:37:17Z</time>
      </trkpt>
      <trkpt lat="43.23673" lon="-6.76517">
        <ele>932.7</ele>
        <time>2016-07-09T14:37:25Z</time>
      </trkpt>
      <trkpt lat="43.23663" lon="-6.76519">
        <ele>932.5</ele>
        <time>2016-07-09T14:37:33Z</time>
      </trkpt>
      <trkpt lat="43.23654" lon="-6.76521">
        <ele>932.4</ele>
        <time>2016-07-09T14:37:40Z</time>
      </trkpt>
      <trkpt lat="43.23645" lon="-6.76526">
        <ele>931.7</ele>
        <time>2016-07-09T14:37:49Z</time>
      </trkpt>
      <trkpt lat="43.23635" lon="-6.7653">
        <ele>931.3</ele>
        <time>2016-07-09T14:37:58Z</time>
      </trkpt>
      <trkpt lat="43.23627" lon="-6.76534">
        <ele>931</ele>
        <time>2016-07-09T14:38:06Z</time>
      </trkpt>
      <trkpt lat="43.23617" lon="-6.76539">
        <ele>930.2</ele>
        <time>2016-07-09T14:38:14Z</time>
      </trkpt>
      <trkpt lat="43.23608" lon="-6.76543">
        <ele>929.6</ele>
        <time>2016-07-09T14:38:23Z</time>
      </trkpt>
      <trkpt lat="43.23599" lon="-6.76547">
        <ele>929</ele>
        <time>2016-07-09T14:38:33Z</time>
      </trkpt>
      <trkpt lat="43.2359" lon="-6.76551">
        <ele>928.4</ele>
        <time>2016-07-09T14:38:42Z</time>
      </trkpt>
      <trkpt lat="43.23581" lon="-6.76551">
        <ele>928.2</ele>
        <time>2016-07-09T14:38:57Z</time>
      </trkpt>
      <trkpt lat="43.23571" lon="-6.76556">
        <ele>928.2</ele>
        <time>2016-07-09T14:39:06Z</time>
      </trkpt>
      <trkpt lat="43.23563" lon="-6.76561">
        <ele>928.2</ele>
        <time>2016-07-09T14:39:15Z</time>
      </trkpt>
      <trkpt lat="43.23555" lon="-6.76567">
        <ele>927.8</ele>
        <time>2016-07-09T14:39:42Z</time>
      </trkpt>
      <trkpt lat="43.23546" lon="-6.76572">
        <ele>927.1</ele>
        <time>2016-07-09T14:40:36Z</time>
      </trkpt>
      <trkpt lat="43.23538" lon="-6.76578">
        <ele>926.8</ele>
        <time>2016-07-09T14:40:47Z</time>
      </trkpt>
      <trkpt lat="43.2353" lon="-6.76583">
        <ele>926.6</ele>
        <time>2016-07-09T14:40:56Z</time>
      </trkpt>
      <trkpt lat="43.23522" lon="-6.7659">
        <ele>926.2</ele>
        <time>2016-07-09T14:41:05Z</time>
      </trkpt>
      <trkpt lat="43.23513" lon="-6.76596">
        <ele>925.9</ele>
        <time>2016-07-09T14:41:13Z</time>
      </trkpt>
      <trkpt lat="43.23506" lon="-6.76603">
        <ele>925.5</ele>
        <time>2016-07-09T14:41:21Z</time>
      </trkpt>
      <trkpt lat="43.23499" lon="-6.76611">
        <ele>925</ele>
        <time>2016-07-09T14:41:29Z</time>
      </trkpt>
      <trkpt lat="43.23493" lon="-6.76621">
        <ele>924.4</ele>
        <time>2016-07-09T14:41:38Z</time>
      </trkpt>
      <trkpt lat="43.23487" lon="-6.76631">
        <ele>922.6</ele>
        <time>2016-07-09T14:41:56Z</time>
      </trkpt>
      <trkpt lat="43.23478" lon="-6.76636">
        <ele>922.2</ele>
        <time>2016-07-09T14:42:06Z</time>
      </trkpt>
      <trkpt lat="43.23469" lon="-6.76638">
        <ele>921.5</ele>
        <time>2016-07-09T14:42:19Z</time>
      </trkpt>
      <trkpt lat="43.2346" lon="-6.76646">
        <ele>921</ele>
        <time>2016-07-09T14:42:36Z</time>
      </trkpt>
      <trkpt lat="43.23452" lon="-6.76652">
        <ele>921.6</ele>
        <time>2016-07-09T14:43:05Z</time>
      </trkpt>
      <trkpt lat="43.23443" lon="-6.76656">
        <ele>921.4</ele>
        <time>2016-07-09T14:43:14Z</time>
      </trkpt>
      <trkpt lat="43.23435" lon="-6.76662">
        <ele>921</ele>
        <time>2016-07-09T14:43:25Z</time>
      </trkpt>
      <trkpt lat="43.23427" lon="-6.76669">
        <ele>920</ele>
        <time>2016-07-09T14:43:36Z</time>
      </trkpt>
      <trkpt lat="43.23419" lon="-6.76676">
        <ele>918.8</ele>
        <time>2016-07-09T14:43:49Z</time>
      </trkpt>
      <trkpt lat="43.23413" lon="-6.76686">
        <ele>916.8</ele>
        <time>2016-07-09T14:44:03Z</time>
      </trkpt>
      <trkpt lat="43.23419" lon="-6.76695">
        <ele>915.4</ele>
        <time>2016-07-09T14:44:47Z</time>
      </trkpt>
      <trkpt lat="43.2342" lon="-6.76682">
        <ele>915.4</ele>
        <time>2016-07-09T14:45:55Z</time>
      </trkpt>
      <trkpt lat="43.23438" lon="-6.76669">
        <ele>915</ele>
        <time>2016-07-09T14:46:20Z</time>
      </trkpt>
      <trkpt lat="43.23426" lon="-6.76672">
        <ele>915</ele>
        <time>2016-07-09T14:46:32Z</time>
      </trkpt>
      <trkpt lat="43.2343" lon="-6.76684">
        <ele>915.3</ele>
        <time>2016-07-09T14:46:43Z</time>
      </trkpt>
      <trkpt lat="43.23422" lon="-6.76699">
        <ele>915</ele>
        <time>2016-07-09T14:46:48Z</time>
      </trkpt>
      <trkpt lat="43.23417" lon="-6.7671">
        <ele>915</ele>
        <time>2016-07-09T14:47:16Z</time>
      </trkpt>
      <trkpt lat="43.23422" lon="-6.76687">
        <ele>915.7</ele>
        <time>2016-07-09T14:47:42Z</time>
      </trkpt>
      <trkpt lat="43.23413" lon="-6.76692">
        <ele>915</ele>
        <time>2016-07-09T14:47:52Z</time>
      </trkpt>
      <trkpt lat="43.23414" lon="-6.76705">
        <ele>915</ele>
        <time>2016-07-09T14:48:12Z</time>
      </trkpt>
      <trkpt lat="43.23406" lon="-6.76747">
        <ele>915</ele>
        <time>2016-07-09T14:48:32Z</time>
      </trkpt>
      <trkpt lat="43.23406" lon="-6.76747">
        <ele>915</ele>
        <time>2016-07-09T14:48:32Z</time>
      </trkpt>
      <trkpt lat="43.23406" lon="-6.76747">
        <ele>915</ele>
        <time>2016-07-09T14:48:32Z</time>
      </trkpt>
    </trkseg>
  </trk>
</gpx>